<?xml version="1.0" encoding="UTF-8" standalone="no" ?><gpx xmlns="http://www.topografix.com/GPX/1/1" xmlns:xsi="http://www.w3.org/2001/XMLSchema-instance" creator="Kurviger.de version 0.11" version="1.1" xmlns:gh="https://kurviger.de/public/schema/gpx/1.1">
<metadata><name>Kurviger</name><copyright author="OpenStreetMap contributors"/><link href="https://kurviger.de"><text>Kurviger.de GPX</text></link><time>2018-05-01T19:20:59Z</time></metadata>
<wpt lat="49.343275" lon="7.841746"><name>Schwarzbach</name><desc>dem Straßenverlauf von Schwarzbach folgen</desc></wpt>
<wpt lat="49.228871" lon="7.915537"><name>Wegpunkt 1</name><desc>Wegpunkt 1</desc></wpt>
<wpt lat="49.209311" lon="7.87947"><name>Wegpunkt 2</name><desc>Wegpunkt 2</desc></wpt>
<wpt lat="49.129383" lon="7.873939"><name>Wegpunkt 3</name><desc>Wegpunkt 3</desc></wpt>
<wpt lat="49.099715" lon="7.992879"><name>Wegpunkt 4</name><desc>Wegpunkt 4</desc></wpt>
<wpt lat="49.021682" lon="7.943431"><name>Wegpunkt 5</name><desc>Wegpunkt 5</desc></wpt>
<wpt lat="49.015794" lon="7.834858"><name>Wegpunkt 6</name><desc>Wegpunkt 6</desc></wpt>
<wpt lat="48.964483" lon="7.708906"><name>Wegpunkt 7</name><desc>Wegpunkt 7</desc></wpt>
<wpt lat="48.994322" lon="7.660306"><name>Wegpunkt 8</name><desc>Wegpunkt 8</desc></wpt>
<wpt lat="49.042562" lon="7.664941"><name>Wegpunkt 9</name><desc>Wegpunkt 9</desc></wpt>
<wpt lat="49.054824" lon="7.44797"><name>Wegpunkt 10</name><desc>Wegpunkt 10</desc></wpt>
<wpt lat="49.07306" lon="7.485571"><name>Wegpunkt 11</name><desc>Wegpunkt 11</desc></wpt>
<wpt lat="49.117045" lon="7.484257"><name>Wegpunkt 12</name><desc>Wegpunkt 12</desc></wpt>
<wpt lat="49.166303" lon="7.43127"><name>Wegpunkt 13</name><desc>Wegpunkt 13</desc></wpt>
<wpt lat="49.20313" lon="7.43491"><name>Wegpunkt 14</name><desc>Wegpunkt 14</desc></wpt>
<wpt lat="49.274624" lon="7.632435"><name>Wegpunkt 15</name><desc>Wegpunkt 15</desc></wpt>
<wpt lat="49.347459" lon="7.684775"><name>Wegpunkt 16</name><desc>Wegpunkt 16</desc></wpt>
<wpt lat="49.33801" lon="7.82438"><name>Ziel erreicht</name><desc>Ziel erreicht</desc></wpt>
<rte><name>Kurviger</name>
<rtept lat="49.343275" lon="7.841746"><name>Schwarzbach</name><desc>dem Straßenverlauf von Schwarzbach folgen</desc></rtept>
<rtept lat="49.228871" lon="7.915537"><name>Wegpunkt 1</name><desc>Wegpunkt 1</desc></rtept>
<rtept lat="49.209311" lon="7.87947"><name>Wegpunkt 2</name><desc>Wegpunkt 2</desc></rtept>
<rtept lat="49.129383" lon="7.873939"><name>Wegpunkt 3</name><desc>Wegpunkt 3</desc></rtept>
<rtept lat="49.099715" lon="7.992879"><name>Wegpunkt 4</name><desc>Wegpunkt 4</desc></rtept>
<rtept lat="49.021682" lon="7.943431"><name>Wegpunkt 5</name><desc>Wegpunkt 5</desc></rtept>
<rtept lat="49.015794" lon="7.834858"><name>Wegpunkt 6</name><desc>Wegpunkt 6</desc></rtept>
<rtept lat="48.964483" lon="7.708906"><name>Wegpunkt 7</name><desc>Wegpunkt 7</desc></rtept>
<rtept lat="48.994322" lon="7.660306"><name>Wegpunkt 8</name><desc>Wegpunkt 8</desc></rtept>
<rtept lat="49.042562" lon="7.664941"><name>Wegpunkt 9</name><desc>Wegpunkt 9</desc></rtept>
<rtept lat="49.054824" lon="7.44797"><name>Wegpunkt 10</name><desc>Wegpunkt 10</desc></rtept>
<rtept lat="49.07306" lon="7.485571"><name>Wegpunkt 11</name><desc>Wegpunkt 11</desc></rtept>
<rtept lat="49.117045" lon="7.484257"><name>Wegpunkt 12</name><desc>Wegpunkt 12</desc></rtept>
<rtept lat="49.166303" lon="7.43127"><name>Wegpunkt 13</name><desc>Wegpunkt 13</desc></rtept>
<rtept lat="49.20313" lon="7.43491"><name>Wegpunkt 14</name><desc>Wegpunkt 14</desc></rtept>
<rtept lat="49.274624" lon="7.632435"><name>Wegpunkt 15</name><desc>Wegpunkt 15</desc></rtept>
<rtept lat="49.347459" lon="7.684775"><name>Wegpunkt 16</name><desc>Wegpunkt 16</desc></rtept>
<rtept lat="49.33801" lon="7.82438"><name>Ziel erreicht</name><desc>Ziel erreicht</desc></rtept>
</rte>
<trk><name>Kurviger</name><trkseg>
<trkpt lat="49.343275" lon="7.841746"><ele>380.6</ele><time>2018-05-01T19:20:59Z</time></trkpt>
<trkpt lat="49.343459" lon="7.841945"><ele>379.0</ele><time>2018-05-01T19:21:02Z</time></trkpt>
<trkpt lat="49.343986" lon="7.842628"><ele>379.0</ele><time>2018-05-01T19:21:12Z</time></trkpt>
<trkpt lat="49.345148" lon="7.843833"><ele>372.8</ele><time>2018-05-01T19:21:32Z</time></trkpt>
<trkpt lat="49.345922" lon="7.844184"><ele>374.0</ele><time>2018-05-01T19:21:43Z</time></trkpt>
<trkpt lat="49.346702" lon="7.844643"><ele>385.8</ele><time>2018-05-01T19:21:55Z</time></trkpt>
<trkpt lat="49.346779" lon="7.84467"><ele>385.8</ele><time>2018-05-01T19:21:56Z</time></trkpt>
<trkpt lat="49.346856" lon="7.844668"><ele>385.8</ele><time>2018-05-01T19:21:57Z</time></trkpt>
<trkpt lat="49.347023" lon="7.844584"><ele>385.8</ele><time>2018-05-01T19:22:00Z</time></trkpt>
<trkpt lat="49.346926" lon="7.844439"><ele>385.8</ele><time>2018-05-01T19:22:00Z</time></trkpt>
<trkpt lat="49.346592" lon="7.844204"><ele>374.0</ele><time>2018-05-01T19:22:03Z</time></trkpt>
<trkpt lat="49.345898" lon="7.843805"><ele>382.0</ele><time>2018-05-01T19:22:07Z</time></trkpt>
<trkpt lat="49.345431" lon="7.843591"><ele>372.8</ele><time>2018-05-01T19:22:09Z</time></trkpt>
<trkpt lat="49.345184" lon="7.843447"><ele>372.8</ele><time>2018-05-01T19:22:11Z</time></trkpt>
<trkpt lat="49.344629" lon="7.842954"><ele>376.2</ele><time>2018-05-01T19:22:14Z</time></trkpt>
<trkpt lat="49.344222" lon="7.842497"><ele>379.6</ele><time>2018-05-01T19:22:17Z</time></trkpt>
<trkpt lat="49.344107" lon="7.842328"><ele>379.0</ele><time>2018-05-01T19:22:18Z</time></trkpt>
<trkpt lat="49.343562" lon="7.841319"><ele>384.8</ele><time>2018-05-01T19:22:23Z</time></trkpt>
<trkpt lat="49.343276" lon="7.840995"><ele>382.2</ele><time>2018-05-01T19:22:25Z</time></trkpt>
<trkpt lat="49.342993" lon="7.840619"><ele>391.8</ele><time>2018-05-01T19:22:27Z</time></trkpt>
<trkpt lat="49.342803" lon="7.840333"><ele>391.8</ele><time>2018-05-01T19:22:28Z</time></trkpt>
<trkpt lat="49.342618" lon="7.839987"><ele>400.4</ele><time>2018-05-01T19:22:30Z</time></trkpt>
<trkpt lat="49.342427" lon="7.839511"><ele>391.4</ele><time>2018-05-01T19:22:32Z</time></trkpt>
<trkpt lat="49.342157" lon="7.838544"><ele>400.4</ele><time>2018-05-01T19:22:36Z</time></trkpt>
<trkpt lat="49.342045" lon="7.838058"><ele>411.6</ele><time>2018-05-01T19:22:38Z</time></trkpt>
<trkpt lat="49.341954" lon="7.837424"><ele>426.0</ele><time>2018-05-01T19:22:40Z</time></trkpt>
<trkpt lat="49.341788" lon="7.836596"><ele>441.4</ele><time>2018-05-01T19:22:44Z</time></trkpt>
<trkpt lat="49.341456" lon="7.835362"><ele>423.8</ele><time>2018-05-01T19:22:49Z</time></trkpt>
<trkpt lat="49.341307" lon="7.834533"><ele>433.2</ele><time>2018-05-01T19:22:52Z</time></trkpt>
<trkpt lat="49.341119" lon="7.833674"><ele>443.8</ele><time>2018-05-01T19:22:55Z</time></trkpt>
<trkpt lat="49.341086" lon="7.833468"><ele>443.8</ele><time>2018-05-01T19:22:56Z</time></trkpt>
<trkpt lat="49.341035" lon="7.832775"><ele>453.4</ele><time>2018-05-01T19:22:58Z</time></trkpt>
<trkpt lat="49.340879" lon="7.832061"><ele>460.6</ele><time>2018-05-01T19:23:01Z</time></trkpt>
<trkpt lat="49.340822" lon="7.831118"><ele>440.4</ele><time>2018-05-01T19:23:05Z</time></trkpt>
<trkpt lat="49.340705" lon="7.830569"><ele>454.2</ele><time>2018-05-01T19:23:07Z</time></trkpt>
<trkpt lat="49.340592" lon="7.830308"><ele>454.2</ele><time>2018-05-01T19:23:08Z</time></trkpt>
<trkpt lat="49.340331" lon="7.829818"><ele>468.0</ele><time>2018-05-01T19:23:11Z</time></trkpt>
<trkpt lat="49.339888" lon="7.829278"><ele>446.4</ele><time>2018-05-01T19:23:14Z</time></trkpt>
<trkpt lat="49.339752" lon="7.829057"><ele>463.4</ele><time>2018-05-01T19:23:15Z</time></trkpt>
<trkpt lat="49.339458" lon="7.828315"><ele>476.0</ele><time>2018-05-01T19:23:18Z</time></trkpt>
<trkpt lat="49.339384" lon="7.828184"><ele>476.0</ele><time>2018-05-01T19:23:19Z</time></trkpt>
<trkpt lat="49.339024" lon="7.827724"><ele>464.6</ele><time>2018-05-01T19:23:22Z</time></trkpt>
<trkpt lat="49.338654" lon="7.827453"><ele>474.6</ele><time>2018-05-01T19:23:24Z</time></trkpt>
<trkpt lat="49.338457" lon="7.827346"><ele>474.6</ele><time>2018-05-01T19:23:25Z</time></trkpt>
<trkpt lat="49.338243" lon="7.827281"><ele>469.8</ele><time>2018-05-01T19:23:26Z</time></trkpt>
<trkpt lat="49.337334" lon="7.827179"><ele>468.4</ele><time>2018-05-01T19:23:32Z</time></trkpt>
<trkpt lat="49.33707" lon="7.827126"><ele>468.4</ele><time>2018-05-01T19:23:33Z</time></trkpt>
<trkpt lat="49.336597" lon="7.826959"><ele>469.0</ele><time>2018-05-01T19:23:36Z</time></trkpt>
<trkpt lat="49.336337" lon="7.826895"><ele>469.0</ele><time>2018-05-01T19:23:37Z</time></trkpt>
<trkpt lat="49.335589" lon="7.826982"><ele>474.0</ele><time>2018-05-01T19:23:43Z</time></trkpt>
<trkpt lat="49.335515" lon="7.82706"><ele>474.0</ele><time>2018-05-01T19:23:44Z</time></trkpt>
<trkpt lat="49.33459" lon="7.82751"><ele>482.6</ele><time>2018-05-01T19:23:55Z</time></trkpt>
<trkpt lat="49.334081" lon="7.828181"><ele>490.2</ele><time>2018-05-01T19:24:00Z</time></trkpt>
<trkpt lat="49.333647" lon="7.828647"><ele>488.0</ele><time>2018-05-01T19:24:04Z</time></trkpt>
<trkpt lat="49.333052" lon="7.829243"><ele>491.4</ele><time>2018-05-01T19:24:10Z</time></trkpt>
<trkpt lat="49.332835" lon="7.829444"><ele>491.4</ele><time>2018-05-01T19:24:12Z</time></trkpt>
<trkpt lat="49.332745" lon="7.829505"><ele>491.4</ele><time>2018-05-01T19:24:13Z</time></trkpt>
<trkpt lat="49.33252" lon="7.829566"><ele>491.4</ele><time>2018-05-01T19:24:14Z</time></trkpt>
<trkpt lat="49.332216" lon="7.829544"><ele>494.6</ele><time>2018-05-01T19:24:17Z</time></trkpt>
<trkpt lat="49.332097" lon="7.829488"><ele>494.6</ele><time>2018-05-01T19:24:18Z</time></trkpt>
<trkpt lat="49.331967" lon="7.829391"><ele>494.6</ele><time>2018-05-01T19:24:19Z</time></trkpt>
<trkpt lat="49.331838" lon="7.829242"><ele>494.6</ele><time>2018-05-01T19:24:20Z</time></trkpt>
<trkpt lat="49.330968" lon="7.828083"><ele>499.8</ele><time>2018-05-01T19:24:29Z</time></trkpt>
<trkpt lat="49.330762" lon="7.827832"><ele>505.6</ele><time>2018-05-01T19:24:31Z</time></trkpt>
<trkpt lat="49.330646" lon="7.827726"><ele>505.6</ele><time>2018-05-01T19:24:32Z</time></trkpt>
<trkpt lat="49.330406" lon="7.827631"><ele>505.6</ele><time>2018-05-01T19:24:34Z</time></trkpt>
<trkpt lat="49.330207" lon="7.827655"><ele>505.6</ele><time>2018-05-01T19:24:36Z</time></trkpt>
<trkpt lat="49.330045" lon="7.827743"><ele>505.6</ele><time>2018-05-01T19:24:37Z</time></trkpt>
<trkpt lat="49.329136" lon="7.828524"><ele>518.6</ele><time>2018-05-01T19:24:45Z</time></trkpt>
<trkpt lat="49.328783" lon="7.828874"><ele>518.6</ele><time>2018-05-01T19:24:49Z</time></trkpt>
<trkpt lat="49.327458" lon="7.830642"><ele>527.4</ele><time>2018-05-01T19:25:03Z</time></trkpt>
<trkpt lat="49.326345" lon="7.831841"><ele>526.2</ele><time>2018-05-01T19:25:13Z</time></trkpt>
<trkpt lat="49.325724" lon="7.832476"><ele>529.4</ele><time>2018-05-01T19:25:19Z</time></trkpt>
<trkpt lat="49.324563" lon="7.833495"><ele>532.8</ele><time>2018-05-01T19:25:30Z</time></trkpt>
<trkpt lat="49.323699" lon="7.83431"><ele>533.0</ele><time>2018-05-01T19:25:38Z</time></trkpt>
<trkpt lat="49.323358" lon="7.834568"><ele>533.0</ele><time>2018-05-01T19:25:41Z</time></trkpt>
<trkpt lat="49.323102" lon="7.834733"><ele>533.0</ele><time>2018-05-01T19:25:43Z</time></trkpt>
<trkpt lat="49.32291" lon="7.834825"><ele>533.0</ele><time>2018-05-01T19:25:44Z</time></trkpt>
<trkpt lat="49.322475" lon="7.835028"><ele>541.8</ele><time>2018-05-01T19:25:48Z</time></trkpt>
<trkpt lat="49.321834" lon="7.835284"><ele>541.8</ele><time>2018-05-01T19:25:53Z</time></trkpt>
<trkpt lat="49.321393" lon="7.835449"><ele>542.4</ele><time>2018-05-01T19:25:57Z</time></trkpt>
<trkpt lat="49.319698" lon="7.835963"><ele>542.4</ele><time>2018-05-01T19:26:10Z</time></trkpt>
<trkpt lat="49.319264" lon="7.836123"><ele>542.4</ele><time>2018-05-01T19:26:14Z</time></trkpt>
<trkpt lat="49.318955" lon="7.836275"><ele>540.6</ele><time>2018-05-01T19:26:17Z</time></trkpt>
<trkpt lat="49.316465" lon="7.837902"><ele>541.2</ele><time>2018-05-01T19:26:38Z</time></trkpt>
<trkpt lat="49.315219" lon="7.838778"><ele>541.2</ele><time>2018-05-01T19:26:49Z</time></trkpt>
<trkpt lat="49.314965" lon="7.838905"><ele>547.4</ele><time>2018-05-01T19:26:51Z</time></trkpt>
<trkpt lat="49.314748" lon="7.838917"><ele>547.4</ele><time>2018-05-01T19:26:52Z</time></trkpt>
<trkpt lat="49.31458" lon="7.838872"><ele>547.4</ele><time>2018-05-01T19:26:54Z</time></trkpt>
<trkpt lat="49.31438" lon="7.838774"><ele>547.4</ele><time>2018-05-01T19:26:55Z</time></trkpt>
<trkpt lat="49.31426" lon="7.83868"><ele>547.4</ele><time>2018-05-01T19:26:56Z</time></trkpt>
<trkpt lat="49.314104" lon="7.838465"><ele>546.8</ele><time>2018-05-01T19:26:58Z</time></trkpt>
<trkpt lat="49.313985" lon="7.838223"><ele>548.6</ele><time>2018-05-01T19:27:00Z</time></trkpt>
<trkpt lat="49.313577" lon="7.837234"><ele>547.8</ele><time>2018-05-01T19:27:06Z</time></trkpt>
<trkpt lat="49.313435" lon="7.837008"><ele>547.8</ele><time>2018-05-01T19:27:07Z</time></trkpt>
<trkpt lat="49.313269" lon="7.836847"><ele>544.2</ele><time>2018-05-01T19:27:09Z</time></trkpt>
<trkpt lat="49.313016" lon="7.836699"><ele>544.2</ele><time>2018-05-01T19:27:11Z</time></trkpt>
<trkpt lat="49.312623" lon="7.836642"><ele>549.2</ele><time>2018-05-01T19:27:14Z</time></trkpt>
<trkpt lat="49.312379" lon="7.836578"><ele>546.2</ele><time>2018-05-01T19:27:16Z</time></trkpt>
<trkpt lat="49.311937" lon="7.836324"><ele>546.2</ele><time>2018-05-01T19:27:20Z</time></trkpt>
<trkpt lat="49.311635" lon="7.836116"><ele>542.8</ele><time>2018-05-01T19:27:22Z</time></trkpt>
<trkpt lat="49.311528" lon="7.836096"><ele>542.8</ele><time>2018-05-01T19:27:23Z</time></trkpt>
<trkpt lat="49.31146" lon="7.836149"><ele>542.8</ele><time>2018-05-01T19:27:24Z</time></trkpt>
<trkpt lat="49.311106" lon="7.836707"><ele>538.2</ele><time>2018-05-01T19:27:28Z</time></trkpt>
<trkpt lat="49.311002" lon="7.83719"><ele>538.2</ele><time>2018-05-01T19:27:30Z</time></trkpt>
<trkpt lat="49.311044" lon="7.837582"><ele>534.4</ele><time>2018-05-01T19:27:33Z</time></trkpt>
<trkpt lat="49.311187" lon="7.838356"><ele>531.6</ele><time>2018-05-01T19:27:37Z</time></trkpt>
<trkpt lat="49.311204" lon="7.838727"><ele>531.6</ele><time>2018-05-01T19:27:39Z</time></trkpt>
<trkpt lat="49.311177" lon="7.839075"><ele>531.6</ele><time>2018-05-01T19:27:40Z</time></trkpt>
<trkpt lat="49.311042" lon="7.83965"><ele>530.4</ele><time>2018-05-01T19:27:44Z</time></trkpt>
<trkpt lat="49.310867" lon="7.84052"><ele>530.6</ele><time>2018-05-01T19:27:48Z</time></trkpt>
<trkpt lat="49.310835" lon="7.840911"><ele>528.6</ele><time>2018-05-01T19:27:50Z</time></trkpt>
<trkpt lat="49.31084" lon="7.841186"><ele>528.6</ele><time>2018-05-01T19:27:52Z</time></trkpt>
<trkpt lat="49.310859" lon="7.841417"><ele>528.6</ele><time>2018-05-01T19:27:53Z</time></trkpt>
<trkpt lat="49.311172" lon="7.843134"><ele>525.8</ele><time>2018-05-01T19:28:02Z</time></trkpt>
<trkpt lat="49.311207" lon="7.84349"><ele>527.6</ele><time>2018-05-01T19:28:04Z</time></trkpt>
<trkpt lat="49.31121" lon="7.843681"><ele>527.6</ele><time>2018-05-01T19:28:05Z</time></trkpt>
<trkpt lat="49.311187" lon="7.844011"><ele>527.6</ele><time>2018-05-01T19:28:06Z</time></trkpt>
<trkpt lat="49.311125" lon="7.844321"><ele>526.6</ele><time>2018-05-01T19:28:08Z</time></trkpt>
<trkpt lat="49.310698" lon="7.84583"><ele>541.6</ele><time>2018-05-01T19:28:17Z</time></trkpt>
<trkpt lat="49.31066" lon="7.846242"><ele>540.6</ele><time>2018-05-01T19:28:19Z</time></trkpt>
<trkpt lat="49.310673" lon="7.846462"><ele>540.6</ele><time>2018-05-01T19:28:20Z</time></trkpt>
<trkpt lat="49.310721" lon="7.846623"><ele>540.6</ele><time>2018-05-01T19:28:21Z</time></trkpt>
<trkpt lat="49.310815" lon="7.846801"><ele>543.8</ele><time>2018-05-01T19:28:22Z</time></trkpt>
<trkpt lat="49.311819" lon="7.848197"><ele>522.4</ele><time>2018-05-01T19:28:33Z</time></trkpt>
<trkpt lat="49.312016" lon="7.848537"><ele>536.4</ele><time>2018-05-01T19:28:35Z</time></trkpt>
<trkpt lat="49.312638" lon="7.850452"><ele>534.2</ele><time>2018-05-01T19:28:46Z</time></trkpt>
<trkpt lat="49.314142" lon="7.854121"><ele>556.2</ele><time>2018-05-01T19:29:09Z</time></trkpt>
<trkpt lat="49.314533" lon="7.855327"><ele>558.6</ele><time>2018-05-01T19:29:15Z</time></trkpt>
<trkpt lat="49.314701" lon="7.85591"><ele>561.4</ele><time>2018-05-01T19:29:19Z</time></trkpt>
<trkpt lat="49.3152" lon="7.857985"><ele>566.0</ele><time>2018-05-01T19:29:30Z</time></trkpt>
<trkpt lat="49.315236" lon="7.858266"><ele>566.0</ele><time>2018-05-01T19:29:32Z</time></trkpt>
<trkpt lat="49.31524" lon="7.858495"><ele>564.2</ele><time>2018-05-01T19:29:33Z</time></trkpt>
<trkpt lat="49.315235" lon="7.858674"><ele>564.2</ele><time>2018-05-01T19:29:34Z</time></trkpt>
<trkpt lat="49.315207" lon="7.85884"><ele>564.2</ele><time>2018-05-01T19:29:35Z</time></trkpt>
<trkpt lat="49.315147" lon="7.859111"><ele>564.2</ele><time>2018-05-01T19:29:36Z</time></trkpt>
<trkpt lat="49.315051" lon="7.859333"><ele>564.8</ele><time>2018-05-01T19:29:37Z</time></trkpt>
<trkpt lat="49.314913" lon="7.859558"><ele>551.0</ele><time>2018-05-01T19:29:39Z</time></trkpt>
<trkpt lat="49.31475" lon="7.85972"><ele>551.0</ele><time>2018-05-01T19:29:41Z</time></trkpt>
<trkpt lat="49.313785" lon="7.860444"><ele>545.2</ele><time>2018-05-01T19:29:49Z</time></trkpt>
<trkpt lat="49.313593" lon="7.860643"><ele>545.2</ele><time>2018-05-01T19:29:51Z</time></trkpt>
<trkpt lat="49.313448" lon="7.860851"><ele>551.4</ele><time>2018-05-01T19:29:53Z</time></trkpt>
<trkpt lat="49.312955" lon="7.861741"><ele>549.8</ele><time>2018-05-01T19:29:59Z</time></trkpt>
<trkpt lat="49.312789" lon="7.861997"><ele>549.8</ele><time>2018-05-01T19:30:01Z</time></trkpt>
<trkpt lat="49.311353" lon="7.863826"><ele>543.4</ele><time>2018-05-01T19:30:15Z</time></trkpt>
<trkpt lat="49.311146" lon="7.864136"><ele>543.4</ele><time>2018-05-01T19:30:17Z</time></trkpt>
<trkpt lat="49.311008" lon="7.864487"><ele>541.0</ele><time>2018-05-01T19:30:20Z</time></trkpt>
<trkpt lat="49.31087" lon="7.865042"><ele>538.8</ele><time>2018-05-01T19:30:23Z</time></trkpt>
<trkpt lat="49.310665" lon="7.865987"><ele>529.4</ele><time>2018-05-01T19:30:28Z</time></trkpt>
<trkpt lat="49.310596" lon="7.866209"><ele>529.4</ele><time>2018-05-01T19:30:29Z</time></trkpt>
<trkpt lat="49.310459" lon="7.866485"><ele>529.4</ele><time>2018-05-01T19:30:31Z</time></trkpt>
<trkpt lat="49.310387" lon="7.866575"><ele>529.4</ele><time>2018-05-01T19:30:32Z</time></trkpt>
<trkpt lat="49.310262" lon="7.866681"><ele>528.8</ele><time>2018-05-01T19:30:33Z</time></trkpt>
<trkpt lat="49.309812" lon="7.866948"><ele>518.4</ele><time>2018-05-01T19:30:37Z</time></trkpt>
<trkpt lat="49.309671" lon="7.867061"><ele>518.4</ele><time>2018-05-01T19:30:38Z</time></trkpt>
<trkpt lat="49.309338" lon="7.867388"><ele>518.4</ele><time>2018-05-01T19:30:41Z</time></trkpt>
<trkpt lat="49.309148" lon="7.867521"><ele>511.6</ele><time>2018-05-01T19:30:43Z</time></trkpt>
<trkpt lat="49.308641" lon="7.86763"><ele>511.6</ele><time>2018-05-01T19:30:47Z</time></trkpt>
<trkpt lat="49.308459" lon="7.867698"><ele>511.6</ele><time>2018-05-01T19:30:48Z</time></trkpt>
<trkpt lat="49.308195" lon="7.867845"><ele>504.8</ele><time>2018-05-01T19:30:50Z</time></trkpt>
<trkpt lat="49.307992" lon="7.867996"><ele>504.8</ele><time>2018-05-01T19:30:52Z</time></trkpt>
<trkpt lat="49.307583" lon="7.868494"><ele>508.4</ele><time>2018-05-01T19:30:56Z</time></trkpt>
<trkpt lat="49.307383" lon="7.868784"><ele>496.0</ele><time>2018-05-01T19:30:59Z</time></trkpt>
<trkpt lat="49.307213" lon="7.869076"><ele>496.0</ele><time>2018-05-01T19:31:01Z</time></trkpt>
<trkpt lat="49.306993" lon="7.869559"><ele>497.6</ele><time>2018-05-01T19:31:04Z</time></trkpt>
<trkpt lat="49.306794" lon="7.870137"><ele>503.2</ele><time>2018-05-01T19:31:07Z</time></trkpt>
<trkpt lat="49.306691" lon="7.870294"><ele>503.2</ele><time>2018-05-01T19:31:08Z</time></trkpt>
<trkpt lat="49.306554" lon="7.870448"><ele>482.2</ele><time>2018-05-01T19:31:10Z</time></trkpt>
<trkpt lat="49.306184" lon="7.870728"><ele>482.2</ele><time>2018-05-01T19:31:13Z</time></trkpt>
<trkpt lat="49.306061" lon="7.870855"><ele>489.6</ele><time>2018-05-01T19:31:15Z</time></trkpt>
<trkpt lat="49.305201" lon="7.871989"><ele>481.6</ele><time>2018-05-01T19:31:24Z</time></trkpt>
<trkpt lat="49.304552" lon="7.872544"><ele>472.8</ele><time>2018-05-01T19:31:30Z</time></trkpt>
<trkpt lat="49.30443" lon="7.872708"><ele>472.8</ele><time>2018-05-01T19:31:31Z</time></trkpt>
<trkpt lat="49.304309" lon="7.872931"><ele>472.8</ele><time>2018-05-01T19:31:32Z</time></trkpt>
<trkpt lat="49.304118" lon="7.873505"><ele>463.2</ele><time>2018-05-01T19:31:36Z</time></trkpt>
<trkpt lat="49.303929" lon="7.873885"><ele>463.2</ele><time>2018-05-01T19:31:38Z</time></trkpt>
<trkpt lat="49.303842" lon="7.873988"><ele>463.2</ele><time>2018-05-01T19:31:39Z</time></trkpt>
<trkpt lat="49.303741" lon="7.874038"><ele>463.2</ele><time>2018-05-01T19:31:40Z</time></trkpt>
<trkpt lat="49.303534" lon="7.874062"><ele>463.2</ele><time>2018-05-01T19:31:41Z</time></trkpt>
<trkpt lat="49.303305" lon="7.873976"><ele>457.0</ele><time>2018-05-01T19:31:43Z</time></trkpt>
<trkpt lat="49.303204" lon="7.873903"><ele>457.0</ele><time>2018-05-01T19:31:44Z</time></trkpt>
<trkpt lat="49.303087" lon="7.873763"><ele>457.0</ele><time>2018-05-01T19:31:45Z</time></trkpt>
<trkpt lat="49.302987" lon="7.873571"><ele>457.0</ele><time>2018-05-01T19:31:47Z</time></trkpt>
<trkpt lat="49.302513" lon="7.872444"><ele>453.8</ele><time>2018-05-01T19:31:54Z</time></trkpt>
<trkpt lat="49.302376" lon="7.872236"><ele>446.6</ele><time>2018-05-01T19:31:55Z</time></trkpt>
<trkpt lat="49.302076" lon="7.871873"><ele>446.6</ele><time>2018-05-01T19:31:58Z</time></trkpt>
<trkpt lat="49.301873" lon="7.871701"><ele>446.6</ele><time>2018-05-01T19:32:00Z</time></trkpt>
<trkpt lat="49.301481" lon="7.871451"><ele>432.2</ele><time>2018-05-01T19:32:03Z</time></trkpt>
<trkpt lat="49.30131" lon="7.871396"><ele>432.2</ele><time>2018-05-01T19:32:05Z</time></trkpt>
<trkpt lat="49.30115" lon="7.871396"><ele>432.2</ele><time>2018-05-01T19:32:06Z</time></trkpt>
<trkpt lat="49.300834" lon="7.871505"><ele>432.2</ele><time>2018-05-01T19:32:09Z</time></trkpt>
<trkpt lat="49.300515" lon="7.871685"><ele>432.4</ele><time>2018-05-01T19:32:11Z</time></trkpt>
<trkpt lat="49.30039" lon="7.871779"><ele>432.4</ele><time>2018-05-01T19:32:12Z</time></trkpt>
<trkpt lat="49.299861" lon="7.872353"><ele>424.4</ele><time>2018-05-01T19:32:18Z</time></trkpt>
<trkpt lat="49.299718" lon="7.872407"><ele>424.4</ele><time>2018-05-01T19:32:19Z</time></trkpt>
<trkpt lat="49.299604" lon="7.872396"><ele>424.4</ele><time>2018-05-01T19:32:20Z</time></trkpt>
<trkpt lat="49.299515" lon="7.872367"><ele>424.4</ele><time>2018-05-01T19:32:20Z</time></trkpt>
<trkpt lat="49.299389" lon="7.872287"><ele>424.4</ele><time>2018-05-01T19:32:21Z</time></trkpt>
<trkpt lat="49.29887" lon="7.871867"><ele>421.0</ele><time>2018-05-01T19:32:26Z</time></trkpt>
<trkpt lat="49.298658" lon="7.871723"><ele>421.0</ele><time>2018-05-01T19:32:28Z</time></trkpt>
<trkpt lat="49.298241" lon="7.871499"><ele>412.8</ele><time>2018-05-01T19:32:31Z</time></trkpt>
<trkpt lat="49.297504" lon="7.871211"><ele>412.8</ele><time>2018-05-01T19:32:37Z</time></trkpt>
<trkpt lat="49.297316" lon="7.871205"><ele>410.2</ele><time>2018-05-01T19:32:39Z</time></trkpt>
<trkpt lat="49.296938" lon="7.871317"><ele>410.2</ele><time>2018-05-01T19:32:42Z</time></trkpt>
<trkpt lat="49.296774" lon="7.871296"><ele>410.2</ele><time>2018-05-01T19:32:43Z</time></trkpt>
<trkpt lat="49.296607" lon="7.871225"><ele>409.0</ele><time>2018-05-01T19:32:45Z</time></trkpt>
<trkpt lat="49.296253" lon="7.870969"><ele>409.0</ele><time>2018-05-01T19:32:48Z</time></trkpt>
<trkpt lat="49.296135" lon="7.870851"><ele>409.0</ele><time>2018-05-01T19:32:49Z</time></trkpt>
<trkpt lat="49.295708" lon="7.870294"><ele>409.6</ele><time>2018-05-01T19:32:53Z</time></trkpt>
<trkpt lat="49.295291" lon="7.869934"><ele>424.2</ele><time>2018-05-01T19:32:57Z</time></trkpt>
<trkpt lat="49.294862" lon="7.869604"><ele>408.8</ele><time>2018-05-01T19:33:01Z</time></trkpt>
<trkpt lat="49.293842" lon="7.869038"><ele>407.4</ele><time>2018-05-01T19:33:09Z</time></trkpt>
<trkpt lat="49.293484" lon="7.868984"><ele>407.4</ele><time>2018-05-01T19:33:12Z</time></trkpt>
<trkpt lat="49.293211" lon="7.868976"><ele>395.0</ele><time>2018-05-01T19:33:15Z</time></trkpt>
<trkpt lat="49.291449" lon="7.869523"><ele>384.8</ele><time>2018-05-01T19:33:29Z</time></trkpt>
<trkpt lat="49.291106" lon="7.869545"><ele>384.8</ele><time>2018-05-01T19:33:31Z</time></trkpt>
<trkpt lat="49.290239" lon="7.869541"><ele>379.8</ele><time>2018-05-01T19:33:38Z</time></trkpt>
<trkpt lat="49.289879" lon="7.869442"><ele>373.4</ele><time>2018-05-01T19:33:41Z</time></trkpt>
<trkpt lat="49.289126" lon="7.869163"><ele>371.6</ele><time>2018-05-01T19:33:47Z</time></trkpt>
<trkpt lat="49.288918" lon="7.869067"><ele>371.6</ele><time>2018-05-01T19:33:49Z</time></trkpt>
<trkpt lat="49.28879" lon="7.869038"><ele>371.6</ele><time>2018-05-01T19:33:50Z</time></trkpt>
<trkpt lat="49.288507" lon="7.869046"><ele>371.6</ele><time>2018-05-01T19:33:52Z</time></trkpt>
<trkpt lat="49.288339" lon="7.869082"><ele>371.6</ele><time>2018-05-01T19:33:54Z</time></trkpt>
<trkpt lat="49.288222" lon="7.869145"><ele>373.2</ele><time>2018-05-01T19:33:55Z</time></trkpt>
<trkpt lat="49.287738" lon="7.869537"><ele>358.8</ele><time>2018-05-01T19:33:59Z</time></trkpt>
<trkpt lat="49.287428" lon="7.869888"><ele>361.4</ele><time>2018-05-01T19:34:02Z</time></trkpt>
<trkpt lat="49.287249" lon="7.870054"><ele>357.6</ele><time>2018-05-01T19:34:04Z</time></trkpt>
<trkpt lat="49.286876" lon="7.870194"><ele>357.6</ele><time>2018-05-01T19:34:07Z</time></trkpt>
<trkpt lat="49.286441" lon="7.870248"><ele>357.4</ele><time>2018-05-01T19:34:10Z</time></trkpt>
<trkpt lat="49.285477" lon="7.870118"><ele>352.6</ele><time>2018-05-01T19:34:18Z</time></trkpt>
<trkpt lat="49.285382" lon="7.870121"><ele>352.6</ele><time>2018-05-01T19:34:19Z</time></trkpt>
<trkpt lat="49.285288" lon="7.870154"><ele>352.6</ele><time>2018-05-01T19:34:19Z</time></trkpt>
<trkpt lat="49.285205" lon="7.87021"><ele>352.6</ele><time>2018-05-01T19:34:20Z</time></trkpt>
<trkpt lat="49.285139" lon="7.870294"><ele>352.6</ele><time>2018-05-01T19:34:21Z</time></trkpt>
<trkpt lat="49.284979" lon="7.870548"><ele>342.6</ele><time>2018-05-01T19:34:23Z</time></trkpt>
<trkpt lat="49.284686" lon="7.871217"><ele>350.4</ele><time>2018-05-01T19:34:27Z</time></trkpt>
<trkpt lat="49.284354" lon="7.872274"><ele>364.8</ele><time>2018-05-01T19:34:33Z</time></trkpt>
<trkpt lat="49.284026" lon="7.873088"><ele>360.2</ele><time>2018-05-01T19:34:38Z</time></trkpt>
<trkpt lat="49.283953" lon="7.873222"><ele>360.2</ele><time>2018-05-01T19:34:39Z</time></trkpt>
<trkpt lat="49.283179" lon="7.874023"><ele>357.0</ele><time>2018-05-01T19:34:46Z</time></trkpt>
<trkpt lat="49.282981" lon="7.87431"><ele>349.2</ele><time>2018-05-01T19:34:48Z</time></trkpt>
<trkpt lat="49.282822" lon="7.874648"><ele>349.2</ele><time>2018-05-01T19:34:50Z</time></trkpt>
<trkpt lat="49.282606" lon="7.874976"><ele>349.2</ele><time>2018-05-01T19:34:53Z</time></trkpt>
<trkpt lat="49.28235" lon="7.875263"><ele>344.8</ele><time>2018-05-01T19:34:55Z</time></trkpt>
<trkpt lat="49.282191" lon="7.87539"><ele>344.8</ele><time>2018-05-01T19:34:57Z</time></trkpt>
<trkpt lat="49.282007" lon="7.875459"><ele>344.8</ele><time>2018-05-01T19:34:58Z</time></trkpt>
<trkpt lat="49.281824" lon="7.875488"><ele>344.8</ele><time>2018-05-01T19:35:00Z</time></trkpt>
<trkpt lat="49.281603" lon="7.875413"><ele>345.4</ele><time>2018-05-01T19:35:01Z</time></trkpt>
<trkpt lat="49.28137" lon="7.875278"><ele>345.4</ele><time>2018-05-01T19:35:03Z</time></trkpt>
<trkpt lat="49.281005" lon="7.874901"><ele>351.0</ele><time>2018-05-01T19:35:07Z</time></trkpt>
<trkpt lat="49.280504" lon="7.874606"><ele>348.6</ele><time>2018-05-01T19:35:11Z</time></trkpt>
<trkpt lat="49.280382" lon="7.874553"><ele>348.6</ele><time>2018-05-01T19:35:12Z</time></trkpt>
<trkpt lat="49.280237" lon="7.874522"><ele>348.6</ele><time>2018-05-01T19:35:13Z</time></trkpt>
<trkpt lat="49.279914" lon="7.874504"><ele>345.4</ele><time>2018-05-01T19:35:16Z</time></trkpt>
<trkpt lat="49.279759" lon="7.87452"><ele>345.4</ele><time>2018-05-01T19:35:17Z</time></trkpt>
<trkpt lat="49.279065" lon="7.874886"><ele>348.4</ele><time>2018-05-01T19:35:23Z</time></trkpt>
<trkpt lat="49.278774" lon="7.875078"><ele>339.6</ele><time>2018-05-01T19:35:25Z</time></trkpt>
<trkpt lat="49.278507" lon="7.875369"><ele>339.6</ele><time>2018-05-01T19:35:28Z</time></trkpt>
<trkpt lat="49.277638" lon="7.876744"><ele>344.8</ele><time>2018-05-01T19:35:38Z</time></trkpt>
<trkpt lat="49.277335" lon="7.877095"><ele>337.0</ele><time>2018-05-01T19:35:41Z</time></trkpt>
<trkpt lat="49.277188" lon="7.877307"><ele>337.0</ele><time>2018-05-01T19:35:42Z</time></trkpt>
<trkpt lat="49.276997" lon="7.877804"><ele>338.0</ele><time>2018-05-01T19:35:45Z</time></trkpt>
<trkpt lat="49.276868" lon="7.878251"><ele>338.0</ele><time>2018-05-01T19:35:48Z</time></trkpt>
<trkpt lat="49.276801" lon="7.878733"><ele>340.2</ele><time>2018-05-01T19:35:50Z</time></trkpt>
<trkpt lat="49.276775" lon="7.879067"><ele>340.2</ele><time>2018-05-01T19:35:52Z</time></trkpt>
<trkpt lat="49.276773" lon="7.879389"><ele>341.6</ele><time>2018-05-01T19:35:54Z</time></trkpt>
<trkpt lat="49.276829" lon="7.879807"><ele>341.6</ele><time>2018-05-01T19:35:56Z</time></trkpt>
<trkpt lat="49.277012" lon="7.880687"><ele>336.2</ele><time>2018-05-01T19:36:01Z</time></trkpt>
<trkpt lat="49.277019" lon="7.88084"><ele>333.6</ele><time>2018-05-01T19:36:02Z</time></trkpt>
<trkpt lat="49.276989" lon="7.880979"><ele>333.6</ele><time>2018-05-01T19:36:02Z</time></trkpt>
<trkpt lat="49.276942" lon="7.881101"><ele>333.6</ele><time>2018-05-01T19:36:03Z</time></trkpt>
<trkpt lat="49.276871" lon="7.881162"><ele>333.6</ele><time>2018-05-01T19:36:04Z</time></trkpt>
<trkpt lat="49.276774" lon="7.881209"><ele>333.6</ele><time>2018-05-01T19:36:04Z</time></trkpt>
<trkpt lat="49.276603" lon="7.881163"><ele>321.6</ele><time>2018-05-01T19:36:06Z</time></trkpt>
<trkpt lat="49.276212" lon="7.880958"><ele>321.6</ele><time>2018-05-01T19:36:09Z</time></trkpt>
<trkpt lat="49.2761" lon="7.880943"><ele>321.6</ele><time>2018-05-01T19:36:10Z</time></trkpt>
<trkpt lat="49.275812" lon="7.880985"><ele>322.2</ele><time>2018-05-01T19:36:12Z</time></trkpt>
<trkpt lat="49.275594" lon="7.881062"><ele>322.2</ele><time>2018-05-01T19:36:14Z</time></trkpt>
<trkpt lat="49.275462" lon="7.881145"><ele>322.2</ele><time>2018-05-01T19:36:15Z</time></trkpt>
<trkpt lat="49.275375" lon="7.881228"><ele>322.2</ele><time>2018-05-01T19:36:16Z</time></trkpt>
<trkpt lat="49.275302" lon="7.881362"><ele>322.2</ele><time>2018-05-01T19:36:17Z</time></trkpt>
<trkpt lat="49.275248" lon="7.881505"><ele>322.2</ele><time>2018-05-01T19:36:18Z</time></trkpt>
<trkpt lat="49.27521" lon="7.881669"><ele>322.2</ele><time>2018-05-01T19:36:19Z</time></trkpt>
<trkpt lat="49.275282" lon="7.882736"><ele>332.0</ele><time>2018-05-01T19:36:24Z</time></trkpt>
<trkpt lat="49.275268" lon="7.883066"><ele>332.0</ele><time>2018-05-01T19:36:26Z</time></trkpt>
<trkpt lat="49.27519" lon="7.883414"><ele>342.0</ele><time>2018-05-01T19:36:28Z</time></trkpt>
<trkpt lat="49.275078" lon="7.883673"><ele>342.0</ele><time>2018-05-01T19:36:30Z</time></trkpt>
<trkpt lat="49.274945" lon="7.883903"><ele>323.0</ele><time>2018-05-01T19:36:32Z</time></trkpt>
<trkpt lat="49.27478" lon="7.884082"><ele>323.0</ele><time>2018-05-01T19:36:33Z</time></trkpt>
<trkpt lat="49.274556" lon="7.884278"><ele>325.2</ele><time>2018-05-01T19:36:35Z</time></trkpt>
<trkpt lat="49.273946" lon="7.885117"><ele>317.4</ele><time>2018-05-01T19:36:42Z</time></trkpt>
<trkpt lat="49.273814" lon="7.885255"><ele>317.4</ele><time>2018-05-01T19:36:43Z</time></trkpt>
<trkpt lat="49.273678" lon="7.885359"><ele>317.4</ele><time>2018-05-01T19:36:44Z</time></trkpt>
<trkpt lat="49.2735" lon="7.885425"><ele>317.4</ele><time>2018-05-01T19:36:46Z</time></trkpt>
<trkpt lat="49.273262" lon="7.885426"><ele>312.4</ele><time>2018-05-01T19:36:48Z</time></trkpt>
<trkpt lat="49.273109" lon="7.885308"><ele>312.4</ele><time>2018-05-01T19:36:49Z</time></trkpt>
<trkpt lat="49.27285" lon="7.884541"><ele>313.0</ele><time>2018-05-01T19:36:53Z</time></trkpt>
<trkpt lat="49.272759" lon="7.884117"><ele>330.2</ele><time>2018-05-01T19:36:56Z</time></trkpt>
<trkpt lat="49.272693" lon="7.88394"><ele>330.2</ele><time>2018-05-01T19:36:57Z</time></trkpt>
<trkpt lat="49.272588" lon="7.883793"><ele>330.2</ele><time>2018-05-01T19:36:58Z</time></trkpt>
<trkpt lat="49.27248" lon="7.883776"><ele>321.6</ele><time>2018-05-01T19:36:59Z</time></trkpt>
<trkpt lat="49.27239" lon="7.883812"><ele>321.6</ele><time>2018-05-01T19:37:00Z</time></trkpt>
<trkpt lat="49.272315" lon="7.883949"><ele>321.6</ele><time>2018-05-01T19:37:01Z</time></trkpt>
<trkpt lat="49.272071" lon="7.884722"><ele>305.8</ele><time>2018-05-01T19:37:05Z</time></trkpt>
<trkpt lat="49.271993" lon="7.884906"><ele>305.8</ele><time>2018-05-01T19:37:07Z</time></trkpt>
<trkpt lat="49.271887" lon="7.885055"><ele>307.0</ele><time>2018-05-01T19:37:08Z</time></trkpt>
<trkpt lat="49.271455" lon="7.885424"><ele>309.6</ele><time>2018-05-01T19:37:12Z</time></trkpt>
<trkpt lat="49.271211" lon="7.885692"><ele>309.6</ele><time>2018-05-01T19:37:14Z</time></trkpt>
<trkpt lat="49.270641" lon="7.886655"><ele>318.0</ele><time>2018-05-01T19:37:21Z</time></trkpt>
<trkpt lat="49.270456" lon="7.887132"><ele>314.0</ele><time>2018-05-01T19:37:23Z</time></trkpt>
<trkpt lat="49.270204" lon="7.888"><ele>316.8</ele><time>2018-05-01T19:37:28Z</time></trkpt>
<trkpt lat="49.270115" lon="7.888202"><ele>316.8</ele><time>2018-05-01T19:37:30Z</time></trkpt>
<trkpt lat="49.269978" lon="7.888394"><ele>304.2</ele><time>2018-05-01T19:37:31Z</time></trkpt>
<trkpt lat="49.269786" lon="7.888535"><ele>304.2</ele><time>2018-05-01T19:37:33Z</time></trkpt>
<trkpt lat="49.269653" lon="7.888578"><ele>304.2</ele><time>2018-05-01T19:37:34Z</time></trkpt>
<trkpt lat="49.269194" lon="7.888607"><ele>304.2</ele><time>2018-05-01T19:37:38Z</time></trkpt>
<trkpt lat="49.269003" lon="7.888648"><ele>302.6</ele><time>2018-05-01T19:37:39Z</time></trkpt>
<trkpt lat="49.268648" lon="7.888835"><ele>302.6</ele><time>2018-05-01T19:37:42Z</time></trkpt>
<trkpt lat="49.268506" lon="7.888972"><ele>302.6</ele><time>2018-05-01T19:37:43Z</time></trkpt>
<trkpt lat="49.268403" lon="7.889113"><ele>302.6</ele><time>2018-05-01T19:37:45Z</time></trkpt>
<trkpt lat="49.268253" lon="7.889374"><ele>305.4</ele><time>2018-05-01T19:37:46Z</time></trkpt>
<trkpt lat="49.268202" lon="7.889549"><ele>305.4</ele><time>2018-05-01T19:37:47Z</time></trkpt>
<trkpt lat="49.267808" lon="7.891187"><ele>305.0</ele><time>2018-05-01T19:37:56Z</time></trkpt>
<trkpt lat="49.267741" lon="7.891391"><ele>305.0</ele><time>2018-05-01T19:37:57Z</time></trkpt>
<trkpt lat="49.267665" lon="7.89157"><ele>305.0</ele><time>2018-05-01T19:37:59Z</time></trkpt>
<trkpt lat="49.267549" lon="7.891727"><ele>313.4</ele><time>2018-05-01T19:38:00Z</time></trkpt>
<trkpt lat="49.26743" lon="7.891801"><ele>296.8</ele><time>2018-05-01T19:38:01Z</time></trkpt>
<trkpt lat="49.267365" lon="7.891818"><ele>296.8</ele><time>2018-05-01T19:38:02Z</time></trkpt>
<trkpt lat="49.26729" lon="7.891806"><ele>296.8</ele><time>2018-05-01T19:38:03Z</time></trkpt>
<trkpt lat="49.2667" lon="7.891504"><ele>294.4</ele><time>2018-05-01T19:38:07Z</time></trkpt>
<trkpt lat="49.266496" lon="7.891369"><ele>293.2</ele><time>2018-05-01T19:38:09Z</time></trkpt>
<trkpt lat="49.266317" lon="7.891198"><ele>293.2</ele><time>2018-05-01T19:38:11Z</time></trkpt>
<trkpt lat="49.266172" lon="7.891104"><ele>293.2</ele><time>2018-05-01T19:38:12Z</time></trkpt>
<trkpt lat="49.266019" lon="7.891083"><ele>293.2</ele><time>2018-05-01T19:38:13Z</time></trkpt>
<trkpt lat="49.265854" lon="7.891106"><ele>293.2</ele><time>2018-05-01T19:38:15Z</time></trkpt>
<trkpt lat="49.265629" lon="7.891241"><ele>298.6</ele><time>2018-05-01T19:38:17Z</time></trkpt>
<trkpt lat="49.265472" lon="7.891372"><ele>298.6</ele><time>2018-05-01T19:38:18Z</time></trkpt>
<trkpt lat="49.265358" lon="7.891507"><ele>298.6</ele><time>2018-05-01T19:38:19Z</time></trkpt>
<trkpt lat="49.26526" lon="7.891657"><ele>298.6</ele><time>2018-05-01T19:38:20Z</time></trkpt>
<trkpt lat="49.264999" lon="7.892231"><ele>297.8</ele><time>2018-05-01T19:38:24Z</time></trkpt>
<trkpt lat="49.26478" lon="7.892586"><ele>292.0</ele><time>2018-05-01T19:38:26Z</time></trkpt>
<trkpt lat="49.264567" lon="7.892893"><ele>292.0</ele><time>2018-05-01T19:38:29Z</time></trkpt>
<trkpt lat="49.264006" lon="7.893478"><ele>288.8</ele><time>2018-05-01T19:38:34Z</time></trkpt>
<trkpt lat="49.263712" lon="7.893816"><ele>288.8</ele><time>2018-05-01T19:38:37Z</time></trkpt>
<trkpt lat="49.263529" lon="7.893993"><ele>288.8</ele><time>2018-05-01T19:38:39Z</time></trkpt>
<trkpt lat="49.263305" lon="7.894118"><ele>290.2</ele><time>2018-05-01T19:38:40Z</time></trkpt>
<trkpt lat="49.263157" lon="7.89417"><ele>284.6</ele><time>2018-05-01T19:38:42Z</time></trkpt>
<trkpt lat="49.262853" lon="7.894224"><ele>284.6</ele><time>2018-05-01T19:38:44Z</time></trkpt>
<trkpt lat="49.262696" lon="7.89422"><ele>284.6</ele><time>2018-05-01T19:38:45Z</time></trkpt>
<trkpt lat="49.262361" lon="7.894184"><ele>283.2</ele><time>2018-05-01T19:38:48Z</time></trkpt>
<trkpt lat="49.261715" lon="7.894031"><ele>292.8</ele><time>2018-05-01T19:38:53Z</time></trkpt>
<trkpt lat="49.26109" lon="7.89381"><ele>287.4</ele><time>2018-05-01T19:38:58Z</time></trkpt>
<trkpt lat="49.260221" lon="7.893376"><ele>275.6</ele><time>2018-05-01T19:39:05Z</time></trkpt>
<trkpt lat="49.260099" lon="7.893363"><ele>275.6</ele><time>2018-05-01T19:39:06Z</time></trkpt>
<trkpt lat="49.259924" lon="7.893407"><ele>268.0</ele><time>2018-05-01T19:39:08Z</time></trkpt>
<trkpt lat="49.259668" lon="7.89354"><ele>268.0</ele><time>2018-05-01T19:39:10Z</time></trkpt>
<trkpt lat="49.2592" lon="7.893856"><ele>268.0</ele><time>2018-05-01T19:39:14Z</time></trkpt>
<trkpt lat="49.258906" lon="7.894137"><ele>278.8</ele><time>2018-05-01T19:39:17Z</time></trkpt>
<trkpt lat="49.258555" lon="7.894575"><ele>269.0</ele><time>2018-05-01T19:39:21Z</time></trkpt>
<trkpt lat="49.258216" lon="7.895122"><ele>269.2</ele><time>2018-05-01T19:39:24Z</time></trkpt>
<trkpt lat="49.257787" lon="7.895922"><ele>271.6</ele><time>2018-05-01T19:39:30Z</time></trkpt>
<trkpt lat="49.257384" lon="7.896757"><ele>267.2</ele><time>2018-05-01T19:39:35Z</time></trkpt>
<trkpt lat="49.25692" lon="7.897869"><ele>261.8</ele><time>2018-05-01T19:39:42Z</time></trkpt>
<trkpt lat="49.256795" lon="7.898034"><ele>261.8</ele><time>2018-05-01T19:39:43Z</time></trkpt>
<trkpt lat="49.256703" lon="7.89811"><ele>261.8</ele><time>2018-05-01T19:39:44Z</time></trkpt>
<trkpt lat="49.256591" lon="7.898152"><ele>260.0</ele><time>2018-05-01T19:39:45Z</time></trkpt>
<trkpt lat="49.256511" lon="7.898156"><ele>260.0</ele><time>2018-05-01T19:39:46Z</time></trkpt>
<trkpt lat="49.256413" lon="7.89813"><ele>260.0</ele><time>2018-05-01T19:39:46Z</time></trkpt>
<trkpt lat="49.256269" lon="7.898051"><ele>260.0</ele><time>2018-05-01T19:39:48Z</time></trkpt>
<trkpt lat="49.256059" lon="7.897856"><ele>260.0</ele><time>2018-05-01T19:39:49Z</time></trkpt>
<trkpt lat="49.255939" lon="7.897782"><ele>260.0</ele><time>2018-05-01T19:39:50Z</time></trkpt>
<trkpt lat="49.255823" lon="7.897748"><ele>262.2</ele><time>2018-05-01T19:39:51Z</time></trkpt>
<trkpt lat="49.25568" lon="7.897752"><ele>262.2</ele><time>2018-05-01T19:39:53Z</time></trkpt>
<trkpt lat="49.255543" lon="7.897796"><ele>262.2</ele><time>2018-05-01T19:39:54Z</time></trkpt>
<trkpt lat="49.255403" lon="7.897873"><ele>262.2</ele><time>2018-05-01T19:39:55Z</time></trkpt>
<trkpt lat="49.255068" lon="7.898116"><ele>262.2</ele><time>2018-05-01T19:39:58Z</time></trkpt>
<trkpt lat="49.254684" lon="7.898453"><ele>253.8</ele><time>2018-05-01T19:40:01Z</time></trkpt>
<trkpt lat="49.254438" lon="7.898719"><ele>253.8</ele><time>2018-05-01T19:40:04Z</time></trkpt>
<trkpt lat="49.254041" lon="7.89929"><ele>255.8</ele><time>2018-05-01T19:40:08Z</time></trkpt>
<trkpt lat="49.253889" lon="7.899452"><ele>255.8</ele><time>2018-05-01T19:40:09Z</time></trkpt>
<trkpt lat="49.253391" lon="7.899835"><ele>255.8</ele><time>2018-05-01T19:40:14Z</time></trkpt>
<trkpt lat="49.253127" lon="7.899977"><ele>257.2</ele><time>2018-05-01T19:40:16Z</time></trkpt>
<trkpt lat="49.252959" lon="7.899999"><ele>257.2</ele><time>2018-05-01T19:40:17Z</time></trkpt>
<trkpt lat="49.252836" lon="7.899972"><ele>257.2</ele><time>2018-05-01T19:40:18Z</time></trkpt>
<trkpt lat="49.252713" lon="7.899909"><ele>257.2</ele><time>2018-05-01T19:40:19Z</time></trkpt>
<trkpt lat="49.252491" lon="7.899695"><ele>257.0</ele><time>2018-05-01T19:40:21Z</time></trkpt>
<trkpt lat="49.252226" lon="7.899375"><ele>257.0</ele><time>2018-05-01T19:40:24Z</time></trkpt>
<trkpt lat="49.252087" lon="7.899162"><ele>271.8</ele><time>2018-05-01T19:40:26Z</time></trkpt>
<trkpt lat="49.251902" lon="7.898832"><ele>271.8</ele><time>2018-05-01T19:40:28Z</time></trkpt>
<trkpt lat="49.251643" lon="7.898225"><ele>267.0</ele><time>2018-05-01T19:40:32Z</time></trkpt>
<trkpt lat="49.25157" lon="7.898106"><ele>267.0</ele><time>2018-05-01T19:40:33Z</time></trkpt>
<trkpt lat="49.251474" lon="7.897992"><ele>267.0</ele><time>2018-05-01T19:40:34Z</time></trkpt>
<trkpt lat="49.251341" lon="7.897919"><ele>267.0</ele><time>2018-05-01T19:40:35Z</time></trkpt>
<trkpt lat="49.251252" lon="7.897896"><ele>267.0</ele><time>2018-05-01T19:40:35Z</time></trkpt>
<trkpt lat="49.251128" lon="7.897913"><ele>267.0</ele><time>2018-05-01T19:40:36Z</time></trkpt>
<trkpt lat="49.251003" lon="7.89796"><ele>267.0</ele><time>2018-05-01T19:40:37Z</time></trkpt>
<trkpt lat="49.250876" lon="7.89807"><ele>267.0</ele><time>2018-05-01T19:40:39Z</time></trkpt>
<trkpt lat="49.250791" lon="7.898191"><ele>269.6</ele><time>2018-05-01T19:40:40Z</time></trkpt>
<trkpt lat="49.2506" lon="7.898569"><ele>251.8</ele><time>2018-05-01T19:40:42Z</time></trkpt>
<trkpt lat="49.25048" lon="7.898745"><ele>251.8</ele><time>2018-05-01T19:40:44Z</time></trkpt>
<trkpt lat="49.250345" lon="7.898904"><ele>251.8</ele><time>2018-05-01T19:40:45Z</time></trkpt>
<trkpt lat="49.250179" lon="7.89903"><ele>251.8</ele><time>2018-05-01T19:40:46Z</time></trkpt>
<trkpt lat="49.249137" lon="7.89951"><ele>247.4</ele><time>2018-05-01T19:40:55Z</time></trkpt>
<trkpt lat="49.248639" lon="7.89986"><ele>247.4</ele><time>2018-05-01T19:40:59Z</time></trkpt>
<trkpt lat="49.248144" lon="7.900282"><ele>241.6</ele><time>2018-05-01T19:41:04Z</time></trkpt>
<trkpt lat="49.247941" lon="7.90042"><ele>241.6</ele><time>2018-05-01T19:41:05Z</time></trkpt>
<trkpt lat="49.247722" lon="7.900516"><ele>241.6</ele><time>2018-05-01T19:41:07Z</time></trkpt>
<trkpt lat="49.247536" lon="7.900562"><ele>241.6</ele><time>2018-05-01T19:41:09Z</time></trkpt>
<trkpt lat="49.247351" lon="7.900561"><ele>247.4</ele><time>2018-05-01T19:41:10Z</time></trkpt>
<trkpt lat="49.247141" lon="7.900516"><ele>247.4</ele><time>2018-05-01T19:41:12Z</time></trkpt>
<trkpt lat="49.246925" lon="7.900404"><ele>247.4</ele><time>2018-05-01T19:41:14Z</time></trkpt>
<trkpt lat="49.246675" lon="7.900216"><ele>247.4</ele><time>2018-05-01T19:41:16Z</time></trkpt>
<trkpt lat="49.246048" lon="7.899687"><ele>268.8</ele><time>2018-05-01T19:41:22Z</time></trkpt>
<trkpt lat="49.245847" lon="7.899559"><ele>268.8</ele><time>2018-05-01T19:41:23Z</time></trkpt>
<trkpt lat="49.245653" lon="7.899483"><ele>256.0</ele><time>2018-05-01T19:41:25Z</time></trkpt>
<trkpt lat="49.245337" lon="7.899454"><ele>256.0</ele><time>2018-05-01T19:41:28Z</time></trkpt>
<trkpt lat="49.245094" lon="7.899527"><ele>256.0</ele><time>2018-05-01T19:41:30Z</time></trkpt>
<trkpt lat="49.244294" lon="7.899932"><ele>254.2</ele><time>2018-05-01T19:41:36Z</time></trkpt>
<trkpt lat="49.244121" lon="7.89997"><ele>255.6</ele><time>2018-05-01T19:41:38Z</time></trkpt>
<trkpt lat="49.243893" lon="7.89998"><ele>255.6</ele><time>2018-05-01T19:41:40Z</time></trkpt>
<trkpt lat="49.243674" lon="7.899934"><ele>255.6</ele><time>2018-05-01T19:41:41Z</time></trkpt>
<trkpt lat="49.243455" lon="7.899836"><ele>255.6</ele><time>2018-05-01T19:41:43Z</time></trkpt>
<trkpt lat="49.243148" lon="7.899602"><ele>246.2</ele><time>2018-05-01T19:41:46Z</time></trkpt>
<trkpt lat="49.241846" lon="7.898411"><ele>236.0</ele><time>2018-05-01T19:41:58Z</time></trkpt>
<trkpt lat="49.241505" lon="7.898169"><ele>222.4</ele><time>2018-05-01T19:42:01Z</time></trkpt>
<trkpt lat="49.241236" lon="7.898084"><ele>222.4</ele><time>2018-05-01T19:42:03Z</time></trkpt>
<trkpt lat="49.240985" lon="7.898086"><ele>222.4</ele><time>2018-05-01T19:42:05Z</time></trkpt>
<trkpt lat="49.240845" lon="7.898118"><ele>222.4</ele><time>2018-05-01T19:42:06Z</time></trkpt>
<trkpt lat="49.240603" lon="7.898252"><ele>226.2</ele><time>2018-05-01T19:42:08Z</time></trkpt>
<trkpt lat="49.240296" lon="7.898535"><ele>224.8</ele><time>2018-05-01T19:42:11Z</time></trkpt>
<trkpt lat="49.240136" lon="7.898793"><ele>224.8</ele><time>2018-05-01T19:42:13Z</time></trkpt>
<trkpt lat="49.239848" lon="7.899435"><ele>235.4</ele><time>2018-05-01T19:42:17Z</time></trkpt>
<trkpt lat="49.239694" lon="7.899697"><ele>235.4</ele><time>2018-05-01T19:42:19Z</time></trkpt>
<trkpt lat="49.239537" lon="7.899905"><ele>235.4</ele><time>2018-05-01T19:42:20Z</time></trkpt>
<trkpt lat="49.239087" lon="7.900443"><ele>233.2</ele><time>2018-05-01T19:42:25Z</time></trkpt>
<trkpt lat="49.23873" lon="7.90079"><ele>233.2</ele><time>2018-05-01T19:42:28Z</time></trkpt>
<trkpt lat="49.23812" lon="7.90132"><ele>227.2</ele><time>2018-05-01T19:42:34Z</time></trkpt>
<trkpt lat="49.237964" lon="7.901501"><ele>227.2</ele><time>2018-05-01T19:42:35Z</time></trkpt>
<trkpt lat="49.237845" lon="7.901839"><ele>236.4</ele><time>2018-05-01T19:42:37Z</time></trkpt>
<trkpt lat="49.237806" lon="7.902089"><ele>236.4</ele><time>2018-05-01T19:42:39Z</time></trkpt>
<trkpt lat="49.237803" lon="7.902512"><ele>240.0</ele><time>2018-05-01T19:42:41Z</time></trkpt>
<trkpt lat="49.237827" lon="7.902646"><ele>240.0</ele><time>2018-05-01T19:42:42Z</time></trkpt>
<trkpt lat="49.237916" lon="7.902909"><ele>240.0</ele><time>2018-05-01T19:42:43Z</time></trkpt>
<trkpt lat="49.237985" lon="7.903028"><ele>240.0</ele><time>2018-05-01T19:42:44Z</time></trkpt>
<trkpt lat="49.238174" lon="7.903246"><ele>240.0</ele><time>2018-05-01T19:42:46Z</time></trkpt>
<trkpt lat="49.238734" lon="7.903734"><ele>259.0</ele><time>2018-05-01T19:42:51Z</time></trkpt>
<trkpt lat="49.23889" lon="7.903912"><ele>259.0</ele><time>2018-05-01T19:42:52Z</time></trkpt>
<trkpt lat="49.239021" lon="7.904097"><ele>259.0</ele><time>2018-05-01T19:42:54Z</time></trkpt>
<trkpt lat="49.239122" lon="7.904311"><ele>244.0</ele><time>2018-05-01T19:42:56Z</time></trkpt>
<trkpt lat="49.2392" lon="7.904548"><ele>288.6</ele><time>2018-05-01T19:42:59Z</time></trkpt>
<trkpt lat="49.23925" lon="7.9048"><ele>288.6</ele><time>2018-05-01T19:43:00Z</time></trkpt>
<trkpt lat="49.23928" lon="7.905098"><ele>277.6</ele><time>2018-05-01T19:43:02Z</time></trkpt>
<trkpt lat="49.239289" lon="7.905393"><ele>277.6</ele><time>2018-05-01T19:43:04Z</time></trkpt>
<trkpt lat="49.239226" lon="7.906441"><ele>270.4</ele><time>2018-05-01T19:43:09Z</time></trkpt>
<trkpt lat="49.239182" lon="7.906739"><ele>264.2</ele><time>2018-05-01T19:43:11Z</time></trkpt>
<trkpt lat="49.239108" lon="7.907019"><ele>228.2</ele><time>2018-05-01T19:43:14Z</time></trkpt>
<trkpt lat="49.239049" lon="7.907163"><ele>228.2</ele><time>2018-05-01T19:43:15Z</time></trkpt>
<trkpt lat="49.238948" lon="7.90733"><ele>228.2</ele><time>2018-05-01T19:43:16Z</time></trkpt>
<trkpt lat="49.238787" lon="7.907487"><ele>228.2</ele><time>2018-05-01T19:43:17Z</time></trkpt>
<trkpt lat="49.23859" lon="7.907594"><ele>235.6</ele><time>2018-05-01T19:43:19Z</time></trkpt>
<trkpt lat="49.238176" lon="7.907644"><ele>223.4</ele><time>2018-05-01T19:43:22Z</time></trkpt>
<trkpt lat="49.237731" lon="7.907633"><ele>223.4</ele><time>2018-05-01T19:43:26Z</time></trkpt>
<trkpt lat="49.237271" lon="7.907576"><ele>214.2</ele><time>2018-05-01T19:43:30Z</time></trkpt>
<trkpt lat="49.237147" lon="7.907596"><ele>214.2</ele><time>2018-05-01T19:43:31Z</time></trkpt>
<trkpt lat="49.237054" lon="7.907659"><ele>214.2</ele><time>2018-05-01T19:43:31Z</time></trkpt>
<trkpt lat="49.236976" lon="7.907778"><ele>214.2</ele><time>2018-05-01T19:43:32Z</time></trkpt>
<trkpt lat="49.236896" lon="7.908017"><ele>214.2</ele><time>2018-05-01T19:43:34Z</time></trkpt>
<trkpt lat="49.236837" lon="7.908401"><ele>226.4</ele><time>2018-05-01T19:43:36Z</time></trkpt>
<trkpt lat="49.236748" lon="7.909399"><ele>232.0</ele><time>2018-05-01T19:43:41Z</time></trkpt>
<trkpt lat="49.236684" lon="7.909631"><ele>232.0</ele><time>2018-05-01T19:43:42Z</time></trkpt>
<trkpt lat="49.236582" lon="7.909833"><ele>215.0</ele><time>2018-05-01T19:43:44Z</time></trkpt>
<trkpt lat="49.236424" lon="7.910011"><ele>223.2</ele><time>2018-05-01T19:43:46Z</time></trkpt>
<trkpt lat="49.236158" lon="7.910128"><ele>223.2</ele><time>2018-05-01T19:43:48Z</time></trkpt>
<trkpt lat="49.235749" lon="7.910242"><ele>216.8</ele><time>2018-05-01T19:43:51Z</time></trkpt>
<trkpt lat="49.235575" lon="7.910276"><ele>216.8</ele><time>2018-05-01T19:43:53Z</time></trkpt>
<trkpt lat="49.235024" lon="7.910299"><ele>216.8</ele><time>2018-05-01T19:43:57Z</time></trkpt>
<trkpt lat="49.234726" lon="7.910455"><ele>214.6</ele><time>2018-05-01T19:43:59Z</time></trkpt>
<trkpt lat="49.234487" lon="7.910635"><ele>214.6</ele><time>2018-05-01T19:44:01Z</time></trkpt>
<trkpt lat="49.234257" lon="7.910845"><ele>231.4</ele><time>2018-05-01T19:44:04Z</time></trkpt>
<trkpt lat="49.234158" lon="7.910982"><ele>218.4</ele><time>2018-05-01T19:44:05Z</time></trkpt>
<trkpt lat="49.233483" lon="7.912111"><ele>231.2</ele><time>2018-05-01T19:44:13Z</time></trkpt>
<trkpt lat="49.233361" lon="7.912254"><ele>231.2</ele><time>2018-05-01T19:44:14Z</time></trkpt>
<trkpt lat="49.233072" lon="7.91253"><ele>228.0</ele><time>2018-05-01T19:44:17Z</time></trkpt>
<trkpt lat="49.232815" lon="7.912641"><ele>228.0</ele><time>2018-05-01T19:44:19Z</time></trkpt>
<trkpt lat="49.232111" lon="7.912751"><ele>216.2</ele><time>2018-05-01T19:44:25Z</time></trkpt>
<trkpt lat="49.231785" lon="7.91285"><ele>216.2</ele><time>2018-05-01T19:44:27Z</time></trkpt>
<trkpt lat="49.231555" lon="7.912981"><ele>208.2</ele><time>2018-05-01T19:44:29Z</time></trkpt>
<trkpt lat="49.231265" lon="7.913196"><ele>208.2</ele><time>2018-05-01T19:44:32Z</time></trkpt>
<trkpt lat="49.231003" lon="7.913465"><ele>224.6</ele><time>2018-05-01T19:44:35Z</time></trkpt>
<trkpt lat="49.230732" lon="7.913816"><ele>211.2</ele><time>2018-05-01T19:44:38Z</time></trkpt>
<trkpt lat="49.230153" lon="7.914645"><ele>225.2</ele><time>2018-05-01T19:44:44Z</time></trkpt>
<trkpt lat="49.229998" lon="7.914829"><ele>206.4</ele><time>2018-05-01T19:44:46Z</time></trkpt>
<trkpt lat="49.229784" lon="7.915043"><ele>217.8</ele><time>2018-05-01T19:44:48Z</time></trkpt>
<trkpt lat="49.229497" lon="7.915247"><ele>217.8</ele><time>2018-05-01T19:44:51Z</time></trkpt>
<trkpt lat="49.229177" lon="7.915418"><ele>217.8</ele><time>2018-05-01T19:44:53Z</time></trkpt>
<trkpt lat="49.228871" lon="7.915537"><ele>202.8</ele><time>2018-05-01T19:45:02Z</time></trkpt>
<trkpt lat="49.228871" lon="7.915537"><ele>202.8</ele><time>2018-05-01T19:45:02Z</time></trkpt>
<trkpt lat="49.228565" lon="7.915597"><ele>202.8</ele><time>2018-05-01T19:45:04Z</time></trkpt>
<trkpt lat="49.228279" lon="7.91558"><ele>199.8</ele><time>2018-05-01T19:45:06Z</time></trkpt>
<trkpt lat="49.227222" lon="7.915407"><ele>198.8</ele><time>2018-05-01T19:45:15Z</time></trkpt>
<trkpt lat="49.225838" lon="7.915216"><ele>198.8</ele><time>2018-05-01T19:45:26Z</time></trkpt>
<trkpt lat="49.225275" lon="7.915071"><ele>198.8</ele><time>2018-05-01T19:45:30Z</time></trkpt>
<trkpt lat="49.224817" lon="7.914811"><ele>201.4</ele><time>2018-05-01T19:45:34Z</time></trkpt>
<trkpt lat="49.22453" lon="7.914561"><ele>201.4</ele><time>2018-05-01T19:45:36Z</time></trkpt>
<trkpt lat="49.224354" lon="7.914334"><ele>201.4</ele><time>2018-05-01T19:45:38Z</time></trkpt>
<trkpt lat="49.224301" lon="7.914238"><ele>201.4</ele><time>2018-05-01T19:45:39Z</time></trkpt>
<trkpt lat="49.224124" lon="7.91386"><ele>205.2</ele><time>2018-05-01T19:45:41Z</time></trkpt>
<trkpt lat="49.223998" lon="7.913356"><ele>205.2</ele><time>2018-05-01T19:45:44Z</time></trkpt>
<trkpt lat="49.223982" lon="7.913121"><ele>210.2</ele><time>2018-05-01T19:45:45Z</time></trkpt>
<trkpt lat="49.223998" lon="7.912942"><ele>210.2</ele><time>2018-05-01T19:45:46Z</time></trkpt>
<trkpt lat="49.224067" lon="7.912701"><ele>210.2</ele><time>2018-05-01T19:45:47Z</time></trkpt>
<trkpt lat="49.224132" lon="7.912575"><ele>210.2</ele><time>2018-05-01T19:45:48Z</time></trkpt>
<trkpt lat="49.224264" lon="7.912485"><ele>220.8</ele><time>2018-05-01T19:45:50Z</time></trkpt>
<trkpt lat="49.224368" lon="7.912444"><ele>220.8</ele><time>2018-05-01T19:45:50Z</time></trkpt>
<trkpt lat="49.224679" lon="7.912431"><ele>220.8</ele><time>2018-05-01T19:45:53Z</time></trkpt>
<trkpt lat="49.224629" lon="7.911758"><ele>220.8</ele><time>2018-05-01T19:45:56Z</time></trkpt>
<trkpt lat="49.224491" lon="7.91057"><ele>224.0</ele><time>2018-05-01T19:46:01Z</time></trkpt>
<trkpt lat="49.223892" lon="7.906722"><ele>212.0</ele><time>2018-05-01T19:46:17Z</time></trkpt>
<trkpt lat="49.223794" lon="7.906187"><ele>209.8</ele><time>2018-05-01T19:46:19Z</time></trkpt>
<trkpt lat="49.223674" lon="7.905707"><ele>209.4</ele><time>2018-05-01T19:46:21Z</time></trkpt>
<trkpt lat="49.223406" lon="7.904856"><ele>208.4</ele><time>2018-05-01T19:46:25Z</time></trkpt>
<trkpt lat="49.222914" lon="7.903458"><ele>204.8</ele><time>2018-05-01T19:46:32Z</time></trkpt>
<trkpt lat="49.222664" lon="7.902906"><ele>201.8</ele><time>2018-05-01T19:46:34Z</time></trkpt>
<trkpt lat="49.222039" lon="7.901724"><ele>204.2</ele><time>2018-05-01T19:46:40Z</time></trkpt>
<trkpt lat="49.221576" lon="7.900887"><ele>207.6</ele><time>2018-05-01T19:46:45Z</time></trkpt>
<trkpt lat="49.221351" lon="7.900573"><ele>206.0</ele><time>2018-05-01T19:46:47Z</time></trkpt>
<trkpt lat="49.221092" lon="7.900278"><ele>206.0</ele><time>2018-05-01T19:46:49Z</time></trkpt>
<trkpt lat="49.219199" lon="7.898453"><ele>206.0</ele><time>2018-05-01T19:47:03Z</time></trkpt>
<trkpt lat="49.218089" lon="7.897151"><ele>209.2</ele><time>2018-05-01T19:47:11Z</time></trkpt>
<trkpt lat="49.216946" lon="7.895749"><ele>205.8</ele><time>2018-05-01T19:47:21Z</time></trkpt>
<trkpt lat="49.216499" lon="7.895157"><ele>206.6</ele><time>2018-05-01T19:47:24Z</time></trkpt>
<trkpt lat="49.216187" lon="7.894696"><ele>201.8</ele><time>2018-05-01T19:47:27Z</time></trkpt>
<trkpt lat="49.21534" lon="7.893291"><ele>201.6</ele><time>2018-05-01T19:47:35Z</time></trkpt>
<trkpt lat="49.215141" lon="7.892926"><ele>201.6</ele><time>2018-05-01T19:47:37Z</time></trkpt>
<trkpt lat="49.214104" lon="7.890663"><ele>203.0</ele><time>2018-05-01T19:47:48Z</time></trkpt>
<trkpt lat="49.213893" lon="7.890236"><ele>203.0</ele><time>2018-05-01T19:47:50Z</time></trkpt>
<trkpt lat="49.213552" lon="7.889659"><ele>201.8</ele><time>2018-05-01T19:47:53Z</time></trkpt>
<trkpt lat="49.21322" lon="7.889009"><ele>203.8</ele><time>2018-05-01T19:47:58Z</time></trkpt>
<trkpt lat="49.212551" lon="7.887959"><ele>201.4</ele><time>2018-05-01T19:48:05Z</time></trkpt>
<trkpt lat="49.21231" lon="7.887631"><ele>205.8</ele><time>2018-05-01T19:48:08Z</time></trkpt>
<trkpt lat="49.211466" lon="7.8866"><ele>204.2</ele><time>2018-05-01T19:48:16Z</time></trkpt>
<trkpt lat="49.210943" lon="7.8858"><ele>204.8</ele><time>2018-05-01T19:48:22Z</time></trkpt>
<trkpt lat="49.210811" lon="7.885499"><ele>207.8</ele><time>2018-05-01T19:48:24Z</time></trkpt>
<trkpt lat="49.210672" lon="7.885053"><ele>207.8</ele><time>2018-05-01T19:48:26Z</time></trkpt>
<trkpt lat="49.20977" lon="7.881646"><ele>206.0</ele><time>2018-05-01T19:48:45Z</time></trkpt>
<trkpt lat="49.209451" lon="7.880347"><ele>206.8</ele><time>2018-05-01T19:48:52Z</time></trkpt>
<trkpt lat="49.209385" lon="7.880003"><ele>206.8</ele><time>2018-05-01T19:48:54Z</time></trkpt>
<trkpt lat="49.209311" lon="7.87947"><ele>210.2</ele><time>2018-05-01T19:48:57Z</time></trkpt>
<trkpt lat="49.209311" lon="7.87947"><ele>210.2</ele><time>2018-05-01T19:48:57Z</time></trkpt>
<trkpt lat="49.209312" lon="7.879479"><ele>208.6</ele><time>2018-05-01T19:48:57Z</time></trkpt>
<trkpt lat="49.208827" lon="7.879761"><ele>209.8</ele><time>2018-05-01T19:49:00Z</time></trkpt>
<trkpt lat="49.208786" lon="7.879839"><ele>209.8</ele><time>2018-05-01T19:49:01Z</time></trkpt>
<trkpt lat="49.208696" lon="7.880269"><ele>210.4</ele><time>2018-05-01T19:49:03Z</time></trkpt>
<trkpt lat="49.208586" lon="7.880546"><ele>210.4</ele><time>2018-05-01T19:49:04Z</time></trkpt>
<trkpt lat="49.208513" lon="7.880707"><ele>210.4</ele><time>2018-05-01T19:49:05Z</time></trkpt>
<trkpt lat="49.208439" lon="7.8808"><ele>210.4</ele><time>2018-05-01T19:49:06Z</time></trkpt>
<trkpt lat="49.208326" lon="7.880856"><ele>229.6</ele><time>2018-05-01T19:49:07Z</time></trkpt>
<trkpt lat="49.208251" lon="7.880777"><ele>220.0</ele><time>2018-05-01T19:49:08Z</time></trkpt>
<trkpt lat="49.20819" lon="7.88064"><ele>220.0</ele><time>2018-05-01T19:49:09Z</time></trkpt>
<trkpt lat="49.208043" lon="7.880441"><ele>220.0</ele><time>2018-05-01T19:49:10Z</time></trkpt>
<trkpt lat="49.207863" lon="7.880371"><ele>220.0</ele><time>2018-05-01T19:49:12Z</time></trkpt>
<trkpt lat="49.2076" lon="7.880341"><ele>220.0</ele><time>2018-05-01T19:49:13Z</time></trkpt>
<trkpt lat="49.207371" lon="7.880366"><ele>232.0</ele><time>2018-05-01T19:49:15Z</time></trkpt>
<trkpt lat="49.207034" lon="7.880469"><ele>232.0</ele><time>2018-05-01T19:49:18Z</time></trkpt>
<trkpt lat="49.206764" lon="7.880639"><ele>232.0</ele><time>2018-05-01T19:49:20Z</time></trkpt>
<trkpt lat="49.206445" lon="7.880803"><ele>240.2</ele><time>2018-05-01T19:49:22Z</time></trkpt>
<trkpt lat="49.205894" lon="7.880871"><ele>245.4</ele><time>2018-05-01T19:49:26Z</time></trkpt>
<trkpt lat="49.20557" lon="7.880867"><ele>243.0</ele><time>2018-05-01T19:49:28Z</time></trkpt>
<trkpt lat="49.205379" lon="7.880827"><ele>245.4</ele><time>2018-05-01T19:49:29Z</time></trkpt>
<trkpt lat="49.204652" lon="7.880549"><ele>247.0</ele><time>2018-05-01T19:49:34Z</time></trkpt>
<trkpt lat="49.203812" lon="7.88012"><ele>247.4</ele><time>2018-05-01T19:49:41Z</time></trkpt>
<trkpt lat="49.203511" lon="7.880109"><ele>247.4</ele><time>2018-05-01T19:49:43Z</time></trkpt>
<trkpt lat="49.203271" lon="7.880174"><ele>249.8</ele><time>2018-05-01T19:49:44Z</time></trkpt>
<trkpt lat="49.202982" lon="7.880342"><ele>249.8</ele><time>2018-05-01T19:49:46Z</time></trkpt>
<trkpt lat="49.202476" lon="7.880742"><ele>257.6</ele><time>2018-05-01T19:49:50Z</time></trkpt>
<trkpt lat="49.201932" lon="7.881257"><ele>242.0</ele><time>2018-05-01T19:49:55Z</time></trkpt>
<trkpt lat="49.201644" lon="7.881615"><ele>248.0</ele><time>2018-05-01T19:49:58Z</time></trkpt>
<trkpt lat="49.201469" lon="7.881973"><ele>239.6</ele><time>2018-05-01T19:50:00Z</time></trkpt>
<trkpt lat="49.201309" lon="7.882466"><ele>239.6</ele><time>2018-05-01T19:50:02Z</time></trkpt>
<trkpt lat="49.201174" lon="7.882767"><ele>234.4</ele><time>2018-05-01T19:50:04Z</time></trkpt>
<trkpt lat="49.200999" lon="7.883026"><ele>234.4</ele><time>2018-05-01T19:50:05Z</time></trkpt>
<trkpt lat="49.200876" lon="7.883129"><ele>234.4</ele><time>2018-05-01T19:50:06Z</time></trkpt>
<trkpt lat="49.200771" lon="7.883167"><ele>238.8</ele><time>2018-05-01T19:50:07Z</time></trkpt>
<trkpt lat="49.200581" lon="7.883188"><ele>238.8</ele><time>2018-05-01T19:50:08Z</time></trkpt>
<trkpt lat="49.199693" lon="7.882891"><ele>246.4</ele><time>2018-05-01T19:50:15Z</time></trkpt>
<trkpt lat="49.199425" lon="7.882825"><ele>246.4</ele><time>2018-05-01T19:50:17Z</time></trkpt>
<trkpt lat="49.199151" lon="7.882854"><ele>248.6</ele><time>2018-05-01T19:50:19Z</time></trkpt>
<trkpt lat="49.198828" lon="7.883014"><ele>248.6</ele><time>2018-05-01T19:50:21Z</time></trkpt>
<trkpt lat="49.19809" lon="7.883519"><ele>235.8</ele><time>2018-05-01T19:50:27Z</time></trkpt>
<trkpt lat="49.197521" lon="7.883736"><ele>235.8</ele><time>2018-05-01T19:50:31Z</time></trkpt>
<trkpt lat="49.197438" lon="7.883838"><ele>234.6</ele><time>2018-05-01T19:50:31Z</time></trkpt>
<trkpt lat="49.197267" lon="7.884127"><ele>234.6</ele><time>2018-05-01T19:50:33Z</time></trkpt>
<trkpt lat="49.197352" lon="7.884355"><ele>231.6</ele><time>2018-05-01T19:50:35Z</time></trkpt>
<trkpt lat="49.197505" lon="7.884564"><ele>234.4</ele><time>2018-05-01T19:50:37Z</time></trkpt>
<trkpt lat="49.197556" lon="7.884689"><ele>234.4</ele><time>2018-05-01T19:50:39Z</time></trkpt>
<trkpt lat="49.197772" lon="7.885288"><ele>242.4</ele><time>2018-05-01T19:50:44Z</time></trkpt>
<trkpt lat="49.197794" lon="7.885429"><ele>242.4</ele><time>2018-05-01T19:50:45Z</time></trkpt>
<trkpt lat="49.19779" lon="7.88556"><ele>242.4</ele><time>2018-05-01T19:50:46Z</time></trkpt>
<trkpt lat="49.197591" lon="7.886363"><ele>254.6</ele><time>2018-05-01T19:50:52Z</time></trkpt>
<trkpt lat="49.197564" lon="7.88677"><ele>262.2</ele><time>2018-05-01T19:50:55Z</time></trkpt>
<trkpt lat="49.197608" lon="7.887135"><ele>262.2</ele><time>2018-05-01T19:50:58Z</time></trkpt>
<trkpt lat="49.197692" lon="7.88752"><ele>258.0</ele><time>2018-05-01T19:51:01Z</time></trkpt>
<trkpt lat="49.197477" lon="7.887776"><ele>239.0</ele><time>2018-05-01T19:51:03Z</time></trkpt>
<trkpt lat="49.197238" lon="7.887969"><ele>239.0</ele><time>2018-05-01T19:51:05Z</time></trkpt>
<trkpt lat="49.196971" lon="7.888086"><ele>239.0</ele><time>2018-05-01T19:51:06Z</time></trkpt>
<trkpt lat="49.196738" lon="7.888095"><ele>239.0</ele><time>2018-05-01T19:51:08Z</time></trkpt>
<trkpt lat="49.196509" lon="7.888015"><ele>236.4</ele><time>2018-05-01T19:51:09Z</time></trkpt>
<trkpt lat="49.19627" lon="7.887849"><ele>236.4</ele><time>2018-05-01T19:51:11Z</time></trkpt>
<trkpt lat="49.195447" lon="7.887109"><ele>240.0</ele><time>2018-05-01T19:51:17Z</time></trkpt>
<trkpt lat="49.194942" lon="7.886618"><ele>243.4</ele><time>2018-05-01T19:51:21Z</time></trkpt>
<trkpt lat="49.194567" lon="7.886139"><ele>243.4</ele><time>2018-05-01T19:51:24Z</time></trkpt>
<trkpt lat="49.192968" lon="7.883787"><ele>249.2</ele><time>2018-05-01T19:51:38Z</time></trkpt>
<trkpt lat="49.192714" lon="7.883463"><ele>249.2</ele><time>2018-05-01T19:51:40Z</time></trkpt>
<trkpt lat="49.192446" lon="7.883221"><ele>250.2</ele><time>2018-05-01T19:51:42Z</time></trkpt>
<trkpt lat="49.192178" lon="7.883056"><ele>250.2</ele><time>2018-05-01T19:51:43Z</time></trkpt>
<trkpt lat="49.191738" lon="7.882915"><ele>250.2</ele><time>2018-05-01T19:51:46Z</time></trkpt>
<trkpt lat="49.190444" lon="7.882598"><ele>262.0</ele><time>2018-05-01T19:51:55Z</time></trkpt>
<trkpt lat="49.189459" lon="7.882404"><ele>263.8</ele><time>2018-05-01T19:52:01Z</time></trkpt>
<trkpt lat="49.188746" lon="7.882187"><ele>263.6</ele><time>2018-05-01T19:52:05Z</time></trkpt>
<trkpt lat="49.188554" lon="7.882058"><ele>263.6</ele><time>2018-05-01T19:52:07Z</time></trkpt>
<trkpt lat="49.188376" lon="7.881865"><ele>263.6</ele><time>2018-05-01T19:52:08Z</time></trkpt>
<trkpt lat="49.187732" lon="7.880959"><ele>265.8</ele><time>2018-05-01T19:52:13Z</time></trkpt>
<trkpt lat="49.187476" lon="7.880685"><ele>268.6</ele><time>2018-05-01T19:52:15Z</time></trkpt>
<trkpt lat="49.187214" lon="7.880544"><ele>268.6</ele><time>2018-05-01T19:52:17Z</time></trkpt>
<trkpt lat="49.187064" lon="7.880544"><ele>268.6</ele><time>2018-05-01T19:52:18Z</time></trkpt>
<trkpt lat="49.18662" lon="7.880784"><ele>271.6</ele><time>2018-05-01T19:52:21Z</time></trkpt>
<trkpt lat="49.186142" lon="7.881418"><ele>270.2</ele><time>2018-05-01T19:52:25Z</time></trkpt>
<trkpt lat="49.185963" lon="7.881573"><ele>270.2</ele><time>2018-05-01T19:52:26Z</time></trkpt>
<trkpt lat="49.185637" lon="7.88171"><ele>275.6</ele><time>2018-05-01T19:52:28Z</time></trkpt>
<trkpt lat="49.1842" lon="7.882034"><ele>269.0</ele><time>2018-05-01T19:52:38Z</time></trkpt>
<trkpt lat="49.183666" lon="7.882318"><ele>258.4</ele><time>2018-05-01T19:52:41Z</time></trkpt>
<trkpt lat="49.183246" lon="7.88262"><ele>248.8</ele><time>2018-05-01T19:52:44Z</time></trkpt>
<trkpt lat="49.181804" lon="7.883547"><ele>244.4</ele><time>2018-05-01T19:52:54Z</time></trkpt>
<trkpt lat="49.180758" lon="7.884054"><ele>237.2</ele><time>2018-05-01T19:53:01Z</time></trkpt>
<trkpt lat="49.180508" lon="7.884027"><ele>237.2</ele><time>2018-05-01T19:53:02Z</time></trkpt>
<trkpt lat="49.18036" lon="7.883958"><ele>237.2</ele><time>2018-05-01T19:53:03Z</time></trkpt>
<trkpt lat="49.180167" lon="7.883779"><ele>237.2</ele><time>2018-05-01T19:53:05Z</time></trkpt>
<trkpt lat="49.180008" lon="7.883465"><ele>237.2</ele><time>2018-05-01T19:53:06Z</time></trkpt>
<trkpt lat="49.179667" lon="7.882653"><ele>243.8</ele><time>2018-05-01T19:53:10Z</time></trkpt>
<trkpt lat="49.17955" lon="7.882458"><ele>247.8</ele><time>2018-05-01T19:53:12Z</time></trkpt>
<trkpt lat="49.179313" lon="7.882163"><ele>247.8</ele><time>2018-05-01T19:53:13Z</time></trkpt>
<trkpt lat="49.179059" lon="7.882014"><ele>243.8</ele><time>2018-05-01T19:53:15Z</time></trkpt>
<trkpt lat="49.176678" lon="7.88132"><ele>256.0</ele><time>2018-05-01T19:53:30Z</time></trkpt>
<trkpt lat="49.176237" lon="7.881209"><ele>261.4</ele><time>2018-05-01T19:53:33Z</time></trkpt>
<trkpt lat="49.175818" lon="7.881135"><ele>263.2</ele><time>2018-05-01T19:53:36Z</time></trkpt>
<trkpt lat="49.175333" lon="7.8811"><ele>263.2</ele><time>2018-05-01T19:53:39Z</time></trkpt>
<trkpt lat="49.174636" lon="7.88113"><ele>262.2</ele><time>2018-05-01T19:53:43Z</time></trkpt>
<trkpt lat="49.173552" lon="7.881341"><ele>263.8</ele><time>2018-05-01T19:53:50Z</time></trkpt>
<trkpt lat="49.173374" lon="7.881321"><ele>263.8</ele><time>2018-05-01T19:53:51Z</time></trkpt>
<trkpt lat="49.17299" lon="7.881155"><ele>266.8</ele><time>2018-05-01T19:53:54Z</time></trkpt>
<trkpt lat="49.172865" lon="7.88103"><ele>266.8</ele><time>2018-05-01T19:53:55Z</time></trkpt>
<trkpt lat="49.172681" lon="7.880769"><ele>271.4</ele><time>2018-05-01T19:53:56Z</time></trkpt>
<trkpt lat="49.171758" lon="7.878937"><ele>275.2</ele><time>2018-05-01T19:54:06Z</time></trkpt>
<trkpt lat="49.171473" lon="7.878536"><ele>263.8</ele><time>2018-05-01T19:54:08Z</time></trkpt>
<trkpt lat="49.171233" lon="7.878364"><ele>263.8</ele><time>2018-05-01T19:54:10Z</time></trkpt>
<trkpt lat="49.170992" lon="7.878299"><ele>271.8</ele><time>2018-05-01T19:54:12Z</time></trkpt>
<trkpt lat="49.169978" lon="7.878332"><ele>266.6</ele><time>2018-05-01T19:54:18Z</time></trkpt>
<trkpt lat="49.169633" lon="7.878288"><ele>266.6</ele><time>2018-05-01T19:54:20Z</time></trkpt>
<trkpt lat="49.169319" lon="7.878193"><ele>266.6</ele><time>2018-05-01T19:54:22Z</time></trkpt>
<trkpt lat="49.169101" lon="7.878202"><ele>255.6</ele><time>2018-05-01T19:54:24Z</time></trkpt>
<trkpt lat="49.168462" lon="7.878559"><ele>256.2</ele><time>2018-05-01T19:54:28Z</time></trkpt>
<trkpt lat="49.167764" lon="7.87865"><ele>246.2</ele><time>2018-05-01T19:54:33Z</time></trkpt>
<trkpt lat="49.167737" lon="7.87871"><ele>246.2</ele><time>2018-05-01T19:54:33Z</time></trkpt>
<trkpt lat="49.167721" lon="7.87883"><ele>246.2</ele><time>2018-05-01T19:54:34Z</time></trkpt>
<trkpt lat="49.167716" lon="7.879221"><ele>248.4</ele><time>2018-05-01T19:54:37Z</time></trkpt>
<trkpt lat="49.167658" lon="7.880043"><ele>248.6</ele><time>2018-05-01T19:54:43Z</time></trkpt>
<trkpt lat="49.167595" lon="7.880558"><ele>248.6</ele><time>2018-05-01T19:54:47Z</time></trkpt>
<trkpt lat="49.167586" lon="7.881039"><ele>246.6</ele><time>2018-05-01T19:54:50Z</time></trkpt>
<trkpt lat="49.167531" lon="7.881177"><ele>246.6</ele><time>2018-05-01T19:54:51Z</time></trkpt>
<trkpt lat="49.167456" lon="7.881257"><ele>240.6</ele><time>2018-05-01T19:54:52Z</time></trkpt>
<trkpt lat="49.16699" lon="7.880885"><ele>240.6</ele><time>2018-05-01T19:54:55Z</time></trkpt>
<trkpt lat="49.166848" lon="7.880839"><ele>240.6</ele><time>2018-05-01T19:54:56Z</time></trkpt>
<trkpt lat="49.166582" lon="7.880859"><ele>241.8</ele><time>2018-05-01T19:54:58Z</time></trkpt>
<trkpt lat="49.166403" lon="7.880838"><ele>241.8</ele><time>2018-05-01T19:54:59Z</time></trkpt>
<trkpt lat="49.16627" lon="7.880751"><ele>245.8</ele><time>2018-05-01T19:55:00Z</time></trkpt>
<trkpt lat="49.165743" lon="7.880275"><ele>247.0</ele><time>2018-05-01T19:55:03Z</time></trkpt>
<trkpt lat="49.165555" lon="7.880056"><ele>247.0</ele><time>2018-05-01T19:55:04Z</time></trkpt>
<trkpt lat="49.165354" lon="7.879868"><ele>251.8</ele><time>2018-05-01T19:55:06Z</time></trkpt>
<trkpt lat="49.164919" lon="7.879522"><ele>250.2</ele><time>2018-05-01T19:55:09Z</time></trkpt>
<trkpt lat="49.164631" lon="7.879327"><ele>250.2</ele><time>2018-05-01T19:55:10Z</time></trkpt>
<trkpt lat="49.16437" lon="7.879196"><ele>250.2</ele><time>2018-05-01T19:55:12Z</time></trkpt>
<trkpt lat="49.164166" lon="7.879148"><ele>265.2</ele><time>2018-05-01T19:55:13Z</time></trkpt>
<trkpt lat="49.163938" lon="7.879194"><ele>253.0</ele><time>2018-05-01T19:55:15Z</time></trkpt>
<trkpt lat="49.163211" lon="7.879458"><ele>255.0</ele><time>2018-05-01T19:55:19Z</time></trkpt>
<trkpt lat="49.162817" lon="7.879546"><ele>255.0</ele><time>2018-05-01T19:55:21Z</time></trkpt>
<trkpt lat="49.162575" lon="7.879542"><ele>255.0</ele><time>2018-05-01T19:55:22Z</time></trkpt>
<trkpt lat="49.16234" lon="7.879486"><ele>254.4</ele><time>2018-05-01T19:55:24Z</time></trkpt>
<trkpt lat="49.162179" lon="7.879349"><ele>254.4</ele><time>2018-05-01T19:55:25Z</time></trkpt>
<trkpt lat="49.16163" lon="7.878654"><ele>255.4</ele><time>2018-05-01T19:55:29Z</time></trkpt>
<trkpt lat="49.161453" lon="7.878489"><ele>255.4</ele><time>2018-05-01T19:55:30Z</time></trkpt>
<trkpt lat="49.161208" lon="7.878366"><ele>255.4</ele><time>2018-05-01T19:55:32Z</time></trkpt>
<trkpt lat="49.160967" lon="7.878292"><ele>262.8</ele><time>2018-05-01T19:55:33Z</time></trkpt>
<trkpt lat="49.160679" lon="7.878271"><ele>261.4</ele><time>2018-05-01T19:55:35Z</time></trkpt>
<trkpt lat="49.160477" lon="7.878302"><ele>261.4</ele><time>2018-05-01T19:55:36Z</time></trkpt>
<trkpt lat="49.160288" lon="7.878366"><ele>258.2</ele><time>2018-05-01T19:55:37Z</time></trkpt>
<trkpt lat="49.160069" lon="7.878493"><ele>258.2</ele><time>2018-05-01T19:55:38Z</time></trkpt>
<trkpt lat="49.159736" lon="7.878798"><ele>267.2</ele><time>2018-05-01T19:55:40Z</time></trkpt>
<trkpt lat="49.159573" lon="7.878994"><ele>267.2</ele><time>2018-05-01T19:55:42Z</time></trkpt>
<trkpt lat="49.159315" lon="7.879419"><ele>265.6</ele><time>2018-05-01T19:55:44Z</time></trkpt>
<trkpt lat="49.158866" lon="7.880504"><ele>273.0</ele><time>2018-05-01T19:55:48Z</time></trkpt>
<trkpt lat="49.1587" lon="7.881148"><ele>272.0</ele><time>2018-05-01T19:55:51Z</time></trkpt>
<trkpt lat="49.15856" lon="7.881578"><ele>272.0</ele><time>2018-05-01T19:55:53Z</time></trkpt>
<trkpt lat="49.1581" lon="7.882268"><ele>270.8</ele><time>2018-05-01T19:55:56Z</time></trkpt>
<trkpt lat="49.158013" lon="7.88237"><ele>270.8</ele><time>2018-05-01T19:55:57Z</time></trkpt>
<trkpt lat="49.157801" lon="7.882558"><ele>271.8</ele><time>2018-05-01T19:55:58Z</time></trkpt>
<trkpt lat="49.157604" lon="7.882803"><ele>271.8</ele><time>2018-05-01T19:56:00Z</time></trkpt>
<trkpt lat="49.156937" lon="7.883693"><ele>275.2</ele><time>2018-05-01T19:56:05Z</time></trkpt>
<trkpt lat="49.156629" lon="7.884153"><ele>280.4</ele><time>2018-05-01T19:56:07Z</time></trkpt>
<trkpt lat="49.156413" lon="7.884376"><ele>281.2</ele><time>2018-05-01T19:56:09Z</time></trkpt>
<trkpt lat="49.156287" lon="7.884415"><ele>281.2</ele><time>2018-05-01T19:56:10Z</time></trkpt>
<trkpt lat="49.156176" lon="7.884422"><ele>281.2</ele><time>2018-05-01T19:56:10Z</time></trkpt>
<trkpt lat="49.15607" lon="7.884367"><ele>281.2</ele><time>2018-05-01T19:56:11Z</time></trkpt>
<trkpt lat="49.155958" lon="7.884264"><ele>281.2</ele><time>2018-05-01T19:56:11Z</time></trkpt>
<trkpt lat="49.155703" lon="7.883751"><ele>287.8</ele><time>2018-05-01T19:56:14Z</time></trkpt>
<trkpt lat="49.155523" lon="7.883345"><ele>287.8</ele><time>2018-05-01T19:56:16Z</time></trkpt>
<trkpt lat="49.155341" lon="7.883114"><ele>292.6</ele><time>2018-05-01T19:56:17Z</time></trkpt>
<trkpt lat="49.155094" lon="7.882884"><ele>292.6</ele><time>2018-05-01T19:56:19Z</time></trkpt>
<trkpt lat="49.154869" lon="7.882747"><ele>291.6</ele><time>2018-05-01T19:56:20Z</time></trkpt>
<trkpt lat="49.154675" lon="7.882678"><ele>291.6</ele><time>2018-05-01T19:56:21Z</time></trkpt>
<trkpt lat="49.154486" lon="7.882681"><ele>291.6</ele><time>2018-05-01T19:56:22Z</time></trkpt>
<trkpt lat="49.15433" lon="7.882759"><ele>291.6</ele><time>2018-05-01T19:56:23Z</time></trkpt>
<trkpt lat="49.154169" lon="7.882883"><ele>291.6</ele><time>2018-05-01T19:56:24Z</time></trkpt>
<trkpt lat="49.153285" lon="7.883897"><ele>285.4</ele><time>2018-05-01T19:56:30Z</time></trkpt>
<trkpt lat="49.152443" lon="7.884758"><ele>277.2</ele><time>2018-05-01T19:56:36Z</time></trkpt>
<trkpt lat="49.151952" lon="7.88511"><ele>278.6</ele><time>2018-05-01T19:56:39Z</time></trkpt>
<trkpt lat="49.151725" lon="7.885204"><ele>278.6</ele><time>2018-05-01T19:56:41Z</time></trkpt>
<trkpt lat="49.151555" lon="7.885195"><ele>273.0</ele><time>2018-05-01T19:56:42Z</time></trkpt>
<trkpt lat="49.1514" lon="7.885109"><ele>273.0</ele><time>2018-05-01T19:56:42Z</time></trkpt>
<trkpt lat="49.151237" lon="7.88495"><ele>272.0</ele><time>2018-05-01T19:56:44Z</time></trkpt>
<trkpt lat="49.150443" lon="7.883935"><ele>271.0</ele><time>2018-05-01T19:56:49Z</time></trkpt>
<trkpt lat="49.149968" lon="7.883038"><ele>267.8</ele><time>2018-05-01T19:56:54Z</time></trkpt>
<trkpt lat="49.149707" lon="7.882503"><ele>267.8</ele><time>2018-05-01T19:56:56Z</time></trkpt>
<trkpt lat="49.149536" lon="7.882277"><ele>266.0</ele><time>2018-05-01T19:56:57Z</time></trkpt>
<trkpt lat="49.148031" lon="7.880982"><ele>270.0</ele><time>2018-05-01T19:57:07Z</time></trkpt>
<trkpt lat="49.146775" lon="7.879801"><ele>272.0</ele><time>2018-05-01T19:57:15Z</time></trkpt>
<trkpt lat="49.146499" lon="7.879641"><ele>265.6</ele><time>2018-05-01T19:57:17Z</time></trkpt>
<trkpt lat="49.145569" lon="7.879324"><ele>260.6</ele><time>2018-05-01T19:57:23Z</time></trkpt>
<trkpt lat="49.1452" lon="7.879025"><ele>261.0</ele><time>2018-05-01T19:57:25Z</time></trkpt>
<trkpt lat="49.144172" lon="7.877498"><ele>255.6</ele><time>2018-05-01T19:57:33Z</time></trkpt>
<trkpt lat="49.143827" lon="7.87713"><ele>248.6</ele><time>2018-05-01T19:57:35Z</time></trkpt>
<trkpt lat="49.143464" lon="7.876888"><ele>248.6</ele><time>2018-05-01T19:57:38Z</time></trkpt>
<trkpt lat="49.142065" lon="7.876236"><ele>249.2</ele><time>2018-05-01T19:57:46Z</time></trkpt>
<trkpt lat="49.141745" lon="7.876017"><ele>249.2</ele><time>2018-05-01T19:57:48Z</time></trkpt>
<trkpt lat="49.141099" lon="7.875394"><ele>251.4</ele><time>2018-05-01T19:57:52Z</time></trkpt>
<trkpt lat="49.140673" lon="7.875042"><ele>250.4</ele><time>2018-05-01T19:57:55Z</time></trkpt>
<trkpt lat="49.140066" lon="7.874623"><ele>249.2</ele><time>2018-05-01T19:57:59Z</time></trkpt>
<trkpt lat="49.139556" lon="7.874351"><ele>248.6</ele><time>2018-05-01T19:58:02Z</time></trkpt>
<trkpt lat="49.139326" lon="7.87427"><ele>248.6</ele><time>2018-05-01T19:58:03Z</time></trkpt>
<trkpt lat="49.138436" lon="7.873877"><ele>250.4</ele><time>2018-05-01T19:58:08Z</time></trkpt>
<trkpt lat="49.137488" lon="7.873281"><ele>249.4</ele><time>2018-05-01T19:58:14Z</time></trkpt>
<trkpt lat="49.136899" lon="7.872876"><ele>249.4</ele><time>2018-05-01T19:58:18Z</time></trkpt>
<trkpt lat="49.1366" lon="7.872719"><ele>244.8</ele><time>2018-05-01T19:58:20Z</time></trkpt>
<trkpt lat="49.136373" lon="7.872701"><ele>244.8</ele><time>2018-05-01T19:58:21Z</time></trkpt>
<trkpt lat="49.136217" lon="7.872735"><ele>244.8</ele><time>2018-05-01T19:58:22Z</time></trkpt>
<trkpt lat="49.135962" lon="7.872936"><ele>244.8</ele><time>2018-05-01T19:58:23Z</time></trkpt>
<trkpt lat="49.135427" lon="7.873706"><ele>248.8</ele><time>2018-05-01T19:58:27Z</time></trkpt>
<trkpt lat="49.135254" lon="7.87388"><ele>248.8</ele><time>2018-05-01T19:58:29Z</time></trkpt>
<trkpt lat="49.134997" lon="7.873965"><ele>243.0</ele><time>2018-05-01T19:58:30Z</time></trkpt>
<trkpt lat="49.134685" lon="7.873853"><ele>243.0</ele><time>2018-05-01T19:58:32Z</time></trkpt>
<trkpt lat="49.134271" lon="7.873529"><ele>243.0</ele><time>2018-05-01T19:58:35Z</time></trkpt>
<trkpt lat="49.133399" lon="7.872036"><ele>241.2</ele><time>2018-05-01T19:58:42Z</time></trkpt>
<trkpt lat="49.133085" lon="7.871848"><ele>241.4</ele><time>2018-05-01T19:58:44Z</time></trkpt>
<trkpt lat="49.132748" lon="7.871835"><ele>241.4</ele><time>2018-05-01T19:58:46Z</time></trkpt>
<trkpt lat="49.132457" lon="7.871927"><ele>240.4</ele><time>2018-05-01T19:58:47Z</time></trkpt>
<trkpt lat="49.131927" lon="7.872199"><ele>240.4</ele><time>2018-05-01T19:58:51Z</time></trkpt>
<trkpt lat="49.131305" lon="7.87288"><ele>243.0</ele><time>2018-05-01T19:58:55Z</time></trkpt>
<trkpt lat="49.130643" lon="7.873454"><ele>240.8</ele><time>2018-05-01T19:58:59Z</time></trkpt>
<trkpt lat="49.129383" lon="7.873939"><ele>236.2</ele><time>2018-05-01T19:59:07Z</time></trkpt>
<trkpt lat="49.129383" lon="7.873939"><ele>236.2</ele><time>2018-05-01T19:59:07Z</time></trkpt>
<trkpt lat="49.129078" lon="7.874158"><ele>235.0</ele><time>2018-05-01T19:59:11Z</time></trkpt>
<trkpt lat="49.128924" lon="7.874315"><ele>235.8</ele><time>2018-05-01T19:59:13Z</time></trkpt>
<trkpt lat="49.128644" lon="7.874891"><ele>235.8</ele><time>2018-05-01T19:59:18Z</time></trkpt>
<trkpt lat="49.128344" lon="7.875436"><ele>244.6</ele><time>2018-05-01T19:59:24Z</time></trkpt>
<trkpt lat="49.12819" lon="7.875762"><ele>229.2</ele><time>2018-05-01T19:59:27Z</time></trkpt>
<trkpt lat="49.128131" lon="7.876115"><ele>232.6</ele><time>2018-05-01T19:59:30Z</time></trkpt>
<trkpt lat="49.128133" lon="7.87657"><ele>232.6</ele><time>2018-05-01T19:59:33Z</time></trkpt>
<trkpt lat="49.128183" lon="7.877714"><ele>232.2</ele><time>2018-05-01T19:59:41Z</time></trkpt>
<trkpt lat="49.128132" lon="7.877909"><ele>232.2</ele><time>2018-05-01T19:59:43Z</time></trkpt>
<trkpt lat="49.128069" lon="7.87806"><ele>232.2</ele><time>2018-05-01T19:59:44Z</time></trkpt>
<trkpt lat="49.127804" lon="7.878172"><ele>232.2</ele><time>2018-05-01T19:59:47Z</time></trkpt>
<trkpt lat="49.127468" lon="7.878267"><ele>223.6</ele><time>2018-05-01T19:59:52Z</time></trkpt>
<trkpt lat="49.127393" lon="7.878666"><ele>224.4</ele><time>2018-05-01T19:59:55Z</time></trkpt>
<trkpt lat="49.127437" lon="7.878786"><ele>224.4</ele><time>2018-05-01T19:59:55Z</time></trkpt>
<trkpt lat="49.127509" lon="7.879084"><ele>229.2</ele><time>2018-05-01T19:59:57Z</time></trkpt>
<trkpt lat="49.127701" lon="7.879993"><ele>226.0</ele><time>2018-05-01T20:00:02Z</time></trkpt>
<trkpt lat="49.127775" lon="7.880262"><ele>225.2</ele><time>2018-05-01T20:00:04Z</time></trkpt>
<trkpt lat="49.128198" lon="7.881396"><ele>226.4</ele><time>2018-05-01T20:00:11Z</time></trkpt>
<trkpt lat="49.128526" lon="7.882588"><ele>228.8</ele><time>2018-05-01T20:00:18Z</time></trkpt>
<trkpt lat="49.128649" lon="7.882975"><ele>228.8</ele><time>2018-05-01T20:00:21Z</time></trkpt>
<trkpt lat="49.129763" lon="7.885498"><ele>244.6</ele><time>2018-05-01T20:00:37Z</time></trkpt>
<trkpt lat="49.130024" lon="7.886188"><ele>249.8</ele><time>2018-05-01T20:00:42Z</time></trkpt>
<trkpt lat="49.130134" lon="7.886678"><ele>255.8</ele><time>2018-05-01T20:00:44Z</time></trkpt>
<trkpt lat="49.130187" lon="7.887204"><ele>255.8</ele><time>2018-05-01T20:00:47Z</time></trkpt>
<trkpt lat="49.130155" lon="7.887792"><ele>263.0</ele><time>2018-05-01T20:00:51Z</time></trkpt>
<trkpt lat="49.129963" lon="7.889158"><ele>271.2</ele><time>2018-05-01T20:00:58Z</time></trkpt>
<trkpt lat="49.129841" lon="7.889833"><ele>269.4</ele><time>2018-05-01T20:01:02Z</time></trkpt>
<trkpt lat="49.129499" lon="7.892073"><ele>269.6</ele><time>2018-05-01T20:01:15Z</time></trkpt>
<trkpt lat="49.129498" lon="7.892754"><ele>266.8</ele><time>2018-05-01T20:01:18Z</time></trkpt>
<trkpt lat="49.129523" lon="7.893076"><ele>266.8</ele><time>2018-05-01T20:01:20Z</time></trkpt>
<trkpt lat="49.129522" lon="7.893249"><ele>266.8</ele><time>2018-05-01T20:01:21Z</time></trkpt>
<trkpt lat="49.129495" lon="7.893417"><ele>263.8</ele><time>2018-05-01T20:01:22Z</time></trkpt>
<trkpt lat="49.129398" lon="7.893726"><ele>263.8</ele><time>2018-05-01T20:01:24Z</time></trkpt>
<trkpt lat="49.128858" lon="7.894827"><ele>265.8</ele><time>2018-05-01T20:01:31Z</time></trkpt>
<trkpt lat="49.128654" lon="7.895171"><ele>273.4</ele><time>2018-05-01T20:01:34Z</time></trkpt>
<trkpt lat="49.128455" lon="7.895277"><ele>273.4</ele><time>2018-05-01T20:01:36Z</time></trkpt>
<trkpt lat="49.128252" lon="7.89535"><ele>268.8</ele><time>2018-05-01T20:01:37Z</time></trkpt>
<trkpt lat="49.12732" lon="7.89551"><ele>268.0</ele><time>2018-05-01T20:01:44Z</time></trkpt>
<trkpt lat="49.127033" lon="7.895598"><ele>268.0</ele><time>2018-05-01T20:01:46Z</time></trkpt>
<trkpt lat="49.12691" lon="7.89574"><ele>268.0</ele><time>2018-05-01T20:01:47Z</time></trkpt>
<trkpt lat="49.126765" lon="7.89604"><ele>277.2</ele><time>2018-05-01T20:01:48Z</time></trkpt>
<trkpt lat="49.126695" lon="7.89628"><ele>277.2</ele><time>2018-05-01T20:01:50Z</time></trkpt>
<trkpt lat="49.126431" lon="7.897928"><ele>292.0</ele><time>2018-05-01T20:01:57Z</time></trkpt>
<trkpt lat="49.126336" lon="7.899144"><ele>300.6</ele><time>2018-05-01T20:02:03Z</time></trkpt>
<trkpt lat="49.126559" lon="7.901274"><ele>299.4</ele><time>2018-05-01T20:02:13Z</time></trkpt>
<trkpt lat="49.126549" lon="7.901471"><ele>299.4</ele><time>2018-05-01T20:02:13Z</time></trkpt>
<trkpt lat="49.126518" lon="7.901657"><ele>299.4</ele><time>2018-05-01T20:02:14Z</time></trkpt>
<trkpt lat="49.126466" lon="7.90185"><ele>302.2</ele><time>2018-05-01T20:02:15Z</time></trkpt>
<trkpt lat="49.126061" lon="7.902883"><ele>309.0</ele><time>2018-05-01T20:02:21Z</time></trkpt>
<trkpt lat="49.125937" lon="7.903159"><ele>309.0</ele><time>2018-05-01T20:02:22Z</time></trkpt>
<trkpt lat="49.125593" lon="7.904078"><ele>303.8</ele><time>2018-05-01T20:02:27Z</time></trkpt>
<trkpt lat="49.125492" lon="7.904473"><ele>310.4</ele><time>2018-05-01T20:02:29Z</time></trkpt>
<trkpt lat="49.125414" lon="7.904921"><ele>310.4</ele><time>2018-05-01T20:02:31Z</time></trkpt>
<trkpt lat="49.125404" lon="7.905326"><ele>313.2</ele><time>2018-05-01T20:02:33Z</time></trkpt>
<trkpt lat="49.125029" lon="7.905618"><ele>313.2</ele><time>2018-05-01T20:02:35Z</time></trkpt>
<trkpt lat="49.124875" lon="7.905798"><ele>297.8</ele><time>2018-05-01T20:02:37Z</time></trkpt>
<trkpt lat="49.124747" lon="7.906016"><ele>298.2</ele><time>2018-05-01T20:02:38Z</time></trkpt>
<trkpt lat="49.124446" lon="7.906749"><ele>300.2</ele><time>2018-05-01T20:02:41Z</time></trkpt>
<trkpt lat="49.124148" lon="7.907404"><ele>299.4</ele><time>2018-05-01T20:02:44Z</time></trkpt>
<trkpt lat="49.124111" lon="7.907536"><ele>302.2</ele><time>2018-05-01T20:02:45Z</time></trkpt>
<trkpt lat="49.124049" lon="7.908936"><ele>302.4</ele><time>2018-05-01T20:02:50Z</time></trkpt>
<trkpt lat="49.12403" lon="7.910046"><ele>301.6</ele><time>2018-05-01T20:02:54Z</time></trkpt>
<trkpt lat="49.123995" lon="7.910716"><ele>301.6</ele><time>2018-05-01T20:02:56Z</time></trkpt>
<trkpt lat="49.12388" lon="7.911252"><ele>299.0</ele><time>2018-05-01T20:02:58Z</time></trkpt>
<trkpt lat="49.123679" lon="7.911435"><ele>299.0</ele><time>2018-05-01T20:03:00Z</time></trkpt>
<trkpt lat="49.123148" lon="7.911453"><ele>302.6</ele><time>2018-05-01T20:03:03Z</time></trkpt>
<trkpt lat="49.122903" lon="7.911533"><ele>302.6</ele><time>2018-05-01T20:03:04Z</time></trkpt>
<trkpt lat="49.122715" lon="7.911763"><ele>296.2</ele><time>2018-05-01T20:03:05Z</time></trkpt>
<trkpt lat="49.122178" lon="7.912617"><ele>294.6</ele><time>2018-05-01T20:03:10Z</time></trkpt>
<trkpt lat="49.121678" lon="7.91328"><ele>294.6</ele><time>2018-05-01T20:03:13Z</time></trkpt>
<trkpt lat="49.121474" lon="7.913671"><ele>295.2</ele><time>2018-05-01T20:03:15Z</time></trkpt>
<trkpt lat="49.12138" lon="7.913905"><ele>295.2</ele><time>2018-05-01T20:03:16Z</time></trkpt>
<trkpt lat="49.121045" lon="7.915279"><ele>318.8</ele><time>2018-05-01T20:03:22Z</time></trkpt>
<trkpt lat="49.120806" lon="7.915862"><ele>318.2</ele><time>2018-05-01T20:03:24Z</time></trkpt>
<trkpt lat="49.120659" lon="7.916011"><ele>318.2</ele><time>2018-05-01T20:03:25Z</time></trkpt>
<trkpt lat="49.120523" lon="7.916048"><ele>318.2</ele><time>2018-05-01T20:03:26Z</time></trkpt>
<trkpt lat="49.120402" lon="7.916027"><ele>318.2</ele><time>2018-05-01T20:03:27Z</time></trkpt>
<trkpt lat="49.120292" lon="7.915975"><ele>318.2</ele><time>2018-05-01T20:03:27Z</time></trkpt>
<trkpt lat="49.120008" lon="7.915656"><ele>307.6</ele><time>2018-05-01T20:03:29Z</time></trkpt>
<trkpt lat="49.119817" lon="7.915579"><ele>310.0</ele><time>2018-05-01T20:03:31Z</time></trkpt>
<trkpt lat="49.119689" lon="7.915616"><ele>310.0</ele><time>2018-05-01T20:03:31Z</time></trkpt>
<trkpt lat="49.119633" lon="7.915653"><ele>310.0</ele><time>2018-05-01T20:03:32Z</time></trkpt>
<trkpt lat="49.119565" lon="7.915787"><ele>310.0</ele><time>2018-05-01T20:03:32Z</time></trkpt>
<trkpt lat="49.119536" lon="7.915913"><ele>314.4</ele><time>2018-05-01T20:03:33Z</time></trkpt>
<trkpt lat="49.119483" lon="7.91641"><ele>314.4</ele><time>2018-05-01T20:03:35Z</time></trkpt>
<trkpt lat="49.119434" lon="7.916599"><ele>314.4</ele><time>2018-05-01T20:03:35Z</time></trkpt>
<trkpt lat="49.119323" lon="7.916808"><ele>325.4</ele><time>2018-05-01T20:03:36Z</time></trkpt>
<trkpt lat="49.11914" lon="7.917023"><ele>315.4</ele><time>2018-05-01T20:03:38Z</time></trkpt>
<trkpt lat="49.118962" lon="7.917058"><ele>315.4</ele><time>2018-05-01T20:03:39Z</time></trkpt>
<trkpt lat="49.1187" lon="7.917011"><ele>315.4</ele><time>2018-05-01T20:03:40Z</time></trkpt>
<trkpt lat="49.118042" lon="7.91701"><ele>307.2</ele><time>2018-05-01T20:03:44Z</time></trkpt>
<trkpt lat="49.117896" lon="7.917047"><ele>307.2</ele><time>2018-05-01T20:03:45Z</time></trkpt>
<trkpt lat="49.117746" lon="7.917115"><ele>307.2</ele><time>2018-05-01T20:03:46Z</time></trkpt>
<trkpt lat="49.117633" lon="7.917241"><ele>307.2</ele><time>2018-05-01T20:03:47Z</time></trkpt>
<trkpt lat="49.117603" lon="7.917444"><ele>307.2</ele><time>2018-05-01T20:03:47Z</time></trkpt>
<trkpt lat="49.117561" lon="7.918319"><ele>316.0</ele><time>2018-05-01T20:03:51Z</time></trkpt>
<trkpt lat="49.117565" lon="7.918961"><ele>316.0</ele><time>2018-05-01T20:03:53Z</time></trkpt>
<trkpt lat="49.117591" lon="7.91954"><ele>310.4</ele><time>2018-05-01T20:03:55Z</time></trkpt>
<trkpt lat="49.117709" lon="7.920622"><ele>303.4</ele><time>2018-05-01T20:03:59Z</time></trkpt>
<trkpt lat="49.117723" lon="7.920879"><ele>296.0</ele><time>2018-05-01T20:04:00Z</time></trkpt>
<trkpt lat="49.117677" lon="7.921201"><ele>296.0</ele><time>2018-05-01T20:04:01Z</time></trkpt>
<trkpt lat="49.117466" lon="7.921677"><ele>301.4</ele><time>2018-05-01T20:04:03Z</time></trkpt>
<trkpt lat="49.117026" lon="7.922453"><ele>301.4</ele><time>2018-05-01T20:04:07Z</time></trkpt>
<trkpt lat="49.116849" lon="7.92289"><ele>289.2</ele><time>2018-05-01T20:04:09Z</time></trkpt>
<trkpt lat="49.116164" lon="7.926477"><ele>263.4</ele><time>2018-05-01T20:04:23Z</time></trkpt>
<trkpt lat="49.116148" lon="7.926496"><ele>263.4</ele><time>2018-05-01T20:04:23Z</time></trkpt>
<trkpt lat="49.116004" lon="7.926513"><ele>263.4</ele><time>2018-05-01T20:04:24Z</time></trkpt>
<trkpt lat="49.116023" lon="7.926878"><ele>262.8</ele><time>2018-05-01T20:04:28Z</time></trkpt>
<trkpt lat="49.116007" lon="7.927239"><ele>262.8</ele><time>2018-05-01T20:04:32Z</time></trkpt>
<trkpt lat="49.115892" lon="7.927875"><ele>262.8</ele><time>2018-05-01T20:04:39Z</time></trkpt>
<trkpt lat="49.11577" lon="7.928451"><ele>255.2</ele><time>2018-05-01T20:04:46Z</time></trkpt>
<trkpt lat="49.115638" lon="7.92892"><ele>255.2</ele><time>2018-05-01T20:04:52Z</time></trkpt>
<trkpt lat="49.115563" lon="7.929101"><ele>255.2</ele><time>2018-05-01T20:04:54Z</time></trkpt>
<trkpt lat="49.115476" lon="7.929213"><ele>254.0</ele><time>2018-05-01T20:04:56Z</time></trkpt>
<trkpt lat="49.115361" lon="7.929316"><ele>254.0</ele><time>2018-05-01T20:04:58Z</time></trkpt>
<trkpt lat="49.114979" lon="7.929541"><ele>251.6</ele><time>2018-05-01T20:05:05Z</time></trkpt>
<trkpt lat="49.114936" lon="7.929607"><ele>251.6</ele><time>2018-05-01T20:05:07Z</time></trkpt>
<trkpt lat="49.114691" lon="7.930215"><ele>250.8</ele><time>2018-05-01T20:05:19Z</time></trkpt>
<trkpt lat="49.114649" lon="7.930373"><ele>250.8</ele><time>2018-05-01T20:05:21Z</time></trkpt>
<trkpt lat="49.11467" lon="7.930999"><ele>249.8</ele><time>2018-05-01T20:05:25Z</time></trkpt>
<trkpt lat="49.114741" lon="7.931723"><ele>249.4</ele><time>2018-05-01T20:05:30Z</time></trkpt>
<trkpt lat="49.114746" lon="7.93223"><ele>249.4</ele><time>2018-05-01T20:05:33Z</time></trkpt>
<trkpt lat="49.11466" lon="7.932862"><ele>248.6</ele><time>2018-05-01T20:05:37Z</time></trkpt>
<trkpt lat="49.114485" lon="7.933819"><ele>247.4</ele><time>2018-05-01T20:05:44Z</time></trkpt>
<trkpt lat="49.114391" lon="7.934974"><ele>248.8</ele><time>2018-05-01T20:05:51Z</time></trkpt>
<trkpt lat="49.114157" lon="7.935983"><ele>247.6</ele><time>2018-05-01T20:05:58Z</time></trkpt>
<trkpt lat="49.114013" lon="7.936474"><ele>247.6</ele><time>2018-05-01T20:06:02Z</time></trkpt>
<trkpt lat="49.113761" lon="7.937538"><ele>245.4</ele><time>2018-05-01T20:06:09Z</time></trkpt>
<trkpt lat="49.113583" lon="7.938086"><ele>245.4</ele><time>2018-05-01T20:06:13Z</time></trkpt>
<trkpt lat="49.113295" lon="7.939115"><ele>241.2</ele><time>2018-05-01T20:06:20Z</time></trkpt>
<trkpt lat="49.113269" lon="7.93934"><ele>240.8</ele><time>2018-05-01T20:06:21Z</time></trkpt>
<trkpt lat="49.113259" lon="7.939587"><ele>240.8</ele><time>2018-05-01T20:06:23Z</time></trkpt>
<trkpt lat="49.113229" lon="7.939745"><ele>240.8</ele><time>2018-05-01T20:06:24Z</time></trkpt>
<trkpt lat="49.113124" lon="7.940127"><ele>241.6</ele><time>2018-05-01T20:06:27Z</time></trkpt>
<trkpt lat="49.111892" lon="7.947545"><ele>250.6</ele><time>2018-05-01T20:07:16Z</time></trkpt>
<trkpt lat="49.111846" lon="7.947968"><ele>250.6</ele><time>2018-05-01T20:07:18Z</time></trkpt>
<trkpt lat="49.111817" lon="7.948468"><ele>252.0</ele><time>2018-05-01T20:07:22Z</time></trkpt>
<trkpt lat="49.111823" lon="7.948842"><ele>252.0</ele><time>2018-05-01T20:07:24Z</time></trkpt>
<trkpt lat="49.111989" lon="7.950967"><ele>252.2</ele><time>2018-05-01T20:07:38Z</time></trkpt>
<trkpt lat="49.111989" lon="7.951362"><ele>252.2</ele><time>2018-05-01T20:07:40Z</time></trkpt>
<trkpt lat="49.111946" lon="7.951955"><ele>253.0</ele><time>2018-05-01T20:07:44Z</time></trkpt>
<trkpt lat="49.111884" lon="7.952317"><ele>253.0</ele><time>2018-05-01T20:07:46Z</time></trkpt>
<trkpt lat="49.111771" lon="7.952791"><ele>251.4</ele><time>2018-05-01T20:07:50Z</time></trkpt>
<trkpt lat="49.111449" lon="7.9538"><ele>237.4</ele><time>2018-05-01T20:07:57Z</time></trkpt>
<trkpt lat="49.111358" lon="7.954223"><ele>243.8</ele><time>2018-05-01T20:08:00Z</time></trkpt>
<trkpt lat="49.111288" lon="7.954712"><ele>243.8</ele><time>2018-05-01T20:08:03Z</time></trkpt>
<trkpt lat="49.111184" lon="7.955635"><ele>246.6</ele><time>2018-05-01T20:08:09Z</time></trkpt>
<trkpt lat="49.1111" lon="7.956099"><ele>246.2</ele><time>2018-05-01T20:08:12Z</time></trkpt>
<trkpt lat="49.110829" lon="7.957077"><ele>236.4</ele><time>2018-05-01T20:08:19Z</time></trkpt>
<trkpt lat="49.110437" lon="7.959521"><ele>235.8</ele><time>2018-05-01T20:08:35Z</time></trkpt>
<trkpt lat="49.110347" lon="7.959943"><ele>235.8</ele><time>2018-05-01T20:08:38Z</time></trkpt>
<trkpt lat="49.110242" lon="7.960326"><ele>236.4</ele><time>2018-05-01T20:08:41Z</time></trkpt>
<trkpt lat="49.110035" lon="7.960902"><ele>240.6</ele><time>2018-05-01T20:08:45Z</time></trkpt>
<trkpt lat="49.109793" lon="7.961502"><ele>230.6</ele><time>2018-05-01T20:08:49Z</time></trkpt>
<trkpt lat="49.109634" lon="7.961994"><ele>235.4</ele><time>2018-05-01T20:08:53Z</time></trkpt>
<trkpt lat="49.109491" lon="7.962524"><ele>242.2</ele><time>2018-05-01T20:08:57Z</time></trkpt>
<trkpt lat="49.109099" lon="7.964208"><ele>240.8</ele><time>2018-05-01T20:09:08Z</time></trkpt>
<trkpt lat="49.108974" lon="7.964681"><ele>240.8</ele><time>2018-05-01T20:09:11Z</time></trkpt>
<trkpt lat="49.108898" lon="7.965128"><ele>239.8</ele><time>2018-05-01T20:09:14Z</time></trkpt>
<trkpt lat="49.108836" lon="7.965841"><ele>237.4</ele><time>2018-05-01T20:09:19Z</time></trkpt>
<trkpt lat="49.108754" lon="7.967067"><ele>234.0</ele><time>2018-05-01T20:09:27Z</time></trkpt>
<trkpt lat="49.108666" lon="7.967686"><ele>227.8</ele><time>2018-05-01T20:09:31Z</time></trkpt>
<trkpt lat="49.108615" lon="7.96793"><ele>227.8</ele><time>2018-05-01T20:09:33Z</time></trkpt>
<trkpt lat="49.10848" lon="7.968355"><ele>227.4</ele><time>2018-05-01T20:09:36Z</time></trkpt>
<trkpt lat="49.108272" lon="7.968801"><ele>223.4</ele><time>2018-05-01T20:09:39Z</time></trkpt>
<trkpt lat="49.107455" lon="7.969737"><ele>225.4</ele><time>2018-05-01T20:09:49Z</time></trkpt>
<trkpt lat="49.107261" lon="7.969986"><ele>225.4</ele><time>2018-05-01T20:09:52Z</time></trkpt>
<trkpt lat="49.107069" lon="7.97029"><ele>229.8</ele><time>2018-05-01T20:09:54Z</time></trkpt>
<trkpt lat="49.106853" lon="7.970701"><ele>229.8</ele><time>2018-05-01T20:09:58Z</time></trkpt>
<trkpt lat="49.106669" lon="7.971107"><ele>242.4</ele><time>2018-05-01T20:10:01Z</time></trkpt>
<trkpt lat="49.10635" lon="7.971889"><ele>226.8</ele><time>2018-05-01T20:10:07Z</time></trkpt>
<trkpt lat="49.106157" lon="7.972235"><ele>226.8</ele><time>2018-05-01T20:10:10Z</time></trkpt>
<trkpt lat="49.105781" lon="7.972628"><ele>219.4</ele><time>2018-05-01T20:10:15Z</time></trkpt>
<trkpt lat="49.105479" lon="7.972913"><ele>219.4</ele><time>2018-05-01T20:10:18Z</time></trkpt>
<trkpt lat="49.105115" lon="7.973049"><ele>219.4</ele><time>2018-05-01T20:10:22Z</time></trkpt>
<trkpt lat="49.104108" lon="7.972987"><ele>214.0</ele><time>2018-05-01T20:10:32Z</time></trkpt>
<trkpt lat="49.103738" lon="7.973055"><ele>214.0</ele><time>2018-05-01T20:10:35Z</time></trkpt>
<trkpt lat="49.103571" lon="7.973183"><ele>214.0</ele><time>2018-05-01T20:10:37Z</time></trkpt>
<trkpt lat="49.102731" lon="7.974505"><ele>219.0</ele><time>2018-05-01T20:10:49Z</time></trkpt>
<trkpt lat="49.102619" lon="7.974734"><ele>219.0</ele><time>2018-05-01T20:10:51Z</time></trkpt>
<trkpt lat="49.10243" lon="7.975233"><ele>213.4</ele><time>2018-05-01T20:10:54Z</time></trkpt>
<trkpt lat="49.102265" lon="7.976186"><ele>217.2</ele><time>2018-05-01T20:11:01Z</time></trkpt>
<trkpt lat="49.102094" lon="7.976984"><ele>223.0</ele><time>2018-05-01T20:11:06Z</time></trkpt>
<trkpt lat="49.10193" lon="7.977389"><ele>223.0</ele><time>2018-05-01T20:11:09Z</time></trkpt>
<trkpt lat="49.101711" lon="7.977761"><ele>231.0</ele><time>2018-05-01T20:11:13Z</time></trkpt>
<trkpt lat="49.101592" lon="7.977995"><ele>210.8</ele><time>2018-05-01T20:11:15Z</time></trkpt>
<trkpt lat="49.10148" lon="7.978329"><ele>210.8</ele><time>2018-05-01T20:11:18Z</time></trkpt>
<trkpt lat="49.101422" lon="7.97867"><ele>213.8</ele><time>2018-05-01T20:11:20Z</time></trkpt>
<trkpt lat="49.101357" lon="7.97937"><ele>215.0</ele><time>2018-05-01T20:11:24Z</time></trkpt>
<trkpt lat="49.101306" lon="7.97975"><ele>215.0</ele><time>2018-05-01T20:11:27Z</time></trkpt>
<trkpt lat="49.101215" lon="7.980108"><ele>216.0</ele><time>2018-05-01T20:11:29Z</time></trkpt>
<trkpt lat="49.101125" lon="7.980373"><ele>216.0</ele><time>2018-05-01T20:11:31Z</time></trkpt>
<trkpt lat="49.101012" lon="7.980628"><ele>216.0</ele><time>2018-05-01T20:11:33Z</time></trkpt>
<trkpt lat="49.100791" lon="7.981028"><ele>204.4</ele><time>2018-05-01T20:11:37Z</time></trkpt>
<trkpt lat="49.10038" lon="7.981462"><ele>204.4</ele><time>2018-05-01T20:11:42Z</time></trkpt>
<trkpt lat="49.100211" lon="7.981739"><ele>214.2</ele><time>2018-05-01T20:11:44Z</time></trkpt>
<trkpt lat="49.100055" lon="7.982041"><ele>214.2</ele><time>2018-05-01T20:11:47Z</time></trkpt>
<trkpt lat="49.099698" lon="7.984163"><ele>206.6</ele><time>2018-05-01T20:12:01Z</time></trkpt>
<trkpt lat="49.099621" lon="7.984807"><ele>209.0</ele><time>2018-05-01T20:12:05Z</time></trkpt>
<trkpt lat="49.099634" lon="7.985604"><ele>205.0</ele><time>2018-05-01T20:12:10Z</time></trkpt>
<trkpt lat="49.0997" lon="7.986536"><ele>200.8</ele><time>2018-05-01T20:12:16Z</time></trkpt>
<trkpt lat="49.099786" lon="7.987315"><ele>200.8</ele><time>2018-05-01T20:12:21Z</time></trkpt>
<trkpt lat="49.099967" lon="7.988614"><ele>193.2</ele><time>2018-05-01T20:12:30Z</time></trkpt>
<trkpt lat="49.099978" lon="7.989314"><ele>185.8</ele><time>2018-05-01T20:12:34Z</time></trkpt>
<trkpt lat="49.099958" lon="7.98952"><ele>185.8</ele><time>2018-05-01T20:12:35Z</time></trkpt>
<trkpt lat="49.099911" lon="7.989721"><ele>185.8</ele><time>2018-05-01T20:12:37Z</time></trkpt>
<trkpt lat="49.099638" lon="7.990312"><ele>180.6</ele><time>2018-05-01T20:12:41Z</time></trkpt>
<trkpt lat="49.099604" lon="7.990444"><ele>180.6</ele><time>2018-05-01T20:12:42Z</time></trkpt>
<trkpt lat="49.099584" lon="7.990603"><ele>180.6</ele><time>2018-05-01T20:12:43Z</time></trkpt>
<trkpt lat="49.099715" lon="7.992879"><ele>176.4</ele><time>2018-05-01T20:13:00Z</time></trkpt>
<trkpt lat="49.099715" lon="7.992879"><ele>176.4</ele><time>2018-05-01T20:13:00Z</time></trkpt>
<trkpt lat="49.099584" lon="7.990603"><ele>180.6</ele><time>2018-05-01T20:13:20Z</time></trkpt>
<trkpt lat="49.099604" lon="7.990444"><ele>180.6</ele><time>2018-05-01T20:13:21Z</time></trkpt>
<trkpt lat="49.099638" lon="7.990312"><ele>180.6</ele><time>2018-05-01T20:13:22Z</time></trkpt>
<trkpt lat="49.099911" lon="7.989721"><ele>185.8</ele><time>2018-05-01T20:13:29Z</time></trkpt>
<trkpt lat="49.099958" lon="7.98952"><ele>185.8</ele><time>2018-05-01T20:13:31Z</time></trkpt>
<trkpt lat="49.099978" lon="7.989314"><ele>185.8</ele><time>2018-05-01T20:13:32Z</time></trkpt>
<trkpt lat="49.099967" lon="7.988614"><ele>193.2</ele><time>2018-05-01T20:13:39Z</time></trkpt>
<trkpt lat="49.099786" lon="7.987315"><ele>200.8</ele><time>2018-05-01T20:13:50Z</time></trkpt>
<trkpt lat="49.0997" lon="7.986536"><ele>200.8</ele><time>2018-05-01T20:13:57Z</time></trkpt>
<trkpt lat="49.099634" lon="7.985604"><ele>205.0</ele><time>2018-05-01T20:14:06Z</time></trkpt>
<trkpt lat="49.099621" lon="7.984807"><ele>209.0</ele><time>2018-05-01T20:14:13Z</time></trkpt>
<trkpt lat="49.099698" lon="7.984163"><ele>206.6</ele><time>2018-05-01T20:14:18Z</time></trkpt>
<trkpt lat="49.100055" lon="7.982041"><ele>214.2</ele><time>2018-05-01T20:14:38Z</time></trkpt>
<trkpt lat="49.100211" lon="7.981739"><ele>214.2</ele><time>2018-05-01T20:14:41Z</time></trkpt>
<trkpt lat="49.10038" lon="7.981462"><ele>204.4</ele><time>2018-05-01T20:14:44Z</time></trkpt>
<trkpt lat="49.100791" lon="7.981028"><ele>204.4</ele><time>2018-05-01T20:14:51Z</time></trkpt>
<trkpt lat="49.101012" lon="7.980628"><ele>216.0</ele><time>2018-05-01T20:14:56Z</time></trkpt>
<trkpt lat="49.101125" lon="7.980373"><ele>216.0</ele><time>2018-05-01T20:14:59Z</time></trkpt>
<trkpt lat="49.101215" lon="7.980108"><ele>216.0</ele><time>2018-05-01T20:15:01Z</time></trkpt>
<trkpt lat="49.101306" lon="7.97975"><ele>215.0</ele><time>2018-05-01T20:15:05Z</time></trkpt>
<trkpt lat="49.101357" lon="7.97937"><ele>215.0</ele><time>2018-05-01T20:15:08Z</time></trkpt>
<trkpt lat="49.101422" lon="7.97867"><ele>213.8</ele><time>2018-05-01T20:15:14Z</time></trkpt>
<trkpt lat="49.10148" lon="7.978329"><ele>210.8</ele><time>2018-05-01T20:15:17Z</time></trkpt>
<trkpt lat="49.101592" lon="7.977995"><ele>210.8</ele><time>2018-05-01T20:15:21Z</time></trkpt>
<trkpt lat="49.101711" lon="7.977761"><ele>231.0</ele><time>2018-05-01T20:15:24Z</time></trkpt>
<trkpt lat="49.10193" lon="7.977389"><ele>223.0</ele><time>2018-05-01T20:15:29Z</time></trkpt>
<trkpt lat="49.102094" lon="7.976984"><ele>223.0</ele><time>2018-05-01T20:15:33Z</time></trkpt>
<trkpt lat="49.102265" lon="7.976186"><ele>217.2</ele><time>2018-05-01T20:15:40Z</time></trkpt>
<trkpt lat="49.10243" lon="7.975233"><ele>213.4</ele><time>2018-05-01T20:15:49Z</time></trkpt>
<trkpt lat="49.102619" lon="7.974734"><ele>219.0</ele><time>2018-05-01T20:15:54Z</time></trkpt>
<trkpt lat="49.102731" lon="7.974505"><ele>219.0</ele><time>2018-05-01T20:15:57Z</time></trkpt>
<trkpt lat="49.103571" lon="7.973183"><ele>214.0</ele><time>2018-05-01T20:16:14Z</time></trkpt>
<trkpt lat="49.103522" lon="7.973048"><ele>214.0</ele><time>2018-05-01T20:16:14Z</time></trkpt>
<trkpt lat="49.103466" lon="7.972799"><ele>214.0</ele><time>2018-05-01T20:16:15Z</time></trkpt>
<trkpt lat="49.103353" lon="7.972454"><ele>223.6</ele><time>2018-05-01T20:16:17Z</time></trkpt>
<trkpt lat="49.10319" lon="7.971854"><ele>215.2</ele><time>2018-05-01T20:16:19Z</time></trkpt>
<trkpt lat="49.103043" lon="7.971147"><ele>227.0</ele><time>2018-05-01T20:16:21Z</time></trkpt>
<trkpt lat="49.102971" lon="7.970634"><ele>241.8</ele><time>2018-05-01T20:16:23Z</time></trkpt>
<trkpt lat="49.102793" lon="7.969887"><ele>257.0</ele><time>2018-05-01T20:16:26Z</time></trkpt>
<trkpt lat="49.102333" lon="7.96864"><ele>233.0</ele><time>2018-05-01T20:16:31Z</time></trkpt>
<trkpt lat="49.10216" lon="7.967909"><ele>238.8</ele><time>2018-05-01T20:16:34Z</time></trkpt>
<trkpt lat="49.102102" lon="7.967498"><ele>241.6</ele><time>2018-05-01T20:16:35Z</time></trkpt>
<trkpt lat="49.102066" lon="7.967091"><ele>241.6</ele><time>2018-05-01T20:16:36Z</time></trkpt>
<trkpt lat="49.102053" lon="7.966681"><ele>241.6</ele><time>2018-05-01T20:16:38Z</time></trkpt>
<trkpt lat="49.102148" lon="7.966217"><ele>240.6</ele><time>2018-05-01T20:16:39Z</time></trkpt>
<trkpt lat="49.103124" lon="7.962646"><ele>256.0</ele><time>2018-05-01T20:16:52Z</time></trkpt>
<trkpt lat="49.103248" lon="7.962026"><ele>256.2</ele><time>2018-05-01T20:16:55Z</time></trkpt>
<trkpt lat="49.103303" lon="7.961406"><ele>259.4</ele><time>2018-05-01T20:16:57Z</time></trkpt>
<trkpt lat="49.103281" lon="7.960723"><ele>263.8</ele><time>2018-05-01T20:16:59Z</time></trkpt>
<trkpt lat="49.103025" lon="7.959539"><ele>271.0</ele><time>2018-05-01T20:17:03Z</time></trkpt>
<trkpt lat="49.10275" lon="7.957427"><ele>289.2</ele><time>2018-05-01T20:17:11Z</time></trkpt>
<trkpt lat="49.102408" lon="7.955881"><ele>274.8</ele><time>2018-05-01T20:17:16Z</time></trkpt>
<trkpt lat="49.102321" lon="7.955341"><ele>277.4</ele><time>2018-05-01T20:17:18Z</time></trkpt>
<trkpt lat="49.102317" lon="7.95447"><ele>275.6</ele><time>2018-05-01T20:17:21Z</time></trkpt>
<trkpt lat="49.102357" lon="7.953771"><ele>275.4</ele><time>2018-05-01T20:17:23Z</time></trkpt>
<trkpt lat="49.102309" lon="7.953096"><ele>281.2</ele><time>2018-05-01T20:17:26Z</time></trkpt>
<trkpt lat="49.102039" lon="7.952134"><ele>293.4</ele><time>2018-05-01T20:17:29Z</time></trkpt>
<trkpt lat="49.101832" lon="7.951662"><ele>308.4</ele><time>2018-05-01T20:17:31Z</time></trkpt>
<trkpt lat="49.101613" lon="7.951248"><ele>280.2</ele><time>2018-05-01T20:17:33Z</time></trkpt>
<trkpt lat="49.100366" lon="7.949235"><ele>274.4</ele><time>2018-05-01T20:17:43Z</time></trkpt>
<trkpt lat="49.100035" lon="7.948957"><ele>284.0</ele><time>2018-05-01T20:17:45Z</time></trkpt>
<trkpt lat="49.099874" lon="7.948845"><ele>283.4</ele><time>2018-05-01T20:17:46Z</time></trkpt>
<trkpt lat="49.099706" lon="7.948676"><ele>283.4</ele><time>2018-05-01T20:17:47Z</time></trkpt>
<trkpt lat="49.099387" lon="7.948042"><ele>295.0</ele><time>2018-05-01T20:17:49Z</time></trkpt>
<trkpt lat="49.09916" lon="7.947489"><ele>285.0</ele><time>2018-05-01T20:17:52Z</time></trkpt>
<trkpt lat="49.099071" lon="7.947229"><ele>285.0</ele><time>2018-05-01T20:17:53Z</time></trkpt>
<trkpt lat="49.099011" lon="7.946888"><ele>285.0</ele><time>2018-05-01T20:17:54Z</time></trkpt>
<trkpt lat="49.099045" lon="7.946178"><ele>281.8</ele><time>2018-05-01T20:17:56Z</time></trkpt>
<trkpt lat="49.099028" lon="7.945962"><ele>281.8</ele><time>2018-05-01T20:17:57Z</time></trkpt>
<trkpt lat="49.098988" lon="7.945767"><ele>281.0</ele><time>2018-05-01T20:17:58Z</time></trkpt>
<trkpt lat="49.098814" lon="7.945158"><ele>281.0</ele><time>2018-05-01T20:18:00Z</time></trkpt>
<trkpt lat="49.098768" lon="7.944934"><ele>284.2</ele><time>2018-05-01T20:18:01Z</time></trkpt>
<trkpt lat="49.09868" lon="7.94398"><ele>285.8</ele><time>2018-05-01T20:18:04Z</time></trkpt>
<trkpt lat="49.098374" lon="7.942741"><ele>283.0</ele><time>2018-05-01T20:18:08Z</time></trkpt>
<trkpt lat="49.098304" lon="7.942216"><ele>267.4</ele><time>2018-05-01T20:18:10Z</time></trkpt>
<trkpt lat="49.098238" lon="7.941879"><ele>267.4</ele><time>2018-05-01T20:18:12Z</time></trkpt>
<trkpt lat="49.09816" lon="7.941686"><ele>267.4</ele><time>2018-05-01T20:18:12Z</time></trkpt>
<trkpt lat="49.098045" lon="7.941599"><ele>266.2</ele><time>2018-05-01T20:18:13Z</time></trkpt>
<trkpt lat="49.097785" lon="7.941515"><ele>266.2</ele><time>2018-05-01T20:18:14Z</time></trkpt>
<trkpt lat="49.097708" lon="7.941435"><ele>266.2</ele><time>2018-05-01T20:18:15Z</time></trkpt>
<trkpt lat="49.097646" lon="7.94133"><ele>266.2</ele><time>2018-05-01T20:18:15Z</time></trkpt>
<trkpt lat="49.097578" lon="7.941122"><ele>266.2</ele><time>2018-05-01T20:18:16Z</time></trkpt>
<trkpt lat="49.097375" lon="7.93996"><ele>271.8</ele><time>2018-05-01T20:18:20Z</time></trkpt>
<trkpt lat="49.097327" lon="7.939475"><ele>271.8</ele><time>2018-05-01T20:18:22Z</time></trkpt>
<trkpt lat="49.097326" lon="7.939031"><ele>271.8</ele><time>2018-05-01T20:18:23Z</time></trkpt>
<trkpt lat="49.097548" lon="7.937592"><ele>273.2</ele><time>2018-05-01T20:18:28Z</time></trkpt>
<trkpt lat="49.097681" lon="7.936588"><ele>274.8</ele><time>2018-05-01T20:18:32Z</time></trkpt>
<trkpt lat="49.097715" lon="7.936425"><ele>274.8</ele><time>2018-05-01T20:18:32Z</time></trkpt>
<trkpt lat="49.09788" lon="7.935945"><ele>274.8</ele><time>2018-05-01T20:18:34Z</time></trkpt>
<trkpt lat="49.097978" lon="7.935466"><ele>276.8</ele><time>2018-05-01T20:18:36Z</time></trkpt>
<trkpt lat="49.098002" lon="7.935068"><ele>276.8</ele><time>2018-05-01T20:18:37Z</time></trkpt>
<trkpt lat="49.097861" lon="7.934161"><ele>280.4</ele><time>2018-05-01T20:18:40Z</time></trkpt>
<trkpt lat="49.097772" lon="7.933687"><ele>280.4</ele><time>2018-05-01T20:18:42Z</time></trkpt>
<trkpt lat="49.097317" lon="7.931913"><ele>285.4</ele><time>2018-05-01T20:18:48Z</time></trkpt>
<trkpt lat="49.097147" lon="7.931616"><ele>284.4</ele><time>2018-05-01T20:18:50Z</time></trkpt>
<trkpt lat="49.096943" lon="7.931398"><ele>284.4</ele><time>2018-05-01T20:18:51Z</time></trkpt>
<trkpt lat="49.096164" lon="7.930689"><ele>289.8</ele><time>2018-05-01T20:18:56Z</time></trkpt>
<trkpt lat="49.09591" lon="7.930331"><ele>289.8</ele><time>2018-05-01T20:18:57Z</time></trkpt>
<trkpt lat="49.095754" lon="7.929969"><ele>299.4</ele><time>2018-05-01T20:18:59Z</time></trkpt>
<trkpt lat="49.095622" lon="7.929479"><ele>299.4</ele><time>2018-05-01T20:19:01Z</time></trkpt>
<trkpt lat="49.095274" lon="7.928007"><ele>301.4</ele><time>2018-05-01T20:19:06Z</time></trkpt>
<trkpt lat="49.095225" lon="7.92762"><ele>301.4</ele><time>2018-05-01T20:19:07Z</time></trkpt>
<trkpt lat="49.095189" lon="7.925707"><ele>306.6</ele><time>2018-05-01T20:19:14Z</time></trkpt>
<trkpt lat="49.095101" lon="7.923952"><ele>311.6</ele><time>2018-05-01T20:19:20Z</time></trkpt>
<trkpt lat="49.095064" lon="7.922728"><ele>314.6</ele><time>2018-05-01T20:19:24Z</time></trkpt>
<trkpt lat="49.094823" lon="7.92163"><ele>326.0</ele><time>2018-05-01T20:19:28Z</time></trkpt>
<trkpt lat="49.09472" lon="7.921258"><ele>326.0</ele><time>2018-05-01T20:19:29Z</time></trkpt>
<trkpt lat="49.094081" lon="7.919773"><ele>332.2</ele><time>2018-05-01T20:19:35Z</time></trkpt>
<trkpt lat="49.093803" lon="7.919064"><ele>332.8</ele><time>2018-05-01T20:19:38Z</time></trkpt>
<trkpt lat="49.093557" lon="7.918257"><ele>340.4</ele><time>2018-05-01T20:19:41Z</time></trkpt>
<trkpt lat="49.093074" lon="7.916381"><ele>368.4</ele><time>2018-05-01T20:19:48Z</time></trkpt>
<trkpt lat="49.092972" lon="7.916041"><ele>368.4</ele><time>2018-05-01T20:19:49Z</time></trkpt>
<trkpt lat="49.092527" lon="7.915153"><ele>379.8</ele><time>2018-05-01T20:19:53Z</time></trkpt>
<trkpt lat="49.09243" lon="7.914892"><ele>363.8</ele><time>2018-05-01T20:19:54Z</time></trkpt>
<trkpt lat="49.092353" lon="7.914474"><ele>363.8</ele><time>2018-05-01T20:19:56Z</time></trkpt>
<trkpt lat="49.092299" lon="7.913838"><ele>363.6</ele><time>2018-05-01T20:19:58Z</time></trkpt>
<trkpt lat="49.092253" lon="7.912034"><ele>357.6</ele><time>2018-05-01T20:20:04Z</time></trkpt>
<trkpt lat="49.0924" lon="7.910825"><ele>344.4</ele><time>2018-05-01T20:20:08Z</time></trkpt>
<trkpt lat="49.092565" lon="7.909835"><ele>366.0</ele><time>2018-05-01T20:20:12Z</time></trkpt>
<trkpt lat="49.092585" lon="7.909587"><ele>366.0</ele><time>2018-05-01T20:20:12Z</time></trkpt>
<trkpt lat="49.092478" lon="7.908773"><ele>340.0</ele><time>2018-05-01T20:20:15Z</time></trkpt>
<trkpt lat="49.092409" lon="7.908455"><ele>340.0</ele><time>2018-05-01T20:20:17Z</time></trkpt>
<trkpt lat="49.092151" lon="7.907556"><ele>343.6</ele><time>2018-05-01T20:20:20Z</time></trkpt>
<trkpt lat="49.091758" lon="7.904929"><ele>362.0</ele><time>2018-05-01T20:20:29Z</time></trkpt>
<trkpt lat="49.091511" lon="7.903705"><ele>330.0</ele><time>2018-05-01T20:20:34Z</time></trkpt>
<trkpt lat="49.091062" lon="7.900658"><ele>327.6</ele><time>2018-05-01T20:20:44Z</time></trkpt>
<trkpt lat="49.091015" lon="7.900249"><ele>327.6</ele><time>2018-05-01T20:20:46Z</time></trkpt>
<trkpt lat="49.091049" lon="7.899887"><ele>316.4</ele><time>2018-05-01T20:20:47Z</time></trkpt>
<trkpt lat="49.091333" lon="7.898728"><ele>313.2</ele><time>2018-05-01T20:20:51Z</time></trkpt>
<trkpt lat="49.091328" lon="7.898371"><ele>313.2</ele><time>2018-05-01T20:20:52Z</time></trkpt>
<trkpt lat="49.091268" lon="7.898258"><ele>324.0</ele><time>2018-05-01T20:20:53Z</time></trkpt>
<trkpt lat="49.091063" lon="7.898073"><ele>324.0</ele><time>2018-05-01T20:20:54Z</time></trkpt>
<trkpt lat="49.090936" lon="7.898106"><ele>324.0</ele><time>2018-05-01T20:20:55Z</time></trkpt>
<trkpt lat="49.090663" lon="7.898269"><ele>311.0</ele><time>2018-05-01T20:20:56Z</time></trkpt>
<trkpt lat="49.090521" lon="7.898242"><ele>311.0</ele><time>2018-05-01T20:20:57Z</time></trkpt>
<trkpt lat="49.090386" lon="7.898133"><ele>311.0</ele><time>2018-05-01T20:20:58Z</time></trkpt>
<trkpt lat="49.090161" lon="7.897996"><ele>311.0</ele><time>2018-05-01T20:20:59Z</time></trkpt>
<trkpt lat="49.089017" lon="7.89755"><ele>300.4</ele><time>2018-05-01T20:21:05Z</time></trkpt>
<trkpt lat="49.088793" lon="7.897434"><ele>317.8</ele><time>2018-05-01T20:21:07Z</time></trkpt>
<trkpt lat="49.088298" lon="7.89695"><ele>305.0</ele><time>2018-05-01T20:21:10Z</time></trkpt>
<trkpt lat="49.087247" lon="7.895794"><ele>321.0</ele><time>2018-05-01T20:21:17Z</time></trkpt>
<trkpt lat="49.086728" lon="7.895296"><ele>321.0</ele><time>2018-05-01T20:21:20Z</time></trkpt>
<trkpt lat="49.086537" lon="7.895187"><ele>301.8</ele><time>2018-05-01T20:21:21Z</time></trkpt>
<trkpt lat="49.086383" lon="7.895157"><ele>301.8</ele><time>2018-05-01T20:21:22Z</time></trkpt>
<trkpt lat="49.084732" lon="7.895225"><ele>300.0</ele><time>2018-05-01T20:21:30Z</time></trkpt>
<trkpt lat="49.082987" lon="7.89567"><ele>313.4</ele><time>2018-05-01T20:21:39Z</time></trkpt>
<trkpt lat="49.082659" lon="7.89582"><ele>313.4</ele><time>2018-05-01T20:21:41Z</time></trkpt>
<trkpt lat="49.082359" lon="7.895999"><ele>296.0</ele><time>2018-05-01T20:21:43Z</time></trkpt>
<trkpt lat="49.082218" lon="7.896015"><ele>296.0</ele><time>2018-05-01T20:21:44Z</time></trkpt>
<trkpt lat="49.081786" lon="7.895876"><ele>296.0</ele><time>2018-05-01T20:21:46Z</time></trkpt>
<trkpt lat="49.079886" lon="7.894714"><ele>302.8</ele><time>2018-05-01T20:21:57Z</time></trkpt>
<trkpt lat="49.07848" lon="7.893399"><ele>304.2</ele><time>2018-05-01T20:22:05Z</time></trkpt>
<trkpt lat="49.077407" lon="7.893214"><ele>301.6</ele><time>2018-05-01T20:22:11Z</time></trkpt>
<trkpt lat="49.076585" lon="7.892927"><ele>291.8</ele><time>2018-05-01T20:22:15Z</time></trkpt>
<trkpt lat="49.075838" lon="7.892819"><ele>291.8</ele><time>2018-05-01T20:22:19Z</time></trkpt>
<trkpt lat="49.075484" lon="7.892832"><ele>279.0</ele><time>2018-05-01T20:22:21Z</time></trkpt>
<trkpt lat="49.075112" lon="7.892588"><ele>279.0</ele><time>2018-05-01T20:22:23Z</time></trkpt>
<trkpt lat="49.074633" lon="7.892225"><ele>290.0</ele><time>2018-05-01T20:22:26Z</time></trkpt>
<trkpt lat="49.073953" lon="7.891914"><ele>278.8</ele><time>2018-05-01T20:22:29Z</time></trkpt>
<trkpt lat="49.073008" lon="7.891197"><ele>276.0</ele><time>2018-05-01T20:22:35Z</time></trkpt>
<trkpt lat="49.072892" lon="7.891062"><ele>276.0</ele><time>2018-05-01T20:22:35Z</time></trkpt>
<trkpt lat="49.072367" lon="7.890214"><ele>267.0</ele><time>2018-05-01T20:22:39Z</time></trkpt>
<trkpt lat="49.072169" lon="7.890089"><ele>267.0</ele><time>2018-05-01T20:22:41Z</time></trkpt>
<trkpt lat="49.071483" lon="7.889969"><ele>273.0</ele><time>2018-05-01T20:22:44Z</time></trkpt>
<trkpt lat="49.071079" lon="7.889763"><ele>273.0</ele><time>2018-05-01T20:22:46Z</time></trkpt>
<trkpt lat="49.070889" lon="7.889584"><ele>273.0</ele><time>2018-05-01T20:22:47Z</time></trkpt>
<trkpt lat="49.07045" lon="7.888952"><ele>277.8</ele><time>2018-05-01T20:22:51Z</time></trkpt>
<trkpt lat="49.069087" lon="7.887435"><ele>278.0</ele><time>2018-05-01T20:22:59Z</time></trkpt>
<trkpt lat="49.067619" lon="7.886353"><ele>280.2</ele><time>2018-05-01T20:23:08Z</time></trkpt>
<trkpt lat="49.066971" lon="7.886161"><ele>261.0</ele><time>2018-05-01T20:23:11Z</time></trkpt>
<trkpt lat="49.066439" lon="7.885865"><ele>252.4</ele><time>2018-05-01T20:23:14Z</time></trkpt>
<trkpt lat="49.066246" lon="7.885682"><ele>267.2</ele><time>2018-05-01T20:23:15Z</time></trkpt>
<trkpt lat="49.065754" lon="7.885097"><ele>253.4</ele><time>2018-05-01T20:23:19Z</time></trkpt>
<trkpt lat="49.065354" lon="7.884527"><ele>269.2</ele><time>2018-05-01T20:23:22Z</time></trkpt>
<trkpt lat="49.064896" lon="7.884015"><ele>268.4</ele><time>2018-05-01T20:23:25Z</time></trkpt>
<trkpt lat="49.064285" lon="7.883639"><ele>268.4</ele><time>2018-05-01T20:23:28Z</time></trkpt>
<trkpt lat="49.063886" lon="7.883435"><ele>250.6</ele><time>2018-05-01T20:23:30Z</time></trkpt>
<trkpt lat="49.063573" lon="7.883421"><ele>250.6</ele><time>2018-05-01T20:23:32Z</time></trkpt>
<trkpt lat="49.062973" lon="7.883517"><ele>241.2</ele><time>2018-05-01T20:23:35Z</time></trkpt>
<trkpt lat="49.062745" lon="7.883476"><ele>241.2</ele><time>2018-05-01T20:23:36Z</time></trkpt>
<trkpt lat="49.062052" lon="7.883172"><ele>258.2</ele><time>2018-05-01T20:23:40Z</time></trkpt>
<trkpt lat="49.061025" lon="7.882945"><ele>249.4</ele><time>2018-05-01T20:23:45Z</time></trkpt>
<trkpt lat="49.060697" lon="7.882947"><ele>241.0</ele><time>2018-05-01T20:23:47Z</time></trkpt>
<trkpt lat="49.05984" lon="7.883135"><ele>238.6</ele><time>2018-05-01T20:23:51Z</time></trkpt>
<trkpt lat="49.059234" lon="7.883071"><ele>238.6</ele><time>2018-05-01T20:23:55Z</time></trkpt>
<trkpt lat="49.058531" lon="7.882836"><ele>234.4</ele><time>2018-05-01T20:23:58Z</time></trkpt>
<trkpt lat="49.057711" lon="7.882139"><ele>245.8</ele><time>2018-05-01T20:24:03Z</time></trkpt>
<trkpt lat="49.057082" lon="7.881792"><ele>236.6</ele><time>2018-05-01T20:24:07Z</time></trkpt>
<trkpt lat="49.056841" lon="7.881712"><ele>236.6</ele><time>2018-05-01T20:24:08Z</time></trkpt>
<trkpt lat="49.056594" lon="7.881698"><ele>231.4</ele><time>2018-05-01T20:24:09Z</time></trkpt>
<trkpt lat="49.056263" lon="7.881792"><ele>231.4</ele><time>2018-05-01T20:24:11Z</time></trkpt>
<trkpt lat="49.055923" lon="7.881769"><ele>231.4</ele><time>2018-05-01T20:24:13Z</time></trkpt>
<trkpt lat="49.055223" lon="7.881533"><ele>244.0</ele><time>2018-05-01T20:24:16Z</time></trkpt>
<trkpt lat="49.054767" lon="7.881681"><ele>226.2</ele><time>2018-05-01T20:24:19Z</time></trkpt>
<trkpt lat="49.054298" lon="7.881995"><ele>226.2</ele><time>2018-05-01T20:24:22Z</time></trkpt>
<trkpt lat="49.053565" lon="7.882589"><ele>225.4</ele><time>2018-05-01T20:24:26Z</time></trkpt>
<trkpt lat="49.053087" lon="7.883015"><ele>222.2</ele><time>2018-05-01T20:24:29Z</time></trkpt>
<trkpt lat="49.052786" lon="7.883545"><ele>224.0</ele><time>2018-05-01T20:24:31Z</time></trkpt>
<trkpt lat="49.052587" lon="7.884099"><ele>224.0</ele><time>2018-05-01T20:24:33Z</time></trkpt>
<trkpt lat="49.052194" lon="7.886214"><ele>228.4</ele><time>2018-05-01T20:24:41Z</time></trkpt>
<trkpt lat="49.052051" lon="7.886704"><ele>231.4</ele><time>2018-05-01T20:24:42Z</time></trkpt>
<trkpt lat="49.051883" lon="7.886982"><ele>231.4</ele><time>2018-05-01T20:24:44Z</time></trkpt>
<trkpt lat="49.051578" lon="7.887286"><ele>216.2</ele><time>2018-05-01T20:24:46Z</time></trkpt>
<trkpt lat="49.051132" lon="7.887548"><ele>216.2</ele><time>2018-05-01T20:24:48Z</time></trkpt>
<trkpt lat="49.05058" lon="7.887811"><ele>205.6</ele><time>2018-05-01T20:24:51Z</time></trkpt>
<trkpt lat="49.050138" lon="7.888112"><ele>205.6</ele><time>2018-05-01T20:24:54Z</time></trkpt>
<trkpt lat="49.049702" lon="7.888577"><ele>196.0</ele><time>2018-05-01T20:24:56Z</time></trkpt>
<trkpt lat="49.049394" lon="7.888792"><ele>196.0</ele><time>2018-05-01T20:25:00Z</time></trkpt>
<trkpt lat="49.049438" lon="7.889326"><ele>205.2</ele><time>2018-05-01T20:25:05Z</time></trkpt>
<trkpt lat="49.049351" lon="7.890037"><ele>216.8</ele><time>2018-05-01T20:25:10Z</time></trkpt>
<trkpt lat="49.049183" lon="7.890589"><ele>216.8</ele><time>2018-05-01T20:25:15Z</time></trkpt>
<trkpt lat="49.048942" lon="7.891096"><ele>200.4</ele><time>2018-05-01T20:25:21Z</time></trkpt>
<trkpt lat="49.047936" lon="7.892773"><ele>194.2</ele><time>2018-05-01T20:25:38Z</time></trkpt>
<trkpt lat="49.047639" lon="7.893395"><ele>203.4</ele><time>2018-05-01T20:25:45Z</time></trkpt>
<trkpt lat="49.047538" lon="7.89391"><ele>203.4</ele><time>2018-05-01T20:25:49Z</time></trkpt>
<trkpt lat="49.047474" lon="7.894519"><ele>195.6</ele><time>2018-05-01T20:25:54Z</time></trkpt>
<trkpt lat="49.047505" lon="7.895126"><ele>221.8</ele><time>2018-05-01T20:25:59Z</time></trkpt>
<trkpt lat="49.047719" lon="7.896728"><ele>212.0</ele><time>2018-05-01T20:26:12Z</time></trkpt>
<trkpt lat="49.047815" lon="7.89776"><ele>207.6</ele><time>2018-05-01T20:26:20Z</time></trkpt>
<trkpt lat="49.047841" lon="7.898214"><ele>207.6</ele><time>2018-05-01T20:26:24Z</time></trkpt>
<trkpt lat="49.047813" lon="7.898633"><ele>206.0</ele><time>2018-05-01T20:26:27Z</time></trkpt>
<trkpt lat="49.047749" lon="7.898955"><ele>206.0</ele><time>2018-05-01T20:26:30Z</time></trkpt>
<trkpt lat="49.047667" lon="7.899217"><ele>206.4</ele><time>2018-05-01T20:26:32Z</time></trkpt>
<trkpt lat="49.047343" lon="7.899813"><ele>185.4</ele><time>2018-05-01T20:26:39Z</time></trkpt>
<trkpt lat="49.046913" lon="7.900521"><ele>189.6</ele><time>2018-05-01T20:26:46Z</time></trkpt>
<trkpt lat="49.046544" lon="7.901693"><ele>182.6</ele><time>2018-05-01T20:26:57Z</time></trkpt>
<trkpt lat="49.045636" lon="7.903661"><ele>181.2</ele><time>2018-05-01T20:27:15Z</time></trkpt>
<trkpt lat="49.045467" lon="7.90398"><ele>181.2</ele><time>2018-05-01T20:27:19Z</time></trkpt>
<trkpt lat="49.04525" lon="7.904273"><ele>192.2</ele><time>2018-05-01T20:27:22Z</time></trkpt>
<trkpt lat="49.045156" lon="7.904367"><ele>192.2</ele><time>2018-05-01T20:27:24Z</time></trkpt>
<trkpt lat="49.045044" lon="7.904447"><ele>192.2</ele><time>2018-05-01T20:27:25Z</time></trkpt>
<trkpt lat="49.044944" lon="7.904463"><ele>183.0</ele><time>2018-05-01T20:27:27Z</time></trkpt>
<trkpt lat="49.044827" lon="7.90445"><ele>183.0</ele><time>2018-05-01T20:27:28Z</time></trkpt>
<trkpt lat="49.044632" lon="7.90436"><ele>183.0</ele><time>2018-05-01T20:27:31Z</time></trkpt>
<trkpt lat="49.044487" lon="7.904237"><ele>183.0</ele><time>2018-05-01T20:27:33Z</time></trkpt>
<trkpt lat="49.043863" lon="7.903576"><ele>173.6</ele><time>2018-05-01T20:27:42Z</time></trkpt>
<trkpt lat="49.043486" lon="7.903349"><ele>173.6</ele><time>2018-05-01T20:27:47Z</time></trkpt>
<trkpt lat="49.042819" lon="7.903037"><ele>174.8</ele><time>2018-05-01T20:27:55Z</time></trkpt>
<trkpt lat="49.041595" lon="7.903071"><ele>176.2</ele><time>2018-05-01T20:28:10Z</time></trkpt>
<trkpt lat="49.041261" lon="7.903144"><ele>176.2</ele><time>2018-05-01T20:28:14Z</time></trkpt>
<trkpt lat="49.04091" lon="7.903267"><ele>176.2</ele><time>2018-05-01T20:28:18Z</time></trkpt>
<trkpt lat="49.040659" lon="7.903393"><ele>177.8</ele><time>2018-05-01T20:28:21Z</time></trkpt>
<trkpt lat="49.040384" lon="7.903564"><ele>177.8</ele><time>2018-05-01T20:28:25Z</time></trkpt>
<trkpt lat="49.040208" lon="7.903711"><ele>177.8</ele><time>2018-05-01T20:28:27Z</time></trkpt>
<trkpt lat="49.038961" lon="7.905313"><ele>174.0</ele><time>2018-05-01T20:28:47Z</time></trkpt>
<trkpt lat="49.038861" lon="7.905461"><ele>174.0</ele><time>2018-05-01T20:28:48Z</time></trkpt>
<trkpt lat="49.038781" lon="7.905632"><ele>174.0</ele><time>2018-05-01T20:28:50Z</time></trkpt>
<trkpt lat="49.0387" lon="7.905895"><ele>177.2</ele><time>2018-05-01T20:28:52Z</time></trkpt>
<trkpt lat="49.03864" lon="7.906287"><ele>177.2</ele><time>2018-05-01T20:28:56Z</time></trkpt>
<trkpt lat="49.038633" lon="7.906585"><ele>177.2</ele><time>2018-05-01T20:28:58Z</time></trkpt>
<trkpt lat="49.03871" lon="7.907162"><ele>179.8</ele><time>2018-05-01T20:29:03Z</time></trkpt>
<trkpt lat="49.038805" lon="7.907625"><ele>180.0</ele><time>2018-05-01T20:29:06Z</time></trkpt>
<trkpt lat="49.039109" lon="7.908453"><ele>177.6</ele><time>2018-05-01T20:29:14Z</time></trkpt>
<trkpt lat="49.039197" lon="7.908731"><ele>188.0</ele><time>2018-05-01T20:29:17Z</time></trkpt>
<trkpt lat="49.039233" lon="7.908911"><ele>188.0</ele><time>2018-05-01T20:29:18Z</time></trkpt>
<trkpt lat="49.039278" lon="7.909507"><ele>188.4</ele><time>2018-05-01T20:29:23Z</time></trkpt>
<trkpt lat="49.039281" lon="7.909745"><ele>188.4</ele><time>2018-05-01T20:29:25Z</time></trkpt>
<trkpt lat="49.039265" lon="7.909994"><ele>188.4</ele><time>2018-05-01T20:29:27Z</time></trkpt>
<trkpt lat="49.039204" lon="7.910347"><ele>191.4</ele><time>2018-05-01T20:29:30Z</time></trkpt>
<trkpt lat="49.039121" lon="7.910583"><ele>175.6</ele><time>2018-05-01T20:29:32Z</time></trkpt>
<trkpt lat="49.039001" lon="7.910795"><ele>175.6</ele><time>2018-05-01T20:29:34Z</time></trkpt>
<trkpt lat="49.03885" lon="7.910999"><ele>181.0</ele><time>2018-05-01T20:29:37Z</time></trkpt>
<trkpt lat="49.038654" lon="7.911208"><ele>181.0</ele><time>2018-05-01T20:29:40Z</time></trkpt>
<trkpt lat="49.038373" lon="7.911466"><ele>181.0</ele><time>2018-05-01T20:29:44Z</time></trkpt>
<trkpt lat="49.038115" lon="7.911809"><ele>176.0</ele><time>2018-05-01T20:29:48Z</time></trkpt>
<trkpt lat="49.037601" lon="7.913005"><ele>185.8</ele><time>2018-05-01T20:29:59Z</time></trkpt>
<trkpt lat="49.037563" lon="7.913122"><ele>185.8</ele><time>2018-05-01T20:30:00Z</time></trkpt>
<trkpt lat="49.037534" lon="7.913246"><ele>185.8</ele><time>2018-05-01T20:30:01Z</time></trkpt>
<trkpt lat="49.037511" lon="7.913741"><ele>192.0</ele><time>2018-05-01T20:30:05Z</time></trkpt>
<trkpt lat="49.037533" lon="7.914016"><ele>192.0</ele><time>2018-05-01T20:30:07Z</time></trkpt>
<trkpt lat="49.037621" lon="7.914585"><ele>195.4</ele><time>2018-05-01T20:30:12Z</time></trkpt>
<trkpt lat="49.037635" lon="7.914767"><ele>195.4</ele><time>2018-05-01T20:30:13Z</time></trkpt>
<trkpt lat="49.037625" lon="7.915617"><ele>197.0</ele><time>2018-05-01T20:30:20Z</time></trkpt>
<trkpt lat="49.037643" lon="7.916024"><ele>199.2</ele><time>2018-05-01T20:30:23Z</time></trkpt>
<trkpt lat="49.03773" lon="7.916942"><ele>198.6</ele><time>2018-05-01T20:30:31Z</time></trkpt>
<trkpt lat="49.037818" lon="7.917322"><ele>198.6</ele><time>2018-05-01T20:30:34Z</time></trkpt>
<trkpt lat="49.038418" lon="7.919086"><ele>215.4</ele><time>2018-05-01T20:30:50Z</time></trkpt>
<trkpt lat="49.039" lon="7.921072"><ele>189.4</ele><time>2018-05-01T20:31:07Z</time></trkpt>
<trkpt lat="49.039171" lon="7.921766"><ele>205.2</ele><time>2018-05-01T20:31:13Z</time></trkpt>
<trkpt lat="49.039414" lon="7.922626"><ele>194.0</ele><time>2018-05-01T20:31:20Z</time></trkpt>
<trkpt lat="49.0397" lon="7.923304"><ele>194.0</ele><time>2018-05-01T20:31:27Z</time></trkpt>
<trkpt lat="49.039875" lon="7.923893"><ele>185.2</ele><time>2018-05-01T20:31:32Z</time></trkpt>
<trkpt lat="49.04004" lon="7.925007"><ele>190.6</ele><time>2018-05-01T20:31:41Z</time></trkpt>
<trkpt lat="49.040203" lon="7.925734"><ele>190.6</ele><time>2018-05-01T20:31:47Z</time></trkpt>
<trkpt lat="49.040322" lon="7.926498"><ele>184.8</ele><time>2018-05-01T20:31:53Z</time></trkpt>
<trkpt lat="49.040428" lon="7.927858"><ele>177.6</ele><time>2018-05-01T20:32:04Z</time></trkpt>
<trkpt lat="49.040441" lon="7.928253"><ele>177.6</ele><time>2018-05-01T20:32:07Z</time></trkpt>
<trkpt lat="49.040424" lon="7.929423"><ele>176.2</ele><time>2018-05-01T20:32:16Z</time></trkpt>
<trkpt lat="49.040543" lon="7.930555"><ele>174.6</ele><time>2018-05-01T20:32:25Z</time></trkpt>
<trkpt lat="49.040533" lon="7.931367"><ele>171.0</ele><time>2018-05-01T20:32:32Z</time></trkpt>
<trkpt lat="49.040474" lon="7.932057"><ele>168.8</ele><time>2018-05-01T20:32:37Z</time></trkpt>
<trkpt lat="49.040302" lon="7.933227"><ele>168.0</ele><time>2018-05-01T20:32:47Z</time></trkpt>
<trkpt lat="49.040306" lon="7.933422"><ele>168.0</ele><time>2018-05-01T20:32:48Z</time></trkpt>
<trkpt lat="49.039935" lon="7.935252"><ele>166.2</ele><time>2018-05-01T20:33:03Z</time></trkpt>
<trkpt lat="49.03984" lon="7.935487"><ele>166.2</ele><time>2018-05-01T20:33:07Z</time></trkpt>
<trkpt lat="49.039808" lon="7.935478"><ele>166.2</ele><time>2018-05-01T20:33:08Z</time></trkpt>
<trkpt lat="49.03976" lon="7.93551"><ele>166.2</ele><time>2018-05-01T20:33:09Z</time></trkpt>
<trkpt lat="49.039738" lon="7.935593"><ele>166.2</ele><time>2018-05-01T20:33:10Z</time></trkpt>
<trkpt lat="49.039124" lon="7.935562"><ele>161.0</ele><time>2018-05-01T20:33:21Z</time></trkpt>
<trkpt lat="49.038535" lon="7.93547"><ele>161.0</ele><time>2018-05-01T20:33:31Z</time></trkpt>
<trkpt lat="49.038297" lon="7.93547"><ele>160.2</ele><time>2018-05-01T20:33:35Z</time></trkpt>
<trkpt lat="49.037766" lon="7.935581"><ele>160.2</ele><time>2018-05-01T20:33:45Z</time></trkpt>
<trkpt lat="49.037658" lon="7.935627"><ele>160.2</ele><time>2018-05-01T20:33:47Z</time></trkpt>
<trkpt lat="49.037547" lon="7.935706"><ele>160.2</ele><time>2018-05-01T20:33:49Z</time></trkpt>
<trkpt lat="49.037438" lon="7.935846"><ele>163.8</ele><time>2018-05-01T20:33:52Z</time></trkpt>
<trkpt lat="49.037003" lon="7.936746"><ele>163.4</ele><time>2018-05-01T20:34:05Z</time></trkpt>
<trkpt lat="49.035746" lon="7.939481"><ele>166.0</ele><time>2018-05-01T20:34:43Z</time></trkpt>
<trkpt lat="49.035563" lon="7.939752"><ele>166.0</ele><time>2018-05-01T20:34:48Z</time></trkpt>
<trkpt lat="49.034433" lon="7.940943"><ele>163.0</ele><time>2018-05-01T20:35:12Z</time></trkpt>
<trkpt lat="49.034276" lon="7.941174"><ele>163.0</ele><time>2018-05-01T20:35:16Z</time></trkpt>
<trkpt lat="49.034163" lon="7.941388"><ele>165.8</ele><time>2018-05-01T20:35:19Z</time></trkpt>
<trkpt lat="49.033912" lon="7.942067"><ele>164.4</ele><time>2018-05-01T20:35:28Z</time></trkpt>
<trkpt lat="49.033685" lon="7.942834"><ele>164.4</ele><time>2018-05-01T20:35:38Z</time></trkpt>
<trkpt lat="49.033621" lon="7.943195"><ele>164.4</ele><time>2018-05-01T20:35:43Z</time></trkpt>
<trkpt lat="49.033588" lon="7.943603"><ele>163.6</ele><time>2018-05-01T20:35:47Z</time></trkpt>
<trkpt lat="49.033401" lon="7.943657"><ele>163.6</ele><time>2018-05-01T20:35:51Z</time></trkpt>
<trkpt lat="49.033458" lon="7.943857"><ele>163.6</ele><time>2018-05-01T20:35:54Z</time></trkpt>
<trkpt lat="49.03351" lon="7.944078"><ele>163.6</ele><time>2018-05-01T20:35:57Z</time></trkpt>
<trkpt lat="49.033551" lon="7.944725"><ele>161.6</ele><time>2018-05-01T20:36:06Z</time></trkpt>
<trkpt lat="49.03347" lon="7.944755"><ele>161.6</ele><time>2018-05-01T20:36:07Z</time></trkpt>
<trkpt lat="49.033267" lon="7.945055"><ele>160.6</ele><time>2018-05-01T20:36:12Z</time></trkpt>
<trkpt lat="49.033231" lon="7.945177"><ele>160.6</ele><time>2018-05-01T20:36:14Z</time></trkpt>
<trkpt lat="49.033154" lon="7.945148"><ele>160.6</ele><time>2018-05-01T20:36:15Z</time></trkpt>
<trkpt lat="49.03299" lon="7.945146"><ele>160.6</ele><time>2018-05-01T20:36:18Z</time></trkpt>
<trkpt lat="49.03284" lon="7.945178"><ele>160.6</ele><time>2018-05-01T20:36:21Z</time></trkpt>
<trkpt lat="49.03186" lon="7.945579"><ele>160.6</ele><time>2018-05-01T20:36:38Z</time></trkpt>
<trkpt lat="49.031242" lon="7.945858"><ele>161.6</ele><time>2018-05-01T20:36:50Z</time></trkpt>
<trkpt lat="49.030887" lon="7.946053"><ele>161.6</ele><time>2018-05-01T20:36:56Z</time></trkpt>
<trkpt lat="49.029947" lon="7.946423"><ele>169.2</ele><time>2018-05-01T20:37:13Z</time></trkpt>
<trkpt lat="49.029658" lon="7.946502"><ele>169.2</ele><time>2018-05-01T20:37:19Z</time></trkpt>
<trkpt lat="49.02948" lon="7.946529"><ele>169.2</ele><time>2018-05-01T20:37:22Z</time></trkpt>
<trkpt lat="49.028926" lon="7.946544"><ele>172.0</ele><time>2018-05-01T20:37:32Z</time></trkpt>
<trkpt lat="49.028349" lon="7.946496"><ele>172.0</ele><time>2018-05-01T20:37:42Z</time></trkpt>
<trkpt lat="49.027189" lon="7.946259"><ele>174.4</ele><time>2018-05-01T20:38:02Z</time></trkpt>
<trkpt lat="49.026536" lon="7.946064"><ele>176.0</ele><time>2018-05-01T20:38:14Z</time></trkpt>
<trkpt lat="49.026532" lon="7.945988"><ele>176.0</ele><time>2018-05-01T20:38:14Z</time></trkpt>
<trkpt lat="49.026504" lon="7.945925"><ele>176.0</ele><time>2018-05-01T20:38:15Z</time></trkpt>
<trkpt lat="49.026458" lon="7.945893"><ele>176.0</ele><time>2018-05-01T20:38:15Z</time></trkpt>
<trkpt lat="49.026409" lon="7.945899"><ele>176.0</ele><time>2018-05-01T20:38:15Z</time></trkpt>
<trkpt lat="49.026368" lon="7.945943"><ele>176.0</ele><time>2018-05-01T20:38:16Z</time></trkpt>
<trkpt lat="49.026347" lon="7.946013"><ele>176.0</ele><time>2018-05-01T20:38:16Z</time></trkpt>
<trkpt lat="49.025507" lon="7.945704"><ele>182.4</ele><time>2018-05-01T20:38:22Z</time></trkpt>
<trkpt lat="49.025063" lon="7.945492"><ele>182.4</ele><time>2018-05-01T20:38:26Z</time></trkpt>
<trkpt lat="49.024133" lon="7.944933"><ele>196.8</ele><time>2018-05-01T20:38:33Z</time></trkpt>
<trkpt lat="49.022889" lon="7.944068"><ele>205.6</ele><time>2018-05-01T20:38:43Z</time></trkpt>
<trkpt lat="49.022388" lon="7.943791"><ele>211.8</ele><time>2018-05-01T20:38:47Z</time></trkpt>
<trkpt lat="49.021681" lon="7.943439"><ele>211.8</ele><time>2018-05-01T20:38:53Z</time></trkpt>
<trkpt lat="49.021682" lon="7.943431"><ele>212.9</ele><time>2018-05-01T20:38:53Z</time></trkpt>
<trkpt lat="49.021682" lon="7.943431"><ele>212.9</ele><time>2018-05-01T20:38:53Z</time></trkpt>
<trkpt lat="49.021713" lon="7.943213"><ele>214.0</ele><time>2018-05-01T20:38:53Z</time></trkpt>
<trkpt lat="49.021713" lon="7.942938"><ele>214.0</ele><time>2018-05-01T20:38:54Z</time></trkpt>
<trkpt lat="49.021542" lon="7.938516"><ele>235.0</ele><time>2018-05-01T20:39:11Z</time></trkpt>
<trkpt lat="49.021546" lon="7.938311"><ele>239.4</ele><time>2018-05-01T20:39:11Z</time></trkpt>
<trkpt lat="49.021573" lon="7.938058"><ele>239.4</ele><time>2018-05-01T20:39:12Z</time></trkpt>
<trkpt lat="49.02529" lon="7.925791"><ele>239.6</ele><time>2018-05-01T20:40:01Z</time></trkpt>
<trkpt lat="49.025436" lon="7.925353"><ele>239.6</ele><time>2018-05-01T20:40:03Z</time></trkpt>
<trkpt lat="49.025746" lon="7.924547"><ele>241.4</ele><time>2018-05-01T20:40:07Z</time></trkpt>
<trkpt lat="49.025862" lon="7.924374"><ele>241.6</ele><time>2018-05-01T20:40:07Z</time></trkpt>
<trkpt lat="49.028631" lon="7.921355"><ele>256.2</ele><time>2018-05-01T20:40:26Z</time></trkpt>
<trkpt lat="49.029044" lon="7.920931"><ele>256.2</ele><time>2018-05-01T20:40:29Z</time></trkpt>
<trkpt lat="49.030527" lon="7.919328"><ele>269.6</ele><time>2018-05-01T20:40:39Z</time></trkpt>
<trkpt lat="49.030664" lon="7.91915"><ele>271.2</ele><time>2018-05-01T20:40:40Z</time></trkpt>
<trkpt lat="49.030739" lon="7.919002"><ele>271.2</ele><time>2018-05-01T20:40:41Z</time></trkpt>
<trkpt lat="49.030781" lon="7.918858"><ele>271.2</ele><time>2018-05-01T20:40:41Z</time></trkpt>
<trkpt lat="49.030801" lon="7.918722"><ele>271.2</ele><time>2018-05-01T20:40:42Z</time></trkpt>
<trkpt lat="49.0308" lon="7.918574"><ele>271.2</ele><time>2018-05-01T20:40:42Z</time></trkpt>
<trkpt lat="49.030772" lon="7.918398"><ele>271.2</ele><time>2018-05-01T20:40:43Z</time></trkpt>
<trkpt lat="49.030699" lon="7.918147"><ele>271.6</ele><time>2018-05-01T20:40:44Z</time></trkpt>
<trkpt lat="49.029608" lon="7.91518"><ele>275.2</ele><time>2018-05-01T20:40:56Z</time></trkpt>
<trkpt lat="49.02947" lon="7.914727"><ele>273.8</ele><time>2018-05-01T20:40:58Z</time></trkpt>
<trkpt lat="49.028576" lon="7.909542"><ele>279.2</ele><time>2018-05-01T20:41:18Z</time></trkpt>
<trkpt lat="49.028516" lon="7.908859"><ele>281.0</ele><time>2018-05-01T20:41:20Z</time></trkpt>
<trkpt lat="49.028161" lon="7.90382"><ele>318.2</ele><time>2018-05-01T20:41:39Z</time></trkpt>
<trkpt lat="49.028106" lon="7.903178"><ele>330.8</ele><time>2018-05-01T20:41:41Z</time></trkpt>
<trkpt lat="49.028061" lon="7.902944"><ele>330.8</ele><time>2018-05-01T20:41:42Z</time></trkpt>
<trkpt lat="49.027968" lon="7.902669"><ele>330.8</ele><time>2018-05-01T20:41:43Z</time></trkpt>
<trkpt lat="49.027349" lon="7.901634"><ele>343.4</ele><time>2018-05-01T20:41:48Z</time></trkpt>
<trkpt lat="49.027064" lon="7.901009"><ele>343.4</ele><time>2018-05-01T20:41:51Z</time></trkpt>
<trkpt lat="49.026984" lon="7.900703"><ele>348.6</ele><time>2018-05-01T20:41:52Z</time></trkpt>
<trkpt lat="49.026927" lon="7.900195"><ele>348.6</ele><time>2018-05-01T20:41:54Z</time></trkpt>
<trkpt lat="49.026926" lon="7.899572"><ele>350.6</ele><time>2018-05-01T20:41:56Z</time></trkpt>
<trkpt lat="49.026961" lon="7.899169"><ele>350.6</ele><time>2018-05-01T20:41:58Z</time></trkpt>
<trkpt lat="49.027026" lon="7.898777"><ele>351.0</ele><time>2018-05-01T20:41:59Z</time></trkpt>
<trkpt lat="49.027132" lon="7.89842"><ele>351.0</ele><time>2018-05-01T20:42:01Z</time></trkpt>
<trkpt lat="49.027445" lon="7.897578"><ele>351.0</ele><time>2018-05-01T20:42:04Z</time></trkpt>
<trkpt lat="49.027722" lon="7.8963"><ele>373.4</ele><time>2018-05-01T20:42:09Z</time></trkpt>
<trkpt lat="49.027774" lon="7.896188"><ele>373.4</ele><time>2018-05-01T20:42:10Z</time></trkpt>
<trkpt lat="49.027842" lon="7.896218"><ele>373.4</ele><time>2018-05-01T20:42:10Z</time></trkpt>
<trkpt lat="49.027881" lon="7.896366"><ele>373.4</ele><time>2018-05-01T20:42:11Z</time></trkpt>
<trkpt lat="49.0279" lon="7.896687"><ele>370.6</ele><time>2018-05-01T20:42:12Z</time></trkpt>
<trkpt lat="49.027994" lon="7.897432"><ele>370.6</ele><time>2018-05-01T20:42:15Z</time></trkpt>
<trkpt lat="49.028105" lon="7.897822"><ele>368.0</ele><time>2018-05-01T20:42:16Z</time></trkpt>
<trkpt lat="49.028239" lon="7.898104"><ele>368.0</ele><time>2018-05-01T20:42:17Z</time></trkpt>
<trkpt lat="49.028351" lon="7.898257"><ele>376.6</ele><time>2018-05-01T20:42:18Z</time></trkpt>
<trkpt lat="49.028394" lon="7.898249"><ele>376.6</ele><time>2018-05-01T20:42:19Z</time></trkpt>
<trkpt lat="49.028449" lon="7.898166"><ele>376.6</ele><time>2018-05-01T20:42:19Z</time></trkpt>
<trkpt lat="49.02846" lon="7.898023"><ele>376.6</ele><time>2018-05-01T20:42:20Z</time></trkpt>
<trkpt lat="49.028446" lon="7.897791"><ele>376.6</ele><time>2018-05-01T20:42:20Z</time></trkpt>
<trkpt lat="49.028366" lon="7.897099"><ele>382.2</ele><time>2018-05-01T20:42:23Z</time></trkpt>
<trkpt lat="49.028317" lon="7.896429"><ele>373.4</ele><time>2018-05-01T20:42:25Z</time></trkpt>
<trkpt lat="49.028312" lon="7.895946"><ele>373.4</ele><time>2018-05-01T20:42:27Z</time></trkpt>
<trkpt lat="49.028343" lon="7.895511"><ele>392.2</ele><time>2018-05-01T20:42:29Z</time></trkpt>
<trkpt lat="49.02841" lon="7.895004"><ele>392.2</ele><time>2018-05-01T20:42:31Z</time></trkpt>
<trkpt lat="49.02864" lon="7.893522"><ele>401.6</ele><time>2018-05-01T20:42:36Z</time></trkpt>
<trkpt lat="49.028652" lon="7.893136"><ele>412.6</ele><time>2018-05-01T20:42:38Z</time></trkpt>
<trkpt lat="49.028622" lon="7.892821"><ele>412.6</ele><time>2018-05-01T20:42:39Z</time></trkpt>
<trkpt lat="49.028511" lon="7.892354"><ele>427.0</ele><time>2018-05-01T20:42:41Z</time></trkpt>
<trkpt lat="49.028199" lon="7.891471"><ele>427.6</ele><time>2018-05-01T20:42:45Z</time></trkpt>
<trkpt lat="49.027901" lon="7.89069"><ele>449.0</ele><time>2018-05-01T20:42:48Z</time></trkpt>
<trkpt lat="49.027805" lon="7.890527"><ele>449.0</ele><time>2018-05-01T20:42:49Z</time></trkpt>
<trkpt lat="49.027683" lon="7.89049"><ele>449.0</ele><time>2018-05-01T20:42:50Z</time></trkpt>
<trkpt lat="49.027564" lon="7.89049"><ele>449.0</ele><time>2018-05-01T20:42:50Z</time></trkpt>
<trkpt lat="49.027407" lon="7.890593"><ele>438.8</ele><time>2018-05-01T20:42:51Z</time></trkpt>
<trkpt lat="49.026952" lon="7.891269"><ele>419.8</ele><time>2018-05-01T20:42:55Z</time></trkpt>
<trkpt lat="49.026783" lon="7.891473"><ele>419.8</ele><time>2018-05-01T20:42:56Z</time></trkpt>
<trkpt lat="49.026676" lon="7.891494"><ele>419.8</ele><time>2018-05-01T20:42:57Z</time></trkpt>
<trkpt lat="49.026557" lon="7.891453"><ele>417.8</ele><time>2018-05-01T20:42:57Z</time></trkpt>
<trkpt lat="49.026455" lon="7.891278"><ele>417.8</ele><time>2018-05-01T20:42:58Z</time></trkpt>
<trkpt lat="49.026336" lon="7.890855"><ele>417.8</ele><time>2018-05-01T20:43:00Z</time></trkpt>
<trkpt lat="49.026002" lon="7.889298"><ele>447.8</ele><time>2018-05-01T20:43:06Z</time></trkpt>
<trkpt lat="49.025775" lon="7.888461"><ele>439.2</ele><time>2018-05-01T20:43:09Z</time></trkpt>
<trkpt lat="49.025616" lon="7.888041"><ele>457.2</ele><time>2018-05-01T20:43:11Z</time></trkpt>
<trkpt lat="49.025426" lon="7.887648"><ele>457.2</ele><time>2018-05-01T20:43:13Z</time></trkpt>
<trkpt lat="49.024937" lon="7.886854"><ele>445.6</ele><time>2018-05-01T20:43:17Z</time></trkpt>
<trkpt lat="49.024883" lon="7.886742"><ele>445.6</ele><time>2018-05-01T20:43:18Z</time></trkpt>
<trkpt lat="49.024805" lon="7.886481"><ele>447.2</ele><time>2018-05-01T20:43:19Z</time></trkpt>
<trkpt lat="49.02468" lon="7.885546"><ele>440.4</ele><time>2018-05-01T20:43:22Z</time></trkpt>
<trkpt lat="49.024593" lon="7.885314"><ele>440.4</ele><time>2018-05-01T20:43:23Z</time></trkpt>
<trkpt lat="49.024088" lon="7.884371"><ele>434.4</ele><time>2018-05-01T20:43:28Z</time></trkpt>
<trkpt lat="49.023741" lon="7.883457"><ele>421.4</ele><time>2018-05-01T20:43:32Z</time></trkpt>
<trkpt lat="49.023469" lon="7.882488"><ele>397.2</ele><time>2018-05-01T20:43:36Z</time></trkpt>
<trkpt lat="49.023242" lon="7.881509"><ele>417.6</ele><time>2018-05-01T20:43:39Z</time></trkpt>
<trkpt lat="49.023165" lon="7.880543"><ele>413.8</ele><time>2018-05-01T20:43:43Z</time></trkpt>
<trkpt lat="49.023201" lon="7.878577"><ele>403.8</ele><time>2018-05-01T20:43:50Z</time></trkpt>
<trkpt lat="49.023072" lon="7.878"><ele>394.4</ele><time>2018-05-01T20:43:52Z</time></trkpt>
<trkpt lat="49.022916" lon="7.877666"><ele>394.4</ele><time>2018-05-01T20:43:54Z</time></trkpt>
<trkpt lat="49.022743" lon="7.877498"><ele>384.8</ele><time>2018-05-01T20:43:55Z</time></trkpt>
<trkpt lat="49.022134" lon="7.877018"><ele>402.2</ele><time>2018-05-01T20:43:59Z</time></trkpt>
<trkpt lat="49.021965" lon="7.876778"><ele>402.2</ele><time>2018-05-01T20:44:00Z</time></trkpt>
<trkpt lat="49.021858" lon="7.87646"><ele>392.4</ele><time>2018-05-01T20:44:02Z</time></trkpt>
<trkpt lat="49.021825" lon="7.875374"><ele>382.8</ele><time>2018-05-01T20:44:06Z</time></trkpt>
<trkpt lat="49.021705" lon="7.874794"><ele>375.4</ele><time>2018-05-01T20:44:08Z</time></trkpt>
<trkpt lat="49.021435" lon="7.874133"><ele>405.2</ele><time>2018-05-01T20:44:11Z</time></trkpt>
<trkpt lat="49.021338" lon="7.873812"><ele>405.2</ele><time>2018-05-01T20:44:12Z</time></trkpt>
<trkpt lat="49.021368" lon="7.873452"><ele>405.2</ele><time>2018-05-01T20:44:14Z</time></trkpt>
<trkpt lat="49.021578" lon="7.872995"><ele>413.6</ele><time>2018-05-01T20:44:16Z</time></trkpt>
<trkpt lat="49.021979" lon="7.872356"><ele>388.4</ele><time>2018-05-01T20:44:19Z</time></trkpt>
<trkpt lat="49.022229" lon="7.871994"><ele>388.4</ele><time>2018-05-01T20:44:21Z</time></trkpt>
<trkpt lat="49.022351" lon="7.871379"><ele>387.8</ele><time>2018-05-01T20:44:23Z</time></trkpt>
<trkpt lat="49.022354" lon="7.870794"><ele>382.2</ele><time>2018-05-01T20:44:26Z</time></trkpt>
<trkpt lat="49.022208" lon="7.870162"><ele>382.2</ele><time>2018-05-01T20:44:28Z</time></trkpt>
<trkpt lat="49.021558" lon="7.869216"><ele>387.2</ele><time>2018-05-01T20:44:33Z</time></trkpt>
<trkpt lat="49.020887" lon="7.868711"><ele>370.8</ele><time>2018-05-01T20:44:37Z</time></trkpt>
<trkpt lat="49.020375" lon="7.868411"><ele>380.4</ele><time>2018-05-01T20:44:40Z</time></trkpt>
<trkpt lat="49.020251" lon="7.868282"><ele>369.0</ele><time>2018-05-01T20:44:41Z</time></trkpt>
<trkpt lat="49.020152" lon="7.868048"><ele>369.0</ele><time>2018-05-01T20:44:42Z</time></trkpt>
<trkpt lat="49.02012" lon="7.867857"><ele>369.0</ele><time>2018-05-01T20:44:43Z</time></trkpt>
<trkpt lat="49.020148" lon="7.867617"><ele>369.0</ele><time>2018-05-01T20:44:44Z</time></trkpt>
<trkpt lat="49.020215" lon="7.867342"><ele>367.4</ele><time>2018-05-01T20:44:45Z</time></trkpt>
<trkpt lat="49.020985" lon="7.865819"><ele>362.6</ele><time>2018-05-01T20:44:52Z</time></trkpt>
<trkpt lat="49.021464" lon="7.864636"><ele>365.0</ele><time>2018-05-01T20:44:57Z</time></trkpt>
<trkpt lat="49.021522" lon="7.864251"><ele>365.0</ele><time>2018-05-01T20:44:58Z</time></trkpt>
<trkpt lat="49.021503" lon="7.863773"><ele>362.8</ele><time>2018-05-01T20:45:00Z</time></trkpt>
<trkpt lat="49.021398" lon="7.863235"><ele>358.4</ele><time>2018-05-01T20:45:02Z</time></trkpt>
<trkpt lat="49.021227" lon="7.862726"><ele>358.4</ele><time>2018-05-01T20:45:04Z</time></trkpt>
<trkpt lat="49.02077" lon="7.861798"><ele>356.2</ele><time>2018-05-01T20:45:08Z</time></trkpt>
<trkpt lat="49.020207" lon="7.860826"><ele>344.6</ele><time>2018-05-01T20:45:13Z</time></trkpt>
<trkpt lat="49.0194" lon="7.859711"><ele>346.6</ele><time>2018-05-01T20:45:19Z</time></trkpt>
<trkpt lat="49.018989" lon="7.859276"><ele>352.6</ele><time>2018-05-01T20:45:22Z</time></trkpt>
<trkpt lat="49.018842" lon="7.859046"><ele>351.2</ele><time>2018-05-01T20:45:23Z</time></trkpt>
<trkpt lat="49.01873" lon="7.85879"><ele>351.2</ele><time>2018-05-01T20:45:24Z</time></trkpt>
<trkpt lat="49.018702" lon="7.85852"><ele>351.2</ele><time>2018-05-01T20:45:25Z</time></trkpt>
<trkpt lat="49.018746" lon="7.858222"><ele>353.2</ele><time>2018-05-01T20:45:26Z</time></trkpt>
<trkpt lat="49.018836" lon="7.858028"><ele>353.2</ele><time>2018-05-01T20:45:27Z</time></trkpt>
<trkpt lat="49.019313" lon="7.857525"><ele>352.6</ele><time>2018-05-01T20:45:30Z</time></trkpt>
<trkpt lat="49.019727" lon="7.856929"><ele>355.2</ele><time>2018-05-01T20:45:34Z</time></trkpt>
<trkpt lat="49.019925" lon="7.856499"><ele>356.8</ele><time>2018-05-01T20:45:36Z</time></trkpt>
<trkpt lat="49.019938" lon="7.856275"><ele>356.8</ele><time>2018-05-01T20:45:36Z</time></trkpt>
<trkpt lat="49.019883" lon="7.856033"><ele>356.8</ele><time>2018-05-01T20:45:37Z</time></trkpt>
<trkpt lat="49.019012" lon="7.853263"><ele>358.2</ele><time>2018-05-01T20:45:48Z</time></trkpt>
<trkpt lat="49.018416" lon="7.851222"><ele>361.4</ele><time>2018-05-01T20:45:57Z</time></trkpt>
<trkpt lat="49.018081" lon="7.850488"><ele>355.4</ele><time>2018-05-01T20:46:00Z</time></trkpt>
<trkpt lat="49.017429" lon="7.849145"><ele>346.8</ele><time>2018-05-01T20:46:06Z</time></trkpt>
<trkpt lat="49.017301" lon="7.848804"><ele>346.8</ele><time>2018-05-01T20:46:07Z</time></trkpt>
<trkpt lat="49.017061" lon="7.848061"><ele>346.8</ele><time>2018-05-01T20:46:10Z</time></trkpt>
<trkpt lat="49.017001" lon="7.847812"><ele>346.8</ele><time>2018-05-01T20:46:11Z</time></trkpt>
<trkpt lat="49.016976" lon="7.847601"><ele>346.8</ele><time>2018-05-01T20:46:12Z</time></trkpt>
<trkpt lat="49.016996" lon="7.847397"><ele>348.6</ele><time>2018-05-01T20:46:13Z</time></trkpt>
<trkpt lat="49.017136" lon="7.846841"><ele>348.6</ele><time>2018-05-01T20:46:15Z</time></trkpt>
<trkpt lat="49.017198" lon="7.846435"><ele>349.2</ele><time>2018-05-01T20:46:16Z</time></trkpt>
<trkpt lat="49.017219" lon="7.846083"><ele>349.2</ele><time>2018-05-01T20:46:18Z</time></trkpt>
<trkpt lat="49.017221" lon="7.845391"><ele>347.8</ele><time>2018-05-01T20:46:20Z</time></trkpt>
<trkpt lat="49.017065" lon="7.84386"><ele>340.2</ele><time>2018-05-01T20:46:26Z</time></trkpt>
<trkpt lat="49.01619" lon="7.840732"><ele>335.4</ele><time>2018-05-01T20:46:38Z</time></trkpt>
<trkpt lat="49.015917" lon="7.839584"><ele>341.8</ele><time>2018-05-01T20:46:43Z</time></trkpt>
<trkpt lat="49.015867" lon="7.839286"><ele>341.8</ele><time>2018-05-01T20:46:44Z</time></trkpt>
<trkpt lat="49.015874" lon="7.839022"><ele>348.2</ele><time>2018-05-01T20:46:45Z</time></trkpt>
<trkpt lat="49.015953" lon="7.838451"><ele>348.2</ele><time>2018-05-01T20:46:47Z</time></trkpt>
<trkpt lat="49.015964" lon="7.838143"><ele>352.2</ele><time>2018-05-01T20:46:48Z</time></trkpt>
<trkpt lat="49.015914" lon="7.83791"><ele>352.2</ele><time>2018-05-01T20:46:49Z</time></trkpt>
<trkpt lat="49.015693" lon="7.837231"><ele>344.8</ele><time>2018-05-01T20:46:52Z</time></trkpt>
<trkpt lat="49.015652" lon="7.83702"><ele>344.8</ele><time>2018-05-01T20:46:53Z</time></trkpt>
<trkpt lat="49.015636" lon="7.836854"><ele>344.8</ele><time>2018-05-01T20:46:53Z</time></trkpt>
<trkpt lat="49.015642" lon="7.836557"><ele>344.8</ele><time>2018-05-01T20:46:54Z</time></trkpt>
<trkpt lat="49.015811" lon="7.835176"><ele>344.4</ele><time>2018-05-01T20:46:59Z</time></trkpt>
<trkpt lat="49.015794" lon="7.834858"><ele>346.6</ele><time>2018-05-01T20:47:02Z</time></trkpt>
<trkpt lat="49.015794" lon="7.834858"><ele>346.6</ele><time>2018-05-01T20:47:02Z</time></trkpt>
<trkpt lat="49.015629" lon="7.83429"><ele>346.6</ele><time>2018-05-01T20:47:04Z</time></trkpt>
<trkpt lat="49.01533" lon="7.833645"><ele>351.4</ele><time>2018-05-01T20:47:07Z</time></trkpt>
<trkpt lat="49.015249" lon="7.833544"><ele>351.4</ele><time>2018-05-01T20:47:07Z</time></trkpt>
<trkpt lat="49.015174" lon="7.833493"><ele>351.4</ele><time>2018-05-01T20:47:08Z</time></trkpt>
<trkpt lat="49.015024" lon="7.833469"><ele>351.4</ele><time>2018-05-01T20:47:09Z</time></trkpt>
<trkpt lat="49.014794" lon="7.83349"><ele>347.8</ele><time>2018-05-01T20:47:10Z</time></trkpt>
<trkpt lat="49.014732" lon="7.833477"><ele>347.8</ele><time>2018-05-01T20:47:10Z</time></trkpt>
<trkpt lat="49.014474" lon="7.833335"><ele>347.8</ele><time>2018-05-01T20:47:12Z</time></trkpt>
<trkpt lat="49.014247" lon="7.832988"><ele>354.4</ele><time>2018-05-01T20:47:14Z</time></trkpt>
<trkpt lat="49.013879" lon="7.83216"><ele>357.4</ele><time>2018-05-01T20:47:18Z</time></trkpt>
<trkpt lat="49.013764" lon="7.831723"><ele>357.4</ele><time>2018-05-01T20:47:19Z</time></trkpt>
<trkpt lat="49.01353" lon="7.830292"><ele>353.8</ele><time>2018-05-01T20:47:25Z</time></trkpt>
<trkpt lat="49.013397" lon="7.827399"><ele>347.6</ele><time>2018-05-01T20:47:36Z</time></trkpt>
<trkpt lat="49.013373" lon="7.827046"><ele>347.6</ele><time>2018-05-01T20:47:37Z</time></trkpt>
<trkpt lat="49.013329" lon="7.826807"><ele>350.2</ele><time>2018-05-01T20:47:38Z</time></trkpt>
<trkpt lat="49.013254" lon="7.826562"><ele>346.8</ele><time>2018-05-01T20:47:39Z</time></trkpt>
<trkpt lat="49.012571" lon="7.824731"><ele>338.4</ele><time>2018-05-01T20:47:47Z</time></trkpt>
<trkpt lat="49.012446" lon="7.824492"><ele>340.8</ele><time>2018-05-01T20:47:48Z</time></trkpt>
<trkpt lat="49.012208" lon="7.824122"><ele>334.6</ele><time>2018-05-01T20:47:50Z</time></trkpt>
<trkpt lat="49.0118" lon="7.823692"><ele>334.6</ele><time>2018-05-01T20:47:53Z</time></trkpt>
<trkpt lat="49.011464" lon="7.823418"><ele>337.6</ele><time>2018-05-01T20:47:55Z</time></trkpt>
<trkpt lat="49.011128" lon="7.823226"><ele>332.8</ele><time>2018-05-01T20:47:57Z</time></trkpt>
<trkpt lat="49.010382" lon="7.822885"><ele>330.4</ele><time>2018-05-01T20:48:01Z</time></trkpt>
<trkpt lat="49.00974" lon="7.822794"><ele>326.4</ele><time>2018-05-01T20:48:05Z</time></trkpt>
<trkpt lat="49.00917" lon="7.822867"><ele>326.4</ele><time>2018-05-01T20:48:08Z</time></trkpt>
<trkpt lat="49.008737" lon="7.822869"><ele>323.6</ele><time>2018-05-01T20:48:11Z</time></trkpt>
<trkpt lat="49.008584" lon="7.822799"><ele>323.6</ele><time>2018-05-01T20:48:12Z</time></trkpt>
<trkpt lat="49.008323" lon="7.822544"><ele>320.4</ele><time>2018-05-01T20:48:13Z</time></trkpt>
<trkpt lat="49.007905" lon="7.82201"><ele>313.6</ele><time>2018-05-01T20:48:16Z</time></trkpt>
<trkpt lat="49.007529" lon="7.821477"><ele>304.8</ele><time>2018-05-01T20:48:19Z</time></trkpt>
<trkpt lat="49.006633" lon="7.81983"><ele>306.0</ele><time>2018-05-01T20:48:27Z</time></trkpt>
<trkpt lat="49.006514" lon="7.819469"><ele>306.0</ele><time>2018-05-01T20:48:29Z</time></trkpt>
<trkpt lat="49.006415" lon="7.819097"><ele>305.2</ele><time>2018-05-01T20:48:30Z</time></trkpt>
<trkpt lat="49.006386" lon="7.81875"><ele>305.2</ele><time>2018-05-01T20:48:32Z</time></trkpt>
<trkpt lat="49.006399" lon="7.818412"><ele>305.2</ele><time>2018-05-01T20:48:33Z</time></trkpt>
<trkpt lat="49.006461" lon="7.818186"><ele>307.4</ele><time>2018-05-01T20:48:34Z</time></trkpt>
<trkpt lat="49.006543" lon="7.817986"><ele>307.4</ele><time>2018-05-01T20:48:35Z</time></trkpt>
<trkpt lat="49.006736" lon="7.817715"><ele>294.6</ele><time>2018-05-01T20:48:36Z</time></trkpt>
<trkpt lat="49.007132" lon="7.817289"><ele>296.0</ele><time>2018-05-01T20:48:39Z</time></trkpt>
<trkpt lat="49.007283" lon="7.817048"><ele>296.0</ele><time>2018-05-01T20:48:40Z</time></trkpt>
<trkpt lat="49.007457" lon="7.816633"><ele>294.6</ele><time>2018-05-01T20:48:42Z</time></trkpt>
<trkpt lat="49.007529" lon="7.816368"><ele>287.0</ele><time>2018-05-01T20:48:43Z</time></trkpt>
<trkpt lat="49.007641" lon="7.815718"><ele>284.4</ele><time>2018-05-01T20:48:46Z</time></trkpt>
<trkpt lat="49.007656" lon="7.815195"><ele>284.4</ele><time>2018-05-01T20:48:48Z</time></trkpt>
<trkpt lat="49.007632" lon="7.814273"><ele>281.4</ele><time>2018-05-01T20:48:51Z</time></trkpt>
<trkpt lat="49.007601" lon="7.813711"><ele>277.2</ele><time>2018-05-01T20:48:53Z</time></trkpt>
<trkpt lat="49.007484" lon="7.812797"><ele>279.6</ele><time>2018-05-01T20:48:57Z</time></trkpt>
<trkpt lat="49.007419" lon="7.812477"><ele>273.0</ele><time>2018-05-01T20:48:58Z</time></trkpt>
<trkpt lat="49.007275" lon="7.811908"><ele>273.0</ele><time>2018-05-01T20:49:00Z</time></trkpt>
<trkpt lat="49.006968" lon="7.811079"><ele>266.8</ele><time>2018-05-01T20:49:04Z</time></trkpt>
<trkpt lat="49.006502" lon="7.809996"><ele>258.0</ele><time>2018-05-01T20:49:09Z</time></trkpt>
<trkpt lat="49.00633" lon="7.809692"><ele>258.0</ele><time>2018-05-01T20:49:10Z</time></trkpt>
<trkpt lat="49.006182" lon="7.809484"><ele>258.0</ele><time>2018-05-01T20:49:11Z</time></trkpt>
<trkpt lat="49.005963" lon="7.809253"><ele>258.0</ele><time>2018-05-01T20:49:13Z</time></trkpt>
<trkpt lat="49.00531" lon="7.808848"><ele>252.6</ele><time>2018-05-01T20:49:17Z</time></trkpt>
<trkpt lat="49.005177" lon="7.808719"><ele>252.6</ele><time>2018-05-01T20:49:18Z</time></trkpt>
<trkpt lat="49.005066" lon="7.808556"><ele>252.6</ele><time>2018-05-01T20:49:19Z</time></trkpt>
<trkpt lat="49.004036" lon="7.806552"><ele>240.6</ele><time>2018-05-01T20:49:28Z</time></trkpt>
<trkpt lat="49.003722" lon="7.80599"><ele>240.6</ele><time>2018-05-01T20:49:31Z</time></trkpt>
<trkpt lat="49.003425" lon="7.805405"><ele>227.6</ele><time>2018-05-01T20:49:34Z</time></trkpt>
<trkpt lat="49.002873" lon="7.804166"><ele>221.0</ele><time>2018-05-01T20:49:39Z</time></trkpt>
<trkpt lat="49.002693" lon="7.803536"><ele>221.0</ele><time>2018-05-01T20:49:42Z</time></trkpt>
<trkpt lat="49.002536" lon="7.802632"><ele>213.2</ele><time>2018-05-01T20:49:45Z</time></trkpt>
<trkpt lat="49.001597" lon="7.796229"><ele>206.4</ele><time>2018-05-01T20:50:10Z</time></trkpt>
<trkpt lat="49.001539" lon="7.795581"><ele>204.2</ele><time>2018-05-01T20:50:12Z</time></trkpt>
<trkpt lat="49.001548" lon="7.794615"><ele>201.0</ele><time>2018-05-01T20:50:16Z</time></trkpt>
<trkpt lat="49.001587" lon="7.79353"><ele>199.4</ele><time>2018-05-01T20:50:20Z</time></trkpt>
<trkpt lat="49.001648" lon="7.793319"><ele>200.2</ele><time>2018-05-01T20:50:21Z</time></trkpt>
<trkpt lat="49.001737" lon="7.793238"><ele>194.6</ele><time>2018-05-01T20:50:21Z</time></trkpt>
<trkpt lat="49.001935" lon="7.793176"><ele>194.6</ele><time>2018-05-01T20:50:23Z</time></trkpt>
<trkpt lat="49.0026" lon="7.793091"><ele>195.6</ele><time>2018-05-01T20:50:26Z</time></trkpt>
<trkpt lat="49.002673" lon="7.793044"><ele>195.6</ele><time>2018-05-01T20:50:27Z</time></trkpt>
<trkpt lat="49.002746" lon="7.792955"><ele>195.6</ele><time>2018-05-01T20:50:27Z</time></trkpt>
<trkpt lat="49.002803" lon="7.792392"><ele>194.6</ele><time>2018-05-01T20:50:29Z</time></trkpt>
<trkpt lat="49.002866" lon="7.79206"><ele>194.6</ele><time>2018-05-01T20:50:31Z</time></trkpt>
<trkpt lat="49.002992" lon="7.79167"><ele>194.6</ele><time>2018-05-01T20:50:32Z</time></trkpt>
<trkpt lat="49.0034" lon="7.790737"><ele>194.6</ele><time>2018-05-01T20:50:36Z</time></trkpt>
<trkpt lat="49.003598" lon="7.790048"><ele>194.6</ele><time>2018-05-01T20:50:40Z</time></trkpt>
<trkpt lat="49.003629" lon="7.790058"><ele>194.6</ele><time>2018-05-01T20:50:40Z</time></trkpt>
<trkpt lat="49.003684" lon="7.790012"><ele>194.6</ele><time>2018-05-01T20:50:41Z</time></trkpt>
<trkpt lat="49.003695" lon="7.789967"><ele>193.2</ele><time>2018-05-01T20:50:41Z</time></trkpt>
<trkpt lat="49.003677" lon="7.789879"><ele>193.2</ele><time>2018-05-01T20:50:42Z</time></trkpt>
<trkpt lat="49.003651" lon="7.789853"><ele>193.2</ele><time>2018-05-01T20:50:42Z</time></trkpt>
<trkpt lat="49.00384" lon="7.789039"><ele>193.0</ele><time>2018-05-01T20:50:48Z</time></trkpt>
<trkpt lat="49.003904" lon="7.788551"><ele>193.0</ele><time>2018-05-01T20:50:52Z</time></trkpt>
<trkpt lat="49.003881" lon="7.788415"><ele>193.0</ele><time>2018-05-01T20:50:53Z</time></trkpt>
<trkpt lat="49.003345" lon="7.788395"><ele>193.0</ele><time>2018-05-01T20:51:04Z</time></trkpt>
<trkpt lat="49.003279" lon="7.788353"><ele>191.0</ele><time>2018-05-01T20:51:05Z</time></trkpt>
<trkpt lat="49.003237" lon="7.788222"><ele>190.6</ele><time>2018-05-01T20:51:07Z</time></trkpt>
<trkpt lat="49.00325" lon="7.787915"><ele>190.6</ele><time>2018-05-01T20:51:11Z</time></trkpt>
<trkpt lat="49.003447" lon="7.788029"><ele>192.6</ele><time>2018-05-01T20:51:15Z</time></trkpt>
<trkpt lat="49.003477" lon="7.787989"><ele>192.6</ele><time>2018-05-01T20:51:16Z</time></trkpt>
<trkpt lat="49.003558" lon="7.787687"><ele>192.6</ele><time>2018-05-01T20:51:20Z</time></trkpt>
<trkpt lat="49.003637" lon="7.787634"><ele>192.6</ele><time>2018-05-01T20:51:22Z</time></trkpt>
<trkpt lat="49.003776" lon="7.787613"><ele>192.6</ele><time>2018-05-01T20:51:25Z</time></trkpt>
<trkpt lat="49.00376" lon="7.787441"><ele>194.8</ele><time>2018-05-01T20:51:26Z</time></trkpt>
<trkpt lat="49.003768" lon="7.787208"><ele>194.8</ele><time>2018-05-01T20:51:27Z</time></trkpt>
<trkpt lat="49.003799" lon="7.786897"><ele>194.8</ele><time>2018-05-01T20:51:28Z</time></trkpt>
<trkpt lat="49.003807" lon="7.786639"><ele>202.0</ele><time>2018-05-01T20:51:29Z</time></trkpt>
<trkpt lat="49.003843" lon="7.78646"><ele>202.0</ele><time>2018-05-01T20:51:30Z</time></trkpt>
<trkpt lat="49.003842" lon="7.786393"><ele>202.0</ele><time>2018-05-01T20:51:31Z</time></trkpt>
<trkpt lat="49.003785" lon="7.786209"><ele>202.0</ele><time>2018-05-01T20:51:32Z</time></trkpt>
<trkpt lat="49.003701" lon="7.786034"><ele>202.0</ele><time>2018-05-01T20:51:33Z</time></trkpt>
<trkpt lat="49.002989" lon="7.785366"><ele>209.2</ele><time>2018-05-01T20:51:38Z</time></trkpt>
<trkpt lat="49.002488" lon="7.785002"><ele>204.0</ele><time>2018-05-01T20:51:42Z</time></trkpt>
<trkpt lat="49.001829" lon="7.784689"><ele>218.6</ele><time>2018-05-01T20:51:47Z</time></trkpt>
<trkpt lat="49.001204" lon="7.784505"><ele>213.8</ele><time>2018-05-01T20:51:51Z</time></trkpt>
<trkpt lat="49.00049" lon="7.78414"><ele>223.2</ele><time>2018-05-01T20:51:57Z</time></trkpt>
<trkpt lat="48.999801" lon="7.78373"><ele>215.2</ele><time>2018-05-01T20:52:02Z</time></trkpt>
<trkpt lat="48.99884" lon="7.783681"><ele>205.6</ele><time>2018-05-01T20:52:08Z</time></trkpt>
<trkpt lat="48.997577" lon="7.783422"><ele>198.4</ele><time>2018-05-01T20:52:17Z</time></trkpt>
<trkpt lat="48.997217" lon="7.783172"><ele>200.6</ele><time>2018-05-01T20:52:20Z</time></trkpt>
<trkpt lat="48.997028" lon="7.782996"><ele>200.6</ele><time>2018-05-01T20:52:21Z</time></trkpt>
<trkpt lat="48.996767" lon="7.782709"><ele>200.6</ele><time>2018-05-01T20:52:24Z</time></trkpt>
<trkpt lat="48.996505" lon="7.782324"><ele>198.2</ele><time>2018-05-01T20:52:26Z</time></trkpt>
<trkpt lat="48.995765" lon="7.78083"><ele>207.8</ele><time>2018-05-01T20:52:35Z</time></trkpt>
<trkpt lat="48.995606" lon="7.780587"><ele>207.8</ele><time>2018-05-01T20:52:36Z</time></trkpt>
<trkpt lat="48.994911" lon="7.779695"><ele>204.4</ele><time>2018-05-01T20:52:42Z</time></trkpt>
<trkpt lat="48.994535" lon="7.779407"><ele>204.4</ele><time>2018-05-01T20:52:45Z</time></trkpt>
<trkpt lat="48.993287" lon="7.778745"><ele>199.2</ele><time>2018-05-01T20:52:55Z</time></trkpt>
<trkpt lat="48.993093" lon="7.778696"><ele>199.2</ele><time>2018-05-01T20:52:56Z</time></trkpt>
<trkpt lat="48.992526" lon="7.778828"><ele>199.2</ele><time>2018-05-01T20:53:00Z</time></trkpt>
<trkpt lat="48.992143" lon="7.778852"><ele>195.8</ele><time>2018-05-01T20:53:02Z</time></trkpt>
<trkpt lat="48.991905" lon="7.778772"><ele>195.8</ele><time>2018-05-01T20:53:04Z</time></trkpt>
<trkpt lat="48.991551" lon="7.778612"><ele>194.2</ele><time>2018-05-01T20:53:07Z</time></trkpt>
<trkpt lat="48.991284" lon="7.778389"><ele>194.2</ele><time>2018-05-01T20:53:09Z</time></trkpt>
<trkpt lat="48.991086" lon="7.778059"><ele>202.0</ele><time>2018-05-01T20:53:11Z</time></trkpt>
<trkpt lat="48.990943" lon="7.777587"><ele>202.0</ele><time>2018-05-01T20:53:13Z</time></trkpt>
<trkpt lat="48.990869" lon="7.777067"><ele>207.8</ele><time>2018-05-01T20:53:16Z</time></trkpt>
<trkpt lat="48.990931" lon="7.775962"><ele>212.8</ele><time>2018-05-01T20:53:21Z</time></trkpt>
<trkpt lat="48.990902" lon="7.775297"><ele>217.8</ele><time>2018-05-01T20:53:24Z</time></trkpt>
<trkpt lat="48.990805" lon="7.774427"><ele>215.8</ele><time>2018-05-01T20:53:28Z</time></trkpt>
<trkpt lat="48.990538" lon="7.773388"><ele>225.6</ele><time>2018-05-01T20:53:33Z</time></trkpt>
<trkpt lat="48.989781" lon="7.772025"><ele>230.6</ele><time>2018-05-01T20:53:41Z</time></trkpt>
<trkpt lat="48.989457" lon="7.771523"><ele>235.6</ele><time>2018-05-01T20:53:44Z</time></trkpt>
<trkpt lat="48.989338" lon="7.771296"><ele>235.6</ele><time>2018-05-01T20:53:45Z</time></trkpt>
<trkpt lat="48.989273" lon="7.771043"><ele>235.6</ele><time>2018-05-01T20:53:47Z</time></trkpt>
<trkpt lat="48.989318" lon="7.770344"><ele>235.8</ele><time>2018-05-01T20:53:50Z</time></trkpt>
<trkpt lat="48.989395" lon="7.769795"><ele>234.0</ele><time>2018-05-01T20:53:52Z</time></trkpt>
<trkpt lat="48.989435" lon="7.769233"><ele>234.0</ele><time>2018-05-01T20:53:55Z</time></trkpt>
<trkpt lat="48.989413" lon="7.768807"><ele>232.4</ele><time>2018-05-01T20:53:57Z</time></trkpt>
<trkpt lat="48.989358" lon="7.768408"><ele>232.4</ele><time>2018-05-01T20:53:59Z</time></trkpt>
<trkpt lat="48.988311" lon="7.764834"><ele>238.8</ele><time>2018-05-01T20:54:16Z</time></trkpt>
<trkpt lat="48.988186" lon="7.764352"><ele>238.8</ele><time>2018-05-01T20:54:19Z</time></trkpt>
<trkpt lat="48.988076" lon="7.763693"><ele>246.0</ele><time>2018-05-01T20:54:22Z</time></trkpt>
<trkpt lat="48.988035" lon="7.763292"><ele>252.4</ele><time>2018-05-01T20:54:24Z</time></trkpt>
<trkpt lat="48.987559" lon="7.7611"><ele>262.0</ele><time>2018-05-01T20:54:34Z</time></trkpt>
<trkpt lat="48.987482" lon="7.76086"><ele>253.8</ele><time>2018-05-01T20:54:35Z</time></trkpt>
<trkpt lat="48.987367" lon="7.760579"><ele>257.4</ele><time>2018-05-01T20:54:37Z</time></trkpt>
<trkpt lat="48.987206" lon="7.760276"><ele>257.4</ele><time>2018-05-01T20:54:39Z</time></trkpt>
<trkpt lat="48.986809" lon="7.75968"><ele>260.8</ele><time>2018-05-01T20:54:43Z</time></trkpt>
<trkpt lat="48.986562" lon="7.759177"><ele>251.2</ele><time>2018-05-01T20:54:45Z</time></trkpt>
<trkpt lat="48.986395" lon="7.758816"><ele>252.2</ele><time>2018-05-01T20:54:47Z</time></trkpt>
<trkpt lat="48.986017" lon="7.75785"><ele>254.2</ele><time>2018-05-01T20:54:53Z</time></trkpt>
<trkpt lat="48.985635" lon="7.756969"><ele>245.0</ele><time>2018-05-01T20:54:57Z</time></trkpt>
<trkpt lat="48.985422" lon="7.756588"><ele>244.6</ele><time>2018-05-01T20:55:00Z</time></trkpt>
<trkpt lat="48.985108" lon="7.756082"><ele>244.6</ele><time>2018-05-01T20:55:03Z</time></trkpt>
<trkpt lat="48.98507" lon="7.75597"><ele>244.6</ele><time>2018-05-01T20:55:03Z</time></trkpt>
<trkpt lat="48.984848" lon="7.754957"><ele>240.4</ele><time>2018-05-01T20:55:08Z</time></trkpt>
<trkpt lat="48.984588" lon="7.753888"><ele>244.8</ele><time>2018-05-01T20:55:13Z</time></trkpt>
<trkpt lat="48.984464" lon="7.753581"><ele>244.8</ele><time>2018-05-01T20:55:15Z</time></trkpt>
<trkpt lat="48.984299" lon="7.753397"><ele>244.8</ele><time>2018-05-01T20:55:16Z</time></trkpt>
<trkpt lat="48.984043" lon="7.753297"><ele>243.6</ele><time>2018-05-01T20:55:18Z</time></trkpt>
<trkpt lat="48.983708" lon="7.753098"><ele>243.6</ele><time>2018-05-01T20:55:21Z</time></trkpt>
<trkpt lat="48.982863" lon="7.752386"><ele>238.6</ele><time>2018-05-01T20:55:27Z</time></trkpt>
<trkpt lat="48.982486" lon="7.752042"><ele>234.8</ele><time>2018-05-01T20:55:30Z</time></trkpt>
<trkpt lat="48.982209" lon="7.751745"><ele>234.8</ele><time>2018-05-01T20:55:33Z</time></trkpt>
<trkpt lat="48.981804" lon="7.751027"><ele>232.0</ele><time>2018-05-01T20:55:37Z</time></trkpt>
<trkpt lat="48.981603" lon="7.750723"><ele>219.2</ele><time>2018-05-01T20:55:39Z</time></trkpt>
<trkpt lat="48.981286" lon="7.7505"><ele>219.2</ele><time>2018-05-01T20:55:42Z</time></trkpt>
<trkpt lat="48.9809" lon="7.750321"><ele>219.2</ele><time>2018-05-01T20:55:44Z</time></trkpt>
<trkpt lat="48.980707" lon="7.750172"><ele>216.2</ele><time>2018-05-01T20:55:46Z</time></trkpt>
<trkpt lat="48.980584" lon="7.749927"><ele>213.6</ele><time>2018-05-01T20:55:47Z</time></trkpt>
<trkpt lat="48.980058" lon="7.74841"><ele>221.8</ele><time>2018-05-01T20:55:55Z</time></trkpt>
<trkpt lat="48.979606" lon="7.747773"><ele>230.2</ele><time>2018-05-01T20:55:59Z</time></trkpt>
<trkpt lat="48.979122" lon="7.747159"><ele>239.2</ele><time>2018-05-01T20:56:04Z</time></trkpt>
<trkpt lat="48.978583" lon="7.746312"><ele>240.6</ele><time>2018-05-01T20:56:09Z</time></trkpt>
<trkpt lat="48.978149" lon="7.745801"><ele>244.0</ele><time>2018-05-01T20:56:13Z</time></trkpt>
<trkpt lat="48.977697" lon="7.745364"><ele>244.0</ele><time>2018-05-01T20:56:16Z</time></trkpt>
<trkpt lat="48.977062" lon="7.745025"><ele>245.4</ele><time>2018-05-01T20:56:21Z</time></trkpt>
<trkpt lat="48.976837" lon="7.744791"><ele>246.0</ele><time>2018-05-01T20:56:23Z</time></trkpt>
<trkpt lat="48.975253" lon="7.74257"><ele>246.2</ele><time>2018-05-01T20:56:38Z</time></trkpt>
<trkpt lat="48.974101" lon="7.741121"><ele>245.8</ele><time>2018-05-01T20:56:48Z</time></trkpt>
<trkpt lat="48.973054" lon="7.739736"><ele>238.8</ele><time>2018-05-01T20:56:58Z</time></trkpt>
<trkpt lat="48.972087" lon="7.738171"><ele>227.4</ele><time>2018-05-01T20:57:07Z</time></trkpt>
<trkpt lat="48.971796" lon="7.737754"><ele>227.4</ele><time>2018-05-01T20:57:10Z</time></trkpt>
<trkpt lat="48.970932" lon="7.736687"><ele>219.6</ele><time>2018-05-01T20:57:18Z</time></trkpt>
<trkpt lat="48.970401" lon="7.736131"><ele>211.6</ele><time>2018-05-01T20:57:22Z</time></trkpt>
<trkpt lat="48.969976" lon="7.7356"><ele>203.2</ele><time>2018-05-01T20:57:26Z</time></trkpt>
<trkpt lat="48.969791" lon="7.735242"><ele>203.2</ele><time>2018-05-01T20:57:28Z</time></trkpt>
<trkpt lat="48.969493" lon="7.73486"><ele>200.8</ele><time>2018-05-01T20:57:31Z</time></trkpt>
<trkpt lat="48.968753" lon="7.73363"><ele>206.2</ele><time>2018-05-01T20:57:38Z</time></trkpt>
<trkpt lat="48.968623" lon="7.733487"><ele>206.2</ele><time>2018-05-01T20:57:40Z</time></trkpt>
<trkpt lat="48.96851" lon="7.73344"><ele>206.2</ele><time>2018-05-01T20:57:40Z</time></trkpt>
<trkpt lat="48.968383" lon="7.733498"><ele>206.2</ele><time>2018-05-01T20:57:41Z</time></trkpt>
<trkpt lat="48.968223" lon="7.733643"><ele>209.8</ele><time>2018-05-01T20:57:43Z</time></trkpt>
<trkpt lat="48.968161" lon="7.733646"><ele>209.8</ele><time>2018-05-01T20:57:44Z</time></trkpt>
<trkpt lat="48.968237" lon="7.733454"><ele>209.8</ele><time>2018-05-01T20:57:46Z</time></trkpt>
<trkpt lat="48.968371" lon="7.733242"><ele>213.4</ele><time>2018-05-01T20:57:48Z</time></trkpt>
<trkpt lat="48.968102" lon="7.732671"><ele>217.6</ele><time>2018-05-01T20:57:51Z</time></trkpt>
<trkpt lat="48.967973" lon="7.732507"><ele>217.6</ele><time>2018-05-01T20:57:52Z</time></trkpt>
<trkpt lat="48.967557" lon="7.732091"><ele>226.8</ele><time>2018-05-01T20:57:55Z</time></trkpt>
<trkpt lat="48.967286" lon="7.731704"><ele>228.8</ele><time>2018-05-01T20:57:57Z</time></trkpt>
<trkpt lat="48.966373" lon="7.729999"><ele>240.6</ele><time>2018-05-01T20:58:06Z</time></trkpt>
<trkpt lat="48.966343" lon="7.729902"><ele>240.6</ele><time>2018-05-01T20:58:07Z</time></trkpt>
<trkpt lat="48.966378" lon="7.729761"><ele>240.6</ele><time>2018-05-01T20:58:07Z</time></trkpt>
<trkpt lat="48.966457" lon="7.729609"><ele>240.6</ele><time>2018-05-01T20:58:08Z</time></trkpt>
<trkpt lat="48.9672" lon="7.728821"><ele>248.0</ele><time>2018-05-01T20:58:14Z</time></trkpt>
<trkpt lat="48.96745" lon="7.728444"><ele>248.0</ele><time>2018-05-01T20:58:16Z</time></trkpt>
<trkpt lat="48.967951" lon="7.727575"><ele>251.6</ele><time>2018-05-01T20:58:21Z</time></trkpt>
<trkpt lat="48.968363" lon="7.726721"><ele>251.0</ele><time>2018-05-01T20:58:25Z</time></trkpt>
<trkpt lat="48.969162" lon="7.724854"><ele>255.2</ele><time>2018-05-01T20:58:35Z</time></trkpt>
<trkpt lat="48.96935" lon="7.724375"><ele>254.6</ele><time>2018-05-01T20:58:37Z</time></trkpt>
<trkpt lat="48.969518" lon="7.723849"><ele>259.8</ele><time>2018-05-01T20:58:40Z</time></trkpt>
<trkpt lat="48.969752" lon="7.722947"><ele>265.4</ele><time>2018-05-01T20:58:44Z</time></trkpt>
<trkpt lat="48.969894" lon="7.722076"><ele>269.2</ele><time>2018-05-01T20:58:47Z</time></trkpt>
<trkpt lat="48.969987" lon="7.721055"><ele>272.0</ele><time>2018-05-01T20:58:52Z</time></trkpt>
<trkpt lat="48.969707" lon="7.720268"><ele>275.2</ele><time>2018-05-01T20:58:55Z</time></trkpt>
<trkpt lat="48.969452" lon="7.719661"><ele>278.8</ele><time>2018-05-01T20:58:58Z</time></trkpt>
<trkpt lat="48.969411" lon="7.718524"><ele>281.2</ele><time>2018-05-01T20:59:03Z</time></trkpt>
<trkpt lat="48.969406" lon="7.717942"><ele>281.6</ele><time>2018-05-01T20:59:05Z</time></trkpt>
<trkpt lat="48.96933" lon="7.717365"><ele>283.0</ele><time>2018-05-01T20:59:08Z</time></trkpt>
<trkpt lat="48.969261" lon="7.717177"><ele>283.0</ele><time>2018-05-01T20:59:09Z</time></trkpt>
<trkpt lat="48.969127" lon="7.716971"><ele>283.2</ele><time>2018-05-01T20:59:10Z</time></trkpt>
<trkpt lat="48.968543" lon="7.716207"><ele>286.8</ele><time>2018-05-01T20:59:15Z</time></trkpt>
<trkpt lat="48.968361" lon="7.715551"><ele>289.6</ele><time>2018-05-01T20:59:18Z</time></trkpt>
<trkpt lat="48.968226" lon="7.714709"><ele>291.2</ele><time>2018-05-01T20:59:21Z</time></trkpt>
<trkpt lat="48.967933" lon="7.713469"><ele>293.6</ele><time>2018-05-01T20:59:27Z</time></trkpt>
<trkpt lat="48.967767" lon="7.713128"><ele>296.4</ele><time>2018-05-01T20:59:29Z</time></trkpt>
<trkpt lat="48.96748" lon="7.712859"><ele>294.2</ele><time>2018-05-01T20:59:31Z</time></trkpt>
<trkpt lat="48.966811" lon="7.712564"><ele>294.2</ele><time>2018-05-01T20:59:35Z</time></trkpt>
<trkpt lat="48.966436" lon="7.712482"><ele>295.6</ele><time>2018-05-01T20:59:38Z</time></trkpt>
<trkpt lat="48.966095" lon="7.712318"><ele>295.6</ele><time>2018-05-01T20:59:40Z</time></trkpt>
<trkpt lat="48.965929" lon="7.71212"><ele>295.6</ele><time>2018-05-01T20:59:41Z</time></trkpt>
<trkpt lat="48.96564" lon="7.711356"><ele>296.0</ele><time>2018-05-01T20:59:45Z</time></trkpt>
<trkpt lat="48.96498" lon="7.710423"><ele>296.2</ele><time>2018-05-01T20:59:51Z</time></trkpt>
<trkpt lat="48.964483" lon="7.708906"><ele>283.3</ele><time>2018-05-01T20:59:58Z</time></trkpt>
<trkpt lat="48.964483" lon="7.708906"><ele>283.3</ele><time>2018-05-01T20:59:58Z</time></trkpt>
<trkpt lat="48.964488" lon="7.708917"><ele>284.6</ele><time>2018-05-01T20:59:58Z</time></trkpt>
<trkpt lat="48.966517" lon="7.706628"><ele>271.8</ele><time>2018-05-01T21:00:14Z</time></trkpt>
<trkpt lat="48.969487" lon="7.702542"><ele>257.2</ele><time>2018-05-01T21:00:39Z</time></trkpt>
<trkpt lat="48.969541" lon="7.702424"><ele>257.8</ele><time>2018-05-01T21:00:39Z</time></trkpt>
<trkpt lat="48.969589" lon="7.702146"><ele>257.8</ele><time>2018-05-01T21:00:41Z</time></trkpt>
<trkpt lat="48.969567" lon="7.701813"><ele>257.8</ele><time>2018-05-01T21:00:42Z</time></trkpt>
<trkpt lat="48.969251" lon="7.700901"><ele>259.4</ele><time>2018-05-01T21:00:46Z</time></trkpt>
<trkpt lat="48.96815" lon="7.698722"><ele>264.0</ele><time>2018-05-01T21:00:57Z</time></trkpt>
<trkpt lat="48.967958" lon="7.698142"><ele>267.2</ele><time>2018-05-01T21:01:00Z</time></trkpt>
<trkpt lat="48.967928" lon="7.697698"><ele>267.2</ele><time>2018-05-01T21:01:02Z</time></trkpt>
<trkpt lat="48.968005" lon="7.697328"><ele>265.8</ele><time>2018-05-01T21:01:04Z</time></trkpt>
<trkpt lat="48.968562" lon="7.696534"><ele>273.6</ele><time>2018-05-01T21:01:08Z</time></trkpt>
<trkpt lat="48.969207" lon="7.6957"><ele>281.2</ele><time>2018-05-01T21:01:14Z</time></trkpt>
<trkpt lat="48.969324" lon="7.695416"><ele>281.2</ele><time>2018-05-01T21:01:15Z</time></trkpt>
<trkpt lat="48.969413" lon="7.694912"><ele>280.8</ele><time>2018-05-01T21:01:17Z</time></trkpt>
<trkpt lat="48.96949" lon="7.694725"><ele>280.8</ele><time>2018-05-01T21:01:18Z</time></trkpt>
<trkpt lat="48.96993" lon="7.693868"><ele>276.8</ele><time>2018-05-01T21:01:23Z</time></trkpt>
<trkpt lat="48.970469" lon="7.693057"><ele>268.6</ele><time>2018-05-01T21:01:27Z</time></trkpt>
<trkpt lat="48.97087" lon="7.692601"><ele>270.2</ele><time>2018-05-01T21:01:30Z</time></trkpt>
<trkpt lat="48.971347" lon="7.692161"><ele>255.2</ele><time>2018-05-01T21:01:34Z</time></trkpt>
<trkpt lat="48.972496" lon="7.691586"><ele>238.4</ele><time>2018-05-01T21:01:42Z</time></trkpt>
<trkpt lat="48.972877" lon="7.691543"><ele>243.0</ele><time>2018-05-01T21:01:44Z</time></trkpt>
<trkpt lat="48.973293" lon="7.691658"><ele>243.0</ele><time>2018-05-01T21:01:47Z</time></trkpt>
<trkpt lat="48.973619" lon="7.691716"><ele>259.0</ele><time>2018-05-01T21:01:49Z</time></trkpt>
<trkpt lat="48.973736" lon="7.691673"><ele>259.0</ele><time>2018-05-01T21:01:50Z</time></trkpt>
<trkpt lat="48.973809" lon="7.691597"><ele>249.6</ele><time>2018-05-01T21:01:50Z</time></trkpt>
<trkpt lat="48.973871" lon="7.691483"><ele>249.6</ele><time>2018-05-01T21:01:51Z</time></trkpt>
<trkpt lat="48.973941" lon="7.690719"><ele>239.0</ele><time>2018-05-01T21:01:54Z</time></trkpt>
<trkpt lat="48.974019" lon="7.690497"><ele>239.0</ele><time>2018-05-01T21:01:55Z</time></trkpt>
<trkpt lat="48.974141" lon="7.690358"><ele>239.0</ele><time>2018-05-01T21:01:56Z</time></trkpt>
<trkpt lat="48.974458" lon="7.690239"><ele>240.2</ele><time>2018-05-01T21:01:58Z</time></trkpt>
<trkpt lat="48.975629" lon="7.690281"><ele>231.4</ele><time>2018-05-01T21:02:06Z</time></trkpt>
<trkpt lat="48.976169" lon="7.690443"><ele>226.0</ele><time>2018-05-01T21:02:09Z</time></trkpt>
<trkpt lat="48.976753" lon="7.69071"><ele>232.4</ele><time>2018-05-01T21:02:13Z</time></trkpt>
<trkpt lat="48.977287" lon="7.690729"><ele>232.4</ele><time>2018-05-01T21:02:16Z</time></trkpt>
<trkpt lat="48.977415" lon="7.690687"><ele>232.4</ele><time>2018-05-01T21:02:17Z</time></trkpt>
<trkpt lat="48.977483" lon="7.690546"><ele>232.4</ele><time>2018-05-01T21:02:18Z</time></trkpt>
<trkpt lat="48.977495" lon="7.690381"><ele>232.4</ele><time>2018-05-01T21:02:18Z</time></trkpt>
<trkpt lat="48.977467" lon="7.690251"><ele>232.4</ele><time>2018-05-01T21:02:19Z</time></trkpt>
<trkpt lat="48.977378" lon="7.690095"><ele>232.4</ele><time>2018-05-01T21:02:20Z</time></trkpt>
<trkpt lat="48.977156" lon="7.689961"><ele>237.8</ele><time>2018-05-01T21:02:21Z</time></trkpt>
<trkpt lat="48.976754" lon="7.68983"><ele>237.8</ele><time>2018-05-01T21:02:24Z</time></trkpt>
<trkpt lat="48.975972" lon="7.688951"><ele>223.0</ele><time>2018-05-01T21:02:30Z</time></trkpt>
<trkpt lat="48.975513" lon="7.688194"><ele>209.6</ele><time>2018-05-01T21:02:34Z</time></trkpt>
<trkpt lat="48.975131" lon="7.687885"><ele>209.6</ele><time>2018-05-01T21:02:37Z</time></trkpt>
<trkpt lat="48.975033" lon="7.687611"><ele>209.6</ele><time>2018-05-01T21:02:38Z</time></trkpt>
<trkpt lat="48.975135" lon="7.686754"><ele>209.8</ele><time>2018-05-01T21:02:42Z</time></trkpt>
<trkpt lat="48.97528" lon="7.686686"><ele>209.8</ele><time>2018-05-01T21:02:43Z</time></trkpt>
<trkpt lat="48.975397" lon="7.68653"><ele>211.2</ele><time>2018-05-01T21:02:44Z</time></trkpt>
<trkpt lat="48.975703" lon="7.68574"><ele>210.4</ele><time>2018-05-01T21:02:48Z</time></trkpt>
<trkpt lat="48.975813" lon="7.68525"><ele>210.4</ele><time>2018-05-01T21:02:50Z</time></trkpt>
<trkpt lat="48.975964" lon="7.684902"><ele>214.6</ele><time>2018-05-01T21:02:52Z</time></trkpt>
<trkpt lat="48.976229" lon="7.684448"><ele>214.6</ele><time>2018-05-01T21:02:54Z</time></trkpt>
<trkpt lat="48.976363" lon="7.684175"><ele>214.6</ele><time>2018-05-01T21:02:55Z</time></trkpt>
<trkpt lat="48.976499" lon="7.684011"><ele>215.4</ele><time>2018-05-01T21:02:57Z</time></trkpt>
<trkpt lat="48.97663" lon="7.683912"><ele>215.4</ele><time>2018-05-01T21:02:57Z</time></trkpt>
<trkpt lat="48.977053" lon="7.683728"><ele>220.0</ele><time>2018-05-01T21:03:00Z</time></trkpt>
<trkpt lat="48.977392" lon="7.683592"><ele>220.0</ele><time>2018-05-01T21:03:02Z</time></trkpt>
<trkpt lat="48.977762" lon="7.683508"><ele>225.2</ele><time>2018-05-01T21:03:05Z</time></trkpt>
<trkpt lat="48.980318" lon="7.682772"><ele>217.6</ele><time>2018-05-01T21:03:21Z</time></trkpt>
<trkpt lat="48.981147" lon="7.682566"><ele>216.2</ele><time>2018-05-01T21:03:26Z</time></trkpt>
<trkpt lat="48.981464" lon="7.682592"><ele>216.2</ele><time>2018-05-01T21:03:28Z</time></trkpt>
<trkpt lat="48.981855" lon="7.682732"><ele>212.0</ele><time>2018-05-01T21:03:31Z</time></trkpt>
<trkpt lat="48.982466" lon="7.68333"><ele>212.0</ele><time>2018-05-01T21:03:35Z</time></trkpt>
<trkpt lat="48.982753" lon="7.68348"><ele>211.6</ele><time>2018-05-01T21:03:37Z</time></trkpt>
<trkpt lat="48.983102" lon="7.683576"><ele>211.6</ele><time>2018-05-01T21:03:40Z</time></trkpt>
<trkpt lat="48.983463" lon="7.683619"><ele>218.6</ele><time>2018-05-01T21:03:42Z</time></trkpt>
<trkpt lat="48.983802" lon="7.683485"><ele>218.6</ele><time>2018-05-01T21:03:44Z</time></trkpt>
<trkpt lat="48.984138" lon="7.683168"><ele>220.4</ele><time>2018-05-01T21:03:46Z</time></trkpt>
<trkpt lat="48.984501" lon="7.682926"><ele>226.6</ele><time>2018-05-01T21:03:49Z</time></trkpt>
<trkpt lat="48.985162" lon="7.682163"><ele>227.4</ele><time>2018-05-01T21:03:54Z</time></trkpt>
<trkpt lat="48.985303" lon="7.6819"><ele>227.4</ele><time>2018-05-01T21:03:56Z</time></trkpt>
<trkpt lat="48.985572" lon="7.681219"><ele>225.6</ele><time>2018-05-01T21:03:59Z</time></trkpt>
<trkpt lat="48.98572" lon="7.680959"><ele>225.6</ele><time>2018-05-01T21:04:00Z</time></trkpt>
<trkpt lat="48.986051" lon="7.680768"><ele>222.2</ele><time>2018-05-01T21:04:02Z</time></trkpt>
<trkpt lat="48.986383" lon="7.680283"><ele>222.2</ele><time>2018-05-01T21:04:05Z</time></trkpt>
<trkpt lat="48.9866" lon="7.680049"><ele>222.2</ele><time>2018-05-01T21:04:07Z</time></trkpt>
<trkpt lat="48.987476" lon="7.6793"><ele>224.2</ele><time>2018-05-01T21:04:13Z</time></trkpt>
<trkpt lat="48.987822" lon="7.679291"><ele>226.4</ele><time>2018-05-01T21:04:15Z</time></trkpt>
<trkpt lat="48.988151" lon="7.679081"><ele>226.4</ele><time>2018-05-01T21:04:18Z</time></trkpt>
<trkpt lat="48.988507" lon="7.678905"><ele>228.2</ele><time>2018-05-01T21:04:20Z</time></trkpt>
<trkpt lat="48.988681" lon="7.678688"><ele>228.2</ele><time>2018-05-01T21:04:21Z</time></trkpt>
<trkpt lat="48.988757" lon="7.678492"><ele>228.2</ele><time>2018-05-01T21:04:22Z</time></trkpt>
<trkpt lat="48.988756" lon="7.678096"><ele>229.6</ele><time>2018-05-01T21:04:24Z</time></trkpt>
<trkpt lat="48.988806" lon="7.677613"><ele>229.6</ele><time>2018-05-01T21:04:26Z</time></trkpt>
<trkpt lat="48.989105" lon="7.67628"><ele>229.4</ele><time>2018-05-01T21:04:32Z</time></trkpt>
<trkpt lat="48.989286" lon="7.675685"><ele>233.6</ele><time>2018-05-01T21:04:34Z</time></trkpt>
<trkpt lat="48.989399" lon="7.675212"><ele>233.6</ele><time>2018-05-01T21:04:37Z</time></trkpt>
<trkpt lat="48.989474" lon="7.674973"><ele>226.6</ele><time>2018-05-01T21:04:38Z</time></trkpt>
<trkpt lat="48.989545" lon="7.674812"><ele>226.6</ele><time>2018-05-01T21:04:38Z</time></trkpt>
<trkpt lat="48.98982" lon="7.67437"><ele>226.6</ele><time>2018-05-01T21:04:41Z</time></trkpt>
<trkpt lat="48.989943" lon="7.67431"><ele>226.6</ele><time>2018-05-01T21:04:42Z</time></trkpt>
<trkpt lat="48.990126" lon="7.674271"><ele>234.2</ele><time>2018-05-01T21:04:43Z</time></trkpt>
<trkpt lat="48.990424" lon="7.674247"><ele>234.2</ele><time>2018-05-01T21:04:45Z</time></trkpt>
<trkpt lat="48.99062" lon="7.674169"><ele>234.2</ele><time>2018-05-01T21:04:46Z</time></trkpt>
<trkpt lat="48.990902" lon="7.673961"><ele>229.6</ele><time>2018-05-01T21:04:48Z</time></trkpt>
<trkpt lat="48.991205" lon="7.673578"><ele>229.6</ele><time>2018-05-01T21:04:51Z</time></trkpt>
<trkpt lat="48.991322" lon="7.673339"><ele>229.6</ele><time>2018-05-01T21:04:52Z</time></trkpt>
<trkpt lat="48.99142" lon="7.673054"><ele>222.0</ele><time>2018-05-01T21:04:53Z</time></trkpt>
<trkpt lat="48.991498" lon="7.67278"><ele>222.0</ele><time>2018-05-01T21:04:54Z</time></trkpt>
<trkpt lat="48.991582" lon="7.672381"><ele>223.4</ele><time>2018-05-01T21:04:56Z</time></trkpt>
<trkpt lat="48.991617" lon="7.672108"><ele>223.4</ele><time>2018-05-01T21:04:57Z</time></trkpt>
<trkpt lat="48.991619" lon="7.671686"><ele>223.4</ele><time>2018-05-01T21:04:59Z</time></trkpt>
<trkpt lat="48.991576" lon="7.671081"><ele>225.6</ele><time>2018-05-01T21:05:02Z</time></trkpt>
<trkpt lat="48.991541" lon="7.669217"><ele>229.4</ele><time>2018-05-01T21:05:09Z</time></trkpt>
<trkpt lat="48.991581" lon="7.667552"><ele>227.8</ele><time>2018-05-01T21:05:16Z</time></trkpt>
<trkpt lat="48.991751" lon="7.666445"><ele>254.8</ele><time>2018-05-01T21:05:21Z</time></trkpt>
<trkpt lat="48.991892" lon="7.665"><ele>253.0</ele><time>2018-05-01T21:05:27Z</time></trkpt>
<trkpt lat="48.99203" lon="7.664175"><ele>247.8</ele><time>2018-05-01T21:05:30Z</time></trkpt>
<trkpt lat="48.99225" lon="7.663305"><ele>232.8</ele><time>2018-05-01T21:05:34Z</time></trkpt>
<trkpt lat="48.992472" lon="7.662595"><ele>232.8</ele><time>2018-05-01T21:05:38Z</time></trkpt>
<trkpt lat="48.992745" lon="7.661964"><ele>235.0</ele><time>2018-05-01T21:05:41Z</time></trkpt>
<trkpt lat="48.992923" lon="7.661689"><ele>235.0</ele><time>2018-05-01T21:05:42Z</time></trkpt>
<trkpt lat="48.993803" lon="7.660772"><ele>222.0</ele><time>2018-05-01T21:05:49Z</time></trkpt>
<trkpt lat="48.994322" lon="7.660306"><ele>223.5</ele><time>2018-05-01T21:05:53Z</time></trkpt>
<trkpt lat="48.994322" lon="7.660306"><ele>223.5</ele><time>2018-05-01T21:05:53Z</time></trkpt>
<trkpt lat="48.994519" lon="7.660196"><ele>225.0</ele><time>2018-05-01T21:05:54Z</time></trkpt>
<trkpt lat="48.994862" lon="7.660093"><ele>225.0</ele><time>2018-05-01T21:05:56Z</time></trkpt>
<trkpt lat="48.995196" lon="7.660105"><ele>226.2</ele><time>2018-05-01T21:05:58Z</time></trkpt>
<trkpt lat="48.99646" lon="7.660549"><ele>227.0</ele><time>2018-05-01T21:06:06Z</time></trkpt>
<trkpt lat="48.997059" lon="7.66086"><ele>228.2</ele><time>2018-05-01T21:06:10Z</time></trkpt>
<trkpt lat="48.997698" lon="7.661133"><ele>228.0</ele><time>2018-05-01T21:06:15Z</time></trkpt>
<trkpt lat="48.997943" lon="7.661161"><ele>228.0</ele><time>2018-05-01T21:06:16Z</time></trkpt>
<trkpt lat="48.998224" lon="7.661148"><ele>228.0</ele><time>2018-05-01T21:06:18Z</time></trkpt>
<trkpt lat="48.998528" lon="7.661198"><ele>227.4</ele><time>2018-05-01T21:06:20Z</time></trkpt>
<trkpt lat="48.998977" lon="7.661544"><ele>227.4</ele><time>2018-05-01T21:06:23Z</time></trkpt>
<trkpt lat="48.999341" lon="7.661964"><ele>228.8</ele><time>2018-05-01T21:06:26Z</time></trkpt>
<trkpt lat="48.99986" lon="7.662415"><ele>228.8</ele><time>2018-05-01T21:06:30Z</time></trkpt>
<trkpt lat="49.00039" lon="7.662699"><ele>231.4</ele><time>2018-05-01T21:06:33Z</time></trkpt>
<trkpt lat="49.000948" lon="7.663063"><ele>229.6</ele><time>2018-05-01T21:06:37Z</time></trkpt>
<trkpt lat="49.001228" lon="7.663354"><ele>235.6</ele><time>2018-05-01T21:06:39Z</time></trkpt>
<trkpt lat="49.001578" lon="7.663925"><ele>235.6</ele><time>2018-05-01T21:06:42Z</time></trkpt>
<trkpt lat="49.00174" lon="7.664146"><ele>233.0</ele><time>2018-05-01T21:06:44Z</time></trkpt>
<trkpt lat="49.002102" lon="7.66447"><ele>239.6</ele><time>2018-05-01T21:06:46Z</time></trkpt>
<trkpt lat="49.002323" lon="7.664596"><ele>239.6</ele><time>2018-05-01T21:06:48Z</time></trkpt>
<trkpt lat="49.002991" lon="7.664833"><ele>237.2</ele><time>2018-05-01T21:06:52Z</time></trkpt>
<trkpt lat="49.003198" lon="7.664884"><ele>237.2</ele><time>2018-05-01T21:06:53Z</time></trkpt>
<trkpt lat="49.003721" lon="7.664899"><ele>234.8</ele><time>2018-05-01T21:06:57Z</time></trkpt>
<trkpt lat="49.004395" lon="7.665088"><ele>246.0</ele><time>2018-05-01T21:07:01Z</time></trkpt>
<trkpt lat="49.004711" lon="7.665129"><ele>246.0</ele><time>2018-05-01T21:07:03Z</time></trkpt>
<trkpt lat="49.005095" lon="7.66509"><ele>242.2</ele><time>2018-05-01T21:07:05Z</time></trkpt>
<trkpt lat="49.005471" lon="7.665108"><ele>242.2</ele><time>2018-05-01T21:07:08Z</time></trkpt>
<trkpt lat="49.006403" lon="7.665355"><ele>239.4</ele><time>2018-05-01T21:07:14Z</time></trkpt>
<trkpt lat="49.007299" lon="7.66552"><ele>236.8</ele><time>2018-05-01T21:07:19Z</time></trkpt>
<trkpt lat="49.007813" lon="7.665411"><ele>234.8</ele><time>2018-05-01T21:07:22Z</time></trkpt>
<trkpt lat="49.008496" lon="7.664901"><ele>231.4</ele><time>2018-05-01T21:07:27Z</time></trkpt>
<trkpt lat="49.008745" lon="7.664739"><ele>231.4</ele><time>2018-05-01T21:07:29Z</time></trkpt>
<trkpt lat="49.009006" lon="7.664602"><ele>231.4</ele><time>2018-05-01T21:07:31Z</time></trkpt>
<trkpt lat="49.009402" lon="7.664551"><ele>231.6</ele><time>2018-05-01T21:07:33Z</time></trkpt>
<trkpt lat="49.009957" lon="7.664519"><ele>231.6</ele><time>2018-05-01T21:07:37Z</time></trkpt>
<trkpt lat="49.010123" lon="7.664485"><ele>238.0</ele><time>2018-05-01T21:07:38Z</time></trkpt>
<trkpt lat="49.010213" lon="7.66445"><ele>238.0</ele><time>2018-05-01T21:07:38Z</time></trkpt>
<trkpt lat="49.010483" lon="7.664177"><ele>238.0</ele><time>2018-05-01T21:07:40Z</time></trkpt>
<trkpt lat="49.010622" lon="7.663879"><ele>241.2</ele><time>2018-05-01T21:07:42Z</time></trkpt>
<trkpt lat="49.010702" lon="7.663433"><ele>241.2</ele><time>2018-05-01T21:07:44Z</time></trkpt>
<trkpt lat="49.010748" lon="7.662711"><ele>246.4</ele><time>2018-05-01T21:07:47Z</time></trkpt>
<trkpt lat="49.010833" lon="7.661718"><ele>248.0</ele><time>2018-05-01T21:07:51Z</time></trkpt>
<trkpt lat="49.01103" lon="7.660957"><ele>273.0</ele><time>2018-05-01T21:07:54Z</time></trkpt>
<trkpt lat="49.011244" lon="7.660328"><ele>263.0</ele><time>2018-05-01T21:07:57Z</time></trkpt>
<trkpt lat="49.011919" lon="7.659122"><ele>255.8</ele><time>2018-05-01T21:08:04Z</time></trkpt>
<trkpt lat="49.012111" lon="7.658841"><ele>255.8</ele><time>2018-05-01T21:08:06Z</time></trkpt>
<trkpt lat="49.012553" lon="7.658427"><ele>258.0</ele><time>2018-05-01T21:08:09Z</time></trkpt>
<trkpt lat="49.013094" lon="7.658128"><ele>251.8</ele><time>2018-05-01T21:08:12Z</time></trkpt>
<trkpt lat="49.013368" lon="7.658059"><ele>252.0</ele><time>2018-05-01T21:08:14Z</time></trkpt>
<trkpt lat="49.014768" lon="7.658856"><ele>261.2</ele><time>2018-05-01T21:08:24Z</time></trkpt>
<trkpt lat="49.015374" lon="7.659388"><ele>269.0</ele><time>2018-05-01T21:08:28Z</time></trkpt>
<trkpt lat="49.016436" lon="7.660778"><ele>273.0</ele><time>2018-05-01T21:08:37Z</time></trkpt>
<trkpt lat="49.017847" lon="7.662536"><ele>271.8</ele><time>2018-05-01T21:08:48Z</time></trkpt>
<trkpt lat="49.019523" lon="7.664171"><ele>277.8</ele><time>2018-05-01T21:09:01Z</time></trkpt>
<trkpt lat="49.021502" lon="7.665495"><ele>291.8</ele><time>2018-05-01T21:09:14Z</time></trkpt>
<trkpt lat="49.023112" lon="7.666006"><ele>297.8</ele><time>2018-05-01T21:09:24Z</time></trkpt>
<trkpt lat="49.02419" lon="7.666062"><ele>310.4</ele><time>2018-05-01T21:09:31Z</time></trkpt>
<trkpt lat="49.025527" lon="7.666693"><ele>302.6</ele><time>2018-05-01T21:09:40Z</time></trkpt>
<trkpt lat="49.025984" lon="7.666956"><ele>299.2</ele><time>2018-05-01T21:09:43Z</time></trkpt>
<trkpt lat="49.026463" lon="7.666993"><ele>299.2</ele><time>2018-05-01T21:09:46Z</time></trkpt>
<trkpt lat="49.026955" lon="7.667074"><ele>297.0</ele><time>2018-05-01T21:09:49Z</time></trkpt>
<trkpt lat="49.027252" lon="7.6672"><ele>297.0</ele><time>2018-05-01T21:09:51Z</time></trkpt>
<trkpt lat="49.027907" lon="7.66756"><ele>294.2</ele><time>2018-05-01T21:09:55Z</time></trkpt>
<trkpt lat="49.029006" lon="7.668274"><ele>291.2</ele><time>2018-05-01T21:10:03Z</time></trkpt>
<trkpt lat="49.029327" lon="7.668412"><ele>292.4</ele><time>2018-05-01T21:10:05Z</time></trkpt>
<trkpt lat="49.029587" lon="7.668452"><ele>292.4</ele><time>2018-05-01T21:10:07Z</time></trkpt>
<trkpt lat="49.031635" lon="7.667723"><ele>290.4</ele><time>2018-05-01T21:10:20Z</time></trkpt>
<trkpt lat="49.031924" lon="7.667674"><ele>286.2</ele><time>2018-05-01T21:10:22Z</time></trkpt>
<trkpt lat="49.032577" lon="7.667827"><ele>282.8</ele><time>2018-05-01T21:10:26Z</time></trkpt>
<trkpt lat="49.034499" lon="7.6692"><ele>272.6</ele><time>2018-05-01T21:10:39Z</time></trkpt>
<trkpt lat="49.034846" lon="7.669378"><ele>272.6</ele><time>2018-05-01T21:10:41Z</time></trkpt>
<trkpt lat="49.035158" lon="7.669652"><ele>279.0</ele><time>2018-05-01T21:10:44Z</time></trkpt>
<trkpt lat="49.035497" lon="7.670216"><ele>272.0</ele><time>2018-05-01T21:10:47Z</time></trkpt>
<trkpt lat="49.036073" lon="7.671629"><ele>271.2</ele><time>2018-05-01T21:10:54Z</time></trkpt>
<trkpt lat="49.036242" lon="7.672291"><ele>265.2</ele><time>2018-05-01T21:10:56Z</time></trkpt>
<trkpt lat="49.036331" lon="7.673004"><ele>260.2</ele><time>2018-05-01T21:10:59Z</time></trkpt>
<trkpt lat="49.036393" lon="7.674333"><ele>253.2</ele><time>2018-05-01T21:11:05Z</time></trkpt>
<trkpt lat="49.036459" lon="7.674394"><ele>253.2</ele><time>2018-05-01T21:11:06Z</time></trkpt>
<trkpt lat="49.036635" lon="7.674485"><ele>253.2</ele><time>2018-05-01T21:11:08Z</time></trkpt>
<trkpt lat="49.038761" lon="7.668765"><ele>261.2</ele><time>2018-05-01T21:11:35Z</time></trkpt>
<trkpt lat="49.039035" lon="7.668066"><ele>264.8</ele><time>2018-05-01T21:11:38Z</time></trkpt>
<trkpt lat="49.039734" lon="7.666963"><ele>261.4</ele><time>2018-05-01T21:11:45Z</time></trkpt>
<trkpt lat="49.040057" lon="7.666581"><ele>267.2</ele><time>2018-05-01T21:11:47Z</time></trkpt>
<trkpt lat="49.042414" lon="7.665132"><ele>266.0</ele><time>2018-05-01T21:12:03Z</time></trkpt>
<trkpt lat="49.042562" lon="7.664941"><ele>263.4</ele><time>2018-05-01T21:12:04Z</time></trkpt>
<trkpt lat="49.042562" lon="7.664941"><ele>263.4</ele><time>2018-05-01T21:12:04Z</time></trkpt>
<trkpt lat="49.042597" lon="7.66476"><ele>263.4</ele><time>2018-05-01T21:12:05Z</time></trkpt>
<trkpt lat="49.042628" lon="7.66439"><ele>263.4</ele><time>2018-05-01T21:12:07Z</time></trkpt>
<trkpt lat="49.042629" lon="7.663884"><ele>265.0</ele><time>2018-05-01T21:12:09Z</time></trkpt>
<trkpt lat="49.042105" lon="7.654091"><ele>280.6</ele><time>2018-05-01T21:12:48Z</time></trkpt>
<trkpt lat="49.041977" lon="7.652101"><ele>283.8</ele><time>2018-05-01T21:12:55Z</time></trkpt>
<trkpt lat="49.041981" lon="7.651588"><ele>284.4</ele><time>2018-05-01T21:12:57Z</time></trkpt>
<trkpt lat="49.042" lon="7.651321"><ele>284.4</ele><time>2018-05-01T21:12:59Z</time></trkpt>
<trkpt lat="49.04204" lon="7.651219"><ele>284.4</ele><time>2018-05-01T21:12:59Z</time></trkpt>
<trkpt lat="49.042139" lon="7.651153"><ele>284.4</ele><time>2018-05-01T21:13:00Z</time></trkpt>
<trkpt lat="49.042241" lon="7.651161"><ele>284.4</ele><time>2018-05-01T21:13:00Z</time></trkpt>
<trkpt lat="49.043802" lon="7.651857"><ele>291.0</ele><time>2018-05-01T21:13:10Z</time></trkpt>
<trkpt lat="49.044064" lon="7.651874"><ele>291.0</ele><time>2018-05-01T21:13:12Z</time></trkpt>
<trkpt lat="49.044315" lon="7.651752"><ele>293.2</ele><time>2018-05-01T21:13:13Z</time></trkpt>
<trkpt lat="49.04471" lon="7.651342"><ele>289.2</ele><time>2018-05-01T21:13:16Z</time></trkpt>
<trkpt lat="49.046843" lon="7.650154"><ele>275.4</ele><time>2018-05-01T21:13:30Z</time></trkpt>
<trkpt lat="49.047045" lon="7.649694"><ele>272.8</ele><time>2018-05-01T21:13:32Z</time></trkpt>
<trkpt lat="49.048514" lon="7.64293"><ele>274.6</ele><time>2018-05-01T21:14:00Z</time></trkpt>
<trkpt lat="49.049425" lon="7.639106"><ele>277.4</ele><time>2018-05-01T21:14:17Z</time></trkpt>
<trkpt lat="49.05026" lon="7.635281"><ele>285.8</ele><time>2018-05-01T21:14:33Z</time></trkpt>
<trkpt lat="49.050821" lon="7.632614"><ele>287.4</ele><time>2018-05-01T21:14:44Z</time></trkpt>
<trkpt lat="49.050995" lon="7.631884"><ele>287.8</ele><time>2018-05-01T21:14:47Z</time></trkpt>
<trkpt lat="49.051197" lon="7.631264"><ele>284.6</ele><time>2018-05-01T21:14:50Z</time></trkpt>
<trkpt lat="49.052983" lon="7.628425"><ele>275.0</ele><time>2018-05-01T21:15:05Z</time></trkpt>
<trkpt lat="49.053683" lon="7.627386"><ele>271.0</ele><time>2018-05-01T21:15:11Z</time></trkpt>
<trkpt lat="49.054052" lon="7.626552"><ele>270.6</ele><time>2018-05-01T21:15:15Z</time></trkpt>
<trkpt lat="49.054445" lon="7.625489"><ele>270.2</ele><time>2018-05-01T21:15:20Z</time></trkpt>
<trkpt lat="49.055092" lon="7.623429"><ele>267.8</ele><time>2018-05-01T21:15:29Z</time></trkpt>
<trkpt lat="49.055351" lon="7.622542"><ele>266.0</ele><time>2018-05-01T21:15:33Z</time></trkpt>
<trkpt lat="49.055459" lon="7.621974"><ele>265.0</ele><time>2018-05-01T21:15:35Z</time></trkpt>
<trkpt lat="49.055544" lon="7.621343"><ele>265.0</ele><time>2018-05-01T21:15:38Z</time></trkpt>
<trkpt lat="49.055598" lon="7.620313"><ele>265.0</ele><time>2018-05-01T21:15:42Z</time></trkpt>
<trkpt lat="49.055543" lon="7.619392"><ele>263.8</ele><time>2018-05-01T21:15:46Z</time></trkpt>
<trkpt lat="49.05545" lon="7.618597"><ele>264.0</ele><time>2018-05-01T21:15:49Z</time></trkpt>
<trkpt lat="49.055236" lon="7.617689"><ele>265.6</ele><time>2018-05-01T21:15:53Z</time></trkpt>
<trkpt lat="49.055008" lon="7.617015"><ele>265.8</ele><time>2018-05-01T21:15:56Z</time></trkpt>
<trkpt lat="49.053681" lon="7.613474"><ele>273.8</ele><time>2018-05-01T21:16:12Z</time></trkpt>
<trkpt lat="49.053277" lon="7.612291"><ele>275.8</ele><time>2018-05-01T21:16:17Z</time></trkpt>
<trkpt lat="49.053071" lon="7.611403"><ele>277.6</ele><time>2018-05-01T21:16:21Z</time></trkpt>
<trkpt lat="49.051208" lon="7.599906"><ele>288.6</ele><time>2018-05-01T21:17:08Z</time></trkpt>
<trkpt lat="49.050906" lon="7.598394"><ele>301.2</ele><time>2018-05-01T21:17:14Z</time></trkpt>
<trkpt lat="49.050205" lon="7.595887"><ele>298.8</ele><time>2018-05-01T21:17:25Z</time></trkpt>
<trkpt lat="49.049631" lon="7.593966"><ele>273.2</ele><time>2018-05-01T21:17:33Z</time></trkpt>
<trkpt lat="49.049536" lon="7.593469"><ele>273.2</ele><time>2018-05-01T21:17:35Z</time></trkpt>
<trkpt lat="49.049513" lon="7.592968"><ele>266.0</ele><time>2018-05-01T21:17:37Z</time></trkpt>
<trkpt lat="49.049529" lon="7.592507"><ele>266.0</ele><time>2018-05-01T21:17:39Z</time></trkpt>
<trkpt lat="49.04948" lon="7.592423"><ele>257.4</ele><time>2018-05-01T21:17:40Z</time></trkpt>
<trkpt lat="49.049372" lon="7.592031"><ele>257.4</ele><time>2018-05-01T21:17:42Z</time></trkpt>
<trkpt lat="49.049528" lon="7.591961"><ele>257.4</ele><time>2018-05-01T21:17:43Z</time></trkpt>
<trkpt lat="49.049609" lon="7.591948"><ele>257.4</ele><time>2018-05-01T21:17:43Z</time></trkpt>
<trkpt lat="49.049704" lon="7.591589"><ele>249.2</ele><time>2018-05-01T21:17:45Z</time></trkpt>
<trkpt lat="49.04984" lon="7.591261"><ele>249.2</ele><time>2018-05-01T21:17:46Z</time></trkpt>
<trkpt lat="49.050167" lon="7.590767"><ele>250.0</ele><time>2018-05-01T21:17:49Z</time></trkpt>
<trkpt lat="49.050416" lon="7.5905"><ele>250.0</ele><time>2018-05-01T21:17:50Z</time></trkpt>
<trkpt lat="49.05069" lon="7.590301"><ele>250.0</ele><time>2018-05-01T21:17:52Z</time></trkpt>
<trkpt lat="49.051702" lon="7.589758"><ele>261.6</ele><time>2018-05-01T21:17:58Z</time></trkpt>
<trkpt lat="49.051896" lon="7.589611"><ele>261.6</ele><time>2018-05-01T21:17:59Z</time></trkpt>
<trkpt lat="49.052598" lon="7.588912"><ele>258.6</ele><time>2018-05-01T21:18:04Z</time></trkpt>
<trkpt lat="49.053227" lon="7.588398"><ele>258.6</ele><time>2018-05-01T21:18:08Z</time></trkpt>
<trkpt lat="49.053596" lon="7.588289"><ele>250.8</ele><time>2018-05-01T21:18:10Z</time></trkpt>
<trkpt lat="49.054054" lon="7.587969"><ele>250.8</ele><time>2018-05-01T21:18:12Z</time></trkpt>
<trkpt lat="49.054441" lon="7.587437"><ele>252.4</ele><time>2018-05-01T21:18:15Z</time></trkpt>
<trkpt lat="49.055157" lon="7.586371"><ele>254.8</ele><time>2018-05-01T21:18:21Z</time></trkpt>
<trkpt lat="49.055795" lon="7.585336"><ele>268.8</ele><time>2018-05-01T21:18:26Z</time></trkpt>
<trkpt lat="49.056001" lon="7.584944"><ele>259.2</ele><time>2018-05-01T21:18:28Z</time></trkpt>
<trkpt lat="49.056192" lon="7.584511"><ele>259.2</ele><time>2018-05-01T21:18:30Z</time></trkpt>
<trkpt lat="49.056537" lon="7.583649"><ele>262.8</ele><time>2018-05-01T21:18:33Z</time></trkpt>
<trkpt lat="49.057135" lon="7.58139"><ele>256.6</ele><time>2018-05-01T21:18:42Z</time></trkpt>
<trkpt lat="49.057501" lon="7.579867"><ele>264.2</ele><time>2018-05-01T21:18:48Z</time></trkpt>
<trkpt lat="49.057674" lon="7.579417"><ele>264.2</ele><time>2018-05-01T21:18:50Z</time></trkpt>
<trkpt lat="49.058244" lon="7.578473"><ele>279.6</ele><time>2018-05-01T21:18:54Z</time></trkpt>
<trkpt lat="49.0585" lon="7.578122"><ele>278.2</ele><time>2018-05-01T21:18:56Z</time></trkpt>
<trkpt lat="49.058775" lon="7.577827"><ele>278.2</ele><time>2018-05-01T21:18:58Z</time></trkpt>
<trkpt lat="49.059081" lon="7.577647"><ele>278.2</ele><time>2018-05-01T21:19:00Z</time></trkpt>
<trkpt lat="49.059243" lon="7.577607"><ele>267.2</ele><time>2018-05-01T21:19:01Z</time></trkpt>
<trkpt lat="49.060076" lon="7.577539"><ele>264.2</ele><time>2018-05-01T21:19:06Z</time></trkpt>
<trkpt lat="49.060403" lon="7.577389"><ele>272.8</ele><time>2018-05-01T21:19:07Z</time></trkpt>
<trkpt lat="49.060864" lon="7.57703"><ele>264.4</ele><time>2018-05-01T21:19:10Z</time></trkpt>
<trkpt lat="49.061136" lon="7.576706"><ele>264.4</ele><time>2018-05-01T21:19:12Z</time></trkpt>
<trkpt lat="49.06138" lon="7.576323"><ele>275.4</ele><time>2018-05-01T21:19:14Z</time></trkpt>
<trkpt lat="49.061826" lon="7.575458"><ele>273.0</ele><time>2018-05-01T21:19:18Z</time></trkpt>
<trkpt lat="49.062878" lon="7.573216"><ele>282.4</ele><time>2018-05-01T21:19:28Z</time></trkpt>
<trkpt lat="49.063121" lon="7.572796"><ele>282.4</ele><time>2018-05-01T21:19:30Z</time></trkpt>
<trkpt lat="49.063256" lon="7.572619"><ele>282.4</ele><time>2018-05-01T21:19:31Z</time></trkpt>
<trkpt lat="49.06356" lon="7.57233"><ele>281.8</ele><time>2018-05-01T21:19:33Z</time></trkpt>
<trkpt lat="49.064531" lon="7.571695"><ele>273.8</ele><time>2018-05-01T21:19:39Z</time></trkpt>
<trkpt lat="49.06465" lon="7.571555"><ele>285.0</ele><time>2018-05-01T21:19:40Z</time></trkpt>
<trkpt lat="49.064745" lon="7.571382"><ele>285.0</ele><time>2018-05-01T21:19:41Z</time></trkpt>
<trkpt lat="49.064793" lon="7.57098"><ele>285.0</ele><time>2018-05-01T21:19:42Z</time></trkpt>
<trkpt lat="49.064759" lon="7.570531"><ele>292.6</ele><time>2018-05-01T21:19:44Z</time></trkpt>
<trkpt lat="49.063848" lon="7.565171"><ele>281.2</ele><time>2018-05-01T21:20:04Z</time></trkpt>
<trkpt lat="49.06362" lon="7.564222"><ele>282.8</ele><time>2018-05-01T21:20:07Z</time></trkpt>
<trkpt lat="49.063294" lon="7.56333"><ele>287.0</ele><time>2018-05-01T21:20:11Z</time></trkpt>
<trkpt lat="49.062997" lon="7.562687"><ele>287.0</ele><time>2018-05-01T21:20:14Z</time></trkpt>
<trkpt lat="49.06288" lon="7.562495"><ele>294.4</ele><time>2018-05-01T21:20:15Z</time></trkpt>
<trkpt lat="49.062618" lon="7.562162"><ele>294.4</ele><time>2018-05-01T21:20:17Z</time></trkpt>
<trkpt lat="49.062059" lon="7.561559"><ele>293.6</ele><time>2018-05-01T21:20:20Z</time></trkpt>
<trkpt lat="49.061623" lon="7.561202"><ele>286.2</ele><time>2018-05-01T21:20:23Z</time></trkpt>
<trkpt lat="49.060815" lon="7.56084"><ele>291.4</ele><time>2018-05-01T21:20:28Z</time></trkpt>
<trkpt lat="49.06067" lon="7.560742"><ele>288.2</ele><time>2018-05-01T21:20:28Z</time></trkpt>
<trkpt lat="49.060438" lon="7.560443"><ele>288.2</ele><time>2018-05-01T21:20:30Z</time></trkpt>
<trkpt lat="49.060246" lon="7.560047"><ele>288.2</ele><time>2018-05-01T21:20:32Z</time></trkpt>
<trkpt lat="49.059757" lon="7.558478"><ele>296.8</ele><time>2018-05-01T21:20:38Z</time></trkpt>
<trkpt lat="49.059555" lon="7.558095"><ele>305.8</ele><time>2018-05-01T21:20:40Z</time></trkpt>
<trkpt lat="49.05929" lon="7.557792"><ele>305.8</ele><time>2018-05-01T21:20:42Z</time></trkpt>
<trkpt lat="49.059141" lon="7.557679"><ele>306.6</ele><time>2018-05-01T21:20:43Z</time></trkpt>
<trkpt lat="49.058818" lon="7.557561"><ele>306.6</ele><time>2018-05-01T21:20:45Z</time></trkpt>
<trkpt lat="49.058152" lon="7.557535"><ele>307.4</ele><time>2018-05-01T21:20:48Z</time></trkpt>
<trkpt lat="49.057824" lon="7.557468"><ele>318.6</ele><time>2018-05-01T21:20:50Z</time></trkpt>
<trkpt lat="49.057329" lon="7.557244"><ele>311.2</ele><time>2018-05-01T21:20:53Z</time></trkpt>
<trkpt lat="49.05596" lon="7.556518"><ele>306.6</ele><time>2018-05-01T21:21:01Z</time></trkpt>
<trkpt lat="49.055641" lon="7.556276"><ele>297.8</ele><time>2018-05-01T21:21:03Z</time></trkpt>
<trkpt lat="49.055501" lon="7.55611"><ele>297.8</ele><time>2018-05-01T21:21:04Z</time></trkpt>
<trkpt lat="49.05527" lon="7.555694"><ele>298.2</ele><time>2018-05-01T21:21:06Z</time></trkpt>
<trkpt lat="49.055183" lon="7.555447"><ele>298.2</ele><time>2018-05-01T21:21:07Z</time></trkpt>
<trkpt lat="49.055081" lon="7.554906"><ele>297.4</ele><time>2018-05-01T21:21:09Z</time></trkpt>
<trkpt lat="49.054998" lon="7.551297"><ele>308.4</ele><time>2018-05-01T21:21:22Z</time></trkpt>
<trkpt lat="49.055022" lon="7.550744"><ele>326.4</ele><time>2018-05-01T21:21:24Z</time></trkpt>
<trkpt lat="49.055088" lon="7.550199"><ele>326.4</ele><time>2018-05-01T21:21:26Z</time></trkpt>
<trkpt lat="49.055341" lon="7.548877"><ele>323.6</ele><time>2018-05-01T21:21:31Z</time></trkpt>
<trkpt lat="49.055374" lon="7.548327"><ele>329.2</ele><time>2018-05-01T21:21:33Z</time></trkpt>
<trkpt lat="49.05534" lon="7.547783"><ele>329.2</ele><time>2018-05-01T21:21:35Z</time></trkpt>
<trkpt lat="49.05509" lon="7.546463"><ele>336.4</ele><time>2018-05-01T21:21:40Z</time></trkpt>
<trkpt lat="49.054831" lon="7.54544"><ele>332.8</ele><time>2018-05-01T21:21:44Z</time></trkpt>
<trkpt lat="49.054404" lon="7.544311"><ele>333.0</ele><time>2018-05-01T21:21:48Z</time></trkpt>
<trkpt lat="49.054352" lon="7.544077"><ele>332.0</ele><time>2018-05-01T21:21:49Z</time></trkpt>
<trkpt lat="49.054137" lon="7.542607"><ele>337.0</ele><time>2018-05-01T21:21:55Z</time></trkpt>
<trkpt lat="49.05384" lon="7.540829"><ele>322.8</ele><time>2018-05-01T21:22:01Z</time></trkpt>
<trkpt lat="49.053664" lon="7.539613"><ele>318.6</ele><time>2018-05-01T21:22:06Z</time></trkpt>
<trkpt lat="49.053644" lon="7.539127"><ele>316.6</ele><time>2018-05-01T21:22:07Z</time></trkpt>
<trkpt lat="49.05376" lon="7.537443"><ele>311.4</ele><time>2018-05-01T21:22:14Z</time></trkpt>
<trkpt lat="49.05374" lon="7.537203"><ele>311.4</ele><time>2018-05-01T21:22:14Z</time></trkpt>
<trkpt lat="49.05365" lon="7.536743"><ele>311.4</ele><time>2018-05-01T21:22:16Z</time></trkpt>
<trkpt lat="49.052892" lon="7.534066"><ele>295.4</ele><time>2018-05-01T21:22:27Z</time></trkpt>
<trkpt lat="49.052576" lon="7.532761"><ele>294.4</ele><time>2018-05-01T21:22:32Z</time></trkpt>
<trkpt lat="49.05148" lon="7.527221"><ele>294.4</ele><time>2018-05-01T21:22:52Z</time></trkpt>
<trkpt lat="49.051356" lon="7.526489"><ele>293.2</ele><time>2018-05-01T21:22:55Z</time></trkpt>
<trkpt lat="49.051276" lon="7.52599"><ele>293.2</ele><time>2018-05-01T21:22:57Z</time></trkpt>
<trkpt lat="49.051117" lon="7.524732"><ele>291.6</ele><time>2018-05-01T21:23:01Z</time></trkpt>
<trkpt lat="49.050163" lon="7.516971"><ele>296.6</ele><time>2018-05-01T21:23:30Z</time></trkpt>
<trkpt lat="49.050143" lon="7.516463"><ele>296.4</ele><time>2018-05-01T21:23:32Z</time></trkpt>
<trkpt lat="49.050268" lon="7.49945"><ele>319.4</ele><time>2018-05-01T21:24:33Z</time></trkpt>
<trkpt lat="49.050336" lon="7.498973"><ele>316.8</ele><time>2018-05-01T21:24:34Z</time></trkpt>
<trkpt lat="49.051382" lon="7.494661"><ele>313.6</ele><time>2018-05-01T21:24:51Z</time></trkpt>
<trkpt lat="49.051832" lon="7.493088"><ele>314.2</ele><time>2018-05-01T21:24:57Z</time></trkpt>
<trkpt lat="49.052008" lon="7.492559"><ele>314.2</ele><time>2018-05-01T21:24:59Z</time></trkpt>
<trkpt lat="49.052242" lon="7.492114"><ele>314.0</ele><time>2018-05-01T21:25:01Z</time></trkpt>
<trkpt lat="49.05417" lon="7.488723"><ele>297.0</ele><time>2018-05-01T21:25:17Z</time></trkpt>
<trkpt lat="49.054328" lon="7.488313"><ele>296.2</ele><time>2018-05-01T21:25:19Z</time></trkpt>
<trkpt lat="49.054372" lon="7.487836"><ele>296.2</ele><time>2018-05-01T21:25:21Z</time></trkpt>
<trkpt lat="49.05435" lon="7.487588"><ele>296.2</ele><time>2018-05-01T21:25:22Z</time></trkpt>
<trkpt lat="49.0536" lon="7.483307"><ele>293.2</ele><time>2018-05-01T21:25:38Z</time></trkpt>
<trkpt lat="49.053554" lon="7.482477"><ele>293.0</ele><time>2018-05-01T21:25:40Z</time></trkpt>
<trkpt lat="49.05358" lon="7.482072"><ele>293.0</ele><time>2018-05-01T21:25:42Z</time></trkpt>
<trkpt lat="49.05574" lon="7.468138"><ele>310.0</ele><time>2018-05-01T21:26:33Z</time></trkpt>
<trkpt lat="49.055799" lon="7.467388"><ele>313.0</ele><time>2018-05-01T21:26:36Z</time></trkpt>
<trkpt lat="49.055777" lon="7.466878"><ele>313.0</ele><time>2018-05-01T21:26:38Z</time></trkpt>
<trkpt lat="49.054898" lon="7.45915"><ele>317.8</ele><time>2018-05-01T21:27:06Z</time></trkpt>
<trkpt lat="49.05488" lon="7.458868"><ele>317.8</ele><time>2018-05-01T21:27:07Z</time></trkpt>
<trkpt lat="49.054862" lon="7.457762"><ele>318.6</ele><time>2018-05-01T21:27:11Z</time></trkpt>
<trkpt lat="49.054862" lon="7.452961"><ele>310.2</ele><time>2018-05-01T21:27:28Z</time></trkpt>
<trkpt lat="49.054824" lon="7.44797"><ele>304.4</ele><time>2018-05-01T21:27:46Z</time></trkpt>
<trkpt lat="49.054824" lon="7.44797"><ele>304.4</ele><time>2018-05-01T21:27:46Z</time></trkpt>
<trkpt lat="49.054824" lon="7.44797"><ele>304.4</ele><time>2018-05-01T21:27:46Z</time></trkpt>
<trkpt lat="49.055275" lon="7.447895"><ele>300.8</ele><time>2018-05-01T21:27:55Z</time></trkpt>
<trkpt lat="49.055624" lon="7.447736"><ele>300.8</ele><time>2018-05-01T21:28:03Z</time></trkpt>
<trkpt lat="49.055868" lon="7.447539"><ele>299.0</ele><time>2018-05-01T21:28:08Z</time></trkpt>
<trkpt lat="49.056718" lon="7.449593"><ele>298.4</ele><time>2018-05-01T21:28:18Z</time></trkpt>
<trkpt lat="49.057071" lon="7.450311"><ele>298.8</ele><time>2018-05-01T21:28:22Z</time></trkpt>
<trkpt lat="49.057384" lon="7.450788"><ele>298.8</ele><time>2018-05-01T21:28:25Z</time></trkpt>
<trkpt lat="49.058034" lon="7.451532"><ele>301.0</ele><time>2018-05-01T21:28:30Z</time></trkpt>
<trkpt lat="49.058354" lon="7.452078"><ele>303.0</ele><time>2018-05-01T21:28:33Z</time></trkpt>
<trkpt lat="49.058903" lon="7.453252"><ele>302.8</ele><time>2018-05-01T21:28:39Z</time></trkpt>
<trkpt lat="49.059208" lon="7.453998"><ele>300.8</ele><time>2018-05-01T21:28:42Z</time></trkpt>
<trkpt lat="49.059817" lon="7.455733"><ele>301.8</ele><time>2018-05-01T21:28:50Z</time></trkpt>
<trkpt lat="49.060951" lon="7.459162"><ele>299.8</ele><time>2018-05-01T21:29:06Z</time></trkpt>
<trkpt lat="49.061087" lon="7.459635"><ele>300.4</ele><time>2018-05-01T21:29:08Z</time></trkpt>
<trkpt lat="49.061659" lon="7.462098"><ele>300.6</ele><time>2018-05-01T21:29:19Z</time></trkpt>
<trkpt lat="49.062537" lon="7.467278"><ele>296.0</ele><time>2018-05-01T21:29:41Z</time></trkpt>
<trkpt lat="49.062667" lon="7.467745"><ele>300.2</ele><time>2018-05-01T21:29:43Z</time></trkpt>
<trkpt lat="49.062939" lon="7.468371"><ele>302.0</ele><time>2018-05-01T21:29:46Z</time></trkpt>
<trkpt lat="49.063163" lon="7.468721"><ele>302.0</ele><time>2018-05-01T21:29:48Z</time></trkpt>
<trkpt lat="49.063549" lon="7.46914"><ele>307.2</ele><time>2018-05-01T21:29:51Z</time></trkpt>
<trkpt lat="49.064059" lon="7.469742"><ele>307.2</ele><time>2018-05-01T21:29:55Z</time></trkpt>
<trkpt lat="49.065536" lon="7.470993"><ele>313.2</ele><time>2018-05-01T21:30:06Z</time></trkpt>
<trkpt lat="49.065785" lon="7.471288"><ele>313.2</ele><time>2018-05-01T21:30:07Z</time></trkpt>
<trkpt lat="49.065999" lon="7.471643"><ele>313.2</ele><time>2018-05-01T21:30:09Z</time></trkpt>
<trkpt lat="49.066255" lon="7.472252"><ele>316.4</ele><time>2018-05-01T21:30:12Z</time></trkpt>
<trkpt lat="49.066373" lon="7.472698"><ele>319.4</ele><time>2018-05-01T21:30:14Z</time></trkpt>
<trkpt lat="49.066876" lon="7.475556"><ele>324.6</ele><time>2018-05-01T21:30:27Z</time></trkpt>
<trkpt lat="49.067068" lon="7.476524"><ele>325.2</ele><time>2018-05-01T21:30:31Z</time></trkpt>
<trkpt lat="49.067205" lon="7.476983"><ele>326.2</ele><time>2018-05-01T21:30:33Z</time></trkpt>
<trkpt lat="49.067504" lon="7.477611"><ele>323.8</ele><time>2018-05-01T21:30:36Z</time></trkpt>
<trkpt lat="49.070079" lon="7.481726"><ele>338.8</ele><time>2018-05-01T21:30:59Z</time></trkpt>
<trkpt lat="49.072139" lon="7.484568"><ele>340.8</ele><time>2018-05-01T21:31:17Z</time></trkpt>
<trkpt lat="49.072634" lon="7.48521"><ele>337.0</ele><time>2018-05-01T21:31:21Z</time></trkpt>
<trkpt lat="49.072805" lon="7.485393"><ele>337.0</ele><time>2018-05-01T21:31:22Z</time></trkpt>
<trkpt lat="49.07306" lon="7.485571"><ele>337.0</ele><time>2018-05-01T21:31:24Z</time></trkpt>
<trkpt lat="49.07306" lon="7.485571"><ele>337.0</ele><time>2018-05-01T21:31:24Z</time></trkpt>
<trkpt lat="49.073333" lon="7.4857"><ele>337.0</ele><time>2018-05-01T21:31:26Z</time></trkpt>
<trkpt lat="49.073636" lon="7.485765"><ele>333.8</ele><time>2018-05-01T21:31:28Z</time></trkpt>
<trkpt lat="49.073942" lon="7.485779"><ele>333.8</ele><time>2018-05-01T21:31:30Z</time></trkpt>
<trkpt lat="49.07409" lon="7.485759"><ele>333.8</ele><time>2018-05-01T21:31:31Z</time></trkpt>
<trkpt lat="49.074453" lon="7.485645"><ele>325.6</ele><time>2018-05-01T21:31:34Z</time></trkpt>
<trkpt lat="49.074679" lon="7.485533"><ele>325.6</ele><time>2018-05-01T21:31:35Z</time></trkpt>
<trkpt lat="49.075105" lon="7.485189"><ele>317.0</ele><time>2018-05-01T21:31:38Z</time></trkpt>
<trkpt lat="49.075239" lon="7.485053"><ele>317.0</ele><time>2018-05-01T21:31:40Z</time></trkpt>
<trkpt lat="49.075439" lon="7.484748"><ele>316.4</ele><time>2018-05-01T21:31:41Z</time></trkpt>
<trkpt lat="49.075941" lon="7.483799"><ele>308.4</ele><time>2018-05-01T21:31:47Z</time></trkpt>
<trkpt lat="49.076148" lon="7.483493"><ele>308.4</ele><time>2018-05-01T21:31:49Z</time></trkpt>
<trkpt lat="49.076417" lon="7.483199"><ele>308.6</ele><time>2018-05-01T21:31:51Z</time></trkpt>
<trkpt lat="49.076723" lon="7.482974"><ele>299.8</ele><time>2018-05-01T21:31:54Z</time></trkpt>
<trkpt lat="49.077438" lon="7.482633"><ele>299.8</ele><time>2018-05-01T21:31:59Z</time></trkpt>
<trkpt lat="49.077712" lon="7.48248"><ele>296.8</ele><time>2018-05-01T21:32:01Z</time></trkpt>
<trkpt lat="49.078023" lon="7.482231"><ele>296.8</ele><time>2018-05-01T21:32:03Z</time></trkpt>
<trkpt lat="49.079882" lon="7.480508"><ele>316.6</ele><time>2018-05-01T21:32:18Z</time></trkpt>
<trkpt lat="49.080177" lon="7.480281"><ele>321.4</ele><time>2018-05-01T21:32:20Z</time></trkpt>
<trkpt lat="49.080435" lon="7.480171"><ele>321.4</ele><time>2018-05-01T21:32:22Z</time></trkpt>
<trkpt lat="49.080658" lon="7.480121"><ele>321.4</ele><time>2018-05-01T21:32:24Z</time></trkpt>
<trkpt lat="49.08091" lon="7.480096"><ele>323.0</ele><time>2018-05-01T21:32:25Z</time></trkpt>
<trkpt lat="49.081035" lon="7.480107"><ele>323.0</ele><time>2018-05-01T21:32:26Z</time></trkpt>
<trkpt lat="49.081647" lon="7.480328"><ele>323.0</ele><time>2018-05-01T21:32:30Z</time></trkpt>
<trkpt lat="49.081978" lon="7.480551"><ele>331.2</ele><time>2018-05-01T21:32:33Z</time></trkpt>
<trkpt lat="49.082184" lon="7.480759"><ele>331.2</ele><time>2018-05-01T21:32:35Z</time></trkpt>
<trkpt lat="49.082396" lon="7.481027"><ele>318.6</ele><time>2018-05-01T21:32:37Z</time></trkpt>
<trkpt lat="49.082763" lon="7.481653"><ele>332.2</ele><time>2018-05-01T21:32:40Z</time></trkpt>
<trkpt lat="49.083098" lon="7.482145"><ele>318.6</ele><time>2018-05-01T21:32:44Z</time></trkpt>
<trkpt lat="49.083569" lon="7.482737"><ele>312.6</ele><time>2018-05-01T21:32:48Z</time></trkpt>
<trkpt lat="49.084213" lon="7.483512"><ele>299.8</ele><time>2018-05-01T21:32:54Z</time></trkpt>
<trkpt lat="49.084509" lon="7.483809"><ele>299.8</ele><time>2018-05-01T21:32:56Z</time></trkpt>
<trkpt lat="49.085017" lon="7.48412"><ele>293.6</ele><time>2018-05-01T21:33:00Z</time></trkpt>
<trkpt lat="49.085233" lon="7.484327"><ele>292.8</ele><time>2018-05-01T21:33:01Z</time></trkpt>
<trkpt lat="49.085421" lon="7.484672"><ele>292.8</ele><time>2018-05-01T21:33:03Z</time></trkpt>
<trkpt lat="49.085615" lon="7.485192"><ele>292.4</ele><time>2018-05-01T21:33:06Z</time></trkpt>
<trkpt lat="49.085652" lon="7.485237"><ele>292.4</ele><time>2018-05-01T21:33:06Z</time></trkpt>
<trkpt lat="49.08569" lon="7.485246"><ele>292.4</ele><time>2018-05-01T21:33:07Z</time></trkpt>
<trkpt lat="49.085817" lon="7.48521"><ele>292.4</ele><time>2018-05-01T21:33:08Z</time></trkpt>
<trkpt lat="49.085894" lon="7.485155"><ele>286.2</ele><time>2018-05-01T21:33:08Z</time></trkpt>
<trkpt lat="49.085969" lon="7.485067"><ele>286.2</ele><time>2018-05-01T21:33:09Z</time></trkpt>
<trkpt lat="49.086491" lon="7.48426"><ele>288.0</ele><time>2018-05-01T21:33:14Z</time></trkpt>
<trkpt lat="49.086628" lon="7.484085"><ele>290.2</ele><time>2018-05-01T21:33:15Z</time></trkpt>
<trkpt lat="49.087259" lon="7.483507"><ele>288.0</ele><time>2018-05-01T21:33:20Z</time></trkpt>
<trkpt lat="49.087418" lon="7.483287"><ele>292.0</ele><time>2018-05-01T21:33:22Z</time></trkpt>
<trkpt lat="49.087598" lon="7.482931"><ele>286.6</ele><time>2018-05-01T21:33:24Z</time></trkpt>
<trkpt lat="49.087644" lon="7.482814"><ele>286.6</ele><time>2018-05-01T21:33:24Z</time></trkpt>
<trkpt lat="49.087723" lon="7.482517"><ele>286.6</ele><time>2018-05-01T21:33:26Z</time></trkpt>
<trkpt lat="49.087764" lon="7.482138"><ele>286.8</ele><time>2018-05-01T21:33:28Z</time></trkpt>
<trkpt lat="49.087769" lon="7.481812"><ele>286.8</ele><time>2018-05-01T21:33:29Z</time></trkpt>
<trkpt lat="49.087671" lon="7.48106"><ele>285.8</ele><time>2018-05-01T21:33:32Z</time></trkpt>
<trkpt lat="49.087684" lon="7.480678"><ele>287.2</ele><time>2018-05-01T21:33:34Z</time></trkpt>
<trkpt lat="49.08775" lon="7.480436"><ele>287.2</ele><time>2018-05-01T21:33:35Z</time></trkpt>
<trkpt lat="49.087811" lon="7.480309"><ele>287.2</ele><time>2018-05-01T21:33:36Z</time></trkpt>
<trkpt lat="49.087973" lon="7.480077"><ele>287.2</ele><time>2018-05-01T21:33:37Z</time></trkpt>
<trkpt lat="49.088136" lon="7.479894"><ele>292.0</ele><time>2018-05-01T21:33:39Z</time></trkpt>
<trkpt lat="49.088285" lon="7.479786"><ele>292.0</ele><time>2018-05-01T21:33:40Z</time></trkpt>
<trkpt lat="49.088343" lon="7.479774"><ele>302.0</ele><time>2018-05-01T21:33:41Z</time></trkpt>
<trkpt lat="49.088418" lon="7.479791"><ele>302.0</ele><time>2018-05-01T21:33:41Z</time></trkpt>
<trkpt lat="49.088528" lon="7.479863"><ele>302.0</ele><time>2018-05-01T21:33:42Z</time></trkpt>
<trkpt lat="49.088924" lon="7.480365"><ele>292.6</ele><time>2018-05-01T21:33:46Z</time></trkpt>
<trkpt lat="49.089557" lon="7.48096"><ele>285.2</ele><time>2018-05-01T21:33:51Z</time></trkpt>
<trkpt lat="49.089726" lon="7.481037"><ele>285.2</ele><time>2018-05-01T21:33:52Z</time></trkpt>
<trkpt lat="49.08982" lon="7.481052"><ele>285.2</ele><time>2018-05-01T21:33:53Z</time></trkpt>
<trkpt lat="49.089916" lon="7.481034"><ele>285.2</ele><time>2018-05-01T21:33:53Z</time></trkpt>
<trkpt lat="49.090134" lon="7.480922"><ele>282.8</ele><time>2018-05-01T21:33:55Z</time></trkpt>
<trkpt lat="49.090255" lon="7.480822"><ele>287.8</ele><time>2018-05-01T21:33:56Z</time></trkpt>
<trkpt lat="49.090428" lon="7.480598"><ele>287.8</ele><time>2018-05-01T21:33:57Z</time></trkpt>
<trkpt lat="49.090752" lon="7.480112"><ele>287.8</ele><time>2018-05-01T21:34:00Z</time></trkpt>
<trkpt lat="49.091363" lon="7.479404"><ele>288.0</ele><time>2018-05-01T21:34:06Z</time></trkpt>
<trkpt lat="49.091642" lon="7.479263"><ele>288.0</ele><time>2018-05-01T21:34:08Z</time></trkpt>
<trkpt lat="49.093215" lon="7.479044"><ele>295.0</ele><time>2018-05-01T21:34:18Z</time></trkpt>
<trkpt lat="49.09358" lon="7.478963"><ele>289.0</ele><time>2018-05-01T21:34:21Z</time></trkpt>
<trkpt lat="49.094661" lon="7.478623"><ele>282.0</ele><time>2018-05-01T21:34:29Z</time></trkpt>
<trkpt lat="49.095305" lon="7.47834"><ele>279.4</ele><time>2018-05-01T21:34:33Z</time></trkpt>
<trkpt lat="49.095468" lon="7.47831"><ele>290.0</ele><time>2018-05-01T21:34:34Z</time></trkpt>
<trkpt lat="49.095811" lon="7.478341"><ele>279.4</ele><time>2018-05-01T21:34:37Z</time></trkpt>
<trkpt lat="49.096505" lon="7.478285"><ele>289.6</ele><time>2018-05-01T21:34:42Z</time></trkpt>
<trkpt lat="49.096678" lon="7.478242"><ele>283.6</ele><time>2018-05-01T21:34:43Z</time></trkpt>
<trkpt lat="49.097015" lon="7.478063"><ele>283.6</ele><time>2018-05-01T21:34:45Z</time></trkpt>
<trkpt lat="49.097498" lon="7.477655"><ele>283.6</ele><time>2018-05-01T21:34:49Z</time></trkpt>
<trkpt lat="49.098873" lon="7.476136"><ele>288.6</ele><time>2018-05-01T21:35:01Z</time></trkpt>
<trkpt lat="49.099109" lon="7.475917"><ele>288.6</ele><time>2018-05-01T21:35:02Z</time></trkpt>
<trkpt lat="49.099233" lon="7.475845"><ele>289.2</ele><time>2018-05-01T21:35:03Z</time></trkpt>
<trkpt lat="49.099492" lon="7.475795"><ele>303.4</ele><time>2018-05-01T21:35:05Z</time></trkpt>
<trkpt lat="49.099712" lon="7.475881"><ele>289.2</ele><time>2018-05-01T21:35:07Z</time></trkpt>
<trkpt lat="49.100243" lon="7.476258"><ele>304.6</ele><time>2018-05-01T21:35:11Z</time></trkpt>
<trkpt lat="49.100693" lon="7.476674"><ele>285.4</ele><time>2018-05-01T21:35:15Z</time></trkpt>
<trkpt lat="49.101008" lon="7.476913"><ele>298.0</ele><time>2018-05-01T21:35:18Z</time></trkpt>
<trkpt lat="49.101505" lon="7.477197"><ele>298.0</ele><time>2018-05-01T21:35:21Z</time></trkpt>
<trkpt lat="49.102184" lon="7.477499"><ele>302.8</ele><time>2018-05-01T21:35:26Z</time></trkpt>
<trkpt lat="49.103027" lon="7.477778"><ele>285.0</ele><time>2018-05-01T21:35:32Z</time></trkpt>
<trkpt lat="49.103508" lon="7.477975"><ele>283.2</ele><time>2018-05-01T21:35:35Z</time></trkpt>
<trkpt lat="49.103834" lon="7.478023"><ele>283.2</ele><time>2018-05-01T21:35:38Z</time></trkpt>
<trkpt lat="49.104157" lon="7.477936"><ele>283.2</ele><time>2018-05-01T21:35:40Z</time></trkpt>
<trkpt lat="49.105214" lon="7.477333"><ele>287.6</ele><time>2018-05-01T21:35:47Z</time></trkpt>
<trkpt lat="49.105799" lon="7.477038"><ele>287.6</ele><time>2018-05-01T21:35:52Z</time></trkpt>
<trkpt lat="49.105946" lon="7.476995"><ele>285.8</ele><time>2018-05-01T21:35:53Z</time></trkpt>
<trkpt lat="49.106401" lon="7.476989"><ele>285.8</ele><time>2018-05-01T21:35:56Z</time></trkpt>
<trkpt lat="49.108054" lon="7.476851"><ele>286.2</ele><time>2018-05-01T21:36:07Z</time></trkpt>
<trkpt lat="49.108382" lon="7.476872"><ele>281.6</ele><time>2018-05-01T21:36:09Z</time></trkpt>
<trkpt lat="49.108859" lon="7.476993"><ele>281.6</ele><time>2018-05-01T21:36:13Z</time></trkpt>
<trkpt lat="49.109431" lon="7.476988"><ele>286.2</ele><time>2018-05-01T21:36:17Z</time></trkpt>
<trkpt lat="49.109673" lon="7.477088"><ele>286.2</ele><time>2018-05-01T21:36:18Z</time></trkpt>
<trkpt lat="49.110138" lon="7.477679"><ele>291.0</ele><time>2018-05-01T21:36:22Z</time></trkpt>
<trkpt lat="49.110985" lon="7.478473"><ele>299.8</ele><time>2018-05-01T21:36:29Z</time></trkpt>
<trkpt lat="49.111388" lon="7.478914"><ele>299.8</ele><time>2018-05-01T21:36:33Z</time></trkpt>
<trkpt lat="49.112453" lon="7.480413"><ele>289.4</ele><time>2018-05-01T21:36:42Z</time></trkpt>
<trkpt lat="49.112701" lon="7.480694"><ele>299.4</ele><time>2018-05-01T21:36:45Z</time></trkpt>
<trkpt lat="49.11336" lon="7.481262"><ele>285.2</ele><time>2018-05-01T21:36:50Z</time></trkpt>
<trkpt lat="49.113636" lon="7.481369"><ele>285.2</ele><time>2018-05-01T21:36:52Z</time></trkpt>
<trkpt lat="49.114231" lon="7.481353"><ele>285.8</ele><time>2018-05-01T21:36:56Z</time></trkpt>
<trkpt lat="49.114512" lon="7.481433"><ele>285.8</ele><time>2018-05-01T21:36:58Z</time></trkpt>
<trkpt lat="49.114641" lon="7.481514"><ele>285.8</ele><time>2018-05-01T21:36:59Z</time></trkpt>
<trkpt lat="49.115124" lon="7.482023"><ele>268.8</ele><time>2018-05-01T21:37:03Z</time></trkpt>
<trkpt lat="49.115388" lon="7.482255"><ele>268.8</ele><time>2018-05-01T21:37:05Z</time></trkpt>
<trkpt lat="49.115669" lon="7.482434"><ele>268.8</ele><time>2018-05-01T21:37:07Z</time></trkpt>
<trkpt lat="49.116246" lon="7.482678"><ele>268.0</ele><time>2018-05-01T21:37:11Z</time></trkpt>
<trkpt lat="49.116495" lon="7.482868"><ele>268.0</ele><time>2018-05-01T21:37:13Z</time></trkpt>
<trkpt lat="49.116602" lon="7.483"><ele>268.0</ele><time>2018-05-01T21:37:14Z</time></trkpt>
<trkpt lat="49.116779" lon="7.483306"><ele>263.8</ele><time>2018-05-01T21:37:16Z</time></trkpt>
<trkpt lat="49.116932" lon="7.483965"><ele>270.8</ele><time>2018-05-01T21:37:19Z</time></trkpt>
<trkpt lat="49.117049" lon="7.484251"><ele>278.8</ele><time>2018-05-01T21:37:21Z</time></trkpt>
<trkpt lat="49.117045" lon="7.484257"><ele>278.8</ele><time>2018-05-01T21:37:21Z</time></trkpt>
<trkpt lat="49.117045" lon="7.484257"><ele>278.8</ele><time>2018-05-01T21:37:21Z</time></trkpt>
<trkpt lat="49.117049" lon="7.484251"><ele>278.8</ele><time>2018-05-01T21:37:21Z</time></trkpt>
<trkpt lat="49.117088" lon="7.48419"><ele>278.8</ele><time>2018-05-01T21:37:21Z</time></trkpt>
<trkpt lat="49.117229" lon="7.484117"><ele>270.8</ele><time>2018-05-01T21:37:22Z</time></trkpt>
<trkpt lat="49.117394" lon="7.483963"><ele>270.8</ele><time>2018-05-01T21:37:24Z</time></trkpt>
<trkpt lat="49.117507" lon="7.483812"><ele>274.4</ele><time>2018-05-01T21:37:25Z</time></trkpt>
<trkpt lat="49.117849" lon="7.483273"><ele>266.2</ele><time>2018-05-01T21:37:28Z</time></trkpt>
<trkpt lat="49.117934" lon="7.483175"><ele>266.2</ele><time>2018-05-01T21:37:28Z</time></trkpt>
<trkpt lat="49.118095" lon="7.483048"><ele>266.2</ele><time>2018-05-01T21:37:30Z</time></trkpt>
<trkpt lat="49.118368" lon="7.482943"><ele>269.8</ele><time>2018-05-01T21:37:31Z</time></trkpt>
<trkpt lat="49.118466" lon="7.482934"><ele>269.8</ele><time>2018-05-01T21:37:32Z</time></trkpt>
<trkpt lat="49.118733" lon="7.48299"><ele>269.8</ele><time>2018-05-01T21:37:34Z</time></trkpt>
<trkpt lat="49.119272" lon="7.483227"><ele>273.8</ele><time>2018-05-01T21:37:37Z</time></trkpt>
<trkpt lat="49.119554" lon="7.48326"><ele>273.8</ele><time>2018-05-01T21:37:39Z</time></trkpt>
<trkpt lat="49.119651" lon="7.483245"><ele>273.8</ele><time>2018-05-01T21:37:39Z</time></trkpt>
<trkpt lat="49.119792" lon="7.48319"><ele>273.8</ele><time>2018-05-01T21:37:40Z</time></trkpt>
<trkpt lat="49.120325" lon="7.482856"><ele>287.2</ele><time>2018-05-01T21:37:44Z</time></trkpt>
<trkpt lat="49.120457" lon="7.482753"><ele>287.2</ele><time>2018-05-01T21:37:45Z</time></trkpt>
<trkpt lat="49.120627" lon="7.482538"><ele>287.2</ele><time>2018-05-01T21:37:46Z</time></trkpt>
<trkpt lat="49.120777" lon="7.482204"><ele>282.2</ele><time>2018-05-01T21:37:48Z</time></trkpt>
<trkpt lat="49.121031" lon="7.481442"><ele>307.6</ele><time>2018-05-01T21:37:52Z</time></trkpt>
<trkpt lat="49.121167" lon="7.480826"><ele>309.6</ele><time>2018-05-01T21:37:55Z</time></trkpt>
<trkpt lat="49.121175" lon="7.480405"><ele>309.6</ele><time>2018-05-01T21:37:56Z</time></trkpt>
<trkpt lat="49.120846" lon="7.478287"><ele>306.6</ele><time>2018-05-01T21:38:05Z</time></trkpt>
<trkpt lat="49.120814" lon="7.477841"><ele>275.8</ele><time>2018-05-01T21:38:08Z</time></trkpt>
<trkpt lat="49.120859" lon="7.477405"><ele>295.0</ele><time>2018-05-01T21:38:10Z</time></trkpt>
<trkpt lat="49.120989" lon="7.477019"><ele>295.0</ele><time>2018-05-01T21:38:12Z</time></trkpt>
<trkpt lat="49.121256" lon="7.476458"><ele>279.0</ele><time>2018-05-01T21:38:15Z</time></trkpt>
<trkpt lat="49.121567" lon="7.475921"><ele>279.0</ele><time>2018-05-01T21:38:17Z</time></trkpt>
<trkpt lat="49.122061" lon="7.47517"><ele>281.4</ele><time>2018-05-01T21:38:22Z</time></trkpt>
<trkpt lat="49.122355" lon="7.474812"><ele>266.8</ele><time>2018-05-01T21:38:24Z</time></trkpt>
<trkpt lat="49.122681" lon="7.474548"><ele>277.8</ele><time>2018-05-01T21:38:27Z</time></trkpt>
<trkpt lat="49.123581" lon="7.473984"><ele>271.0</ele><time>2018-05-01T21:38:33Z</time></trkpt>
<trkpt lat="49.125108" lon="7.472948"><ele>268.8</ele><time>2018-05-01T21:38:43Z</time></trkpt>
<trkpt lat="49.125481" lon="7.472745"><ele>268.8</ele><time>2018-05-01T21:38:46Z</time></trkpt>
<trkpt lat="49.126633" lon="7.472551"><ele>267.8</ele><time>2018-05-01T21:38:53Z</time></trkpt>
<trkpt lat="49.126736" lon="7.4725"><ele>264.4</ele><time>2018-05-01T21:38:54Z</time></trkpt>
<trkpt lat="49.126859" lon="7.472404"><ele>263.0</ele><time>2018-05-01T21:38:55Z</time></trkpt>
<trkpt lat="49.127031" lon="7.47222"><ele>263.0</ele><time>2018-05-01T21:38:56Z</time></trkpt>
<trkpt lat="49.127473" lon="7.471679"><ele>263.0</ele><time>2018-05-01T21:38:59Z</time></trkpt>
<trkpt lat="49.127687" lon="7.471462"><ele>275.8</ele><time>2018-05-01T21:39:01Z</time></trkpt>
<trkpt lat="49.128037" lon="7.471959"><ele>271.0</ele><time>2018-05-01T21:39:04Z</time></trkpt>
<trkpt lat="49.128343" lon="7.472343"><ele>279.0</ele><time>2018-05-01T21:39:07Z</time></trkpt>
<trkpt lat="49.128584" lon="7.472724"><ele>275.6</ele><time>2018-05-01T21:39:09Z</time></trkpt>
<trkpt lat="49.129049" lon="7.475162"><ele>276.0</ele><time>2018-05-01T21:39:19Z</time></trkpt>
<trkpt lat="49.129097" lon="7.475646"><ele>276.0</ele><time>2018-05-01T21:39:21Z</time></trkpt>
<trkpt lat="49.129152" lon="7.476678"><ele>275.0</ele><time>2018-05-01T21:39:26Z</time></trkpt>
<trkpt lat="49.129215" lon="7.477092"><ele>299.4</ele><time>2018-05-01T21:39:28Z</time></trkpt>
<trkpt lat="49.129354" lon="7.477757"><ele>294.6</ele><time>2018-05-01T21:39:31Z</time></trkpt>
<trkpt lat="49.129543" lon="7.478301"><ele>294.6</ele><time>2018-05-01T21:39:33Z</time></trkpt>
<trkpt lat="49.12965" lon="7.478514"><ele>282.8</ele><time>2018-05-01T21:39:35Z</time></trkpt>
<trkpt lat="49.130023" lon="7.478904"><ele>296.0</ele><time>2018-05-01T21:39:37Z</time></trkpt>
<trkpt lat="49.130386" lon="7.479208"><ele>276.2</ele><time>2018-05-01T21:39:40Z</time></trkpt>
<trkpt lat="49.130591" lon="7.479332"><ele>276.2</ele><time>2018-05-01T21:39:42Z</time></trkpt>
<trkpt lat="49.130823" lon="7.479426"><ele>276.2</ele><time>2018-05-01T21:39:43Z</time></trkpt>
<trkpt lat="49.131283" lon="7.47941"><ele>273.6</ele><time>2018-05-01T21:39:46Z</time></trkpt>
<trkpt lat="49.131542" lon="7.479336"><ele>273.6</ele><time>2018-05-01T21:39:48Z</time></trkpt>
<trkpt lat="49.132488" lon="7.478708"><ele>278.2</ele><time>2018-05-01T21:39:54Z</time></trkpt>
<trkpt lat="49.133475" lon="7.477993"><ele>269.6</ele><time>2018-05-01T21:40:01Z</time></trkpt>
<trkpt lat="49.133706" lon="7.477778"><ele>269.6</ele><time>2018-05-01T21:40:03Z</time></trkpt>
<trkpt lat="49.133937" lon="7.477542"><ele>269.6</ele><time>2018-05-01T21:40:04Z</time></trkpt>
<trkpt lat="49.134247" lon="7.477168"><ele>264.2</ele><time>2018-05-01T21:40:07Z</time></trkpt>
<trkpt lat="49.134473" lon="7.476844"><ele>264.2</ele><time>2018-05-01T21:40:09Z</time></trkpt>
<trkpt lat="49.135219" lon="7.475679"><ele>270.8</ele><time>2018-05-01T21:40:16Z</time></trkpt>
<trkpt lat="49.135906" lon="7.47481"><ele>279.8</ele><time>2018-05-01T21:40:21Z</time></trkpt>
<trkpt lat="49.136122" lon="7.474641"><ele>279.8</ele><time>2018-05-01T21:40:23Z</time></trkpt>
<trkpt lat="49.136721" lon="7.474392"><ele>264.2</ele><time>2018-05-01T21:40:27Z</time></trkpt>
<trkpt lat="49.136955" lon="7.474183"><ele>264.2</ele><time>2018-05-01T21:40:28Z</time></trkpt>
<trkpt lat="49.137146" lon="7.473912"><ele>271.2</ele><time>2018-05-01T21:40:30Z</time></trkpt>
<trkpt lat="49.137293" lon="7.473595"><ele>271.2</ele><time>2018-05-01T21:40:32Z</time></trkpt>
<trkpt lat="49.137383" lon="7.473215"><ele>274.0</ele><time>2018-05-01T21:40:33Z</time></trkpt>
<trkpt lat="49.13742" lon="7.472796"><ele>274.0</ele><time>2018-05-01T21:40:35Z</time></trkpt>
<trkpt lat="49.137233" lon="7.471409"><ele>268.6</ele><time>2018-05-01T21:40:41Z</time></trkpt>
<trkpt lat="49.136872" lon="7.469376"><ele>261.6</ele><time>2018-05-01T21:40:49Z</time></trkpt>
<trkpt lat="49.136737" lon="7.468361"><ele>260.8</ele><time>2018-05-01T21:40:54Z</time></trkpt>
<trkpt lat="49.136757" lon="7.467877"><ele>262.0</ele><time>2018-05-01T21:40:56Z</time></trkpt>
<trkpt lat="49.136848" lon="7.467409"><ele>264.4</ele><time>2018-05-01T21:40:58Z</time></trkpt>
<trkpt lat="49.136976" lon="7.466954"><ele>264.4</ele><time>2018-05-01T21:41:00Z</time></trkpt>
<trkpt lat="49.137142" lon="7.466544"><ele>266.6</ele><time>2018-05-01T21:41:02Z</time></trkpt>
<trkpt lat="49.137548" lon="7.465946"><ele>256.8</ele><time>2018-05-01T21:41:05Z</time></trkpt>
<trkpt lat="49.137879" lon="7.465344"><ele>261.8</ele><time>2018-05-01T21:41:08Z</time></trkpt>
<trkpt lat="49.138117" lon="7.465063"><ele>261.8</ele><time>2018-05-01T21:41:10Z</time></trkpt>
<trkpt lat="49.138365" lon="7.464826"><ele>268.0</ele><time>2018-05-01T21:41:12Z</time></trkpt>
<trkpt lat="49.138522" lon="7.46475"><ele>268.0</ele><time>2018-05-01T21:41:13Z</time></trkpt>
<trkpt lat="49.13891" lon="7.464631"><ele>268.0</ele><time>2018-05-01T21:41:16Z</time></trkpt>
<trkpt lat="49.140182" lon="7.464499"><ele>266.4</ele><time>2018-05-01T21:41:24Z</time></trkpt>
<trkpt lat="49.141004" lon="7.464584"><ele>269.8</ele><time>2018-05-01T21:41:29Z</time></trkpt>
<trkpt lat="49.141244" lon="7.464678"><ele>269.8</ele><time>2018-05-01T21:41:30Z</time></trkpt>
<trkpt lat="49.141425" lon="7.46479"><ele>269.8</ele><time>2018-05-01T21:41:32Z</time></trkpt>
<trkpt lat="49.141652" lon="7.464969"><ele>269.8</ele><time>2018-05-01T21:41:33Z</time></trkpt>
<trkpt lat="49.141807" lon="7.465127"><ele>268.0</ele><time>2018-05-01T21:41:34Z</time></trkpt>
<trkpt lat="49.142232" lon="7.465753"><ele>268.0</ele><time>2018-05-01T21:41:38Z</time></trkpt>
<trkpt lat="49.142377" lon="7.465932"><ele>261.4</ele><time>2018-05-01T21:41:39Z</time></trkpt>
<trkpt lat="49.142699" lon="7.466264"><ele>262.0</ele><time>2018-05-01T21:41:42Z</time></trkpt>
<trkpt lat="49.142895" lon="7.466396"><ele>262.0</ele><time>2018-05-01T21:41:43Z</time></trkpt>
<trkpt lat="49.143062" lon="7.466441"><ele>262.0</ele><time>2018-05-01T21:41:44Z</time></trkpt>
<trkpt lat="49.143676" lon="7.466501"><ele>256.4</ele><time>2018-05-01T21:41:48Z</time></trkpt>
<trkpt lat="49.143842" lon="7.46655"><ele>256.4</ele><time>2018-05-01T21:41:49Z</time></trkpt>
<trkpt lat="49.144715" lon="7.46795"><ele>256.2</ele><time>2018-05-01T21:42:03Z</time></trkpt>
<trkpt lat="49.144881" lon="7.468272"><ele>256.2</ele><time>2018-05-01T21:42:06Z</time></trkpt>
<trkpt lat="49.144939" lon="7.46847"><ele>255.6</ele><time>2018-05-01T21:42:08Z</time></trkpt>
<trkpt lat="49.145178" lon="7.468475"><ele>260.0</ele><time>2018-05-01T21:42:10Z</time></trkpt>
<trkpt lat="49.14545" lon="7.468396"><ele>260.0</ele><time>2018-05-01T21:42:11Z</time></trkpt>
<trkpt lat="49.145646" lon="7.468289"><ele>262.4</ele><time>2018-05-01T21:42:13Z</time></trkpt>
<trkpt lat="49.145723" lon="7.468231"><ele>262.4</ele><time>2018-05-01T21:42:13Z</time></trkpt>
<trkpt lat="49.145802" lon="7.468124"><ele>262.4</ele><time>2018-05-01T21:42:14Z</time></trkpt>
<trkpt lat="49.145886" lon="7.467875"><ele>277.0</ele><time>2018-05-01T21:42:15Z</time></trkpt>
<trkpt lat="49.145915" lon="7.467647"><ele>277.0</ele><time>2018-05-01T21:42:16Z</time></trkpt>
<trkpt lat="49.145956" lon="7.466884"><ele>280.4</ele><time>2018-05-01T21:42:19Z</time></trkpt>
<trkpt lat="49.146003" lon="7.466456"><ele>280.6</ele><time>2018-05-01T21:42:21Z</time></trkpt>
<trkpt lat="49.146031" lon="7.465504"><ele>281.6</ele><time>2018-05-01T21:42:25Z</time></trkpt>
<trkpt lat="49.146133" lon="7.464017"><ele>284.2</ele><time>2018-05-01T21:42:31Z</time></trkpt>
<trkpt lat="49.146135" lon="7.463627"><ele>284.2</ele><time>2018-05-01T21:42:33Z</time></trkpt>
<trkpt lat="49.146082" lon="7.462514"><ele>284.0</ele><time>2018-05-01T21:42:38Z</time></trkpt>
<trkpt lat="49.146149" lon="7.460444"><ele>270.8</ele><time>2018-05-01T21:42:46Z</time></trkpt>
<trkpt lat="49.146142" lon="7.459092"><ele>260.8</ele><time>2018-05-01T21:42:52Z</time></trkpt>
<trkpt lat="49.146188" lon="7.458608"><ele>260.8</ele><time>2018-05-01T21:42:54Z</time></trkpt>
<trkpt lat="49.14632" lon="7.457972"><ele>257.6</ele><time>2018-05-01T21:42:57Z</time></trkpt>
<trkpt lat="49.146781" lon="7.456238"><ele>263.4</ele><time>2018-05-01T21:43:04Z</time></trkpt>
<trkpt lat="49.146834" lon="7.455849"><ele>263.4</ele><time>2018-05-01T21:43:06Z</time></trkpt>
<trkpt lat="49.146855" lon="7.45525"><ele>265.8</ele><time>2018-05-01T21:43:08Z</time></trkpt>
<trkpt lat="49.146892" lon="7.454829"><ele>270.8</ele><time>2018-05-01T21:43:10Z</time></trkpt>
<trkpt lat="49.146929" lon="7.454591"><ele>270.8</ele><time>2018-05-01T21:43:11Z</time></trkpt>
<trkpt lat="49.147192" lon="7.453521"><ele>274.6</ele><time>2018-05-01T21:43:16Z</time></trkpt>
<trkpt lat="49.147264" lon="7.453084"><ele>277.6</ele><time>2018-05-01T21:43:18Z</time></trkpt>
<trkpt lat="49.147276" lon="7.452868"><ele>277.6</ele><time>2018-05-01T21:43:19Z</time></trkpt>
<trkpt lat="49.147244" lon="7.452529"><ele>277.6</ele><time>2018-05-01T21:43:20Z</time></trkpt>
<trkpt lat="49.147117" lon="7.451868"><ele>280.2</ele><time>2018-05-01T21:43:23Z</time></trkpt>
<trkpt lat="49.14697" lon="7.451302"><ele>280.0</ele><time>2018-05-01T21:43:25Z</time></trkpt>
<trkpt lat="49.14667" lon="7.450342"><ele>275.4</ele><time>2018-05-01T21:43:30Z</time></trkpt>
<trkpt lat="49.146584" lon="7.449961"><ele>262.6</ele><time>2018-05-01T21:43:32Z</time></trkpt>
<trkpt lat="49.146488" lon="7.449389"><ele>262.6</ele><time>2018-05-01T21:43:34Z</time></trkpt>
<trkpt lat="49.146475" lon="7.44909"><ele>257.6</ele><time>2018-05-01T21:43:35Z</time></trkpt>
<trkpt lat="49.146499" lon="7.448774"><ele>257.6</ele><time>2018-05-01T21:43:37Z</time></trkpt>
<trkpt lat="49.14656" lon="7.448451"><ele>257.6</ele><time>2018-05-01T21:43:38Z</time></trkpt>
<trkpt lat="49.146643" lon="7.448198"><ele>253.8</ele><time>2018-05-01T21:43:39Z</time></trkpt>
<trkpt lat="49.146692" lon="7.448105"><ele>252.6</ele><time>2018-05-01T21:43:40Z</time></trkpt>
<trkpt lat="49.146793" lon="7.447998"><ele>252.6</ele><time>2018-05-01T21:43:41Z</time></trkpt>
<trkpt lat="49.146899" lon="7.447954"><ele>252.6</ele><time>2018-05-01T21:43:41Z</time></trkpt>
<trkpt lat="49.14696" lon="7.447951"><ele>252.6</ele><time>2018-05-01T21:43:42Z</time></trkpt>
<trkpt lat="49.14713" lon="7.447994"><ele>252.6</ele><time>2018-05-01T21:43:43Z</time></trkpt>
<trkpt lat="49.147453" lon="7.448174"><ele>252.6</ele><time>2018-05-01T21:43:45Z</time></trkpt>
<trkpt lat="49.147691" lon="7.448351"><ele>253.4</ele><time>2018-05-01T21:43:47Z</time></trkpt>
<trkpt lat="49.149666" lon="7.450161"><ele>259.0</ele><time>2018-05-01T21:44:01Z</time></trkpt>
<trkpt lat="49.151031" lon="7.451265"><ele>257.0</ele><time>2018-05-01T21:44:11Z</time></trkpt>
<trkpt lat="49.151661" lon="7.451645"><ele>257.0</ele><time>2018-05-01T21:44:15Z</time></trkpt>
<trkpt lat="49.152893" lon="7.452498"><ele>252.2</ele><time>2018-05-01T21:44:24Z</time></trkpt>
<trkpt lat="49.153133" lon="7.452527"><ele>257.2</ele><time>2018-05-01T21:44:25Z</time></trkpt>
<trkpt lat="49.154065" lon="7.452331"><ele>252.8</ele><time>2018-05-01T21:44:31Z</time></trkpt>
<trkpt lat="49.155183" lon="7.452287"><ele>256.2</ele><time>2018-05-01T21:44:38Z</time></trkpt>
<trkpt lat="49.155463" lon="7.45218"><ele>256.2</ele><time>2018-05-01T21:44:40Z</time></trkpt>
<trkpt lat="49.156577" lon="7.451303"><ele>253.2</ele><time>2018-05-01T21:44:48Z</time></trkpt>
<trkpt lat="49.156698" lon="7.45065"><ele>251.8</ele><time>2018-05-01T21:44:51Z</time></trkpt>
<trkpt lat="49.157041" lon="7.449613"><ele>254.2</ele><time>2018-05-01T21:44:55Z</time></trkpt>
<trkpt lat="49.157118" lon="7.449465"><ele>254.2</ele><time>2018-05-01T21:44:56Z</time></trkpt>
<trkpt lat="49.15744" lon="7.449046"><ele>256.0</ele><time>2018-05-01T21:44:59Z</time></trkpt>
<trkpt lat="49.157496" lon="7.448946"><ele>256.0</ele><time>2018-05-01T21:44:59Z</time></trkpt>
<trkpt lat="49.157555" lon="7.448785"><ele>252.2</ele><time>2018-05-01T21:45:00Z</time></trkpt>
<trkpt lat="49.15758" lon="7.44865"><ele>252.2</ele><time>2018-05-01T21:45:01Z</time></trkpt>
<trkpt lat="49.157575" lon="7.448497"><ele>252.2</ele><time>2018-05-01T21:45:01Z</time></trkpt>
<trkpt lat="49.157535" lon="7.448302"><ele>256.6</ele><time>2018-05-01T21:45:02Z</time></trkpt>
<trkpt lat="49.157415" lon="7.447982"><ele>257.0</ele><time>2018-05-01T21:45:04Z</time></trkpt>
<trkpt lat="49.157391" lon="7.447842"><ele>257.0</ele><time>2018-05-01T21:45:04Z</time></trkpt>
<trkpt lat="49.157413" lon="7.447482"><ele>258.6</ele><time>2018-05-01T21:45:06Z</time></trkpt>
<trkpt lat="49.157471" lon="7.447018"><ele>258.6</ele><time>2018-05-01T21:45:08Z</time></trkpt>
<trkpt lat="49.157353" lon="7.445989"><ele>260.0</ele><time>2018-05-01T21:45:12Z</time></trkpt>
<trkpt lat="49.157151" lon="7.445062"><ele>263.2</ele><time>2018-05-01T21:45:16Z</time></trkpt>
<trkpt lat="49.157151" lon="7.443997"><ele>270.4</ele><time>2018-05-01T21:45:21Z</time></trkpt>
<trkpt lat="49.157381" lon="7.440367"><ele>281.8</ele><time>2018-05-01T21:45:36Z</time></trkpt>
<trkpt lat="49.157606" lon="7.439397"><ele>296.2</ele><time>2018-05-01T21:45:40Z</time></trkpt>
<trkpt lat="49.157752" lon="7.438676"><ele>302.0</ele><time>2018-05-01T21:45:43Z</time></trkpt>
<trkpt lat="49.157656" lon="7.4381"><ele>309.8</ele><time>2018-05-01T21:45:46Z</time></trkpt>
<trkpt lat="49.15761" lon="7.437946"><ele>309.8</ele><time>2018-05-01T21:45:46Z</time></trkpt>
<trkpt lat="49.157466" lon="7.43769"><ele>300.0</ele><time>2018-05-01T21:45:48Z</time></trkpt>
<trkpt lat="49.157392" lon="7.437503"><ele>300.0</ele><time>2018-05-01T21:45:49Z</time></trkpt>
<trkpt lat="49.157387" lon="7.437412"><ele>309.0</ele><time>2018-05-01T21:45:49Z</time></trkpt>
<trkpt lat="49.157414" lon="7.437342"><ele>309.0</ele><time>2018-05-01T21:45:50Z</time></trkpt>
<trkpt lat="49.157466" lon="7.437304"><ele>309.0</ele><time>2018-05-01T21:45:50Z</time></trkpt>
<trkpt lat="49.157527" lon="7.437306"><ele>317.6</ele><time>2018-05-01T21:45:51Z</time></trkpt>
<trkpt lat="49.157621" lon="7.437382"><ele>317.6</ele><time>2018-05-01T21:45:51Z</time></trkpt>
<trkpt lat="49.157839" lon="7.437711"><ele>309.8</ele><time>2018-05-01T21:45:53Z</time></trkpt>
<trkpt lat="49.158678" lon="7.43859"><ele>313.4</ele><time>2018-05-01T21:46:00Z</time></trkpt>
<trkpt lat="49.159885" lon="7.439629"><ele>319.6</ele><time>2018-05-01T21:46:09Z</time></trkpt>
<trkpt lat="49.160404" lon="7.439381"><ele>325.4</ele><time>2018-05-01T21:46:12Z</time></trkpt>
<trkpt lat="49.160942" lon="7.438914"><ele>322.4</ele><time>2018-05-01T21:46:16Z</time></trkpt>
<trkpt lat="49.161427" lon="7.438743"><ele>322.4</ele><time>2018-05-01T21:46:19Z</time></trkpt>
<trkpt lat="49.16195" lon="7.439165"><ele>309.4</ele><time>2018-05-01T21:46:23Z</time></trkpt>
<trkpt lat="49.162371" lon="7.440058"><ele>311.4</ele><time>2018-05-01T21:46:27Z</time></trkpt>
<trkpt lat="49.163219" lon="7.441721"><ele>301.8</ele><time>2018-05-01T21:46:36Z</time></trkpt>
<trkpt lat="49.163335" lon="7.441793"><ele>282.8</ele><time>2018-05-01T21:46:38Z</time></trkpt>
<trkpt lat="49.163409" lon="7.441775"><ele>282.8</ele><time>2018-05-01T21:46:38Z</time></trkpt>
<trkpt lat="49.163453" lon="7.441703"><ele>282.8</ele><time>2018-05-01T21:46:38Z</time></trkpt>
<trkpt lat="49.163464" lon="7.441583"><ele>273.0</ele><time>2018-05-01T21:46:39Z</time></trkpt>
<trkpt lat="49.163265" lon="7.440822"><ele>290.0</ele><time>2018-05-01T21:46:43Z</time></trkpt>
<trkpt lat="49.163076" lon="7.439205"><ele>287.2</ele><time>2018-05-01T21:46:49Z</time></trkpt>
<trkpt lat="49.163041" lon="7.438143"><ele>285.0</ele><time>2018-05-01T21:46:54Z</time></trkpt>
<trkpt lat="49.163314" lon="7.436762"><ele>289.0</ele><time>2018-05-01T21:47:00Z</time></trkpt>
<trkpt lat="49.163539" lon="7.435972"><ele>266.6</ele><time>2018-05-01T21:47:04Z</time></trkpt>
<trkpt lat="49.164089" lon="7.434642"><ele>274.2</ele><time>2018-05-01T21:47:10Z</time></trkpt>
<trkpt lat="49.164652" lon="7.433186"><ele>266.8</ele><time>2018-05-01T21:47:17Z</time></trkpt>
<trkpt lat="49.165457" lon="7.431926"><ele>255.0</ele><time>2018-05-01T21:47:24Z</time></trkpt>
<trkpt lat="49.165636" lon="7.431703"><ele>255.0</ele><time>2018-05-01T21:47:26Z</time></trkpt>
<trkpt lat="49.166303" lon="7.43127"><ele>256.2</ele><time>2018-05-01T21:47:31Z</time></trkpt>
<trkpt lat="49.166303" lon="7.43127"><ele>256.2</ele><time>2018-05-01T21:47:31Z</time></trkpt>
<trkpt lat="49.167103" lon="7.431019"><ele>260.0</ele><time>2018-05-01T21:47:37Z</time></trkpt>
<trkpt lat="49.168297" lon="7.430902"><ele>260.4</ele><time>2018-05-01T21:47:44Z</time></trkpt>
<trkpt lat="49.168543" lon="7.430892"><ele>264.4</ele><time>2018-05-01T21:47:46Z</time></trkpt>
<trkpt lat="49.168812" lon="7.430923"><ele>264.4</ele><time>2018-05-01T21:47:47Z</time></trkpt>
<trkpt lat="49.168942" lon="7.430995"><ele>264.4</ele><time>2018-05-01T21:47:48Z</time></trkpt>
<trkpt lat="49.169046" lon="7.431101"><ele>264.4</ele><time>2018-05-01T21:47:49Z</time></trkpt>
<trkpt lat="49.169395" lon="7.431651"><ele>275.6</ele><time>2018-05-01T21:47:52Z</time></trkpt>
<trkpt lat="49.169511" lon="7.431868"><ele>267.0</ele><time>2018-05-01T21:47:53Z</time></trkpt>
<trkpt lat="49.169922" lon="7.432763"><ele>259.8</ele><time>2018-05-01T21:47:58Z</time></trkpt>
<trkpt lat="49.170224" lon="7.433518"><ele>271.6</ele><time>2018-05-01T21:48:02Z</time></trkpt>
<trkpt lat="49.170281" lon="7.433707"><ele>271.6</ele><time>2018-05-01T21:48:02Z</time></trkpt>
<trkpt lat="49.170559" lon="7.435008"><ele>261.8</ele><time>2018-05-01T21:48:08Z</time></trkpt>
<trkpt lat="49.170716" lon="7.437835"><ele>254.2</ele><time>2018-05-01T21:48:20Z</time></trkpt>
<trkpt lat="49.170883" lon="7.439498"><ele>265.8</ele><time>2018-05-01T21:48:27Z</time></trkpt>
<trkpt lat="49.170975" lon="7.440044"><ele>260.8</ele><time>2018-05-01T21:48:29Z</time></trkpt>
<trkpt lat="49.171067" lon="7.440355"><ele>260.8</ele><time>2018-05-01T21:48:30Z</time></trkpt>
<trkpt lat="49.171194" lon="7.440597"><ele>260.8</ele><time>2018-05-01T21:48:32Z</time></trkpt>
<trkpt lat="49.171306" lon="7.440725"><ele>260.8</ele><time>2018-05-01T21:48:32Z</time></trkpt>
<trkpt lat="49.171634" lon="7.440944"><ele>256.6</ele><time>2018-05-01T21:48:35Z</time></trkpt>
<trkpt lat="49.172167" lon="7.441105"><ele>257.6</ele><time>2018-05-01T21:48:38Z</time></trkpt>
<trkpt lat="49.172345" lon="7.441126"><ele>257.6</ele><time>2018-05-01T21:48:39Z</time></trkpt>
<trkpt lat="49.172773" lon="7.441098"><ele>255.6</ele><time>2018-05-01T21:48:42Z</time></trkpt>
<trkpt lat="49.172984" lon="7.441059"><ele>255.6</ele><time>2018-05-01T21:48:43Z</time></trkpt>
<trkpt lat="49.173913" lon="7.440786"><ele>258.8</ele><time>2018-05-01T21:48:49Z</time></trkpt>
<trkpt lat="49.174152" lon="7.440678"><ele>258.8</ele><time>2018-05-01T21:48:51Z</time></trkpt>
<trkpt lat="49.174723" lon="7.440212"><ele>253.6</ele><time>2018-05-01T21:48:55Z</time></trkpt>
<trkpt lat="49.175278" lon="7.43951"><ele>253.2</ele><time>2018-05-01T21:48:59Z</time></trkpt>
<trkpt lat="49.175307" lon="7.439384"><ele>253.2</ele><time>2018-05-01T21:49:00Z</time></trkpt>
<trkpt lat="49.175508" lon="7.439137"><ele>254.0</ele><time>2018-05-01T21:49:02Z</time></trkpt>
<trkpt lat="49.176199" lon="7.437547"><ele>251.0</ele><time>2018-05-01T21:49:09Z</time></trkpt>
<trkpt lat="49.17654" lon="7.436669"><ele>252.2</ele><time>2018-05-01T21:49:14Z</time></trkpt>
<trkpt lat="49.176948" lon="7.435788"><ele>250.2</ele><time>2018-05-01T21:49:18Z</time></trkpt>
<trkpt lat="49.177144" lon="7.435468"><ele>250.2</ele><time>2018-05-01T21:49:20Z</time></trkpt>
<trkpt lat="49.17751" lon="7.434721"><ele>248.8</ele><time>2018-05-01T21:49:24Z</time></trkpt>
<trkpt lat="49.177752" lon="7.434321"><ele>248.8</ele><time>2018-05-01T21:49:26Z</time></trkpt>
<trkpt lat="49.177994" lon="7.434015"><ele>256.0</ele><time>2018-05-01T21:49:28Z</time></trkpt>
<trkpt lat="49.178896" lon="7.433552"><ele>259.2</ele><time>2018-05-01T21:49:34Z</time></trkpt>
<trkpt lat="49.179232" lon="7.433415"><ele>261.4</ele><time>2018-05-01T21:49:36Z</time></trkpt>
<trkpt lat="49.17935" lon="7.433425"><ele>261.4</ele><time>2018-05-01T21:49:37Z</time></trkpt>
<trkpt lat="49.179474" lon="7.433465"><ele>261.4</ele><time>2018-05-01T21:49:38Z</time></trkpt>
<trkpt lat="49.180092" lon="7.4338"><ele>265.8</ele><time>2018-05-01T21:49:42Z</time></trkpt>
<trkpt lat="49.181423" lon="7.434847"><ele>265.2</ele><time>2018-05-01T21:49:51Z</time></trkpt>
<trkpt lat="49.181542" lon="7.435029"><ele>260.0</ele><time>2018-05-01T21:49:52Z</time></trkpt>
<trkpt lat="49.181686" lon="7.43533"><ele>277.8</ele><time>2018-05-01T21:49:54Z</time></trkpt>
<trkpt lat="49.181787" lon="7.435715"><ele>277.8</ele><time>2018-05-01T21:49:56Z</time></trkpt>
<trkpt lat="49.181861" lon="7.436099"><ele>275.2</ele><time>2018-05-01T21:49:57Z</time></trkpt>
<trkpt lat="49.181883" lon="7.436354"><ele>275.2</ele><time>2018-05-01T21:49:58Z</time></trkpt>
<trkpt lat="49.181856" lon="7.437428"><ele>272.2</ele><time>2018-05-01T21:50:03Z</time></trkpt>
<trkpt lat="49.181777" lon="7.438424"><ele>272.0</ele><time>2018-05-01T21:50:07Z</time></trkpt>
<trkpt lat="49.181771" lon="7.438945"><ele>272.0</ele><time>2018-05-01T21:50:09Z</time></trkpt>
<trkpt lat="49.181888" lon="7.440666"><ele>270.4</ele><time>2018-05-01T21:50:16Z</time></trkpt>
<trkpt lat="49.18202" lon="7.441772"><ele>262.6</ele><time>2018-05-01T21:50:21Z</time></trkpt>
<trkpt lat="49.182125" lon="7.442395"><ele>262.6</ele><time>2018-05-01T21:50:23Z</time></trkpt>
<trkpt lat="49.1823" lon="7.442935"><ele>257.6</ele><time>2018-05-01T21:50:26Z</time></trkpt>
<trkpt lat="49.182674" lon="7.443713"><ele>266.2</ele><time>2018-05-01T21:50:30Z</time></trkpt>
<trkpt lat="49.182928" lon="7.444113"><ele>266.2</ele><time>2018-05-01T21:50:32Z</time></trkpt>
<trkpt lat="49.183247" lon="7.444498"><ele>257.2</ele><time>2018-05-01T21:50:35Z</time></trkpt>
<trkpt lat="49.183468" lon="7.444695"><ele>266.2</ele><time>2018-05-01T21:50:36Z</time></trkpt>
<trkpt lat="49.183621" lon="7.444793"><ele>266.2</ele><time>2018-05-01T21:50:37Z</time></trkpt>
<trkpt lat="49.184767" lon="7.445394"><ele>257.0</ele><time>2018-05-01T21:50:46Z</time></trkpt>
<trkpt lat="49.184952" lon="7.445345"><ele>257.0</ele><time>2018-05-01T21:50:47Z</time></trkpt>
<trkpt lat="49.185234" lon="7.445341"><ele>262.2</ele><time>2018-05-01T21:50:48Z</time></trkpt>
<trkpt lat="49.186411" lon="7.445653"><ele>269.4</ele><time>2018-05-01T21:50:56Z</time></trkpt>
<trkpt lat="49.18671" lon="7.445654"><ele>267.6</ele><time>2018-05-01T21:50:58Z</time></trkpt>
<trkpt lat="49.187358" lon="7.445491"><ele>267.6</ele><time>2018-05-01T21:51:02Z</time></trkpt>
<trkpt lat="49.188037" lon="7.445216"><ele>258.8</ele><time>2018-05-01T21:51:06Z</time></trkpt>
<trkpt lat="49.188744" lon="7.44483"><ele>255.8</ele><time>2018-05-01T21:51:11Z</time></trkpt>
<trkpt lat="49.189239" lon="7.444345"><ele>249.4</ele><time>2018-05-01T21:51:15Z</time></trkpt>
<trkpt lat="49.189783" lon="7.443601"><ele>248.8</ele><time>2018-05-01T21:51:19Z</time></trkpt>
<trkpt lat="49.190189" lon="7.444287"><ele>253.2</ele><time>2018-05-01T21:51:22Z</time></trkpt>
<trkpt lat="49.190282" lon="7.444371"><ele>253.2</ele><time>2018-05-01T21:51:23Z</time></trkpt>
<trkpt lat="49.190371" lon="7.444398"><ele>253.2</ele><time>2018-05-01T21:51:23Z</time></trkpt>
<trkpt lat="49.190503" lon="7.444347"><ele>253.2</ele><time>2018-05-01T21:51:24Z</time></trkpt>
<trkpt lat="49.190608" lon="7.444219"><ele>253.2</ele><time>2018-05-01T21:51:25Z</time></trkpt>
<trkpt lat="49.190824" lon="7.443887"><ele>253.2</ele><time>2018-05-01T21:51:26Z</time></trkpt>
<trkpt lat="49.191116" lon="7.443575"><ele>270.4</ele><time>2018-05-01T21:51:28Z</time></trkpt>
<trkpt lat="49.191348" lon="7.44337"><ele>270.4</ele><time>2018-05-01T21:51:30Z</time></trkpt>
<trkpt lat="49.191442" lon="7.443202"><ele>273.0</ele><time>2018-05-01T21:51:31Z</time></trkpt>
<trkpt lat="49.191477" lon="7.443091"><ele>273.0</ele><time>2018-05-01T21:51:31Z</time></trkpt>
<trkpt lat="49.191483" lon="7.442756"><ele>273.0</ele><time>2018-05-01T21:51:32Z</time></trkpt>
<trkpt lat="49.191431" lon="7.442478"><ele>275.8</ele><time>2018-05-01T21:51:33Z</time></trkpt>
<trkpt lat="49.191128" lon="7.441537"><ele>278.4</ele><time>2018-05-01T21:51:36Z</time></trkpt>
<trkpt lat="49.190499" lon="7.438765"><ele>261.4</ele><time>2018-05-01T21:51:46Z</time></trkpt>
<trkpt lat="49.190402" lon="7.437971"><ele>259.2</ele><time>2018-05-01T21:51:49Z</time></trkpt>
<trkpt lat="49.190398" lon="7.437477"><ele>255.0</ele><time>2018-05-01T21:51:50Z</time></trkpt>
<trkpt lat="49.190419" lon="7.43711"><ele>255.0</ele><time>2018-05-01T21:51:52Z</time></trkpt>
<trkpt lat="49.19052" lon="7.436504"><ele>250.4</ele><time>2018-05-01T21:51:54Z</time></trkpt>
<trkpt lat="49.190618" lon="7.436128"><ele>250.4</ele><time>2018-05-01T21:51:55Z</time></trkpt>
<trkpt lat="49.190767" lon="7.435742"><ele>246.0</ele><time>2018-05-01T21:51:56Z</time></trkpt>
<trkpt lat="49.190922" lon="7.435432"><ele>252.2</ele><time>2018-05-01T21:51:58Z</time></trkpt>
<trkpt lat="49.191184" lon="7.43502"><ele>252.2</ele><time>2018-05-01T21:52:00Z</time></trkpt>
<trkpt lat="49.191414" lon="7.434737"><ele>246.0</ele><time>2018-05-01T21:52:01Z</time></trkpt>
<trkpt lat="49.191915" lon="7.434256"><ele>249.8</ele><time>2018-05-01T21:52:04Z</time></trkpt>
<trkpt lat="49.192568" lon="7.433894"><ele>247.2</ele><time>2018-05-01T21:52:08Z</time></trkpt>
<trkpt lat="49.192956" lon="7.433779"><ele>247.2</ele><time>2018-05-01T21:52:10Z</time></trkpt>
<trkpt lat="49.193433" lon="7.433744"><ele>249.8</ele><time>2018-05-01T21:52:12Z</time></trkpt>
<trkpt lat="49.195677" lon="7.43372"><ele>253.6</ele><time>2018-05-01T21:52:23Z</time></trkpt>
<trkpt lat="49.196019" lon="7.433676"><ele>251.6</ele><time>2018-05-01T21:52:25Z</time></trkpt>
<trkpt lat="49.197233" lon="7.43345"><ele>250.2</ele><time>2018-05-01T21:52:31Z</time></trkpt>
<trkpt lat="49.198396" lon="7.433282"><ele>249.6</ele><time>2018-05-01T21:52:37Z</time></trkpt>
<trkpt lat="49.199753" lon="7.433301"><ele>250.6</ele><time>2018-05-01T21:52:44Z</time></trkpt>
<trkpt lat="49.201147" lon="7.433597"><ele>246.4</ele><time>2018-05-01T21:52:51Z</time></trkpt>
<trkpt lat="49.201398" lon="7.433693"><ele>246.4</ele><time>2018-05-01T21:52:52Z</time></trkpt>
<trkpt lat="49.202544" lon="7.434347"><ele>243.8</ele><time>2018-05-01T21:52:58Z</time></trkpt>
<trkpt lat="49.20278" lon="7.434515"><ele>243.8</ele><time>2018-05-01T21:52:59Z</time></trkpt>
<trkpt lat="49.20313" lon="7.43491"><ele>243.8</ele><time>2018-05-01T21:53:02Z</time></trkpt>
<trkpt lat="49.20313" lon="7.43491"><ele>243.8</ele><time>2018-05-01T21:53:02Z</time></trkpt>
<trkpt lat="49.203433" lon="7.43543"><ele>243.8</ele><time>2018-05-01T21:53:04Z</time></trkpt>
<trkpt lat="49.203663" lon="7.43603"><ele>247.2</ele><time>2018-05-01T21:53:06Z</time></trkpt>
<trkpt lat="49.203907" lon="7.437323"><ele>251.0</ele><time>2018-05-01T21:53:11Z</time></trkpt>
<trkpt lat="49.203979" lon="7.437452"><ele>251.0</ele><time>2018-05-01T21:53:11Z</time></trkpt>
<trkpt lat="49.20413" lon="7.437592"><ele>251.6</ele><time>2018-05-01T21:53:12Z</time></trkpt>
<trkpt lat="49.20421" lon="7.437623"><ele>259.2</ele><time>2018-05-01T21:53:13Z</time></trkpt>
<trkpt lat="49.204334" lon="7.437607"><ele>259.2</ele><time>2018-05-01T21:53:13Z</time></trkpt>
<trkpt lat="49.204431" lon="7.437552"><ele>259.2</ele><time>2018-05-01T21:53:14Z</time></trkpt>
<trkpt lat="49.204616" lon="7.437391"><ele>258.0</ele><time>2018-05-01T21:53:15Z</time></trkpt>
<trkpt lat="49.204814" lon="7.437157"><ele>258.0</ele><time>2018-05-01T21:53:16Z</time></trkpt>
<trkpt lat="49.20491" lon="7.43823"><ele>259.2</ele><time>2018-05-01T21:53:20Z</time></trkpt>
<trkpt lat="49.205057" lon="7.439279"><ele>268.4</ele><time>2018-05-01T21:53:25Z</time></trkpt>
<trkpt lat="49.205269" lon="7.440439"><ele>258.8</ele><time>2018-05-01T21:53:30Z</time></trkpt>
<trkpt lat="49.205479" lon="7.44136"><ele>252.0</ele><time>2018-05-01T21:53:34Z</time></trkpt>
<trkpt lat="49.205829" lon="7.442551"><ele>248.2</ele><time>2018-05-01T21:53:39Z</time></trkpt>
<trkpt lat="49.206313" lon="7.443891"><ele>253.6</ele><time>2018-05-01T21:53:45Z</time></trkpt>
<trkpt lat="49.206874" lon="7.445737"><ele>259.6</ele><time>2018-05-01T21:53:54Z</time></trkpt>
<trkpt lat="49.20714" lon="7.446745"><ele>251.0</ele><time>2018-05-01T21:53:58Z</time></trkpt>
<trkpt lat="49.207561" lon="7.448437"><ele>250.8</ele><time>2018-05-01T21:54:06Z</time></trkpt>
<trkpt lat="49.207638" lon="7.448794"><ele>250.8</ele><time>2018-05-01T21:54:07Z</time></trkpt>
<trkpt lat="49.207768" lon="7.449269"><ele>251.8</ele><time>2018-05-01T21:54:09Z</time></trkpt>
<trkpt lat="49.208118" lon="7.450378"><ele>252.4</ele><time>2018-05-01T21:54:14Z</time></trkpt>
<trkpt lat="49.208598" lon="7.451788"><ele>258.6</ele><time>2018-05-01T21:54:21Z</time></trkpt>
<trkpt lat="49.2087" lon="7.452217"><ele>258.6</ele><time>2018-05-01T21:54:23Z</time></trkpt>
<trkpt lat="49.208743" lon="7.452714"><ele>254.4</ele><time>2018-05-01T21:54:25Z</time></trkpt>
<trkpt lat="49.208849" lon="7.455822"><ele>251.0</ele><time>2018-05-01T21:54:37Z</time></trkpt>
<trkpt lat="49.208883" lon="7.456165"><ele>250.0</ele><time>2018-05-01T21:54:39Z</time></trkpt>
<trkpt lat="49.208955" lon="7.456522"><ele>250.0</ele><time>2018-05-01T21:54:40Z</time></trkpt>
<trkpt lat="49.209467" lon="7.458252"><ele>260.2</ele><time>2018-05-01T21:54:48Z</time></trkpt>
<trkpt lat="49.209629" lon="7.458862"><ele>258.8</ele><time>2018-05-01T21:54:51Z</time></trkpt>
<trkpt lat="49.209684" lon="7.459234"><ele>256.0</ele><time>2018-05-01T21:54:52Z</time></trkpt>
<trkpt lat="49.209694" lon="7.459678"><ele>256.0</ele><time>2018-05-01T21:54:54Z</time></trkpt>
<trkpt lat="49.209663" lon="7.464019"><ele>259.2</ele><time>2018-05-01T21:55:12Z</time></trkpt>
<trkpt lat="49.209614" lon="7.464426"><ele>263.8</ele><time>2018-05-01T21:55:14Z</time></trkpt>
<trkpt lat="49.209481" lon="7.465059"><ele>267.2</ele><time>2018-05-01T21:55:16Z</time></trkpt>
<trkpt lat="49.209418" lon="7.465446"><ele>267.2</ele><time>2018-05-01T21:55:18Z</time></trkpt>
<trkpt lat="49.209411" lon="7.466004"><ele>268.6</ele><time>2018-05-01T21:55:20Z</time></trkpt>
<trkpt lat="49.209439" lon="7.466701"><ele>269.0</ele><time>2018-05-01T21:55:23Z</time></trkpt>
<trkpt lat="49.209516" lon="7.467602"><ele>267.8</ele><time>2018-05-01T21:55:27Z</time></trkpt>
<trkpt lat="49.209831" lon="7.469855"><ele>262.4</ele><time>2018-05-01T21:55:36Z</time></trkpt>
<trkpt lat="49.210175" lon="7.47198"><ele>272.0</ele><time>2018-05-01T21:55:45Z</time></trkpt>
<trkpt lat="49.210315" lon="7.472753"><ele>266.6</ele><time>2018-05-01T21:55:49Z</time></trkpt>
<trkpt lat="49.21033" lon="7.473008"><ele>266.6</ele><time>2018-05-01T21:55:50Z</time></trkpt>
<trkpt lat="49.210301" lon="7.473342"><ele>263.6</ele><time>2018-05-01T21:55:51Z</time></trkpt>
<trkpt lat="49.210167" lon="7.474015"><ele>263.6</ele><time>2018-05-01T21:55:54Z</time></trkpt>
<trkpt lat="49.210108" lon="7.474142"><ele>263.6</ele><time>2018-05-01T21:55:55Z</time></trkpt>
<trkpt lat="49.21013" lon="7.474259"><ele>261.4</ele><time>2018-05-01T21:55:55Z</time></trkpt>
<trkpt lat="49.210065" lon="7.474735"><ele>261.4</ele><time>2018-05-01T21:55:57Z</time></trkpt>
<trkpt lat="49.210149" lon="7.476014"><ele>258.2</ele><time>2018-05-01T21:56:02Z</time></trkpt>
<trkpt lat="49.210166" lon="7.476083"><ele>258.2</ele><time>2018-05-01T21:56:02Z</time></trkpt>
<trkpt lat="49.21024" lon="7.47615"><ele>258.2</ele><time>2018-05-01T21:56:03Z</time></trkpt>
<trkpt lat="49.210824" lon="7.47602"><ele>258.2</ele><time>2018-05-01T21:56:06Z</time></trkpt>
<trkpt lat="49.210939" lon="7.476046"><ele>266.6</ele><time>2018-05-01T21:56:07Z</time></trkpt>
<trkpt lat="49.211079" lon="7.476239"><ele>266.6</ele><time>2018-05-01T21:56:08Z</time></trkpt>
<trkpt lat="49.211184" lon="7.476421"><ele>266.6</ele><time>2018-05-01T21:56:09Z</time></trkpt>
<trkpt lat="49.211352" lon="7.476539"><ele>266.6</ele><time>2018-05-01T21:56:10Z</time></trkpt>
<trkpt lat="49.21152" lon="7.476625"><ele>266.6</ele><time>2018-05-01T21:56:11Z</time></trkpt>
<trkpt lat="49.211633" lon="7.476625"><ele>266.6</ele><time>2018-05-01T21:56:12Z</time></trkpt>
<trkpt lat="49.211871" lon="7.476421"><ele>277.6</ele><time>2018-05-01T21:56:14Z</time></trkpt>
<trkpt lat="49.212074" lon="7.476132"><ele>277.6</ele><time>2018-05-01T21:56:15Z</time></trkpt>
<trkpt lat="49.212684" lon="7.475917"><ele>290.0</ele><time>2018-05-01T21:56:19Z</time></trkpt>
<trkpt lat="49.213765" lon="7.475401"><ele>293.2</ele><time>2018-05-01T21:56:26Z</time></trkpt>
<trkpt lat="49.213954" lon="7.475268"><ele>293.2</ele><time>2018-05-01T21:56:27Z</time></trkpt>
<trkpt lat="49.214045" lon="7.475225"><ele>293.2</ele><time>2018-05-01T21:56:28Z</time></trkpt>
<trkpt lat="49.214585" lon="7.475172"><ele>300.0</ele><time>2018-05-01T21:56:31Z</time></trkpt>
<trkpt lat="49.21479" lon="7.475203"><ele>300.0</ele><time>2018-05-01T21:56:32Z</time></trkpt>
<trkpt lat="49.215073" lon="7.47531"><ele>303.4</ele><time>2018-05-01T21:56:34Z</time></trkpt>
<trkpt lat="49.216098" lon="7.475786"><ele>308.6</ele><time>2018-05-01T21:56:40Z</time></trkpt>
<trkpt lat="49.216386" lon="7.475865"><ele>308.0</ele><time>2018-05-01T21:56:42Z</time></trkpt>
<trkpt lat="49.216543" lon="7.475847"><ele>308.0</ele><time>2018-05-01T21:56:43Z</time></trkpt>
<trkpt lat="49.216651" lon="7.475804"><ele>308.6</ele><time>2018-05-01T21:56:43Z</time></trkpt>
<trkpt lat="49.216782" lon="7.475711"><ele>316.2</ele><time>2018-05-01T21:56:44Z</time></trkpt>
<trkpt lat="49.216966" lon="7.47548"><ele>316.2</ele><time>2018-05-01T21:56:46Z</time></trkpt>
<trkpt lat="49.217056" lon="7.4753"><ele>316.2</ele><time>2018-05-01T21:56:47Z</time></trkpt>
<trkpt lat="49.217127" lon="7.47507"><ele>316.2</ele><time>2018-05-01T21:56:48Z</time></trkpt>
<trkpt lat="49.217169" lon="7.474861"><ele>320.4</ele><time>2018-05-01T21:56:49Z</time></trkpt>
<trkpt lat="49.217182" lon="7.474674"><ele>320.4</ele><time>2018-05-01T21:56:49Z</time></trkpt>
<trkpt lat="49.217169" lon="7.474121"><ele>325.8</ele><time>2018-05-01T21:56:51Z</time></trkpt>
<trkpt lat="49.217057" lon="7.473347"><ele>325.8</ele><time>2018-05-01T21:56:54Z</time></trkpt>
<trkpt lat="49.216996" lon="7.473047"><ele>331.8</ele><time>2018-05-01T21:56:56Z</time></trkpt>
<trkpt lat="49.216919" lon="7.472787"><ele>331.8</ele><time>2018-05-01T21:56:57Z</time></trkpt>
<trkpt lat="49.21683" lon="7.472575"><ele>331.8</ele><time>2018-05-01T21:56:58Z</time></trkpt>
<trkpt lat="49.216251" lon="7.471591"><ele>332.2</ele><time>2018-05-01T21:57:03Z</time></trkpt>
<trkpt lat="49.216173" lon="7.471409"><ele>332.2</ele><time>2018-05-01T21:57:04Z</time></trkpt>
<trkpt lat="49.216138" lon="7.471231"><ele>332.2</ele><time>2018-05-01T21:57:04Z</time></trkpt>
<trkpt lat="49.216125" lon="7.471074"><ele>332.2</ele><time>2018-05-01T21:57:05Z</time></trkpt>
<trkpt lat="49.216152" lon="7.470883"><ele>332.2</ele><time>2018-05-01T21:57:06Z</time></trkpt>
<trkpt lat="49.216221" lon="7.470713"><ele>331.0</ele><time>2018-05-01T21:57:07Z</time></trkpt>
<trkpt lat="49.216535" lon="7.470251"><ele>331.0</ele><time>2018-05-01T21:57:09Z</time></trkpt>
<trkpt lat="49.216923" lon="7.469809"><ele>327.6</ele><time>2018-05-01T21:57:12Z</time></trkpt>
<trkpt lat="49.217082" lon="7.469697"><ele>327.6</ele><time>2018-05-01T21:57:13Z</time></trkpt>
<trkpt lat="49.217261" lon="7.469616"><ele>327.6</ele><time>2018-05-01T21:57:14Z</time></trkpt>
<trkpt lat="49.217496" lon="7.4696"><ele>327.6</ele><time>2018-05-01T21:57:16Z</time></trkpt>
<trkpt lat="49.219039" lon="7.469689"><ele>326.2</ele><time>2018-05-01T21:57:25Z</time></trkpt>
<trkpt lat="49.219295" lon="7.469726"><ele>325.4</ele><time>2018-05-01T21:57:26Z</time></trkpt>
<trkpt lat="49.219592" lon="7.469813"><ele>325.4</ele><time>2018-05-01T21:57:28Z</time></trkpt>
<trkpt lat="49.219889" lon="7.469966"><ele>325.4</ele><time>2018-05-01T21:57:30Z</time></trkpt>
<trkpt lat="49.220152" lon="7.470171"><ele>318.2</ele><time>2018-05-01T21:57:32Z</time></trkpt>
<trkpt lat="49.220316" lon="7.470348"><ele>318.2</ele><time>2018-05-01T21:57:33Z</time></trkpt>
<trkpt lat="49.220443" lon="7.470519"><ele>318.2</ele><time>2018-05-01T21:57:34Z</time></trkpt>
<trkpt lat="49.220741" lon="7.471097"><ele>318.2</ele><time>2018-05-01T21:57:37Z</time></trkpt>
<trkpt lat="49.220867" lon="7.47142"><ele>306.2</ele><time>2018-05-01T21:57:38Z</time></trkpt>
<trkpt lat="49.221408" lon="7.473084"><ele>304.8</ele><time>2018-05-01T21:57:46Z</time></trkpt>
<trkpt lat="49.221585" lon="7.473494"><ele>306.8</ele><time>2018-05-01T21:57:47Z</time></trkpt>
<trkpt lat="49.221748" lon="7.473747"><ele>295.2</ele><time>2018-05-01T21:57:49Z</time></trkpt>
<trkpt lat="49.221983" lon="7.474034"><ele>295.2</ele><time>2018-05-01T21:57:51Z</time></trkpt>
<trkpt lat="49.223356" lon="7.475356"><ele>282.2</ele><time>2018-05-01T21:58:00Z</time></trkpt>
<trkpt lat="49.223551" lon="7.475579"><ele>282.2</ele><time>2018-05-01T21:58:02Z</time></trkpt>
<trkpt lat="49.223724" lon="7.475921"><ele>288.8</ele><time>2018-05-01T21:58:04Z</time></trkpt>
<trkpt lat="49.223877" lon="7.476295"><ele>288.8</ele><time>2018-05-01T21:58:05Z</time></trkpt>
<trkpt lat="49.223974" lon="7.476475"><ele>288.8</ele><time>2018-05-01T21:58:06Z</time></trkpt>
<trkpt lat="49.224086" lon="7.476582"><ele>288.8</ele><time>2018-05-01T21:58:07Z</time></trkpt>
<trkpt lat="49.22424" lon="7.476689"><ele>284.8</ele><time>2018-05-01T21:58:09Z</time></trkpt>
<trkpt lat="49.224352" lon="7.476732"><ele>284.8</ele><time>2018-05-01T21:58:09Z</time></trkpt>
<trkpt lat="49.224486" lon="7.476829"><ele>284.8</ele><time>2018-05-01T21:58:10Z</time></trkpt>
<trkpt lat="49.224663" lon="7.477083"><ele>284.8</ele><time>2018-05-01T21:58:12Z</time></trkpt>
<trkpt lat="49.224749" lon="7.477322"><ele>284.8</ele><time>2018-05-01T21:58:13Z</time></trkpt>
<trkpt lat="49.224801" lon="7.477644"><ele>291.2</ele><time>2018-05-01T21:58:14Z</time></trkpt>
<trkpt lat="49.224927" lon="7.479479"><ele>301.8</ele><time>2018-05-01T21:58:22Z</time></trkpt>
<trkpt lat="49.224997" lon="7.480037"><ele>306.2</ele><time>2018-05-01T21:58:25Z</time></trkpt>
<trkpt lat="49.225214" lon="7.481292"><ele>305.8</ele><time>2018-05-01T21:58:30Z</time></trkpt>
<trkpt lat="49.2256" lon="7.482472"><ele>309.6</ele><time>2018-05-01T21:58:36Z</time></trkpt>
<trkpt lat="49.226139" lon="7.483652"><ele>316.0</ele><time>2018-05-01T21:58:42Z</time></trkpt>
<trkpt lat="49.226356" lon="7.48421"><ele>320.2</ele><time>2018-05-01T21:58:45Z</time></trkpt>
<trkpt lat="49.226504" lon="7.484661"><ele>320.2</ele><time>2018-05-01T21:58:47Z</time></trkpt>
<trkpt lat="49.226644" lon="7.485229"><ele>324.4</ele><time>2018-05-01T21:58:50Z</time></trkpt>
<trkpt lat="49.226692" lon="7.485712"><ele>317.6</ele><time>2018-05-01T21:58:52Z</time></trkpt>
<trkpt lat="49.226721" lon="7.486227"><ele>320.6</ele><time>2018-05-01T21:58:54Z</time></trkpt>
<trkpt lat="49.2267" lon="7.486731"><ele>323.6</ele><time>2018-05-01T21:58:56Z</time></trkpt>
<trkpt lat="49.226637" lon="7.487225"><ele>332.4</ele><time>2018-05-01T21:58:58Z</time></trkpt>
<trkpt lat="49.226511" lon="7.487815"><ele>335.6</ele><time>2018-05-01T21:59:01Z</time></trkpt>
<trkpt lat="49.226342" lon="7.488341"><ele>338.0</ele><time>2018-05-01T21:59:03Z</time></trkpt>
<trkpt lat="49.226151" lon="7.488831"><ele>338.0</ele><time>2018-05-01T21:59:06Z</time></trkpt>
<trkpt lat="49.225887" lon="7.48923"><ele>337.6</ele><time>2018-05-01T21:59:08Z</time></trkpt>
<trkpt lat="49.225442" lon="7.489741"><ele>348.4</ele><time>2018-05-01T21:59:12Z</time></trkpt>
<trkpt lat="49.224987" lon="7.490111"><ele>351.4</ele><time>2018-05-01T21:59:15Z</time></trkpt>
<trkpt lat="49.224254" lon="7.490562"><ele>351.4</ele><time>2018-05-01T21:59:20Z</time></trkpt>
<trkpt lat="49.223932" lon="7.490819"><ele>355.6</ele><time>2018-05-01T21:59:23Z</time></trkpt>
<trkpt lat="49.223631" lon="7.491109"><ele>352.2</ele><time>2018-05-01T21:59:25Z</time></trkpt>
<trkpt lat="49.223301" lon="7.491452"><ele>355.4</ele><time>2018-05-01T21:59:28Z</time></trkpt>
<trkpt lat="49.222264" lon="7.492718"><ele>356.6</ele><time>2018-05-01T21:59:36Z</time></trkpt>
<trkpt lat="49.221066" lon="7.49451"><ele>356.2</ele><time>2018-05-01T21:59:47Z</time></trkpt>
<trkpt lat="49.220176" lon="7.496023"><ele>350.2</ele><time>2018-05-01T21:59:56Z</time></trkpt>
<trkpt lat="49.219994" lon="7.496366"><ele>350.2</ele><time>2018-05-01T21:59:58Z</time></trkpt>
<trkpt lat="49.219657" lon="7.497237"><ele>347.8</ele><time>2018-05-01T22:00:02Z</time></trkpt>
<trkpt lat="49.219504" lon="7.497807"><ele>345.8</ele><time>2018-05-01T22:00:05Z</time></trkpt>
<trkpt lat="49.219389" lon="7.498441"><ele>343.6</ele><time>2018-05-01T22:00:07Z</time></trkpt>
<trkpt lat="49.219318" lon="7.499135"><ele>343.6</ele><time>2018-05-01T22:00:10Z</time></trkpt>
<trkpt lat="49.219291" lon="7.499854"><ele>343.0</ele><time>2018-05-01T22:00:14Z</time></trkpt>
<trkpt lat="49.219311" lon="7.500698"><ele>342.4</ele><time>2018-05-01T22:00:17Z</time></trkpt>
<trkpt lat="49.219752" lon="7.507723"><ele>358.4</ele><time>2018-05-01T22:00:47Z</time></trkpt>
<trkpt lat="49.219806" lon="7.508401"><ele>361.6</ele><time>2018-05-01T22:00:50Z</time></trkpt>
<trkpt lat="49.219969" lon="7.509513"><ele>364.4</ele><time>2018-05-01T22:00:55Z</time></trkpt>
<trkpt lat="49.220054" lon="7.509921"><ele>354.8</ele><time>2018-05-01T22:00:57Z</time></trkpt>
<trkpt lat="49.22018" lon="7.510399"><ele>361.6</ele><time>2018-05-01T22:00:59Z</time></trkpt>
<trkpt lat="49.220393" lon="7.51105"><ele>366.2</ele><time>2018-05-01T22:01:02Z</time></trkpt>
<trkpt lat="49.220692" lon="7.511779"><ele>367.6</ele><time>2018-05-01T22:01:06Z</time></trkpt>
<trkpt lat="49.221029" lon="7.512515"><ele>366.8</ele><time>2018-05-01T22:01:10Z</time></trkpt>
<trkpt lat="49.221829" lon="7.514114"><ele>366.8</ele><time>2018-05-01T22:01:18Z</time></trkpt>
<trkpt lat="49.222526" lon="7.515556"><ele>367.2</ele><time>2018-05-01T22:01:26Z</time></trkpt>
<trkpt lat="49.223031" lon="7.51674"><ele>366.0</ele><time>2018-05-01T22:01:32Z</time></trkpt>
<trkpt lat="49.22337" lon="7.517715"><ele>357.0</ele><time>2018-05-01T22:01:37Z</time></trkpt>
<trkpt lat="49.223508" lon="7.51816"><ele>357.0</ele><time>2018-05-01T22:01:39Z</time></trkpt>
<trkpt lat="49.223804" lon="7.519451"><ele>352.2</ele><time>2018-05-01T22:01:44Z</time></trkpt>
<trkpt lat="49.223985" lon="7.520545"><ele>352.6</ele><time>2018-05-01T22:01:49Z</time></trkpt>
<trkpt lat="49.224085" lon="7.521511"><ele>352.2</ele><time>2018-05-01T22:01:53Z</time></trkpt>
<trkpt lat="49.224122" lon="7.522342"><ele>353.4</ele><time>2018-05-01T22:01:57Z</time></trkpt>
<trkpt lat="49.224118" lon="7.523473"><ele>358.4</ele><time>2018-05-01T22:02:02Z</time></trkpt>
<trkpt lat="49.224024" lon="7.524761"><ele>361.0</ele><time>2018-05-01T22:02:07Z</time></trkpt>
<trkpt lat="49.223872" lon="7.52581"><ele>363.0</ele><time>2018-05-01T22:02:12Z</time></trkpt>
<trkpt lat="49.223665" lon="7.526812"><ele>364.2</ele><time>2018-05-01T22:02:16Z</time></trkpt>
<trkpt lat="49.223492" lon="7.527449"><ele>364.2</ele><time>2018-05-01T22:02:19Z</time></trkpt>
<trkpt lat="49.223306" lon="7.528048"><ele>367.8</ele><time>2018-05-01T22:02:22Z</time></trkpt>
<trkpt lat="49.22282" lon="7.529441"><ele>367.4</ele><time>2018-05-01T22:02:29Z</time></trkpt>
<trkpt lat="49.222415" lon="7.530828"><ele>370.8</ele><time>2018-05-01T22:02:35Z</time></trkpt>
<trkpt lat="49.222303" lon="7.531599"><ele>370.2</ele><time>2018-05-01T22:02:39Z</time></trkpt>
<trkpt lat="49.222273" lon="7.532161"><ele>370.0</ele><time>2018-05-01T22:02:41Z</time></trkpt>
<trkpt lat="49.22229" lon="7.532899"><ele>368.0</ele><time>2018-05-01T22:02:44Z</time></trkpt>
<trkpt lat="49.222345" lon="7.533414"><ele>366.6</ele><time>2018-05-01T22:02:46Z</time></trkpt>
<trkpt lat="49.222461" lon="7.533997"><ele>366.6</ele><time>2018-05-01T22:02:49Z</time></trkpt>
<trkpt lat="49.222608" lon="7.534572"><ele>352.6</ele><time>2018-05-01T22:02:52Z</time></trkpt>
<trkpt lat="49.223503" lon="7.536786"><ele>362.6</ele><time>2018-05-01T22:03:03Z</time></trkpt>
<trkpt lat="49.223699" lon="7.537314"><ele>362.6</ele><time>2018-05-01T22:03:05Z</time></trkpt>
<trkpt lat="49.225111" lon="7.540845"><ele>360.8</ele><time>2018-05-01T22:03:23Z</time></trkpt>
<trkpt lat="49.225312" lon="7.541288"><ele>360.8</ele><time>2018-05-01T22:03:25Z</time></trkpt>
<trkpt lat="49.22567" lon="7.541958"><ele>360.0</ele><time>2018-05-01T22:03:29Z</time></trkpt>
<trkpt lat="49.227358" lon="7.544507"><ele>357.4</ele><time>2018-05-01T22:03:44Z</time></trkpt>
<trkpt lat="49.227896" lon="7.545288"><ele>359.6</ele><time>2018-05-01T22:03:49Z</time></trkpt>
<trkpt lat="49.228547" lon="7.546107"><ele>362.8</ele><time>2018-05-01T22:03:55Z</time></trkpt>
<trkpt lat="49.229706" lon="7.547439"><ele>362.6</ele><time>2018-05-01T22:04:04Z</time></trkpt>
<trkpt lat="49.230794" lon="7.548727"><ele>364.4</ele><time>2018-05-01T22:04:13Z</time></trkpt>
<trkpt lat="49.230961" lon="7.548997"><ele>358.4</ele><time>2018-05-01T22:04:15Z</time></trkpt>
<trkpt lat="49.231054" lon="7.549188"><ele>362.8</ele><time>2018-05-01T22:04:16Z</time></trkpt>
<trkpt lat="49.231171" lon="7.549508"><ele>362.8</ele><time>2018-05-01T22:04:17Z</time></trkpt>
<trkpt lat="49.231256" lon="7.549849"><ele>362.8</ele><time>2018-05-01T22:04:19Z</time></trkpt>
<trkpt lat="49.231286" lon="7.550088"><ele>366.2</ele><time>2018-05-01T22:04:20Z</time></trkpt>
<trkpt lat="49.23129" lon="7.550582"><ele>366.2</ele><time>2018-05-01T22:04:22Z</time></trkpt>
<trkpt lat="49.23119" lon="7.551637"><ele>370.0</ele><time>2018-05-01T22:04:27Z</time></trkpt>
<trkpt lat="49.231288" lon="7.551752"><ele>372.8</ele><time>2018-05-01T22:04:28Z</time></trkpt>
<trkpt lat="49.231915" lon="7.553425"><ele>374.6</ele><time>2018-05-01T22:04:40Z</time></trkpt>
<trkpt lat="49.232173" lon="7.554001"><ele>374.6</ele><time>2018-05-01T22:04:44Z</time></trkpt>
<trkpt lat="49.234073" lon="7.557442"><ele>379.0</ele><time>2018-05-01T22:05:11Z</time></trkpt>
<trkpt lat="49.234197" lon="7.557597"><ele>375.4</ele><time>2018-05-01T22:05:12Z</time></trkpt>
<trkpt lat="49.234877" lon="7.558221"><ele>375.4</ele><time>2018-05-01T22:05:20Z</time></trkpt>
<trkpt lat="49.235107" lon="7.558459"><ele>371.2</ele><time>2018-05-01T22:05:22Z</time></trkpt>
<trkpt lat="49.235432" lon="7.558703"><ele>371.2</ele><time>2018-05-01T22:05:26Z</time></trkpt>
<trkpt lat="49.235727" lon="7.558879"><ele>371.2</ele><time>2018-05-01T22:05:28Z</time></trkpt>
<trkpt lat="49.236205" lon="7.559034"><ele>365.6</ele><time>2018-05-01T22:05:33Z</time></trkpt>
<trkpt lat="49.236449" lon="7.559025"><ele>365.6</ele><time>2018-05-01T22:05:35Z</time></trkpt>
<trkpt lat="49.23674" lon="7.558948"><ele>366.2</ele><time>2018-05-01T22:05:38Z</time></trkpt>
<trkpt lat="49.23699" lon="7.558828"><ele>366.2</ele><time>2018-05-01T22:05:40Z</time></trkpt>
<trkpt lat="49.237197" lon="7.558661"><ele>366.2</ele><time>2018-05-01T22:05:43Z</time></trkpt>
<trkpt lat="49.237687" lon="7.558189"><ele>370.6</ele><time>2018-05-01T22:05:48Z</time></trkpt>
<trkpt lat="49.237893" lon="7.558029"><ele>370.6</ele><time>2018-05-01T22:05:50Z</time></trkpt>
<trkpt lat="49.238109" lon="7.557917"><ele>370.6</ele><time>2018-05-01T22:05:52Z</time></trkpt>
<trkpt lat="49.238265" lon="7.557949"><ele>370.6</ele><time>2018-05-01T22:05:54Z</time></trkpt>
<trkpt lat="49.238366" lon="7.55879"><ele>376.4</ele><time>2018-05-01T22:05:57Z</time></trkpt>
<trkpt lat="49.238754" lon="7.558646"><ele>376.4</ele><time>2018-05-01T22:06:00Z</time></trkpt>
<trkpt lat="49.239054" lon="7.558631"><ele>376.4</ele><time>2018-05-01T22:06:03Z</time></trkpt>
<trkpt lat="49.23946" lon="7.558737"><ele>377.8</ele><time>2018-05-01T22:06:06Z</time></trkpt>
<trkpt lat="49.239926" lon="7.558992"><ele>377.8</ele><time>2018-05-01T22:06:10Z</time></trkpt>
<trkpt lat="49.240451" lon="7.559447"><ele>377.6</ele><time>2018-05-01T22:06:15Z</time></trkpt>
<trkpt lat="49.240979" lon="7.559981"><ele>374.6</ele><time>2018-05-01T22:06:20Z</time></trkpt>
<trkpt lat="49.241346" lon="7.560253"><ele>376.8</ele><time>2018-05-01T22:06:23Z</time></trkpt>
<trkpt lat="49.241663" lon="7.560446"><ele>376.8</ele><time>2018-05-01T22:06:26Z</time></trkpt>
<trkpt lat="49.2422" lon="7.560607"><ele>374.4</ele><time>2018-05-01T22:06:31Z</time></trkpt>
<trkpt lat="49.243035" lon="7.560762"><ele>371.4</ele><time>2018-05-01T22:06:37Z</time></trkpt>
<trkpt lat="49.243291" lon="7.560833"><ele>371.4</ele><time>2018-05-01T22:06:39Z</time></trkpt>
<trkpt lat="49.243543" lon="7.560934"><ele>369.6</ele><time>2018-05-01T22:06:42Z</time></trkpt>
<trkpt lat="49.244028" lon="7.561206"><ele>369.6</ele><time>2018-05-01T22:06:46Z</time></trkpt>
<trkpt lat="49.248302" lon="7.564453"><ele>358.6</ele><time>2018-05-01T22:07:24Z</time></trkpt>
<trkpt lat="49.249125" lon="7.565119"><ele>358.8</ele><time>2018-05-01T22:07:32Z</time></trkpt>
<trkpt lat="49.249978" lon="7.566636"><ele>359.4</ele><time>2018-05-01T22:07:42Z</time></trkpt>
<trkpt lat="49.250233" lon="7.567219"><ele>359.2</ele><time>2018-05-01T22:07:46Z</time></trkpt>
<trkpt lat="49.250868" lon="7.56891"><ele>353.8</ele><time>2018-05-01T22:07:56Z</time></trkpt>
<trkpt lat="49.251369" lon="7.570325"><ele>342.8</ele><time>2018-05-01T22:08:05Z</time></trkpt>
<trkpt lat="49.25188" lon="7.5712"><ele>338.0</ele><time>2018-05-01T22:08:11Z</time></trkpt>
<trkpt lat="49.252047" lon="7.571446"><ele>338.0</ele><time>2018-05-01T22:08:13Z</time></trkpt>
<trkpt lat="49.25223" lon="7.571688"><ele>328.8</ele><time>2018-05-01T22:08:15Z</time></trkpt>
<trkpt lat="49.252421" lon="7.571771"><ele>328.8</ele><time>2018-05-01T22:08:17Z</time></trkpt>
<trkpt lat="49.252601" lon="7.571724"><ele>327.8</ele><time>2018-05-01T22:08:18Z</time></trkpt>
<trkpt lat="49.252987" lon="7.571439"><ele>338.0</ele><time>2018-05-01T22:08:22Z</time></trkpt>
<trkpt lat="49.253152" lon="7.571398"><ele>338.0</ele><time>2018-05-01T22:08:23Z</time></trkpt>
<trkpt lat="49.253409" lon="7.571454"><ele>339.4</ele><time>2018-05-01T22:08:25Z</time></trkpt>
<trkpt lat="49.253675" lon="7.571723"><ele>331.6</ele><time>2018-05-01T22:08:28Z</time></trkpt>
<trkpt lat="49.253872" lon="7.572015"><ele>331.6</ele><time>2018-05-01T22:08:30Z</time></trkpt>
<trkpt lat="49.254054" lon="7.572482"><ele>331.6</ele><time>2018-05-01T22:08:33Z</time></trkpt>
<trkpt lat="49.25418" lon="7.572958"><ele>322.0</ele><time>2018-05-01T22:08:36Z</time></trkpt>
<trkpt lat="49.254593" lon="7.575327"><ele>297.6</ele><time>2018-05-01T22:08:49Z</time></trkpt>
<trkpt lat="49.254662" lon="7.575588"><ele>297.6</ele><time>2018-05-01T22:08:50Z</time></trkpt>
<trkpt lat="49.254775" lon="7.575751"><ele>297.6</ele><time>2018-05-01T22:08:51Z</time></trkpt>
<trkpt lat="49.254942" lon="7.575838"><ele>297.0</ele><time>2018-05-01T22:08:53Z</time></trkpt>
<trkpt lat="49.255133" lon="7.575785"><ele>286.0</ele><time>2018-05-01T22:08:55Z</time></trkpt>
<trkpt lat="49.25526" lon="7.575596"><ele>286.0</ele><time>2018-05-01T22:08:56Z</time></trkpt>
<trkpt lat="49.255324" lon="7.575329"><ele>286.0</ele><time>2018-05-01T22:08:58Z</time></trkpt>
<trkpt lat="49.255298" lon="7.574375"><ele>289.6</ele><time>2018-05-01T22:09:03Z</time></trkpt>
<trkpt lat="49.255352" lon="7.574116"><ele>298.8</ele><time>2018-05-01T22:09:04Z</time></trkpt>
<trkpt lat="49.255469" lon="7.57378"><ele>298.8</ele><time>2018-05-01T22:09:06Z</time></trkpt>
<trkpt lat="49.255573" lon="7.573585"><ele>298.8</ele><time>2018-05-01T22:09:08Z</time></trkpt>
<trkpt lat="49.255744" lon="7.573465"><ele>298.8</ele><time>2018-05-01T22:09:09Z</time></trkpt>
<trkpt lat="49.25591" lon="7.573438"><ele>295.0</ele><time>2018-05-01T22:09:10Z</time></trkpt>
<trkpt lat="49.256073" lon="7.573516"><ele>295.0</ele><time>2018-05-01T22:09:12Z</time></trkpt>
<trkpt lat="49.256245" lon="7.57368"><ele>295.0</ele><time>2018-05-01T22:09:13Z</time></trkpt>
<trkpt lat="49.256813" lon="7.575104"><ele>275.6</ele><time>2018-05-01T22:09:22Z</time></trkpt>
<trkpt lat="49.258" lon="7.577989"><ele>257.8</ele><time>2018-05-01T22:09:40Z</time></trkpt>
<trkpt lat="49.258108" lon="7.578216"><ele>257.8</ele><time>2018-05-01T22:09:42Z</time></trkpt>
<trkpt lat="49.258277" lon="7.578393"><ele>257.8</ele><time>2018-05-01T22:09:44Z</time></trkpt>
<trkpt lat="49.258553" lon="7.578513"><ele>249.4</ele><time>2018-05-01T22:09:46Z</time></trkpt>
<trkpt lat="49.25941" lon="7.57861"><ele>244.2</ele><time>2018-05-01T22:09:53Z</time></trkpt>
<trkpt lat="49.259898" lon="7.578726"><ele>244.2</ele><time>2018-05-01T22:09:57Z</time></trkpt>
<trkpt lat="49.260075" lon="7.578835"><ele>241.8</ele><time>2018-05-01T22:09:58Z</time></trkpt>
<trkpt lat="49.260722" lon="7.57955"><ele>241.6</ele><time>2018-05-01T22:10:05Z</time></trkpt>
<trkpt lat="49.260945" lon="7.579773"><ele>243.0</ele><time>2018-05-01T22:10:07Z</time></trkpt>
<trkpt lat="49.261573" lon="7.580186"><ele>244.2</ele><time>2018-05-01T22:10:13Z</time></trkpt>
<trkpt lat="49.261707" lon="7.58033"><ele>251.2</ele><time>2018-05-01T22:10:14Z</time></trkpt>
<trkpt lat="49.26169" lon="7.580376"><ele>251.2</ele><time>2018-05-01T22:10:14Z</time></trkpt>
<trkpt lat="49.261695" lon="7.580466"><ele>251.2</ele><time>2018-05-01T22:10:15Z</time></trkpt>
<trkpt lat="49.261714" lon="7.580502"><ele>251.2</ele><time>2018-05-01T22:10:15Z</time></trkpt>
<trkpt lat="49.261771" lon="7.58053"><ele>251.2</ele><time>2018-05-01T22:10:15Z</time></trkpt>
<trkpt lat="49.261799" lon="7.580517"><ele>251.2</ele><time>2018-05-01T22:10:16Z</time></trkpt>
<trkpt lat="49.261813" lon="7.580619"><ele>251.2</ele><time>2018-05-01T22:10:16Z</time></trkpt>
<trkpt lat="49.26162" lon="7.581515"><ele>246.6</ele><time>2018-05-01T22:10:20Z</time></trkpt>
<trkpt lat="49.261512" lon="7.58264"><ele>252.0</ele><time>2018-05-01T22:10:25Z</time></trkpt>
<trkpt lat="49.261488" lon="7.583286"><ele>252.0</ele><time>2018-05-01T22:10:28Z</time></trkpt>
<trkpt lat="49.261513" lon="7.584736"><ele>256.2</ele><time>2018-05-01T22:10:34Z</time></trkpt>
<trkpt lat="49.261575" lon="7.58542"><ele>256.8</ele><time>2018-05-01T22:10:37Z</time></trkpt>
<trkpt lat="49.261703" lon="7.586256"><ele>272.6</ele><time>2018-05-01T22:10:41Z</time></trkpt>
<trkpt lat="49.261846" lon="7.587031"><ele>266.6</ele><time>2018-05-01T22:10:45Z</time></trkpt>
<trkpt lat="49.26198" lon="7.587569"><ele>259.6</ele><time>2018-05-01T22:10:47Z</time></trkpt>
<trkpt lat="49.262206" lon="7.588096"><ele>259.6</ele><time>2018-05-01T22:10:50Z</time></trkpt>
<trkpt lat="49.263083" lon="7.589725"><ele>270.4</ele><time>2018-05-01T22:10:59Z</time></trkpt>
<trkpt lat="49.263345" lon="7.590124"><ele>272.6</ele><time>2018-05-01T22:11:02Z</time></trkpt>
<trkpt lat="49.263595" lon="7.590372"><ele>272.6</ele><time>2018-05-01T22:11:04Z</time></trkpt>
<trkpt lat="49.263907" lon="7.590585"><ele>272.6</ele><time>2018-05-01T22:11:06Z</time></trkpt>
<trkpt lat="49.264173" lon="7.590642"><ele>279.4</ele><time>2018-05-01T22:11:08Z</time></trkpt>
<trkpt lat="49.265028" lon="7.590628"><ele>283.4</ele><time>2018-05-01T22:11:13Z</time></trkpt>
<trkpt lat="49.26555" lon="7.590703"><ele>283.4</ele><time>2018-05-01T22:11:17Z</time></trkpt>
<trkpt lat="49.266193" lon="7.590999"><ele>274.2</ele><time>2018-05-01T22:11:21Z</time></trkpt>
<trkpt lat="49.266691" lon="7.59129"><ele>292.0</ele><time>2018-05-01T22:11:25Z</time></trkpt>
<trkpt lat="49.267146" lon="7.591603"><ele>292.0</ele><time>2018-05-01T22:11:28Z</time></trkpt>
<trkpt lat="49.267555" lon="7.592073"><ele>298.8</ele><time>2018-05-01T22:11:32Z</time></trkpt>
<trkpt lat="49.268067" lon="7.59277"><ele>282.0</ele><time>2018-05-01T22:11:37Z</time></trkpt>
<trkpt lat="49.26846" lon="7.59342"><ele>299.0</ele><time>2018-05-01T22:11:41Z</time></trkpt>
<trkpt lat="49.268897" lon="7.5944"><ele>279.8</ele><time>2018-05-01T22:11:46Z</time></trkpt>
<trkpt lat="49.269007" lon="7.594808"><ele>279.8</ele><time>2018-05-01T22:11:48Z</time></trkpt>
<trkpt lat="49.269028" lon="7.595023"><ele>265.2</ele><time>2018-05-01T22:11:49Z</time></trkpt>
<trkpt lat="49.269035" lon="7.595316"><ele>265.2</ele><time>2018-05-01T22:11:50Z</time></trkpt>
<trkpt lat="49.269013" lon="7.59556"><ele>265.2</ele><time>2018-05-01T22:11:51Z</time></trkpt>
<trkpt lat="49.268973" lon="7.59577"><ele>265.2</ele><time>2018-05-01T22:11:52Z</time></trkpt>
<trkpt lat="49.26891" lon="7.595996"><ele>260.8</ele><time>2018-05-01T22:11:54Z</time></trkpt>
<trkpt lat="49.268759" lon="7.596309"><ele>260.8</ele><time>2018-05-01T22:11:55Z</time></trkpt>
<trkpt lat="49.268542" lon="7.596401"><ele>260.8</ele><time>2018-05-01T22:11:57Z</time></trkpt>
<trkpt lat="49.268446" lon="7.596471"><ele>260.8</ele><time>2018-05-01T22:11:59Z</time></trkpt>
<trkpt lat="49.268467" lon="7.596529"><ele>260.8</ele><time>2018-05-01T22:11:59Z</time></trkpt>
<trkpt lat="49.268588" lon="7.596951"><ele>268.2</ele><time>2018-05-01T22:12:02Z</time></trkpt>
<trkpt lat="49.268682" lon="7.597495"><ele>268.2</ele><time>2018-05-01T22:12:05Z</time></trkpt>
<trkpt lat="49.268701" lon="7.597787"><ele>277.4</ele><time>2018-05-01T22:12:07Z</time></trkpt>
<trkpt lat="49.268697" lon="7.598284"><ele>277.4</ele><time>2018-05-01T22:12:09Z</time></trkpt>
<trkpt lat="49.268598" lon="7.599075"><ele>284.4</ele><time>2018-05-01T22:12:14Z</time></trkpt>
<trkpt lat="49.26853" lon="7.599348"><ele>286.4</ele><time>2018-05-01T22:12:15Z</time></trkpt>
<trkpt lat="49.268245" lon="7.600236"><ele>260.2</ele><time>2018-05-01T22:12:21Z</time></trkpt>
<trkpt lat="49.267996" lon="7.600774"><ele>260.2</ele><time>2018-05-01T22:12:24Z</time></trkpt>
<trkpt lat="49.267552" lon="7.601519"><ele>273.0</ele><time>2018-05-01T22:12:30Z</time></trkpt>
<trkpt lat="49.267194" lon="7.60204"><ele>272.6</ele><time>2018-05-01T22:12:34Z</time></trkpt>
<trkpt lat="49.266564" lon="7.602762"><ele>263.6</ele><time>2018-05-01T22:12:40Z</time></trkpt>
<trkpt lat="49.266265" lon="7.603024"><ele>263.6</ele><time>2018-05-01T22:12:43Z</time></trkpt>
<trkpt lat="49.265086" lon="7.603953"><ele>257.0</ele><time>2018-05-01T22:12:54Z</time></trkpt>
<trkpt lat="49.264885" lon="7.604236"><ele>254.4</ele><time>2018-05-01T22:12:56Z</time></trkpt>
<trkpt lat="49.264807" lon="7.604381"><ele>254.4</ele><time>2018-05-01T22:12:57Z</time></trkpt>
<trkpt lat="49.264728" lon="7.604582"><ele>254.4</ele><time>2018-05-01T22:12:58Z</time></trkpt>
<trkpt lat="49.26463" lon="7.604997"><ele>254.4</ele><time>2018-05-01T22:13:01Z</time></trkpt>
<trkpt lat="49.264511" lon="7.605743"><ele>262.4</ele><time>2018-05-01T22:13:05Z</time></trkpt>
<trkpt lat="49.264462" lon="7.605862"><ele>262.6</ele><time>2018-05-01T22:13:06Z</time></trkpt>
<trkpt lat="49.263863" lon="7.606917"><ele>245.0</ele><time>2018-05-01T22:13:13Z</time></trkpt>
<trkpt lat="49.263783" lon="7.6071"><ele>245.0</ele><time>2018-05-01T22:13:14Z</time></trkpt>
<trkpt lat="49.263746" lon="7.607262"><ele>245.0</ele><time>2018-05-01T22:13:15Z</time></trkpt>
<trkpt lat="49.263729" lon="7.607548"><ele>244.2</ele><time>2018-05-01T22:13:18Z</time></trkpt>
<trkpt lat="49.264211" lon="7.607563"><ele>247.4</ele><time>2018-05-01T22:13:21Z</time></trkpt>
<trkpt lat="49.264547" lon="7.607653"><ele>247.4</ele><time>2018-05-01T22:13:23Z</time></trkpt>
<trkpt lat="49.264814" lon="7.607842"><ele>247.4</ele><time>2018-05-01T22:13:25Z</time></trkpt>
<trkpt lat="49.265096" lon="7.608091"><ele>251.8</ele><time>2018-05-01T22:13:27Z</time></trkpt>
<trkpt lat="49.26532" lon="7.608392"><ele>245.2</ele><time>2018-05-01T22:13:29Z</time></trkpt>
<trkpt lat="49.265684" lon="7.609096"><ele>245.2</ele><time>2018-05-01T22:13:32Z</time></trkpt>
<trkpt lat="49.266055" lon="7.609927"><ele>243.2</ele><time>2018-05-01T22:13:36Z</time></trkpt>
<trkpt lat="49.266177" lon="7.610151"><ele>244.0</ele><time>2018-05-01T22:13:37Z</time></trkpt>
<trkpt lat="49.266636" lon="7.610769"><ele>244.0</ele><time>2018-05-01T22:13:41Z</time></trkpt>
<trkpt lat="49.267454" lon="7.611782"><ele>253.0</ele><time>2018-05-01T22:13:47Z</time></trkpt>
<trkpt lat="49.267712" lon="7.612215"><ele>246.0</ele><time>2018-05-01T22:13:50Z</time></trkpt>
<trkpt lat="49.267947" lon="7.612672"><ele>249.6</ele><time>2018-05-01T22:13:52Z</time></trkpt>
<trkpt lat="49.268226" lon="7.613546"><ele>257.4</ele><time>2018-05-01T22:13:56Z</time></trkpt>
<trkpt lat="49.268664" lon="7.615104"><ele>249.8</ele><time>2018-05-01T22:14:03Z</time></trkpt>
<trkpt lat="49.268977" lon="7.616116"><ele>254.8</ele><time>2018-05-01T22:14:07Z</time></trkpt>
<trkpt lat="49.269314" lon="7.617069"><ele>245.6</ele><time>2018-05-01T22:14:11Z</time></trkpt>
<trkpt lat="49.269784" lon="7.618202"><ele>250.6</ele><time>2018-05-01T22:14:17Z</time></trkpt>
<trkpt lat="49.270282" lon="7.619155"><ele>246.4</ele><time>2018-05-01T22:14:21Z</time></trkpt>
<trkpt lat="49.27103" lon="7.620388"><ele>246.6</ele><time>2018-05-01T22:14:28Z</time></trkpt>
<trkpt lat="49.272332" lon="7.622099"><ele>256.2</ele><time>2018-05-01T22:14:38Z</time></trkpt>
<trkpt lat="49.27261" lon="7.622578"><ele>251.0</ele><time>2018-05-01T22:14:41Z</time></trkpt>
<trkpt lat="49.272869" lon="7.623087"><ele>251.0</ele><time>2018-05-01T22:14:43Z</time></trkpt>
<trkpt lat="49.273059" lon="7.62356"><ele>256.2</ele><time>2018-05-01T22:14:46Z</time></trkpt>
<trkpt lat="49.273222" lon="7.624058"><ele>256.2</ele><time>2018-05-01T22:14:48Z</time></trkpt>
<trkpt lat="49.273352" lon="7.624565"><ele>251.0</ele><time>2018-05-01T22:14:50Z</time></trkpt>
<trkpt lat="49.273467" lon="7.62514"><ele>253.2</ele><time>2018-05-01T22:14:52Z</time></trkpt>
<trkpt lat="49.273587" lon="7.62612"><ele>255.2</ele><time>2018-05-01T22:14:56Z</time></trkpt>
<trkpt lat="49.273684" lon="7.628275"><ele>257.2</ele><time>2018-05-01T22:15:05Z</time></trkpt>
<trkpt lat="49.273725" lon="7.629696"><ele>254.6</ele><time>2018-05-01T22:15:10Z</time></trkpt>
<trkpt lat="49.273809" lon="7.630312"><ele>255.2</ele><time>2018-05-01T22:15:13Z</time></trkpt>
<trkpt lat="49.273941" lon="7.630891"><ele>260.0</ele><time>2018-05-01T22:15:15Z</time></trkpt>
<trkpt lat="49.274129" lon="7.631503"><ele>260.0</ele><time>2018-05-01T22:15:18Z</time></trkpt>
<trkpt lat="49.274624" lon="7.632435"><ele>254.8</ele><time>2018-05-01T22:15:23Z</time></trkpt>
<trkpt lat="49.274624" lon="7.632435"><ele>254.8</ele><time>2018-05-01T22:15:23Z</time></trkpt>
<trkpt lat="49.275158" lon="7.633041"><ele>248.6</ele><time>2018-05-01T22:15:27Z</time></trkpt>
<trkpt lat="49.275707" lon="7.633393"><ele>262.2</ele><time>2018-05-01T22:15:30Z</time></trkpt>
<trkpt lat="49.276157" lon="7.633574"><ele>258.0</ele><time>2018-05-01T22:15:33Z</time></trkpt>
<trkpt lat="49.27647" lon="7.633609"><ele>258.0</ele><time>2018-05-01T22:15:35Z</time></trkpt>
<trkpt lat="49.277003" lon="7.633515"><ele>260.4</ele><time>2018-05-01T22:15:38Z</time></trkpt>
<trkpt lat="49.277279" lon="7.633392"><ele>260.4</ele><time>2018-05-01T22:15:40Z</time></trkpt>
<trkpt lat="49.278179" lon="7.632812"><ele>255.2</ele><time>2018-05-01T22:15:46Z</time></trkpt>
<trkpt lat="49.278785" lon="7.63247"><ele>251.0</ele><time>2018-05-01T22:15:50Z</time></trkpt>
<trkpt lat="49.279118" lon="7.632378"><ele>251.0</ele><time>2018-05-01T22:15:52Z</time></trkpt>
<trkpt lat="49.279472" lon="7.632337"><ele>250.0</ele><time>2018-05-01T22:15:54Z</time></trkpt>
<trkpt lat="49.279806" lon="7.632387"><ele>250.0</ele><time>2018-05-01T22:15:56Z</time></trkpt>
<trkpt lat="49.280139" lon="7.632485"><ele>248.6</ele><time>2018-05-01T22:15:58Z</time></trkpt>
<trkpt lat="49.280556" lon="7.632746"><ele>252.6</ele><time>2018-05-01T22:16:01Z</time></trkpt>
<trkpt lat="49.280881" lon="7.63306"><ele>247.8</ele><time>2018-05-01T22:16:03Z</time></trkpt>
<trkpt lat="49.28119" lon="7.633436"><ele>249.8</ele><time>2018-05-01T22:16:05Z</time></trkpt>
<trkpt lat="49.28152" lon="7.634095"><ele>249.8</ele><time>2018-05-01T22:16:09Z</time></trkpt>
<trkpt lat="49.281695" lon="7.634616"><ele>248.0</ele><time>2018-05-01T22:16:11Z</time></trkpt>
<trkpt lat="49.281825" lon="7.63517"><ele>248.8</ele><time>2018-05-01T22:16:13Z</time></trkpt>
<trkpt lat="49.281865" lon="7.635418"><ele>248.8</ele><time>2018-05-01T22:16:14Z</time></trkpt>
<trkpt lat="49.281881" lon="7.635635"><ele>248.8</ele><time>2018-05-01T22:16:15Z</time></trkpt>
<trkpt lat="49.281884" lon="7.636598"><ele>250.6</ele><time>2018-05-01T22:16:19Z</time></trkpt>
<trkpt lat="49.281807" lon="7.637952"><ele>257.8</ele><time>2018-05-01T22:16:24Z</time></trkpt>
<trkpt lat="49.28183" lon="7.639143"><ele>261.4</ele><time>2018-05-01T22:16:29Z</time></trkpt>
<trkpt lat="49.28192" lon="7.639839"><ele>263.2</ele><time>2018-05-01T22:16:32Z</time></trkpt>
<trkpt lat="49.282082" lon="7.640594"><ele>263.8</ele><time>2018-05-01T22:16:35Z</time></trkpt>
<trkpt lat="49.282339" lon="7.641289"><ele>265.2</ele><time>2018-05-01T22:16:38Z</time></trkpt>
<trkpt lat="49.282703" lon="7.642019"><ele>268.8</ele><time>2018-05-01T22:16:42Z</time></trkpt>
<trkpt lat="49.283347" lon="7.642808"><ele>269.4</ele><time>2018-05-01T22:16:47Z</time></trkpt>
<trkpt lat="49.285006" lon="7.644433"><ele>272.0</ele><time>2018-05-01T22:16:58Z</time></trkpt>
<trkpt lat="49.285607" lon="7.645164"><ele>276.4</ele><time>2018-05-01T22:17:03Z</time></trkpt>
<trkpt lat="49.286326" lon="7.646147"><ele>278.0</ele><time>2018-05-01T22:17:09Z</time></trkpt>
<trkpt lat="49.287543" lon="7.648491"><ele>285.6</ele><time>2018-05-01T22:17:20Z</time></trkpt>
<trkpt lat="49.289617" lon="7.653126"><ele>289.8</ele><time>2018-05-01T22:17:43Z</time></trkpt>
<trkpt lat="49.290349" lon="7.654268"><ele>278.8</ele><time>2018-05-01T22:17:49Z</time></trkpt>
<trkpt lat="49.290916" lon="7.654994"><ele>287.4</ele><time>2018-05-01T22:17:53Z</time></trkpt>
<trkpt lat="49.291542" lon="7.655652"><ele>278.6</ele><time>2018-05-01T22:17:58Z</time></trkpt>
<trkpt lat="49.291974" lon="7.656008"><ele>288.8</ele><time>2018-05-01T22:18:01Z</time></trkpt>
<trkpt lat="49.293756" lon="7.657271"><ele>319.0</ele><time>2018-05-01T22:18:13Z</time></trkpt>
<trkpt lat="49.294195" lon="7.657705"><ele>316.4</ele><time>2018-05-01T22:18:16Z</time></trkpt>
<trkpt lat="49.294541" lon="7.658157"><ele>316.4</ele><time>2018-05-01T22:18:19Z</time></trkpt>
<trkpt lat="49.29486" lon="7.658729"><ele>293.0</ele><time>2018-05-01T22:18:22Z</time></trkpt>
<trkpt lat="49.295003" lon="7.65908"><ele>314.6</ele><time>2018-05-01T22:18:24Z</time></trkpt>
<trkpt lat="49.295212" lon="7.659668"><ele>298.4</ele><time>2018-05-01T22:18:27Z</time></trkpt>
<trkpt lat="49.295397" lon="7.660374"><ele>286.8</ele><time>2018-05-01T22:18:30Z</time></trkpt>
<trkpt lat="49.295583" lon="7.660973"><ele>278.4</ele><time>2018-05-01T22:18:32Z</time></trkpt>
<trkpt lat="49.295701" lon="7.661277"><ele>278.4</ele><time>2018-05-01T22:18:34Z</time></trkpt>
<trkpt lat="49.295953" lon="7.661725"><ele>284.6</ele><time>2018-05-01T22:18:36Z</time></trkpt>
<trkpt lat="49.296295" lon="7.662168"><ele>284.6</ele><time>2018-05-01T22:18:39Z</time></trkpt>
<trkpt lat="49.296621" lon="7.662456"><ele>284.6</ele><time>2018-05-01T22:18:41Z</time></trkpt>
<trkpt lat="49.297038" lon="7.662679"><ele>280.0</ele><time>2018-05-01T22:18:44Z</time></trkpt>
<trkpt lat="49.297499" lon="7.662767"><ele>280.0</ele><time>2018-05-01T22:18:46Z</time></trkpt>
<trkpt lat="49.297766" lon="7.662744"><ele>277.6</ele><time>2018-05-01T22:18:48Z</time></trkpt>
<trkpt lat="49.298177" lon="7.662637"><ele>277.6</ele><time>2018-05-01T22:18:51Z</time></trkpt>
<trkpt lat="49.298443" lon="7.662475"><ele>274.2</ele><time>2018-05-01T22:18:52Z</time></trkpt>
<trkpt lat="49.298722" lon="7.662265"><ele>274.2</ele><time>2018-05-01T22:18:54Z</time></trkpt>
<trkpt lat="49.299524" lon="7.661404"><ele>268.4</ele><time>2018-05-01T22:19:00Z</time></trkpt>
<trkpt lat="49.29989" lon="7.661076"><ele>268.4</ele><time>2018-05-01T22:19:03Z</time></trkpt>
<trkpt lat="49.300177" lon="7.660887"><ele>267.4</ele><time>2018-05-01T22:19:04Z</time></trkpt>
<trkpt lat="49.300521" lon="7.66072"><ele>267.2</ele><time>2018-05-01T22:19:07Z</time></trkpt>
<trkpt lat="49.300809" lon="7.660625"><ele>267.2</ele><time>2018-05-01T22:19:08Z</time></trkpt>
<trkpt lat="49.30109" lon="7.660583"><ele>269.0</ele><time>2018-05-01T22:19:10Z</time></trkpt>
<trkpt lat="49.301659" lon="7.660589"><ele>269.0</ele><time>2018-05-01T22:19:14Z</time></trkpt>
<trkpt lat="49.301926" lon="7.660631"><ele>274.2</ele><time>2018-05-01T22:19:15Z</time></trkpt>
<trkpt lat="49.302129" lon="7.660703"><ele>274.2</ele><time>2018-05-01T22:19:16Z</time></trkpt>
<trkpt lat="49.302778" lon="7.660999"><ele>270.2</ele><time>2018-05-01T22:19:20Z</time></trkpt>
<trkpt lat="49.304972" lon="7.662138"><ele>274.8</ele><time>2018-05-01T22:19:34Z</time></trkpt>
<trkpt lat="49.305718" lon="7.662775"><ele>272.4</ele><time>2018-05-01T22:19:40Z</time></trkpt>
<trkpt lat="49.306326" lon="7.66342"><ele>274.2</ele><time>2018-05-01T22:19:44Z</time></trkpt>
<trkpt lat="49.30688" lon="7.664146"><ele>280.6</ele><time>2018-05-01T22:19:48Z</time></trkpt>
<trkpt lat="49.308162" lon="7.666034"><ele>279.6</ele><time>2018-05-01T22:19:59Z</time></trkpt>
<trkpt lat="49.309442" lon="7.667587"><ele>286.8</ele><time>2018-05-01T22:20:09Z</time></trkpt>
<trkpt lat="49.310192" lon="7.668261"><ele>285.6</ele><time>2018-05-01T22:20:14Z</time></trkpt>
<trkpt lat="49.310687" lon="7.668527"><ele>292.4</ele><time>2018-05-01T22:20:17Z</time></trkpt>
<trkpt lat="49.311141" lon="7.668666"><ele>291.0</ele><time>2018-05-01T22:20:20Z</time></trkpt>
<trkpt lat="49.311619" lon="7.66869"><ele>291.0</ele><time>2018-05-01T22:20:23Z</time></trkpt>
<trkpt lat="49.31214" lon="7.668524"><ele>295.4</ele><time>2018-05-01T22:20:26Z</time></trkpt>
<trkpt lat="49.312633" lon="7.66821"><ele>304.0</ele><time>2018-05-01T22:20:29Z</time></trkpt>
<trkpt lat="49.313" lon="7.667816"><ele>304.0</ele><time>2018-05-01T22:20:32Z</time></trkpt>
<trkpt lat="49.313324" lon="7.667301"><ele>296.6</ele><time>2018-05-01T22:20:35Z</time></trkpt>
<trkpt lat="49.313577" lon="7.666756"><ele>321.0</ele><time>2018-05-01T22:20:38Z</time></trkpt>
<trkpt lat="49.313759" lon="7.666121"><ele>310.2</ele><time>2018-05-01T22:20:41Z</time></trkpt>
<trkpt lat="49.313899" lon="7.665327"><ele>297.6</ele><time>2018-05-01T22:20:44Z</time></trkpt>
<trkpt lat="49.313985" lon="7.664597"><ele>287.2</ele><time>2018-05-01T22:20:47Z</time></trkpt>
<trkpt lat="49.314042" lon="7.6635"><ele>285.6</ele><time>2018-05-01T22:20:51Z</time></trkpt>
<trkpt lat="49.314025" lon="7.662618"><ele>286.0</ele><time>2018-05-01T22:20:55Z</time></trkpt>
<trkpt lat="49.313962" lon="7.661802"><ele>284.6</ele><time>2018-05-01T22:20:58Z</time></trkpt>
<trkpt lat="49.313792" lon="7.660649"><ele>284.8</ele><time>2018-05-01T22:21:02Z</time></trkpt>
<trkpt lat="49.313397" lon="7.658788"><ele>295.2</ele><time>2018-05-01T22:21:10Z</time></trkpt>
<trkpt lat="49.313287" lon="7.658149"><ele>279.4</ele><time>2018-05-01T22:21:13Z</time></trkpt>
<trkpt lat="49.313207" lon="7.65747"><ele>283.4</ele><time>2018-05-01T22:21:16Z</time></trkpt>
<trkpt lat="49.313198" lon="7.65656"><ele>285.4</ele><time>2018-05-01T22:21:19Z</time></trkpt>
<trkpt lat="49.313332" lon="7.655719"><ele>284.8</ele><time>2018-05-01T22:21:23Z</time></trkpt>
<trkpt lat="49.313462" lon="7.655265"><ele>309.8</ele><time>2018-05-01T22:21:25Z</time></trkpt>
<trkpt lat="49.313752" lon="7.654641"><ele>300.0</ele><time>2018-05-01T22:21:28Z</time></trkpt>
<trkpt lat="49.314143" lon="7.654037"><ele>286.4</ele><time>2018-05-01T22:21:31Z</time></trkpt>
<trkpt lat="49.314637" lon="7.653573"><ele>297.6</ele><time>2018-05-01T22:21:35Z</time></trkpt>
<trkpt lat="49.315076" lon="7.653349"><ele>299.6</ele><time>2018-05-01T22:21:38Z</time></trkpt>
<trkpt lat="49.315583" lon="7.653232"><ele>284.8</ele><time>2018-05-01T22:21:41Z</time></trkpt>
<trkpt lat="49.316367" lon="7.653276"><ele>283.0</ele><time>2018-05-01T22:21:46Z</time></trkpt>
<trkpt lat="49.316711" lon="7.653359"><ele>286.6</ele><time>2018-05-01T22:21:48Z</time></trkpt>
<trkpt lat="49.317077" lon="7.653486"><ele>286.6</ele><time>2018-05-01T22:21:50Z</time></trkpt>
<trkpt lat="49.317428" lon="7.653674"><ele>286.6</ele><time>2018-05-01T22:21:52Z</time></trkpt>
<trkpt lat="49.318014" lon="7.654067"><ele>278.6</ele><time>2018-05-01T22:21:56Z</time></trkpt>
<trkpt lat="49.318429" lon="7.654466"><ele>278.0</ele><time>2018-05-01T22:21:59Z</time></trkpt>
<trkpt lat="49.318882" lon="7.655022"><ele>284.6</ele><time>2018-05-01T22:22:02Z</time></trkpt>
<trkpt lat="49.319667" lon="7.65643"><ele>281.6</ele><time>2018-05-01T22:22:10Z</time></trkpt>
<trkpt lat="49.320227" lon="7.657492"><ele>279.8</ele><time>2018-05-01T22:22:15Z</time></trkpt>
<trkpt lat="49.322567" lon="7.662125"><ele>279.8</ele><time>2018-05-01T22:22:38Z</time></trkpt>
<trkpt lat="49.322847" lon="7.662886"><ele>283.0</ele><time>2018-05-01T22:22:41Z</time></trkpt>
<trkpt lat="49.323122" lon="7.663875"><ele>288.0</ele><time>2018-05-01T22:22:46Z</time></trkpt>
<trkpt lat="49.323535" lon="7.665871"><ele>280.4</ele><time>2018-05-01T22:22:54Z</time></trkpt>
<trkpt lat="49.323786" lon="7.666579"><ele>280.4</ele><time>2018-05-01T22:22:57Z</time></trkpt>
<trkpt lat="49.324357" lon="7.66765"><ele>280.8</ele><time>2018-05-01T22:23:02Z</time></trkpt>
<trkpt lat="49.325017" lon="7.668521"><ele>281.2</ele><time>2018-05-01T22:23:08Z</time></trkpt>
<trkpt lat="49.325583" lon="7.669145"><ele>281.2</ele><time>2018-05-01T22:23:12Z</time></trkpt>
<trkpt lat="49.326737" lon="7.670356"><ele>286.6</ele><time>2018-05-01T22:23:20Z</time></trkpt>
<trkpt lat="49.327702" lon="7.671311"><ele>288.2</ele><time>2018-05-01T22:23:27Z</time></trkpt>
<trkpt lat="49.328429" lon="7.671943"><ele>287.4</ele><time>2018-05-01T22:23:32Z</time></trkpt>
<trkpt lat="49.329014" lon="7.672403"><ele>287.4</ele><time>2018-05-01T22:23:36Z</time></trkpt>
<trkpt lat="49.329737" lon="7.672737"><ele>291.6</ele><time>2018-05-01T22:23:41Z</time></trkpt>
<trkpt lat="49.330175" lon="7.672885"><ele>291.2</ele><time>2018-05-01T22:23:43Z</time></trkpt>
<trkpt lat="49.330853" lon="7.672961"><ele>291.6</ele><time>2018-05-01T22:23:48Z</time></trkpt>
<trkpt lat="49.33138" lon="7.67293"><ele>291.6</ele><time>2018-05-01T22:23:51Z</time></trkpt>
<trkpt lat="49.331855" lon="7.672791"><ele>292.8</ele><time>2018-05-01T22:23:54Z</time></trkpt>
<trkpt lat="49.332317" lon="7.672598"><ele>292.8</ele><time>2018-05-01T22:23:56Z</time></trkpt>
<trkpt lat="49.332708" lon="7.672343"><ele>290.6</ele><time>2018-05-01T22:23:59Z</time></trkpt>
<trkpt lat="49.333715" lon="7.671547"><ele>294.2</ele><time>2018-05-01T22:24:06Z</time></trkpt>
<trkpt lat="49.334041" lon="7.671362"><ele>294.2</ele><time>2018-05-01T22:24:08Z</time></trkpt>
<trkpt lat="49.334489" lon="7.671255"><ele>300.0</ele><time>2018-05-01T22:24:11Z</time></trkpt>
<trkpt lat="49.337302" lon="7.671064"><ele>308.6</ele><time>2018-05-01T22:24:28Z</time></trkpt>
<trkpt lat="49.337921" lon="7.671062"><ele>306.4</ele><time>2018-05-01T22:24:31Z</time></trkpt>
<trkpt lat="49.338404" lon="7.671137"><ele>303.2</ele><time>2018-05-01T22:24:34Z</time></trkpt>
<trkpt lat="49.338921" lon="7.671351"><ele>303.2</ele><time>2018-05-01T22:24:37Z</time></trkpt>
<trkpt lat="49.339329" lon="7.671622"><ele>301.6</ele><time>2018-05-01T22:24:40Z</time></trkpt>
<trkpt lat="49.339788" lon="7.671973"><ele>306.6</ele><time>2018-05-01T22:24:43Z</time></trkpt>
<trkpt lat="49.34004" lon="7.672263"><ele>304.2</ele><time>2018-05-01T22:24:45Z</time></trkpt>
<trkpt lat="49.342192" lon="7.675398"><ele>311.4</ele><time>2018-05-01T22:25:03Z</time></trkpt>
<trkpt lat="49.342017" lon="7.675765"><ele>311.4</ele><time>2018-05-01T22:25:06Z</time></trkpt>
<trkpt lat="49.342003" lon="7.675962"><ele>315.2</ele><time>2018-05-01T22:25:07Z</time></trkpt>
<trkpt lat="49.342036" lon="7.676137"><ele>315.2</ele><time>2018-05-01T22:25:08Z</time></trkpt>
<trkpt lat="49.342489" lon="7.67728"><ele>321.4</ele><time>2018-05-01T22:25:14Z</time></trkpt>
<trkpt lat="49.342629" lon="7.677565"><ele>317.2</ele><time>2018-05-01T22:25:16Z</time></trkpt>
<trkpt lat="49.343776" lon="7.680227"><ele>325.4</ele><time>2018-05-01T22:25:32Z</time></trkpt>
<trkpt lat="49.344599" lon="7.68184"><ele>325.4</ele><time>2018-05-01T22:25:43Z</time></trkpt>
<trkpt lat="49.34489" lon="7.682362"><ele>325.4</ele><time>2018-05-01T22:25:46Z</time></trkpt>
<trkpt lat="49.345105" lon="7.68273"><ele>327.2</ele><time>2018-05-01T22:25:49Z</time></trkpt>
<trkpt lat="49.345537" lon="7.683228"><ele>327.2</ele><time>2018-05-01T22:25:53Z</time></trkpt>
<trkpt lat="49.346736" lon="7.684303"><ele>334.8</ele><time>2018-05-01T22:26:04Z</time></trkpt>
<trkpt lat="49.347459" lon="7.684775"><ele>334.8</ele><time>2018-05-01T22:26:10Z</time></trkpt>
<trkpt lat="49.347459" lon="7.684775"><ele>334.8</ele><time>2018-05-01T22:26:10Z</time></trkpt>
<trkpt lat="49.34746" lon="7.684776"><ele>334.8</ele><time>2018-05-01T22:26:10Z</time></trkpt>
<trkpt lat="49.347255" lon="7.68519"><ele>342.4</ele><time>2018-05-01T22:26:17Z</time></trkpt>
<trkpt lat="49.347029" lon="7.685555"><ele>342.4</ele><time>2018-05-01T22:26:24Z</time></trkpt>
<trkpt lat="49.347074" lon="7.685821"><ele>342.4</ele><time>2018-05-01T22:26:27Z</time></trkpt>
<trkpt lat="49.347193" lon="7.686241"><ele>349.2</ele><time>2018-05-01T22:26:33Z</time></trkpt>
<trkpt lat="49.346662" lon="7.68672"><ele>357.8</ele><time>2018-05-01T22:26:40Z</time></trkpt>
<trkpt lat="49.346557" lon="7.686846"><ele>357.8</ele><time>2018-05-01T22:26:42Z</time></trkpt>
<trkpt lat="49.34688" lon="7.687242"><ele>355.6</ele><time>2018-05-01T22:26:44Z</time></trkpt>
<trkpt lat="49.347569" lon="7.688031"><ele>359.8</ele><time>2018-05-01T22:26:50Z</time></trkpt>
<trkpt lat="49.348077" lon="7.688694"><ele>365.2</ele><time>2018-05-01T22:26:54Z</time></trkpt>
<trkpt lat="49.348454" lon="7.68912"><ele>363.6</ele><time>2018-05-01T22:26:57Z</time></trkpt>
<trkpt lat="49.348659" lon="7.689384"><ele>370.4</ele><time>2018-05-01T22:26:59Z</time></trkpt>
<trkpt lat="49.34894" lon="7.689922"><ele>370.4</ele><time>2018-05-01T22:27:02Z</time></trkpt>
<trkpt lat="49.349337" lon="7.690936"><ele>383.2</ele><time>2018-05-01T22:27:07Z</time></trkpt>
<trkpt lat="49.349673" lon="7.691913"><ele>388.8</ele><time>2018-05-01T22:27:11Z</time></trkpt>
<trkpt lat="49.349762" lon="7.692438"><ele>388.8</ele><time>2018-05-01T22:27:14Z</time></trkpt>
<trkpt lat="49.349783" lon="7.692845"><ele>394.2</ele><time>2018-05-01T22:27:15Z</time></trkpt>
<trkpt lat="49.349671" lon="7.693164"><ele>394.2</ele><time>2018-05-01T22:27:17Z</time></trkpt>
<trkpt lat="49.349524" lon="7.693358"><ele>398.2</ele><time>2018-05-01T22:27:18Z</time></trkpt>
<trkpt lat="49.348734" lon="7.693568"><ele>386.8</ele><time>2018-05-01T22:27:23Z</time></trkpt>
<trkpt lat="49.348492" lon="7.693749"><ele>386.8</ele><time>2018-05-01T22:27:25Z</time></trkpt>
<trkpt lat="49.348357" lon="7.694022"><ele>386.8</ele><time>2018-05-01T22:27:26Z</time></trkpt>
<trkpt lat="49.34829" lon="7.694319"><ele>386.4</ele><time>2018-05-01T22:27:28Z</time></trkpt>
<trkpt lat="49.348287" lon="7.694675"><ele>386.4</ele><time>2018-05-01T22:27:29Z</time></trkpt>
<trkpt lat="49.348611" lon="7.695919"><ele>399.8</ele><time>2018-05-01T22:27:35Z</time></trkpt>
<trkpt lat="49.34902" lon="7.697323"><ele>394.8</ele><time>2018-05-01T22:27:41Z</time></trkpt>
<trkpt lat="49.349023" lon="7.697643"><ele>390.0</ele><time>2018-05-01T22:27:43Z</time></trkpt>
<trkpt lat="49.34893" lon="7.697947"><ele>390.0</ele><time>2018-05-01T22:27:44Z</time></trkpt>
<trkpt lat="49.348786" lon="7.698106"><ele>390.0</ele><time>2018-05-01T22:27:45Z</time></trkpt>
<trkpt lat="49.347253" lon="7.699213"><ele>388.2</ele><time>2018-05-01T22:27:56Z</time></trkpt>
<trkpt lat="49.347121" lon="7.699462"><ele>388.2</ele><time>2018-05-01T22:27:57Z</time></trkpt>
<trkpt lat="49.346945" lon="7.700043"><ele>393.0</ele><time>2018-05-01T22:28:00Z</time></trkpt>
<trkpt lat="49.346744" lon="7.70042"><ele>393.0</ele><time>2018-05-01T22:28:02Z</time></trkpt>
<trkpt lat="49.346465" lon="7.700605"><ele>390.6</ele><time>2018-05-01T22:28:04Z</time></trkpt>
<trkpt lat="49.346162" lon="7.700734"><ele>390.6</ele><time>2018-05-01T22:28:06Z</time></trkpt>
<trkpt lat="49.345829" lon="7.700752"><ele>390.6</ele><time>2018-05-01T22:28:08Z</time></trkpt>
<trkpt lat="49.345281" lon="7.700447"><ele>390.6</ele><time>2018-05-01T22:28:12Z</time></trkpt>
<trkpt lat="49.345017" lon="7.700407"><ele>390.6</ele><time>2018-05-01T22:28:14Z</time></trkpt>
<trkpt lat="49.344787" lon="7.700574"><ele>390.6</ele><time>2018-05-01T22:28:15Z</time></trkpt>
<trkpt lat="49.344623" lon="7.700917"><ele>382.8</ele><time>2018-05-01T22:28:17Z</time></trkpt>
<trkpt lat="49.344604" lon="7.701093"><ele>382.8</ele><time>2018-05-01T22:28:18Z</time></trkpt>
<trkpt lat="49.344604" lon="7.70136"><ele>382.8</ele><time>2018-05-01T22:28:19Z</time></trkpt>
<trkpt lat="49.344804" lon="7.702056"><ele>375.4</ele><time>2018-05-01T22:28:22Z</time></trkpt>
<trkpt lat="49.345229" lon="7.702915"><ele>367.4</ele><time>2018-05-01T22:28:27Z</time></trkpt>
<trkpt lat="49.345764" lon="7.704057"><ele>360.0</ele><time>2018-05-01T22:28:33Z</time></trkpt>
<trkpt lat="49.345996" lon="7.705017"><ele>352.2</ele><time>2018-05-01T22:28:37Z</time></trkpt>
<trkpt lat="49.34617" lon="7.705365"><ele>352.2</ele><time>2018-05-01T22:28:39Z</time></trkpt>
<trkpt lat="49.346375" lon="7.705699"><ele>352.2</ele><time>2018-05-01T22:28:41Z</time></trkpt>
<trkpt lat="49.346884" lon="7.706406"><ele>355.6</ele><time>2018-05-01T22:28:45Z</time></trkpt>
<trkpt lat="49.346972" lon="7.706684"><ele>351.0</ele><time>2018-05-01T22:28:46Z</time></trkpt>
<trkpt lat="49.347062" lon="7.707117"><ele>351.0</ele><time>2018-05-01T22:28:48Z</time></trkpt>
<trkpt lat="49.347024" lon="7.707584"><ele>349.2</ele><time>2018-05-01T22:28:50Z</time></trkpt>
<trkpt lat="49.346868" lon="7.707999"><ele>349.2</ele><time>2018-05-01T22:28:52Z</time></trkpt>
<trkpt lat="49.346708" lon="7.708199"><ele>349.2</ele><time>2018-05-01T22:28:53Z</time></trkpt>
<trkpt lat="49.346403" lon="7.708351"><ele>348.4</ele><time>2018-05-01T22:28:55Z</time></trkpt>
<trkpt lat="49.346174" lon="7.708339"><ele>348.4</ele><time>2018-05-01T22:28:57Z</time></trkpt>
<trkpt lat="49.344885" lon="7.707655"><ele>348.8</ele><time>2018-05-01T22:29:06Z</time></trkpt>
<trkpt lat="49.344365" lon="7.707431"><ele>346.4</ele><time>2018-05-01T22:29:09Z</time></trkpt>
<trkpt lat="49.34407" lon="7.707332"><ele>343.8</ele><time>2018-05-01T22:29:11Z</time></trkpt>
<trkpt lat="49.343895" lon="7.707343"><ele>343.8</ele><time>2018-05-01T22:29:12Z</time></trkpt>
<trkpt lat="49.343682" lon="7.707428"><ele>343.8</ele><time>2018-05-01T22:29:14Z</time></trkpt>
<trkpt lat="49.343501" lon="7.707558"><ele>348.2</ele><time>2018-05-01T22:29:15Z</time></trkpt>
<trkpt lat="49.343305" lon="7.707806"><ele>341.8</ele><time>2018-05-01T22:29:17Z</time></trkpt>
<trkpt lat="49.343116" lon="7.708132"><ele>341.8</ele><time>2018-05-01T22:29:18Z</time></trkpt>
<trkpt lat="49.342982" lon="7.708537"><ele>349.2</ele><time>2018-05-01T22:29:20Z</time></trkpt>
<trkpt lat="49.342896" lon="7.708977"><ele>349.2</ele><time>2018-05-01T22:29:22Z</time></trkpt>
<trkpt lat="49.342886" lon="7.709396"><ele>353.4</ele><time>2018-05-01T22:29:24Z</time></trkpt>
<trkpt lat="49.342909" lon="7.710403"><ele>355.4</ele><time>2018-05-01T22:29:28Z</time></trkpt>
<trkpt lat="49.34352" lon="7.718326"><ele>362.0</ele><time>2018-05-01T22:30:01Z</time></trkpt>
<trkpt lat="49.34408" lon="7.725308"><ele>346.6</ele><time>2018-05-01T22:30:31Z</time></trkpt>
<trkpt lat="49.344108" lon="7.725871"><ele>345.6</ele><time>2018-05-01T22:30:33Z</time></trkpt>
<trkpt lat="49.34406" lon="7.726556"><ele>345.6</ele><time>2018-05-01T22:30:36Z</time></trkpt>
<trkpt lat="49.343557" lon="7.728884"><ele>360.6</ele><time>2018-05-01T22:30:46Z</time></trkpt>
<trkpt lat="49.343522" lon="7.729205"><ele>361.6</ele><time>2018-05-01T22:30:48Z</time></trkpt>
<trkpt lat="49.343516" lon="7.729551"><ele>361.6</ele><time>2018-05-01T22:30:49Z</time></trkpt>
<trkpt lat="49.343875" lon="7.731789"><ele>363.6</ele><time>2018-05-01T22:30:59Z</time></trkpt>
<trkpt lat="49.343908" lon="7.732174"><ele>363.6</ele><time>2018-05-01T22:31:00Z</time></trkpt>
<trkpt lat="49.343905" lon="7.732444"><ele>363.6</ele><time>2018-05-01T22:31:01Z</time></trkpt>
<trkpt lat="49.343815" lon="7.732815"><ele>363.0</ele><time>2018-05-01T22:31:03Z</time></trkpt>
<trkpt lat="49.343348" lon="7.733629"><ele>364.2</ele><time>2018-05-01T22:31:08Z</time></trkpt>
<trkpt lat="49.343217" lon="7.733908"><ele>359.0</ele><time>2018-05-01T22:31:09Z</time></trkpt>
<trkpt lat="49.343139" lon="7.734225"><ele>362.6</ele><time>2018-05-01T22:31:10Z</time></trkpt>
<trkpt lat="49.343065" lon="7.734807"><ele>362.6</ele><time>2018-05-01T22:31:13Z</time></trkpt>
<trkpt lat="49.34306" lon="7.735682"><ele>367.2</ele><time>2018-05-01T22:31:17Z</time></trkpt>
<trkpt lat="49.342986" lon="7.737128"><ele>371.2</ele><time>2018-05-01T22:31:23Z</time></trkpt>
<trkpt lat="49.342311" lon="7.740613"><ele>368.8</ele><time>2018-05-01T22:31:38Z</time></trkpt>
<trkpt lat="49.342078" lon="7.741647"><ele>368.0</ele><time>2018-05-01T22:31:42Z</time></trkpt>
<trkpt lat="49.341917" lon="7.742001"><ele>369.0</ele><time>2018-05-01T22:31:44Z</time></trkpt>
<trkpt lat="49.341648" lon="7.742243"><ele>363.2</ele><time>2018-05-01T22:31:46Z</time></trkpt>
<trkpt lat="49.34134" lon="7.742323"><ele>363.2</ele><time>2018-05-01T22:31:48Z</time></trkpt>
<trkpt lat="49.341012" lon="7.742134"><ele>363.2</ele><time>2018-05-01T22:31:50Z</time></trkpt>
<trkpt lat="49.340734" lon="7.741644"><ele>366.4</ele><time>2018-05-01T22:31:53Z</time></trkpt>
<trkpt lat="49.340432" lon="7.740234"><ele>374.6</ele><time>2018-05-01T22:31:59Z</time></trkpt>
<trkpt lat="49.340235" lon="7.73982"><ele>386.2</ele><time>2018-05-01T22:32:02Z</time></trkpt>
<trkpt lat="49.338786" lon="7.737284"><ele>402.8</ele><time>2018-05-01T22:32:16Z</time></trkpt>
<trkpt lat="49.338355" lon="7.736667"><ele>402.8</ele><time>2018-05-01T22:32:19Z</time></trkpt>
<trkpt lat="49.338059" lon="7.736381"><ele>401.4</ele><time>2018-05-01T22:32:22Z</time></trkpt>
<trkpt lat="49.337843" lon="7.736204"><ele>401.4</ele><time>2018-05-01T22:32:23Z</time></trkpt>
<trkpt lat="49.337601" lon="7.736072"><ele>401.4</ele><time>2018-05-01T22:32:25Z</time></trkpt>
<trkpt lat="49.3372" lon="7.735992"><ele>409.0</ele><time>2018-05-01T22:32:28Z</time></trkpt>
<trkpt lat="49.336974" lon="7.736012"><ele>409.0</ele><time>2018-05-01T22:32:29Z</time></trkpt>
<trkpt lat="49.336608" lon="7.736119"><ele>416.8</ele><time>2018-05-01T22:32:31Z</time></trkpt>
<trkpt lat="49.335044" lon="7.736435"><ele>425.2</ele><time>2018-05-01T22:32:42Z</time></trkpt>
<trkpt lat="49.334672" lon="7.736538"><ele>432.8</ele><time>2018-05-01T22:32:44Z</time></trkpt>
<trkpt lat="49.334398" lon="7.736673"><ele>432.4</ele><time>2018-05-01T22:32:46Z</time></trkpt>
<trkpt lat="49.334102" lon="7.736862"><ele>435.6</ele><time>2018-05-01T22:32:48Z</time></trkpt>
<trkpt lat="49.333661" lon="7.737271"><ele>435.6</ele><time>2018-05-01T22:32:51Z</time></trkpt>
<trkpt lat="49.333471" lon="7.737509"><ele>432.6</ele><time>2018-05-01T22:32:53Z</time></trkpt>
<trkpt lat="49.333167" lon="7.738009"><ele>432.4</ele><time>2018-05-01T22:32:56Z</time></trkpt>
<trkpt lat="49.333002" lon="7.738354"><ele>429.6</ele><time>2018-05-01T22:32:57Z</time></trkpt>
<trkpt lat="49.33276" lon="7.739045"><ele>429.6</ele><time>2018-05-01T22:33:01Z</time></trkpt>
<trkpt lat="49.332473" lon="7.73959"><ele>425.0</ele><time>2018-05-01T22:33:04Z</time></trkpt>
<trkpt lat="49.332132" lon="7.740164"><ele>426.0</ele><time>2018-05-01T22:33:07Z</time></trkpt>
<trkpt lat="49.331876" lon="7.740357"><ele>426.0</ele><time>2018-05-01T22:33:09Z</time></trkpt>
<trkpt lat="49.330964" lon="7.740748"><ele>425.2</ele><time>2018-05-01T22:33:15Z</time></trkpt>
<trkpt lat="49.33085" lon="7.740838"><ele>429.4</ele><time>2018-05-01T22:33:16Z</time></trkpt>
<trkpt lat="49.330755" lon="7.740965"><ele>434.4</ele><time>2018-05-01T22:33:16Z</time></trkpt>
<trkpt lat="49.330661" lon="7.741141"><ele>434.4</ele><time>2018-05-01T22:33:17Z</time></trkpt>
<trkpt lat="49.330484" lon="7.741693"><ele>436.8</ele><time>2018-05-01T22:33:20Z</time></trkpt>
<trkpt lat="49.330405" lon="7.741885"><ele>436.8</ele><time>2018-05-01T22:33:21Z</time></trkpt>
<trkpt lat="49.330296" lon="7.7421"><ele>436.8</ele><time>2018-05-01T22:33:22Z</time></trkpt>
<trkpt lat="49.330158" lon="7.742313"><ele>436.8</ele><time>2018-05-01T22:33:23Z</time></trkpt>
<trkpt lat="49.330053" lon="7.742528"><ele>437.4</ele><time>2018-05-01T22:33:24Z</time></trkpt>
<trkpt lat="49.329792" lon="7.743324"><ele>439.4</ele><time>2018-05-01T22:33:28Z</time></trkpt>
<trkpt lat="49.328447" lon="7.746243"><ele>438.0</ele><time>2018-05-01T22:33:43Z</time></trkpt>
<trkpt lat="49.328344" lon="7.746886"><ele>439.0</ele><time>2018-05-01T22:33:46Z</time></trkpt>
<trkpt lat="49.328363" lon="7.74723"><ele>439.0</ele><time>2018-05-01T22:33:48Z</time></trkpt>
<trkpt lat="49.328489" lon="7.747905"><ele>438.6</ele><time>2018-05-01T22:33:50Z</time></trkpt>
<trkpt lat="49.328676" lon="7.748757"><ele>438.0</ele><time>2018-05-01T22:33:54Z</time></trkpt>
<trkpt lat="49.329081" lon="7.749843"><ele>438.2</ele><time>2018-05-01T22:33:59Z</time></trkpt>
<trkpt lat="49.329795" lon="7.752843"><ele>442.0</ele><time>2018-05-01T22:34:12Z</time></trkpt>
<trkpt lat="49.329845" lon="7.753245"><ele>442.0</ele><time>2018-05-01T22:34:14Z</time></trkpt>
<trkpt lat="49.329833" lon="7.753738"><ele>443.0</ele><time>2018-05-01T22:34:16Z</time></trkpt>
<trkpt lat="49.329777" lon="7.753903"><ele>443.0</ele><time>2018-05-01T22:34:17Z</time></trkpt>
<trkpt lat="49.329001" lon="7.755736"><ele>438.2</ele><time>2018-05-01T22:34:26Z</time></trkpt>
<trkpt lat="49.328848" lon="7.755928"><ele>437.0</ele><time>2018-05-01T22:34:27Z</time></trkpt>
<trkpt lat="49.327906" lon="7.756258"><ele>439.0</ele><time>2018-05-01T22:34:33Z</time></trkpt>
<trkpt lat="49.327741" lon="7.756416"><ele>439.0</ele><time>2018-05-01T22:34:34Z</time></trkpt>
<trkpt lat="49.327694" lon="7.756774"><ele>437.8</ele><time>2018-05-01T22:34:35Z</time></trkpt>
<trkpt lat="49.327816" lon="7.757272"><ele>437.8</ele><time>2018-05-01T22:34:38Z</time></trkpt>
<trkpt lat="49.328237" lon="7.758138"><ele>434.0</ele><time>2018-05-01T22:34:42Z</time></trkpt>
<trkpt lat="49.328489" lon="7.758444"><ele>415.8</ele><time>2018-05-01T22:34:44Z</time></trkpt>
<trkpt lat="49.329549" lon="7.759432"><ele>405.8</ele><time>2018-05-01T22:34:52Z</time></trkpt>
<trkpt lat="49.330118" lon="7.760176"><ele>404.8</ele><time>2018-05-01T22:34:57Z</time></trkpt>
<trkpt lat="49.330485" lon="7.761306"><ele>404.0</ele><time>2018-05-01T22:35:02Z</time></trkpt>
<trkpt lat="49.331093" lon="7.762535"><ele>398.6</ele><time>2018-05-01T22:35:08Z</time></trkpt>
<trkpt lat="49.331502" lon="7.76368"><ele>391.6</ele><time>2018-05-01T22:35:14Z</time></trkpt>
<trkpt lat="49.331714" lon="7.764381"><ele>397.0</ele><time>2018-05-01T22:35:17Z</time></trkpt>
<trkpt lat="49.332106" lon="7.765949"><ele>373.8</ele><time>2018-05-01T22:35:24Z</time></trkpt>
<trkpt lat="49.332206" lon="7.766149"><ele>373.8</ele><time>2018-05-01T22:35:25Z</time></trkpt>
<trkpt lat="49.33228" lon="7.766239"><ele>373.8</ele><time>2018-05-01T22:35:25Z</time></trkpt>
<trkpt lat="49.332398" lon="7.766313"><ele>373.8</ele><time>2018-05-01T22:35:26Z</time></trkpt>
<trkpt lat="49.334053" lon="7.76711"><ele>372.8</ele><time>2018-05-01T22:35:37Z</time></trkpt>
<trkpt lat="49.335139" lon="7.767336"><ele>370.0</ele><time>2018-05-01T22:35:44Z</time></trkpt>
<trkpt lat="49.336004" lon="7.767379"><ele>371.8</ele><time>2018-05-01T22:35:49Z</time></trkpt>
<trkpt lat="49.336262" lon="7.767442"><ele>371.8</ele><time>2018-05-01T22:35:51Z</time></trkpt>
<trkpt lat="49.336447" lon="7.767561"><ele>361.2</ele><time>2018-05-01T22:35:52Z</time></trkpt>
<trkpt lat="49.336643" lon="7.767789"><ele>361.2</ele><time>2018-05-01T22:35:54Z</time></trkpt>
<trkpt lat="49.337062" lon="7.768648"><ele>350.6</ele><time>2018-05-01T22:35:58Z</time></trkpt>
<trkpt lat="49.337434" lon="7.769013"><ele>350.6</ele><time>2018-05-01T22:36:01Z</time></trkpt>
<trkpt lat="49.336928" lon="7.770304"><ele>346.2</ele><time>2018-05-01T22:36:07Z</time></trkpt>
<trkpt lat="49.336575" lon="7.771425"><ele>353.4</ele><time>2018-05-01T22:36:11Z</time></trkpt>
<trkpt lat="49.336279" lon="7.772502"><ele>356.8</ele><time>2018-05-01T22:36:15Z</time></trkpt>
<trkpt lat="49.336249" lon="7.772749"><ele>356.8</ele><time>2018-05-01T22:36:16Z</time></trkpt>
<trkpt lat="49.336169" lon="7.774933"><ele>358.8</ele><time>2018-05-01T22:36:24Z</time></trkpt>
<trkpt lat="49.336142" lon="7.775338"><ele>357.4</ele><time>2018-05-01T22:36:26Z</time></trkpt>
<trkpt lat="49.336038" lon="7.775641"><ele>357.4</ele><time>2018-05-01T22:36:27Z</time></trkpt>
<trkpt lat="49.335913" lon="7.775877"><ele>354.8</ele><time>2018-05-01T22:36:28Z</time></trkpt>
<trkpt lat="49.335797" lon="7.776011"><ele>364.6</ele><time>2018-05-01T22:36:29Z</time></trkpt>
<trkpt lat="49.335163" lon="7.776424"><ele>364.6</ele><time>2018-05-01T22:36:33Z</time></trkpt>
<trkpt lat="49.335026" lon="7.776619"><ele>364.6</ele><time>2018-05-01T22:36:34Z</time></trkpt>
<trkpt lat="49.33497" lon="7.776845"><ele>370.0</ele><time>2018-05-01T22:36:35Z</time></trkpt>
<trkpt lat="49.334987" lon="7.777124"><ele>370.0</ele><time>2018-05-01T22:36:36Z</time></trkpt>
<trkpt lat="49.335225" lon="7.779173"><ele>359.0</ele><time>2018-05-01T22:36:43Z</time></trkpt>
<trkpt lat="49.335209" lon="7.779434"><ele>359.0</ele><time>2018-05-01T22:36:44Z</time></trkpt>
<trkpt lat="49.335071" lon="7.780704"><ele>361.0</ele><time>2018-05-01T22:36:49Z</time></trkpt>
<trkpt lat="49.335066" lon="7.781042"><ele>362.4</ele><time>2018-05-01T22:36:50Z</time></trkpt>
<trkpt lat="49.335097" lon="7.781322"><ele>362.4</ele><time>2018-05-01T22:36:51Z</time></trkpt>
<trkpt lat="49.335271" lon="7.782257"><ele>362.0</ele><time>2018-05-01T22:36:55Z</time></trkpt>
<trkpt lat="49.335293" lon="7.782538"><ele>361.6</ele><time>2018-05-01T22:36:56Z</time></trkpt>
<trkpt lat="49.335161" lon="7.783557"><ele>357.6</ele><time>2018-05-01T22:36:59Z</time></trkpt>
<trkpt lat="49.335049" lon="7.784209"><ele>353.2</ele><time>2018-05-01T22:37:02Z</time></trkpt>
<trkpt lat="49.334961" lon="7.784501"><ele>368.2</ele><time>2018-05-01T22:37:03Z</time></trkpt>
<trkpt lat="49.334879" lon="7.784695"><ele>368.2</ele><time>2018-05-01T22:37:04Z</time></trkpt>
<trkpt lat="49.334679" lon="7.785043"><ele>362.8</ele><time>2018-05-01T22:37:06Z</time></trkpt>
<trkpt lat="49.334607" lon="7.7853"><ele>362.8</ele><time>2018-05-01T22:37:07Z</time></trkpt>
<trkpt lat="49.334539" lon="7.785686"><ele>362.8</ele><time>2018-05-01T22:37:08Z</time></trkpt>
<trkpt lat="49.334219" lon="7.786622"><ele>360.6</ele><time>2018-05-01T22:37:12Z</time></trkpt>
<trkpt lat="49.334089" lon="7.787134"><ele>371.8</ele><time>2018-05-01T22:37:14Z</time></trkpt>
<trkpt lat="49.334053" lon="7.787422"><ele>371.8</ele><time>2018-05-01T22:37:15Z</time></trkpt>
<trkpt lat="49.334082" lon="7.787678"><ele>369.4</ele><time>2018-05-01T22:37:16Z</time></trkpt>
<trkpt lat="49.33417" lon="7.788022"><ele>356.8</ele><time>2018-05-01T22:37:18Z</time></trkpt>
<trkpt lat="49.334468" lon="7.788913"><ele>356.2</ele><time>2018-05-01T22:37:21Z</time></trkpt>
<trkpt lat="49.334594" lon="7.789369"><ele>357.8</ele><time>2018-05-01T22:37:23Z</time></trkpt>
<trkpt lat="49.334836" lon="7.790568"><ele>363.4</ele><time>2018-05-01T22:37:28Z</time></trkpt>
<trkpt lat="49.334899" lon="7.790966"><ele>369.0</ele><time>2018-05-01T22:37:29Z</time></trkpt>
<trkpt lat="49.334882" lon="7.791487"><ele>369.0</ele><time>2018-05-01T22:37:31Z</time></trkpt>
<trkpt lat="49.334788" lon="7.79254"><ele>367.4</ele><time>2018-05-01T22:37:35Z</time></trkpt>
<trkpt lat="49.334718" lon="7.79281"><ele>367.4</ele><time>2018-05-01T22:37:36Z</time></trkpt>
<trkpt lat="49.334677" lon="7.792876"><ele>367.4</ele><time>2018-05-01T22:37:36Z</time></trkpt>
<trkpt lat="49.33462" lon="7.792916"><ele>367.4</ele><time>2018-05-01T22:37:37Z</time></trkpt>
<trkpt lat="49.334428" lon="7.792984"><ele>367.4</ele><time>2018-05-01T22:37:38Z</time></trkpt>
<trkpt lat="49.33392" lon="7.792888"><ele>380.8</ele><time>2018-05-01T22:37:41Z</time></trkpt>
<trkpt lat="49.333815" lon="7.792889"><ele>380.8</ele><time>2018-05-01T22:37:41Z</time></trkpt>
<trkpt lat="49.33371" lon="7.792979"><ele>380.8</ele><time>2018-05-01T22:37:42Z</time></trkpt>
<trkpt lat="49.333649" lon="7.793102"><ele>380.8</ele><time>2018-05-01T22:37:42Z</time></trkpt>
<trkpt lat="49.333636" lon="7.793283"><ele>380.8</ele><time>2018-05-01T22:37:43Z</time></trkpt>
<trkpt lat="49.333696" lon="7.79351"><ele>373.8</ele><time>2018-05-01T22:37:44Z</time></trkpt>
<trkpt lat="49.334222" lon="7.794698"><ele>359.4</ele><time>2018-05-01T22:37:49Z</time></trkpt>
<trkpt lat="49.33438" lon="7.795554"><ele>360.8</ele><time>2018-05-01T22:37:53Z</time></trkpt>
<trkpt lat="49.334372" lon="7.795862"><ele>365.8</ele><time>2018-05-01T22:37:54Z</time></trkpt>
<trkpt lat="49.333929" lon="7.800138"><ele>372.4</ele><time>2018-05-01T22:38:09Z</time></trkpt>
<trkpt lat="49.333834" lon="7.800632"><ele>372.4</ele><time>2018-05-01T22:38:11Z</time></trkpt>
<trkpt lat="49.333755" lon="7.800893"><ele>373.4</ele><time>2018-05-01T22:38:12Z</time></trkpt>
<trkpt lat="49.332913" lon="7.803208"><ele>377.4</ele><time>2018-05-01T22:38:22Z</time></trkpt>
<trkpt lat="49.332849" lon="7.803518"><ele>379.6</ele><time>2018-05-01T22:38:23Z</time></trkpt>
<trkpt lat="49.332905" lon="7.805105"><ele>384.6</ele><time>2018-05-01T22:38:29Z</time></trkpt>
<trkpt lat="49.332887" lon="7.80537"><ele>384.6</ele><time>2018-05-01T22:38:30Z</time></trkpt>
<trkpt lat="49.332671" lon="7.806685"><ele>393.2</ele><time>2018-05-01T22:38:35Z</time></trkpt>
<trkpt lat="49.332594" lon="7.806913"><ele>393.2</ele><time>2018-05-01T22:38:36Z</time></trkpt>
<trkpt lat="49.332036" lon="7.807506"><ele>398.8</ele><time>2018-05-01T22:38:39Z</time></trkpt>
<trkpt lat="49.331936" lon="7.807687"><ele>398.8</ele><time>2018-05-01T22:38:40Z</time></trkpt>
<trkpt lat="49.33187" lon="7.807876"><ele>398.8</ele><time>2018-05-01T22:38:41Z</time></trkpt>
<trkpt lat="49.331837" lon="7.808324"><ele>398.8</ele><time>2018-05-01T22:38:43Z</time></trkpt>
<trkpt lat="49.331851" lon="7.808785"><ele>399.6</ele><time>2018-05-01T22:38:44Z</time></trkpt>
<trkpt lat="49.332146" lon="7.8096"><ele>404.8</ele><time>2018-05-01T22:38:48Z</time></trkpt>
<trkpt lat="49.332277" lon="7.810221"><ele>413.0</ele><time>2018-05-01T22:38:50Z</time></trkpt>
<trkpt lat="49.33233" lon="7.81066"><ele>413.0</ele><time>2018-05-01T22:38:52Z</time></trkpt>
<trkpt lat="49.332396" lon="7.812981"><ele>423.8</ele><time>2018-05-01T22:39:00Z</time></trkpt>
<trkpt lat="49.33244" lon="7.813413"><ele>428.8</ele><time>2018-05-01T22:39:02Z</time></trkpt>
<trkpt lat="49.332511" lon="7.813777"><ele>409.8</ele><time>2018-05-01T22:39:04Z</time></trkpt>
<trkpt lat="49.333237" lon="7.816528"><ele>429.6</ele><time>2018-05-01T22:39:14Z</time></trkpt>
<trkpt lat="49.3333" lon="7.81687"><ele>436.4</ele><time>2018-05-01T22:39:16Z</time></trkpt>
<trkpt lat="49.333351" lon="7.817479"><ele>423.4</ele><time>2018-05-01T22:39:18Z</time></trkpt>
<trkpt lat="49.333391" lon="7.817765"><ele>430.6</ele><time>2018-05-01T22:39:19Z</time></trkpt>
<trkpt lat="49.333452" lon="7.818003"><ele>430.6</ele><time>2018-05-01T22:39:20Z</time></trkpt>
<trkpt lat="49.333563" lon="7.818235"><ele>430.6</ele><time>2018-05-01T22:39:21Z</time></trkpt>
<trkpt lat="49.33377" lon="7.818585"><ele>439.8</ele><time>2018-05-01T22:39:23Z</time></trkpt>
<trkpt lat="49.334456" lon="7.820181"><ele>451.6</ele><time>2018-05-01T22:39:30Z</time></trkpt>
<trkpt lat="49.334788" lon="7.820673"><ele>451.6</ele><time>2018-05-01T22:39:32Z</time></trkpt>
<trkpt lat="49.335388" lon="7.821142"><ele>458.8</ele><time>2018-05-01T22:39:36Z</time></trkpt>
<trkpt lat="49.335488" lon="7.821254"><ele>458.8</ele><time>2018-05-01T22:39:37Z</time></trkpt>
<trkpt lat="49.33556" lon="7.82139"><ele>458.8</ele><time>2018-05-01T22:39:37Z</time></trkpt>
<trkpt lat="49.335596" lon="7.821613"><ele>458.8</ele><time>2018-05-01T22:39:38Z</time></trkpt>
<trkpt lat="49.33559" lon="7.821796"><ele>463.6</ele><time>2018-05-01T22:39:39Z</time></trkpt>
<trkpt lat="49.33554" lon="7.822209"><ele>463.6</ele><time>2018-05-01T22:39:41Z</time></trkpt>
<trkpt lat="49.335468" lon="7.822475"><ele>463.6</ele><time>2018-05-01T22:39:42Z</time></trkpt>
<trkpt lat="49.335241" lon="7.822942"><ele>468.8</ele><time>2018-05-01T22:39:44Z</time></trkpt>
<trkpt lat="49.335288" lon="7.823115"><ele>468.8</ele><time>2018-05-01T22:39:45Z</time></trkpt>
<trkpt lat="49.335465" lon="7.823378"><ele>471.6</ele><time>2018-05-01T22:39:46Z</time></trkpt>
<trkpt lat="49.336001" lon="7.823852"><ele>470.8</ele><time>2018-05-01T22:39:53Z</time></trkpt>
<trkpt lat="49.336361" lon="7.824353"><ele>468.4</ele><time>2018-05-01T22:39:58Z</time></trkpt>
<trkpt lat="49.336773" lon="7.825044"><ele>466.0</ele><time>2018-05-01T22:40:05Z</time></trkpt>
<trkpt lat="49.336847" lon="7.825265"><ele>466.0</ele><time>2018-05-01T22:40:07Z</time></trkpt>
<trkpt lat="49.336903" lon="7.825505"><ele>466.0</ele><time>2018-05-01T22:40:09Z</time></trkpt>
<trkpt lat="49.337278" lon="7.825249"><ele>466.0</ele><time>2018-05-01T22:40:14Z</time></trkpt>
<trkpt lat="49.337814" lon="7.824714"><ele>467.8</ele><time>2018-05-01T22:40:21Z</time></trkpt>
<trkpt lat="49.338089" lon="7.82448"><ele>467.8</ele><time>2018-05-01T22:40:25Z</time></trkpt>
<trkpt lat="49.33801" lon="7.82438"><ele>467.8</ele><time>2018-05-01T22:40:28Z</time></trkpt>
</trkseg>
</trk>
</gpx>